<?xml version="1.0" encoding="UTF-8" standalone="no" ?>
<gpx xmlns="http://www.topografix.com/GPX/1/1" xmlns:xsi="http://www.w3.org/2001/XMLSchema-instance" xsi:schemaLocation="http://www.topografix.com/GPX/1/1 http://www.topografix.com/GPX/1/1/gpx.xsd" version="1.1" creator="VisuGPX - https://www.visugpx.com">
  <metadata>
    <name>Trail du Charmant Som - 3 Jours de Chartreuse</name>
    <desc><![CDATA[[b]Trail du Charmant Som - 3 Jours de Chartreuse[/b]
Samedi 4 juin 2011]]></desc>
  </metadata>
  <trk>
    <name><![CDATA[Trail du Charmant Som - 3 Jours de Chartreuse_1]]></name>
    <trkseg>
      <trkpt lat="45.28916" lon="5.76767">
        <ele>1326.7568359</ele>
        <time>2011-06-04T07:58:33Z</time>
      </trkpt>
      <trkpt lat="45.28921" lon="5.76766">
        <ele>1325.7954102</ele>
        <time>2011-06-04T07:58:40Z</time>
      </trkpt>
      <trkpt lat="45.28932" lon="5.76761">
        <ele>1326.7568359</ele>
        <time>2011-06-04T07:58:45Z</time>
      </trkpt>
      <trkpt lat="45.28936" lon="5.76759">
        <ele>1327.2375488</ele>
        <time>2011-06-04T07:58:47Z</time>
      </trkpt>
      <trkpt lat="45.28949" lon="5.76752">
        <ele>1331.0827637</ele>
        <time>2011-06-04T07:58:52Z</time>
      </trkpt>
      <trkpt lat="45.28958" lon="5.76742">
        <ele>1333.005127</ele>
        <time>2011-06-04T07:58:56Z</time>
      </trkpt>
      <trkpt lat="45.28969" lon="5.7673">
        <ele>1333.005127</ele>
        <time>2011-06-04T07:59:01Z</time>
      </trkpt>
      <trkpt lat="45.28982" lon="5.76715">
        <ele>1333.4858398</ele>
        <time>2011-06-04T07:59:07Z</time>
      </trkpt>
      <trkpt lat="45.28996" lon="5.76702">
        <ele>1333.9665527</ele>
        <time>2011-06-04T07:59:12Z</time>
      </trkpt>
      <trkpt lat="45.29011" lon="5.76692">
        <ele>1334.4472656</ele>
        <time>2011-06-04T07:59:17Z</time>
      </trkpt>
      <trkpt lat="45.29027" lon="5.76682">
        <ele>1334.9279785</ele>
        <time>2011-06-04T07:59:22Z</time>
      </trkpt>
      <trkpt lat="45.29046" lon="5.76671">
        <ele>1336.369873</ele>
        <time>2011-06-04T07:59:29Z</time>
      </trkpt>
      <trkpt lat="45.29057" lon="5.76667">
        <ele>1338.2924805</ele>
        <time>2011-06-04T07:59:34Z</time>
      </trkpt>
      <trkpt lat="45.29071" lon="5.76662">
        <ele>1340.215332</ele>
        <time>2011-06-04T07:59:40Z</time>
      </trkpt>
      <trkpt lat="45.29087" lon="5.76658">
        <ele>1340.6958008</ele>
        <time>2011-06-04T07:59:46Z</time>
      </trkpt>
      <trkpt lat="45.29104" lon="5.76654">
        <ele>1339.2536621</ele>
        <time>2011-06-04T07:59:52Z</time>
      </trkpt>
      <trkpt lat="45.29118" lon="5.76651">
        <ele>1338.7731934</ele>
        <time>2011-06-04T07:59:57Z</time>
      </trkpt>
      <trkpt lat="45.29131" lon="5.76648">
        <ele>1340.215332</ele>
        <time>2011-06-04T08:00:02Z</time>
      </trkpt>
      <trkpt lat="45.29147" lon="5.76642">
        <ele>1342.1379395</ele>
        <time>2011-06-04T08:00:07Z</time>
      </trkpt>
      <trkpt lat="45.29161" lon="5.76639">
        <ele>1341.6572266</ele>
        <time>2011-06-04T08:00:12Z</time>
      </trkpt>
      <trkpt lat="45.2918" lon="5.76635">
        <ele>1340.6958008</ele>
        <time>2011-06-04T08:00:18Z</time>
      </trkpt>
      <trkpt lat="45.29196" lon="5.76634">
        <ele>1339.2536621</ele>
        <time>2011-06-04T08:00:23Z</time>
      </trkpt>
      <trkpt lat="45.29211" lon="5.76633">
        <ele>1338.2924805</ele>
        <time>2011-06-04T08:00:28Z</time>
      </trkpt>
      <trkpt lat="45.2923" lon="5.76634">
        <ele>1337.8117676</ele>
        <time>2011-06-04T08:00:34Z</time>
      </trkpt>
      <trkpt lat="45.29248" lon="5.76636">
        <ele>1335.4084473</ele>
        <time>2011-06-04T08:00:40Z</time>
      </trkpt>
      <trkpt lat="45.2927" lon="5.76637">
        <ele>1336.369873</ele>
        <time>2011-06-04T08:00:47Z</time>
      </trkpt>
      <trkpt lat="45.29285" lon="5.76635">
        <ele>1337.3310547</ele>
        <time>2011-06-04T08:00:52Z</time>
      </trkpt>
      <trkpt lat="45.29303" lon="5.7663">
        <ele>1342.1379395</ele>
        <time>2011-06-04T08:00:58Z</time>
      </trkpt>
      <trkpt lat="45.29314" lon="5.76626">
        <ele>1344.5410156</ele>
        <time>2011-06-04T08:01:02Z</time>
      </trkpt>
      <trkpt lat="45.29327" lon="5.7662">
        <ele>1346.4638672</ele>
        <time>2011-06-04T08:01:07Z</time>
      </trkpt>
      <trkpt lat="45.29339" lon="5.76615">
        <ele>1348.8669434</ele>
        <time>2011-06-04T08:01:12Z</time>
      </trkpt>
      <trkpt lat="45.29349" lon="5.76608">
        <ele>1350.7895508</ele>
        <time>2011-06-04T08:01:16Z</time>
      </trkpt>
      <trkpt lat="45.2936" lon="5.76602">
        <ele>1352.7121582</ele>
        <time>2011-06-04T08:01:20Z</time>
      </trkpt>
      <trkpt lat="45.29371" lon="5.76598">
        <ele>1354.1542969</ele>
        <time>2011-06-04T08:01:24Z</time>
      </trkpt>
      <trkpt lat="45.29385" lon="5.76592">
        <ele>1354.6347656</ele>
        <time>2011-06-04T08:01:29Z</time>
      </trkpt>
      <trkpt lat="45.29399" lon="5.76583">
        <ele>1355.5961914</ele>
        <time>2011-06-04T08:01:34Z</time>
      </trkpt>
      <trkpt lat="45.29412" lon="5.76573">
        <ele>1356.0769043</ele>
        <time>2011-06-04T08:01:39Z</time>
      </trkpt>
      <trkpt lat="45.29423" lon="5.76557">
        <ele>1351.7509766</ele>
        <time>2011-06-04T08:01:44Z</time>
      </trkpt>
      <trkpt lat="45.29433" lon="5.76538">
        <ele>1350.309082</ele>
        <time>2011-06-04T08:01:49Z</time>
      </trkpt>
      <trkpt lat="45.29443" lon="5.76521">
        <ele>1345.5024414</ele>
        <time>2011-06-04T08:01:54Z</time>
      </trkpt>
      <trkpt lat="45.29454" lon="5.76505">
        <ele>1343.0991211</ele>
        <time>2011-06-04T08:01:59Z</time>
      </trkpt>
      <trkpt lat="45.29463" lon="5.7649">
        <ele>1343.579834</ele>
        <time>2011-06-04T08:02:03Z</time>
      </trkpt>
      <trkpt lat="45.29467" lon="5.76483">
        <ele>1343.0991211</ele>
        <time>2011-06-04T08:02:05Z</time>
      </trkpt>
      <trkpt lat="45.29467" lon="5.76451">
        <ele>1342.6186523</ele>
        <time>2011-06-04T08:02:11Z</time>
      </trkpt>
      <trkpt lat="45.29459" lon="5.76423">
        <ele>1339.2536621</ele>
        <time>2011-06-04T08:02:17Z</time>
      </trkpt>
      <trkpt lat="45.29451" lon="5.76405">
        <ele>1336.8503418</ele>
        <time>2011-06-04T08:02:22Z</time>
      </trkpt>
      <trkpt lat="45.29444" lon="5.76391">
        <ele>1336.369873</ele>
        <time>2011-06-04T08:02:26Z</time>
      </trkpt>
      <trkpt lat="45.29438" lon="5.76377">
        <ele>1335.4084473</ele>
        <time>2011-06-04T08:02:30Z</time>
      </trkpt>
      <trkpt lat="45.29436" lon="5.76368">
        <ele>1335.4084473</ele>
        <time>2011-06-04T08:02:32Z</time>
      </trkpt>
      <trkpt lat="45.29434" lon="5.76347">
        <ele>1335.4084473</ele>
        <time>2011-06-04T08:02:37Z</time>
      </trkpt>
      <trkpt lat="45.29432" lon="5.76329">
        <ele>1334.9279785</ele>
        <time>2011-06-04T08:02:41Z</time>
      </trkpt>
      <trkpt lat="45.29431" lon="5.76309">
        <ele>1335.8891602</ele>
        <time>2011-06-04T08:02:46Z</time>
      </trkpt>
      <trkpt lat="45.29431" lon="5.76291">
        <ele>1335.8891602</ele>
        <time>2011-06-04T08:02:52Z</time>
      </trkpt>
      <trkpt lat="45.29432" lon="5.7628">
        <ele>1336.369873</ele>
        <time>2011-06-04T08:02:55Z</time>
      </trkpt>
      <trkpt lat="45.29434" lon="5.76268">
        <ele>1334.9279785</ele>
        <time>2011-06-04T08:02:59Z</time>
      </trkpt>
      <trkpt lat="45.29439" lon="5.76259">
        <ele>1334.4472656</ele>
        <time>2011-06-04T08:03:03Z</time>
      </trkpt>
      <trkpt lat="45.29446" lon="5.76249">
        <ele>1335.4084473</ele>
        <time>2011-06-04T08:03:08Z</time>
      </trkpt>
      <trkpt lat="45.29451" lon="5.76236">
        <ele>1335.4084473</ele>
        <time>2011-06-04T08:03:13Z</time>
      </trkpt>
      <trkpt lat="45.29453" lon="5.76232">
        <ele>1335.4084473</ele>
        <time>2011-06-04T08:03:15Z</time>
      </trkpt>
      <trkpt lat="45.29459" lon="5.76215">
        <ele>1336.8503418</ele>
        <time>2011-06-04T08:03:21Z</time>
      </trkpt>
      <trkpt lat="45.29463" lon="5.762">
        <ele>1337.3310547</ele>
        <time>2011-06-04T08:03:26Z</time>
      </trkpt>
      <trkpt lat="45.29463" lon="5.76186">
        <ele>1337.3310547</ele>
        <time>2011-06-04T08:03:30Z</time>
      </trkpt>
      <trkpt lat="45.29466" lon="5.76168">
        <ele>1337.8117676</ele>
        <time>2011-06-04T08:03:35Z</time>
      </trkpt>
      <trkpt lat="45.29467" lon="5.76147">
        <ele>1340.215332</ele>
        <time>2011-06-04T08:03:41Z</time>
      </trkpt>
      <trkpt lat="45.29468" lon="5.76144">
        <ele>1340.6958008</ele>
        <time>2011-06-04T08:03:42Z</time>
      </trkpt>
      <trkpt lat="45.29468" lon="5.7613">
        <ele>1342.6186523</ele>
        <time>2011-06-04T08:03:46Z</time>
      </trkpt>
      <trkpt lat="45.2947" lon="5.7611">
        <ele>1347.9057617</ele>
        <time>2011-06-04T08:03:51Z</time>
      </trkpt>
      <trkpt lat="45.29473" lon="5.76092">
        <ele>1351.7509766</ele>
        <time>2011-06-04T08:03:56Z</time>
      </trkpt>
      <trkpt lat="45.29474" lon="5.76079">
        <ele>1354.1542969</ele>
        <time>2011-06-04T08:04:00Z</time>
      </trkpt>
      <trkpt lat="45.29478" lon="5.76063">
        <ele>1357.519043</ele>
        <time>2011-06-04T08:04:04Z</time>
      </trkpt>
      <trkpt lat="45.29479" lon="5.76054">
        <ele>1357.519043</ele>
        <time>2011-06-04T08:04:06Z</time>
      </trkpt>
      <trkpt lat="45.29486" lon="5.7603">
        <ele>1356.5576172</ele>
        <time>2011-06-04T08:04:13Z</time>
      </trkpt>
      <trkpt lat="45.29491" lon="5.76019">
        <ele>1354.6347656</ele>
        <time>2011-06-04T08:04:17Z</time>
      </trkpt>
      <trkpt lat="45.29495" lon="5.76002">
        <ele>1353.673584</ele>
        <time>2011-06-04T08:04:23Z</time>
      </trkpt>
      <trkpt lat="45.29499" lon="5.7599">
        <ele>1351.2702637</ele>
        <time>2011-06-04T08:04:27Z</time>
      </trkpt>
      <trkpt lat="45.29504" lon="5.75974">
        <ele>1351.7509766</ele>
        <time>2011-06-04T08:04:32Z</time>
      </trkpt>
      <trkpt lat="45.29506" lon="5.75962">
        <ele>1352.7121582</ele>
        <time>2011-06-04T08:04:36Z</time>
      </trkpt>
      <trkpt lat="45.29507" lon="5.75957">
        <ele>1354.1542969</ele>
        <time>2011-06-04T08:04:38Z</time>
      </trkpt>
      <trkpt lat="45.29511" lon="5.75939">
        <ele>1352.7121582</ele>
        <time>2011-06-04T08:04:45Z</time>
      </trkpt>
      <trkpt lat="45.29511" lon="5.75936">
        <ele>1352.7121582</ele>
        <time>2011-06-04T08:04:46Z</time>
      </trkpt>
      <trkpt lat="45.29515" lon="5.75927">
        <ele>1352.2314453</ele>
        <time>2011-06-04T08:04:49Z</time>
      </trkpt>
      <trkpt lat="45.29523" lon="5.75914">
        <ele>1353.1928711</ele>
        <time>2011-06-04T08:04:55Z</time>
      </trkpt>
      <trkpt lat="45.29534" lon="5.75905">
        <ele>1352.7121582</ele>
        <time>2011-06-04T08:05:01Z</time>
      </trkpt>
      <trkpt lat="45.29544" lon="5.75897">
        <ele>1354.6347656</ele>
        <time>2011-06-04T08:05:06Z</time>
      </trkpt>
      <trkpt lat="45.29554" lon="5.75887">
        <ele>1357.9997559</ele>
        <time>2011-06-04T08:05:11Z</time>
      </trkpt>
      <trkpt lat="45.29565" lon="5.75876">
        <ele>1356.5576172</ele>
        <time>2011-06-04T08:05:17Z</time>
      </trkpt>
      <trkpt lat="45.29573" lon="5.7586">
        <ele>1354.6347656</ele>
        <time>2011-06-04T08:05:22Z</time>
      </trkpt>
      <trkpt lat="45.2958" lon="5.7584">
        <ele>1353.1928711</ele>
        <time>2011-06-04T08:05:28Z</time>
      </trkpt>
      <trkpt lat="45.29581" lon="5.7582">
        <ele>1354.1542969</ele>
        <time>2011-06-04T08:05:34Z</time>
      </trkpt>
      <trkpt lat="45.29576" lon="5.75805">
        <ele>1350.309082</ele>
        <time>2011-06-04T08:05:39Z</time>
      </trkpt>
      <trkpt lat="45.2957" lon="5.75787">
        <ele>1351.7509766</ele>
        <time>2011-06-04T08:05:44Z</time>
      </trkpt>
      <trkpt lat="45.29565" lon="5.75774">
        <ele>1352.7121582</ele>
        <time>2011-06-04T08:05:48Z</time>
      </trkpt>
      <trkpt lat="45.2956" lon="5.75762">
        <ele>1349.3476563</ele>
        <time>2011-06-04T08:05:52Z</time>
      </trkpt>
      <trkpt lat="45.29551" lon="5.75747">
        <ele>1345.0217285</ele>
        <time>2011-06-04T08:05:57Z</time>
      </trkpt>
      <trkpt lat="45.2955" lon="5.75745">
        <ele>1344.0605469</ele>
        <time>2011-06-04T08:05:58Z</time>
      </trkpt>
      <trkpt lat="45.29546" lon="5.7574">
        <ele>1343.579834</ele>
        <time>2011-06-04T08:06:00Z</time>
      </trkpt>
      <trkpt lat="45.29539" lon="5.75722">
        <ele>1348.8669434</ele>
        <time>2011-06-04T08:06:06Z</time>
      </trkpt>
      <trkpt lat="45.29534" lon="5.7571">
        <ele>1352.2314453</ele>
        <time>2011-06-04T08:06:09Z</time>
      </trkpt>
      <trkpt lat="45.29525" lon="5.75688">
        <ele>1356.5576172</ele>
        <time>2011-06-04T08:06:15Z</time>
      </trkpt>
      <trkpt lat="45.29518" lon="5.75676">
        <ele>1358.9609375</ele>
        <time>2011-06-04T08:06:19Z</time>
      </trkpt>
      <trkpt lat="45.29509" lon="5.75658">
        <ele>1360.8835449</ele>
        <time>2011-06-04T08:06:24Z</time>
      </trkpt>
      <trkpt lat="45.29501" lon="5.75642">
        <ele>1362.8061523</ele>
        <time>2011-06-04T08:06:29Z</time>
      </trkpt>
      <trkpt lat="45.29494" lon="5.75629">
        <ele>1361.3642578</ele>
        <time>2011-06-04T08:06:34Z</time>
      </trkpt>
      <trkpt lat="45.29485" lon="5.75616">
        <ele>1363.767334</ele>
        <time>2011-06-04T08:06:39Z</time>
      </trkpt>
      <trkpt lat="45.29477" lon="5.756">
        <ele>1368.5739746</ele>
        <time>2011-06-04T08:06:45Z</time>
      </trkpt>
      <trkpt lat="45.29475" lon="5.75596">
        <ele>1367.1320801</ele>
        <time>2011-06-04T08:06:47Z</time>
      </trkpt>
      <trkpt lat="45.2947" lon="5.75584">
        <ele>1368.5739746</ele>
        <time>2011-06-04T08:06:52Z</time>
      </trkpt>
      <trkpt lat="45.29469" lon="5.75582">
        <ele>1369.0546875</ele>
        <time>2011-06-04T08:06:54Z</time>
      </trkpt>
      <trkpt lat="45.2946" lon="5.7557">
        <ele>1367.6125488</ele>
        <time>2011-06-04T08:07:01Z</time>
      </trkpt>
      <trkpt lat="45.29457" lon="5.7556">
        <ele>1368.0932617</ele>
        <time>2011-06-04T08:07:05Z</time>
      </trkpt>
      <trkpt lat="45.29452" lon="5.75552">
        <ele>1367.6125488</ele>
        <time>2011-06-04T08:07:10Z</time>
      </trkpt>
      <trkpt lat="45.2945" lon="5.7555">
        <ele>1367.6125488</ele>
        <time>2011-06-04T08:07:11Z</time>
      </trkpt>
      <trkpt lat="45.2944" lon="5.7554">
        <ele>1366.1706543</ele>
        <time>2011-06-04T08:07:18Z</time>
      </trkpt>
      <trkpt lat="45.29439" lon="5.75538">
        <ele>1366.6513672</ele>
        <time>2011-06-04T08:07:19Z</time>
      </trkpt>
      <trkpt lat="45.2943" lon="5.75535">
        <ele>1366.6513672</ele>
        <time>2011-06-04T08:07:24Z</time>
      </trkpt>
      <trkpt lat="45.29423" lon="5.75524">
        <ele>1366.6513672</ele>
        <time>2011-06-04T08:07:30Z</time>
      </trkpt>
      <trkpt lat="45.29416" lon="5.75519">
        <ele>1365.6901855</ele>
        <time>2011-06-04T08:07:35Z</time>
      </trkpt>
      <trkpt lat="45.29411" lon="5.75514">
        <ele>1365.2094727</ele>
        <time>2011-06-04T08:07:39Z</time>
      </trkpt>
      <trkpt lat="45.29402" lon="5.75506">
        <ele>1371.9384766</ele>
        <time>2011-06-04T08:07:45Z</time>
      </trkpt>
      <trkpt lat="45.294" lon="5.75502">
        <ele>1372.4194336</ele>
        <time>2011-06-04T08:07:47Z</time>
      </trkpt>
      <trkpt lat="45.29393" lon="5.75493">
        <ele>1371.9384766</ele>
        <time>2011-06-04T08:07:53Z</time>
      </trkpt>
      <trkpt lat="45.29391" lon="5.7549">
        <ele>1372.4194336</ele>
        <time>2011-06-04T08:07:55Z</time>
      </trkpt>
      <trkpt lat="45.29382" lon="5.75484">
        <ele>1374.342041</ele>
        <time>2011-06-04T08:08:01Z</time>
      </trkpt>
      <trkpt lat="45.29372" lon="5.75477">
        <ele>1378.6679688</ele>
        <time>2011-06-04T08:08:08Z</time>
      </trkpt>
      <trkpt lat="45.29364" lon="5.75468">
        <ele>1382.0324707</ele>
        <time>2011-06-04T08:08:13Z</time>
      </trkpt>
      <trkpt lat="45.29357" lon="5.75458">
        <ele>1382.9936523</ele>
        <time>2011-06-04T08:08:19Z</time>
      </trkpt>
      <trkpt lat="45.2935" lon="5.75449">
        <ele>1382.9936523</ele>
        <time>2011-06-04T08:08:25Z</time>
      </trkpt>
      <trkpt lat="45.29345" lon="5.75444">
        <ele>1383.9550781</ele>
        <time>2011-06-04T08:08:28Z</time>
      </trkpt>
      <trkpt lat="45.29342" lon="5.75442">
        <ele>1383.4743652</ele>
        <time>2011-06-04T08:08:30Z</time>
      </trkpt>
      <trkpt lat="45.29332" lon="5.75437">
        <ele>1386.3583984</ele>
        <time>2011-06-04T08:08:36Z</time>
      </trkpt>
      <trkpt lat="45.29328" lon="5.75434">
        <ele>1386.3583984</ele>
        <time>2011-06-04T08:08:39Z</time>
      </trkpt>
      <trkpt lat="45.29325" lon="5.75427">
        <ele>1384.435791</ele>
        <time>2011-06-04T08:08:44Z</time>
      </trkpt>
      <trkpt lat="45.29321" lon="5.75424">
        <ele>1384.9165039</ele>
        <time>2011-06-04T08:08:47Z</time>
      </trkpt>
      <trkpt lat="45.29315" lon="5.75422">
        <ele>1386.8388672</ele>
        <time>2011-06-04T08:08:52Z</time>
      </trkpt>
      <trkpt lat="45.2931" lon="5.75419">
        <ele>1387.3195801</ele>
        <time>2011-06-04T08:08:56Z</time>
      </trkpt>
      <trkpt lat="45.29301" lon="5.7541">
        <ele>1388.28125</ele>
        <time>2011-06-04T08:09:03Z</time>
      </trkpt>
      <trkpt lat="45.29296" lon="5.75406">
        <ele>1389.2424316</ele>
        <time>2011-06-04T08:09:06Z</time>
      </trkpt>
      <trkpt lat="45.29289" lon="5.75398">
        <ele>1390.6843262</ele>
        <time>2011-06-04T08:09:12Z</time>
      </trkpt>
      <trkpt lat="45.29283" lon="5.75394">
        <ele>1391.645752</ele>
        <time>2011-06-04T08:09:16Z</time>
      </trkpt>
      <trkpt lat="45.29279" lon="5.75386">
        <ele>1392.1264648</ele>
        <time>2011-06-04T08:09:20Z</time>
      </trkpt>
      <trkpt lat="45.29271" lon="5.75379">
        <ele>1391.1650391</ele>
        <time>2011-06-04T08:09:26Z</time>
      </trkpt>
      <trkpt lat="45.29265" lon="5.75372">
        <ele>1392.6071777</ele>
        <time>2011-06-04T08:09:30Z</time>
      </trkpt>
      <trkpt lat="45.2926" lon="5.75367">
        <ele>1394.0490723</ele>
        <time>2011-06-04T08:09:34Z</time>
      </trkpt>
      <trkpt lat="45.29252" lon="5.75357">
        <ele>1397.8942871</ele>
        <time>2011-06-04T08:09:41Z</time>
      </trkpt>
      <trkpt lat="45.29247" lon="5.75354">
        <ele>1397.8942871</ele>
        <time>2011-06-04T08:09:46Z</time>
      </trkpt>
      <trkpt lat="45.29241" lon="5.75354">
        <ele>1401.2587891</ele>
        <time>2011-06-04T08:09:50Z</time>
      </trkpt>
      <trkpt lat="45.29236" lon="5.75353">
        <ele>1404.1430664</ele>
        <time>2011-06-04T08:09:54Z</time>
      </trkpt>
      <trkpt lat="45.29234" lon="5.75352">
        <ele>1405.104248</ele>
        <time>2011-06-04T08:09:56Z</time>
      </trkpt>
      <trkpt lat="45.29225" lon="5.75349">
        <ele>1406.0654297</ele>
        <time>2011-06-04T08:10:02Z</time>
      </trkpt>
      <trkpt lat="45.29224" lon="5.7535">
        <ele>1406.5461426</ele>
        <time>2011-06-04T08:10:03Z</time>
      </trkpt>
      <trkpt lat="45.29218" lon="5.75351">
        <ele>1408.46875</ele>
        <time>2011-06-04T08:10:09Z</time>
      </trkpt>
      <trkpt lat="45.29213" lon="5.75351">
        <ele>1407.0268555</ele>
        <time>2011-06-04T08:10:13Z</time>
      </trkpt>
      <trkpt lat="45.2921" lon="5.75351">
        <ele>1407.0268555</ele>
        <time>2011-06-04T08:10:16Z</time>
      </trkpt>
      <trkpt lat="45.29206" lon="5.75349">
        <ele>1407.0268555</ele>
        <time>2011-06-04T08:10:20Z</time>
      </trkpt>
      <trkpt lat="45.29203" lon="5.75349">
        <ele>1407.0268555</ele>
        <time>2011-06-04T08:10:22Z</time>
      </trkpt>
      <trkpt lat="45.29194" lon="5.75351">
        <ele>1411.3527832</ele>
        <time>2011-06-04T08:10:28Z</time>
      </trkpt>
      <trkpt lat="45.2919" lon="5.75351">
        <ele>1414.2365723</ele>
        <time>2011-06-04T08:10:32Z</time>
      </trkpt>
      <trkpt lat="45.29181" lon="5.75348">
        <ele>1417.1206055</ele>
        <time>2011-06-04T08:10:38Z</time>
      </trkpt>
      <trkpt lat="45.29175" lon="5.75346">
        <ele>1420.0046387</ele>
        <time>2011-06-04T08:10:43Z</time>
      </trkpt>
      <trkpt lat="45.29165" lon="5.7534">
        <ele>1421.9272461</ele>
        <time>2011-06-04T08:10:51Z</time>
      </trkpt>
      <trkpt lat="45.29164" lon="5.7534">
        <ele>1422.8886719</ele>
        <time>2011-06-04T08:10:52Z</time>
      </trkpt>
      <trkpt lat="45.29159" lon="5.75336">
        <ele>1428.1757813</ele>
        <time>2011-06-04T08:10:59Z</time>
      </trkpt>
      <trkpt lat="45.29157" lon="5.75332">
        <ele>1429.1369629</ele>
        <time>2011-06-04T08:11:02Z</time>
      </trkpt>
      <trkpt lat="45.29152" lon="5.75322">
        <ele>1428.6564941</ele>
        <time>2011-06-04T08:11:08Z</time>
      </trkpt>
      <trkpt lat="45.2915" lon="5.7531">
        <ele>1428.6564941</ele>
        <time>2011-06-04T08:11:13Z</time>
      </trkpt>
      <trkpt lat="45.29148" lon="5.75297">
        <ele>1430.0983887</ele>
        <time>2011-06-04T08:11:20Z</time>
      </trkpt>
      <trkpt lat="45.29148" lon="5.75294">
        <ele>1431.0598145</ele>
        <time>2011-06-04T08:11:22Z</time>
      </trkpt>
      <trkpt lat="45.29147" lon="5.75286">
        <ele>1431.5402832</ele>
        <time>2011-06-04T08:11:26Z</time>
      </trkpt>
      <trkpt lat="45.29147" lon="5.75269">
        <ele>1432.0209961</ele>
        <time>2011-06-04T08:11:35Z</time>
      </trkpt>
      <trkpt lat="45.29146" lon="5.75265">
        <ele>1430.0983887</ele>
        <time>2011-06-04T08:11:37Z</time>
      </trkpt>
      <trkpt lat="45.29141" lon="5.75259">
        <ele>1430.0983887</ele>
        <time>2011-06-04T08:11:44Z</time>
      </trkpt>
      <trkpt lat="45.29135" lon="5.75259">
        <ele>1432.501709</ele>
        <time>2011-06-04T08:11:48Z</time>
      </trkpt>
      <trkpt lat="45.29127" lon="5.75262">
        <ele>1437.7890625</ele>
        <time>2011-06-04T08:11:54Z</time>
      </trkpt>
      <trkpt lat="45.29126" lon="5.75262">
        <ele>1438.7504883</ele>
        <time>2011-06-04T08:11:55Z</time>
      </trkpt>
      <trkpt lat="45.29122" lon="5.75272">
        <ele>1441.6342773</ele>
        <time>2011-06-04T08:12:01Z</time>
      </trkpt>
      <trkpt lat="45.29121" lon="5.7528">
        <ele>1442.1149902</ele>
        <time>2011-06-04T08:12:05Z</time>
      </trkpt>
      <trkpt lat="45.29119" lon="5.75295">
        <ele>1442.5957031</ele>
        <time>2011-06-04T08:12:12Z</time>
      </trkpt>
      <trkpt lat="45.29118" lon="5.7531">
        <ele>1445.4794922</ele>
        <time>2011-06-04T08:12:19Z</time>
      </trkpt>
      <trkpt lat="45.29117" lon="5.75326">
        <ele>1451.7280273</ele>
        <time>2011-06-04T08:12:27Z</time>
      </trkpt>
      <trkpt lat="45.29116" lon="5.75331">
        <ele>1454.1315918</ele>
        <time>2011-06-04T08:12:30Z</time>
      </trkpt>
      <trkpt lat="45.29117" lon="5.7534">
        <ele>1457.4960938</ele>
        <time>2011-06-04T08:12:36Z</time>
      </trkpt>
      <trkpt lat="45.2912" lon="5.75348">
        <ele>1461.8220215</ele>
        <time>2011-06-04T08:12:44Z</time>
      </trkpt>
      <trkpt lat="45.2912" lon="5.75361">
        <ele>1462.7832031</ele>
        <time>2011-06-04T08:12:50Z</time>
      </trkpt>
      <trkpt lat="45.29123" lon="5.75373">
        <ele>1466.628418</ele>
        <time>2011-06-04T08:12:57Z</time>
      </trkpt>
      <trkpt lat="45.2913" lon="5.75386">
        <ele>1475.7609863</ele>
        <time>2011-06-04T08:13:04Z</time>
      </trkpt>
      <trkpt lat="45.2913" lon="5.75388">
        <ele>1475.7609863</ele>
        <time>2011-06-04T08:13:05Z</time>
      </trkpt>
      <trkpt lat="45.29128" lon="5.75395">
        <ele>1475.2802734</ele>
        <time>2011-06-04T08:13:10Z</time>
      </trkpt>
      <trkpt lat="45.29127" lon="5.75406">
        <ele>1477.203125</ele>
        <time>2011-06-04T08:13:17Z</time>
      </trkpt>
      <trkpt lat="45.29127" lon="5.75407">
        <ele>1477.6835938</ele>
        <time>2011-06-04T08:13:18Z</time>
      </trkpt>
      <trkpt lat="45.29126" lon="5.75413">
        <ele>1475.2802734</ele>
        <time>2011-06-04T08:13:22Z</time>
      </trkpt>
      <trkpt lat="45.29128" lon="5.75419">
        <ele>1475.7609863</ele>
        <time>2011-06-04T08:13:26Z</time>
      </trkpt>
      <trkpt lat="45.29129" lon="5.75429">
        <ele>1479.1254883</ele>
        <time>2011-06-04T08:13:33Z</time>
      </trkpt>
      <trkpt lat="45.29129" lon="5.75435">
        <ele>1480.567627</ele>
        <time>2011-06-04T08:13:37Z</time>
      </trkpt>
      <trkpt lat="45.29129" lon="5.75441">
        <ele>1481.5288086</ele>
        <time>2011-06-04T08:13:42Z</time>
      </trkpt>
      <trkpt lat="45.29131" lon="5.75445">
        <ele>1483.451416</ele>
        <time>2011-06-04T08:13:45Z</time>
      </trkpt>
      <trkpt lat="45.29132" lon="5.75453">
        <ele>1484.8937988</ele>
        <time>2011-06-04T08:13:52Z</time>
      </trkpt>
      <trkpt lat="45.29135" lon="5.75466">
        <ele>1482.0095215</ele>
        <time>2011-06-04T08:14:00Z</time>
      </trkpt>
      <trkpt lat="45.29138" lon="5.7547">
        <ele>1485.8549805</ele>
        <time>2011-06-04T08:14:04Z</time>
      </trkpt>
      <trkpt lat="45.2914" lon="5.75477">
        <ele>1484.8937988</ele>
        <time>2011-06-04T08:14:08Z</time>
      </trkpt>
      <trkpt lat="45.29145" lon="5.75488">
        <ele>1488.2583008</ele>
        <time>2011-06-04T08:14:15Z</time>
      </trkpt>
      <trkpt lat="45.29146" lon="5.75491">
        <ele>1487.7775879</ele>
        <time>2011-06-04T08:14:17Z</time>
      </trkpt>
      <trkpt lat="45.29147" lon="5.755">
        <ele>1486.3356934</ele>
        <time>2011-06-04T08:14:22Z</time>
      </trkpt>
      <trkpt lat="45.29149" lon="5.75508">
        <ele>1484.8937988</ele>
        <time>2011-06-04T08:14:27Z</time>
      </trkpt>
      <trkpt lat="45.29152" lon="5.75519">
        <ele>1487.7775879</ele>
        <time>2011-06-04T08:14:35Z</time>
      </trkpt>
      <trkpt lat="45.29152" lon="5.75521">
        <ele>1487.7775879</ele>
        <time>2011-06-04T08:14:36Z</time>
      </trkpt>
      <trkpt lat="45.29154" lon="5.75527">
        <ele>1489.7001953</ele>
        <time>2011-06-04T08:14:40Z</time>
      </trkpt>
      <trkpt lat="45.29158" lon="5.75535">
        <ele>1492.1035156</ele>
        <time>2011-06-04T08:14:46Z</time>
      </trkpt>
      <trkpt lat="45.29159" lon="5.75541">
        <ele>1494.026123</ele>
        <time>2011-06-04T08:14:50Z</time>
      </trkpt>
      <trkpt lat="45.29158" lon="5.7555">
        <ele>1496.4294434</ele>
        <time>2011-06-04T08:14:58Z</time>
      </trkpt>
      <trkpt lat="45.29154" lon="5.75552">
        <ele>1497.8713379</ele>
        <time>2011-06-04T08:15:04Z</time>
      </trkpt>
      <trkpt lat="45.29151" lon="5.75551">
        <ele>1497.8713379</ele>
        <time>2011-06-04T08:15:09Z</time>
      </trkpt>
      <trkpt lat="45.29149" lon="5.75551">
        <ele>1498.3518066</ele>
        <time>2011-06-04T08:15:16Z</time>
      </trkpt>
      <trkpt lat="45.29145" lon="5.75547">
        <ele>1497.8713379</ele>
        <time>2011-06-04T08:15:22Z</time>
      </trkpt>
      <trkpt lat="45.29141" lon="5.75544">
        <ele>1496.9099121</ele>
        <time>2011-06-04T08:15:26Z</time>
      </trkpt>
      <trkpt lat="45.29133" lon="5.75539">
        <ele>1495.4680176</ele>
        <time>2011-06-04T08:15:30Z</time>
      </trkpt>
      <trkpt lat="45.29122" lon="5.75531">
        <ele>1492.5842285</ele>
        <time>2011-06-04T08:15:36Z</time>
      </trkpt>
      <trkpt lat="45.29109" lon="5.7552">
        <ele>1490.661377</ele>
        <time>2011-06-04T08:15:42Z</time>
      </trkpt>
      <trkpt lat="45.29105" lon="5.75517">
        <ele>1490.661377</ele>
        <time>2011-06-04T08:15:44Z</time>
      </trkpt>
      <trkpt lat="45.29094" lon="5.75506">
        <ele>1491.6228027</ele>
        <time>2011-06-04T08:15:50Z</time>
      </trkpt>
      <trkpt lat="45.29088" lon="5.75501">
        <ele>1493.0646973</ele>
        <time>2011-06-04T08:15:53Z</time>
      </trkpt>
      <trkpt lat="45.2908" lon="5.75494">
        <ele>1494.5065918</ele>
        <time>2011-06-04T08:15:57Z</time>
      </trkpt>
      <trkpt lat="45.29073" lon="5.75485">
        <ele>1496.9099121</ele>
        <time>2011-06-04T08:16:01Z</time>
      </trkpt>
      <trkpt lat="45.29063" lon="5.75476">
        <ele>1497.8713379</ele>
        <time>2011-06-04T08:16:06Z</time>
      </trkpt>
      <trkpt lat="45.29057" lon="5.75469">
        <ele>1499.7939453</ele>
        <time>2011-06-04T08:16:10Z</time>
      </trkpt>
      <trkpt lat="45.29053" lon="5.75466">
        <ele>1499.7939453</ele>
        <time>2011-06-04T08:16:12Z</time>
      </trkpt>
      <trkpt lat="45.29046" lon="5.75461">
        <ele>1500.2749023</ele>
        <time>2011-06-04T08:16:16Z</time>
      </trkpt>
      <trkpt lat="45.29036" lon="5.75449">
        <ele>1502.6779785</ele>
        <time>2011-06-04T08:16:23Z</time>
      </trkpt>
      <trkpt lat="45.2903" lon="5.75441">
        <ele>1503.1586914</ele>
        <time>2011-06-04T08:16:28Z</time>
      </trkpt>
      <trkpt lat="45.29022" lon="5.75433">
        <ele>1505.0812988</ele>
        <time>2011-06-04T08:16:33Z</time>
      </trkpt>
      <trkpt lat="45.29021" lon="5.7543">
        <ele>1505.5620117</ele>
        <time>2011-06-04T08:16:34Z</time>
      </trkpt>
      <trkpt lat="45.29014" lon="5.7542">
        <ele>1506.0424805</ele>
        <time>2011-06-04T08:16:39Z</time>
      </trkpt>
      <trkpt lat="45.29007" lon="5.75413">
        <ele>1506.5231934</ele>
        <time>2011-06-04T08:16:43Z</time>
      </trkpt>
      <trkpt lat="45.29" lon="5.75401">
        <ele>1507.4846191</ele>
        <time>2011-06-04T08:16:49Z</time>
      </trkpt>
      <trkpt lat="45.28999" lon="5.75398">
        <ele>1507.4846191</ele>
        <time>2011-06-04T08:16:50Z</time>
      </trkpt>
      <trkpt lat="45.28991" lon="5.75388">
        <ele>1507.965332</ele>
        <time>2011-06-04T08:16:55Z</time>
      </trkpt>
      <trkpt lat="45.28981" lon="5.75381">
        <ele>1507.4846191</ele>
        <time>2011-06-04T08:17:01Z</time>
      </trkpt>
      <trkpt lat="45.28974" lon="5.75375">
        <ele>1507.965332</ele>
        <time>2011-06-04T08:17:05Z</time>
      </trkpt>
      <trkpt lat="45.28969" lon="5.75362">
        <ele>1508.4458008</ele>
        <time>2011-06-04T08:17:09Z</time>
      </trkpt>
      <trkpt lat="45.28965" lon="5.75352">
        <ele>1509.8876953</ele>
        <time>2011-06-04T08:17:13Z</time>
      </trkpt>
      <trkpt lat="45.28956" lon="5.75339">
        <ele>1511.329834</ele>
        <time>2011-06-04T08:17:18Z</time>
      </trkpt>
      <trkpt lat="45.28949" lon="5.7533">
        <ele>1511.329834</ele>
        <time>2011-06-04T08:17:22Z</time>
      </trkpt>
      <trkpt lat="45.28941" lon="5.75319">
        <ele>1511.329834</ele>
        <time>2011-06-04T08:17:27Z</time>
      </trkpt>
      <trkpt lat="45.28936" lon="5.7531">
        <ele>1511.329834</ele>
        <time>2011-06-04T08:17:31Z</time>
      </trkpt>
      <trkpt lat="45.28929" lon="5.75296">
        <ele>1513.2524414</ele>
        <time>2011-06-04T08:17:36Z</time>
      </trkpt>
      <trkpt lat="45.28925" lon="5.7529">
        <ele>1515.1750488</ele>
        <time>2011-06-04T08:17:40Z</time>
      </trkpt>
      <trkpt lat="45.2892" lon="5.75282">
        <ele>1515.6557617</ele>
        <time>2011-06-04T08:17:45Z</time>
      </trkpt>
      <trkpt lat="45.28912" lon="5.75275">
        <ele>1514.6943359</ele>
        <time>2011-06-04T08:17:49Z</time>
      </trkpt>
      <trkpt lat="45.28902" lon="5.75261">
        <ele>1512.7717285</ele>
        <time>2011-06-04T08:17:55Z</time>
      </trkpt>
      <trkpt lat="45.28901" lon="5.75258">
        <ele>1513.2524414</ele>
        <time>2011-06-04T08:17:56Z</time>
      </trkpt>
      <trkpt lat="45.28904" lon="5.75239">
        <ele>1512.2910156</ele>
        <time>2011-06-04T08:18:03Z</time>
      </trkpt>
      <trkpt lat="45.28907" lon="5.7522">
        <ele>1511.329834</ele>
        <time>2011-06-04T08:18:09Z</time>
      </trkpt>
      <trkpt lat="45.28907" lon="5.75217">
        <ele>1510.8491211</ele>
        <time>2011-06-04T08:18:10Z</time>
      </trkpt>
      <trkpt lat="45.28911" lon="5.75207">
        <ele>1507.965332</ele>
        <time>2011-06-04T08:18:14Z</time>
      </trkpt>
      <trkpt lat="45.28922" lon="5.75185">
        <ele>1504.1201172</ele>
        <time>2011-06-04T08:18:21Z</time>
      </trkpt>
      <trkpt lat="45.28929" lon="5.75164">
        <ele>1504.6005859</ele>
        <time>2011-06-04T08:18:27Z</time>
      </trkpt>
      <trkpt lat="45.28936" lon="5.7515">
        <ele>1506.5231934</ele>
        <time>2011-06-04T08:18:32Z</time>
      </trkpt>
      <trkpt lat="45.28938" lon="5.75137">
        <ele>1507.965332</ele>
        <time>2011-06-04T08:18:36Z</time>
      </trkpt>
      <trkpt lat="45.28943" lon="5.75117">
        <ele>1514.213623</ele>
        <time>2011-06-04T08:18:42Z</time>
      </trkpt>
      <trkpt lat="45.28949" lon="5.75104">
        <ele>1513.7329102</ele>
        <time>2011-06-04T08:18:48Z</time>
      </trkpt>
      <trkpt lat="45.2895" lon="5.75103">
        <ele>1513.7329102</ele>
        <time>2011-06-04T08:18:49Z</time>
      </trkpt>
      <trkpt lat="45.28952" lon="5.75095">
        <ele>1514.213623</ele>
        <time>2011-06-04T08:18:53Z</time>
      </trkpt>
      <trkpt lat="45.28957" lon="5.75087">
        <ele>1511.329834</ele>
        <time>2011-06-04T08:18:57Z</time>
      </trkpt>
      <trkpt lat="45.28961" lon="5.75078">
        <ele>1509.4072266</ele>
        <time>2011-06-04T08:19:02Z</time>
      </trkpt>
      <trkpt lat="45.28967" lon="5.7507">
        <ele>1507.965332</ele>
        <time>2011-06-04T08:19:06Z</time>
      </trkpt>
      <trkpt lat="45.28971" lon="5.75054">
        <ele>1511.8105469</ele>
        <time>2011-06-04T08:19:12Z</time>
      </trkpt>
      <trkpt lat="45.28976" lon="5.75044">
        <ele>1513.2524414</ele>
        <time>2011-06-04T08:19:18Z</time>
      </trkpt>
      <trkpt lat="45.28977" lon="5.75041">
        <ele>1513.2524414</ele>
        <time>2011-06-04T08:19:20Z</time>
      </trkpt>
      <trkpt lat="45.28985" lon="5.75025">
        <ele>1518.059082</ele>
        <time>2011-06-04T08:19:29Z</time>
      </trkpt>
      <trkpt lat="45.2899" lon="5.75019">
        <ele>1521.423584</ele>
        <time>2011-06-04T08:19:34Z</time>
      </trkpt>
      <trkpt lat="45.28992" lon="5.75015">
        <ele>1521.423584</ele>
        <time>2011-06-04T08:19:37Z</time>
      </trkpt>
      <trkpt lat="45.28998" lon="5.75005">
        <ele>1526.7109375</ele>
        <time>2011-06-04T08:19:43Z</time>
      </trkpt>
      <trkpt lat="45.29003" lon="5.74991">
        <ele>1531.9980469</ele>
        <time>2011-06-04T08:19:51Z</time>
      </trkpt>
      <trkpt lat="45.29005" lon="5.74986">
        <ele>1531.517334</ele>
        <time>2011-06-04T08:19:54Z</time>
      </trkpt>
      <trkpt lat="45.2901" lon="5.74978">
        <ele>1531.517334</ele>
        <time>2011-06-04T08:20:00Z</time>
      </trkpt>
      <trkpt lat="45.2901" lon="5.74977">
        <ele>1531.0368652</ele>
        <time>2011-06-04T08:20:01Z</time>
      </trkpt>
      <trkpt lat="45.29015" lon="5.74971">
        <ele>1528.6335449</ele>
        <time>2011-06-04T08:20:06Z</time>
      </trkpt>
      <trkpt lat="45.29024" lon="5.74962">
        <ele>1527.1916504</ele>
        <time>2011-06-04T08:20:13Z</time>
      </trkpt>
      <trkpt lat="45.29027" lon="5.74958">
        <ele>1526.2302246</ele>
        <time>2011-06-04T08:20:16Z</time>
      </trkpt>
      <trkpt lat="45.29032" lon="5.74948">
        <ele>1528.152832</ele>
        <time>2011-06-04T08:20:21Z</time>
      </trkpt>
      <trkpt lat="45.29039" lon="5.74937">
        <ele>1528.6335449</ele>
        <time>2011-06-04T08:20:28Z</time>
      </trkpt>
      <trkpt lat="45.2904" lon="5.74934">
        <ele>1527.6721191</ele>
        <time>2011-06-04T08:20:32Z</time>
      </trkpt>
      <trkpt lat="45.29044" lon="5.74928">
        <ele>1530.0754395</ele>
        <time>2011-06-04T08:20:38Z</time>
      </trkpt>
      <trkpt lat="45.29049" lon="5.74925">
        <ele>1531.0368652</ele>
        <time>2011-06-04T08:20:42Z</time>
      </trkpt>
      <trkpt lat="45.29055" lon="5.7492">
        <ele>1535.8435059</ele>
        <time>2011-06-04T08:20:47Z</time>
      </trkpt>
      <trkpt lat="45.29057" lon="5.74919">
        <ele>1537.2854004</ele>
        <time>2011-06-04T08:20:49Z</time>
      </trkpt>
      <trkpt lat="45.29061" lon="5.74915">
        <ele>1533.9208984</ele>
        <time>2011-06-04T08:20:54Z</time>
      </trkpt>
      <trkpt lat="45.2907" lon="5.7491">
        <ele>1538.7275391</ele>
        <time>2011-06-04T08:21:01Z</time>
      </trkpt>
      <trkpt lat="45.29071" lon="5.74911">
        <ele>1539.2080078</ele>
        <time>2011-06-04T08:21:02Z</time>
      </trkpt>
      <trkpt lat="45.29074" lon="5.74909">
        <ele>1541.1306152</ele>
        <time>2011-06-04T08:21:05Z</time>
      </trkpt>
      <trkpt lat="45.2908" lon="5.74907">
        <ele>1542.092041</ele>
        <time>2011-06-04T08:21:10Z</time>
      </trkpt>
      <trkpt lat="45.29088" lon="5.74903">
        <ele>1545.9372559</ele>
        <time>2011-06-04T08:21:17Z</time>
      </trkpt>
      <trkpt lat="45.29096" lon="5.749">
        <ele>1545.9372559</ele>
        <time>2011-06-04T08:21:23Z</time>
      </trkpt>
      <trkpt lat="45.29102" lon="5.74892">
        <ele>1548.8212891</ele>
        <time>2011-06-04T08:21:29Z</time>
      </trkpt>
      <trkpt lat="45.29103" lon="5.74889">
        <ele>1547.8598633</ele>
        <time>2011-06-04T08:21:31Z</time>
      </trkpt>
      <trkpt lat="45.29106" lon="5.74884">
        <ele>1546.8984375</ele>
        <time>2011-06-04T08:21:35Z</time>
      </trkpt>
      <trkpt lat="45.2911" lon="5.74874">
        <ele>1546.4179688</ele>
        <time>2011-06-04T08:21:41Z</time>
      </trkpt>
      <trkpt lat="45.29113" lon="5.74861">
        <ele>1549.302002</ele>
        <time>2011-06-04T08:21:47Z</time>
      </trkpt>
      <trkpt lat="45.29117" lon="5.74852">
        <ele>1549.302002</ele>
        <time>2011-06-04T08:21:52Z</time>
      </trkpt>
      <trkpt lat="45.29121" lon="5.74842">
        <ele>1548.8212891</ele>
        <time>2011-06-04T08:21:58Z</time>
      </trkpt>
      <trkpt lat="45.2912" lon="5.74825">
        <ele>1546.4179688</ele>
        <time>2011-06-04T08:22:05Z</time>
      </trkpt>
      <trkpt lat="45.2912" lon="5.74813">
        <ele>1546.4179688</ele>
        <time>2011-06-04T08:22:08Z</time>
      </trkpt>
      <trkpt lat="45.29116" lon="5.74791">
        <ele>1550.2634277</ele>
        <time>2011-06-04T08:22:14Z</time>
      </trkpt>
      <trkpt lat="45.29112" lon="5.74782">
        <ele>1552.6665039</ele>
        <time>2011-06-04T08:22:17Z</time>
      </trkpt>
      <trkpt lat="45.29102" lon="5.74768">
        <ele>1553.6279297</ele>
        <time>2011-06-04T08:22:22Z</time>
      </trkpt>
      <trkpt lat="45.29095" lon="5.7475">
        <ele>1556.9924316</ele>
        <time>2011-06-04T08:22:27Z</time>
      </trkpt>
      <trkpt lat="45.29092" lon="5.74729">
        <ele>1560.3569336</ele>
        <time>2011-06-04T08:22:32Z</time>
      </trkpt>
      <trkpt lat="45.29086" lon="5.74713">
        <ele>1559.395752</ele>
        <time>2011-06-04T08:22:37Z</time>
      </trkpt>
      <trkpt lat="45.29081" lon="5.74701">
        <ele>1558.9150391</ele>
        <time>2011-06-04T08:22:41Z</time>
      </trkpt>
      <trkpt lat="45.29072" lon="5.74684">
        <ele>1556.0310059</ele>
        <time>2011-06-04T08:22:46Z</time>
      </trkpt>
      <trkpt lat="45.29065" lon="5.74669">
        <ele>1554.1086426</ele>
        <time>2011-06-04T08:22:51Z</time>
      </trkpt>
      <trkpt lat="45.29063" lon="5.74664">
        <ele>1553.6279297</ele>
        <time>2011-06-04T08:22:53Z</time>
      </trkpt>
      <trkpt lat="45.29059" lon="5.74647">
        <ele>1555.5505371</ele>
        <time>2011-06-04T08:22:57Z</time>
      </trkpt>
      <trkpt lat="45.29058" lon="5.74638">
        <ele>1557.4731445</ele>
        <time>2011-06-04T08:23:01Z</time>
      </trkpt>
      <trkpt lat="45.29057" lon="5.74627">
        <ele>1556.9924316</ele>
        <time>2011-06-04T08:23:06Z</time>
      </trkpt>
      <trkpt lat="45.29052" lon="5.74619">
        <ele>1555.5505371</ele>
        <time>2011-06-04T08:23:10Z</time>
      </trkpt>
      <trkpt lat="45.29049" lon="5.74604">
        <ele>1557.4731445</ele>
        <time>2011-06-04T08:23:15Z</time>
      </trkpt>
      <trkpt lat="45.29051" lon="5.74587">
        <ele>1557.9538574</ele>
        <time>2011-06-04T08:23:21Z</time>
      </trkpt>
      <trkpt lat="45.29052" lon="5.74585">
        <ele>1558.4343262</ele>
        <time>2011-06-04T08:23:22Z</time>
      </trkpt>
      <trkpt lat="45.29052" lon="5.7458">
        <ele>1558.9150391</ele>
        <time>2011-06-04T08:23:24Z</time>
      </trkpt>
      <trkpt lat="45.29052" lon="5.7457">
        <ele>1556.5117188</ele>
        <time>2011-06-04T08:23:29Z</time>
      </trkpt>
      <trkpt lat="45.2905" lon="5.74562">
        <ele>1554.1086426</ele>
        <time>2011-06-04T08:23:32Z</time>
      </trkpt>
      <trkpt lat="45.29048" lon="5.74554">
        <ele>1554.1086426</ele>
        <time>2011-06-04T08:23:36Z</time>
      </trkpt>
      <trkpt lat="45.29045" lon="5.7454">
        <ele>1565.1638184</ele>
        <time>2011-06-04T08:23:42Z</time>
      </trkpt>
      <trkpt lat="45.29041" lon="5.7453">
        <ele>1573.8154297</ele>
        <time>2011-06-04T08:23:47Z</time>
      </trkpt>
      <trkpt lat="45.29041" lon="5.74519">
        <ele>1570.9316406</ele>
        <time>2011-06-04T08:23:52Z</time>
      </trkpt>
      <trkpt lat="45.2904" lon="5.74504">
        <ele>1568.0476074</ele>
        <time>2011-06-04T08:23:58Z</time>
      </trkpt>
      <trkpt lat="45.29035" lon="5.74484">
        <ele>1566.125</ele>
        <time>2011-06-04T08:24:04Z</time>
      </trkpt>
      <trkpt lat="45.2903" lon="5.74471">
        <ele>1562.7602539</ele>
        <time>2011-06-04T08:24:08Z</time>
      </trkpt>
      <trkpt lat="45.2903" lon="5.7446">
        <ele>1561.7990723</ele>
        <time>2011-06-04T08:24:11Z</time>
      </trkpt>
      <trkpt lat="45.29027" lon="5.74455">
        <ele>1560.8376465</ele>
        <time>2011-06-04T08:24:13Z</time>
      </trkpt>
      <trkpt lat="45.2902" lon="5.7444">
        <ele>1561.3183594</ele>
        <time>2011-06-04T08:24:19Z</time>
      </trkpt>
      <trkpt lat="45.29014" lon="5.74432">
        <ele>1559.8762207</ele>
        <time>2011-06-04T08:24:23Z</time>
      </trkpt>
      <trkpt lat="45.29011" lon="5.74423">
        <ele>1561.3183594</ele>
        <time>2011-06-04T08:24:27Z</time>
      </trkpt>
      <trkpt lat="45.2901" lon="5.74414">
        <ele>1561.7990723</ele>
        <time>2011-06-04T08:24:30Z</time>
      </trkpt>
      <trkpt lat="45.29009" lon="5.74399">
        <ele>1562.279541</ele>
        <time>2011-06-04T08:24:35Z</time>
      </trkpt>
      <trkpt lat="45.29004" lon="5.7438">
        <ele>1561.3183594</ele>
        <time>2011-06-04T08:24:41Z</time>
      </trkpt>
      <trkpt lat="45.29002" lon="5.74368">
        <ele>1560.8376465</ele>
        <time>2011-06-04T08:24:45Z</time>
      </trkpt>
      <trkpt lat="45.28998" lon="5.7435">
        <ele>1562.279541</ele>
        <time>2011-06-04T08:24:51Z</time>
      </trkpt>
      <trkpt lat="45.28995" lon="5.74338">
        <ele>1564.2023926</ele>
        <time>2011-06-04T08:24:56Z</time>
      </trkpt>
      <trkpt lat="45.28991" lon="5.74328">
        <ele>1565.6445313</ele>
        <time>2011-06-04T08:25:00Z</time>
      </trkpt>
      <trkpt lat="45.28984" lon="5.74322">
        <ele>1565.1638184</ele>
        <time>2011-06-04T08:25:04Z</time>
      </trkpt>
      <trkpt lat="45.28978" lon="5.74312">
        <ele>1565.6445313</ele>
        <time>2011-06-04T08:25:09Z</time>
      </trkpt>
      <trkpt lat="45.28972" lon="5.74303">
        <ele>1566.125</ele>
        <time>2011-06-04T08:25:13Z</time>
      </trkpt>
      <trkpt lat="45.28964" lon="5.74291">
        <ele>1566.125</ele>
        <time>2011-06-04T08:25:18Z</time>
      </trkpt>
      <trkpt lat="45.28957" lon="5.74286">
        <ele>1566.6057129</ele>
        <time>2011-06-04T08:25:24Z</time>
      </trkpt>
      <trkpt lat="45.28955" lon="5.74286">
        <ele>1566.6057129</ele>
        <time>2011-06-04T08:25:26Z</time>
      </trkpt>
      <trkpt lat="45.28948" lon="5.74284">
        <ele>1566.6057129</ele>
        <time>2011-06-04T08:25:31Z</time>
      </trkpt>
      <trkpt lat="45.28946" lon="5.74284">
        <ele>1567.0864258</ele>
        <time>2011-06-04T08:25:33Z</time>
      </trkpt>
      <trkpt lat="45.28944" lon="5.7428">
        <ele>1569.0090332</ele>
        <time>2011-06-04T08:25:37Z</time>
      </trkpt>
      <trkpt lat="45.28944" lon="5.74276">
        <ele>1570.4509277</ele>
        <time>2011-06-04T08:25:40Z</time>
      </trkpt>
      <trkpt lat="45.28943" lon="5.74267">
        <ele>1574.2961426</ele>
        <time>2011-06-04T08:25:46Z</time>
      </trkpt>
      <trkpt lat="45.28939" lon="5.7426">
        <ele>1574.7768555</ele>
        <time>2011-06-04T08:25:51Z</time>
      </trkpt>
      <trkpt lat="45.28938" lon="5.74261">
        <ele>1575.7380371</ele>
        <time>2011-06-04T08:25:52Z</time>
      </trkpt>
      <trkpt lat="45.28937" lon="5.74259">
        <ele>1575.7380371</ele>
        <time>2011-06-04T08:25:54Z</time>
      </trkpt>
      <trkpt lat="45.28935" lon="5.74258">
        <ele>1576.6994629</ele>
        <time>2011-06-04T08:25:56Z</time>
      </trkpt>
      <trkpt lat="45.2893" lon="5.74259">
        <ele>1578.6220703</ele>
        <time>2011-06-04T08:26:02Z</time>
      </trkpt>
      <trkpt lat="45.28926" lon="5.74257">
        <ele>1581.0256348</ele>
        <time>2011-06-04T08:26:06Z</time>
      </trkpt>
      <trkpt lat="45.28922" lon="5.74255">
        <ele>1580.5449219</ele>
        <time>2011-06-04T08:26:11Z</time>
      </trkpt>
      <trkpt lat="45.28921" lon="5.74254">
        <ele>1580.5449219</ele>
        <time>2011-06-04T08:26:12Z</time>
      </trkpt>
      <trkpt lat="45.28918" lon="5.74251">
        <ele>1585.3513184</ele>
        <time>2011-06-04T08:26:18Z</time>
      </trkpt>
      <trkpt lat="45.28913" lon="5.74245">
        <ele>1587.7546387</ele>
        <time>2011-06-04T08:26:25Z</time>
      </trkpt>
      <trkpt lat="45.28906" lon="5.7424">
        <ele>1588.2353516</ele>
        <time>2011-06-04T08:26:31Z</time>
      </trkpt>
      <trkpt lat="45.28905" lon="5.74231">
        <ele>1591.5998535</ele>
        <time>2011-06-04T08:26:37Z</time>
      </trkpt>
      <trkpt lat="45.28905" lon="5.74231">
        <ele>1592.0805664</ele>
        <time>2011-06-04T08:26:38Z</time>
      </trkpt>
      <trkpt lat="45.2891" lon="5.74233">
        <ele>1593.041748</ele>
        <time>2011-06-04T08:26:45Z</time>
      </trkpt>
      <trkpt lat="45.28913" lon="5.74233">
        <ele>1594.9643555</ele>
        <time>2011-06-04T08:26:48Z</time>
      </trkpt>
      <trkpt lat="45.28917" lon="5.74232">
        <ele>1596.4067383</ele>
        <time>2011-06-04T08:26:50Z</time>
      </trkpt>
      <trkpt lat="45.28924" lon="5.74232">
        <ele>1600.2519531</ele>
        <time>2011-06-04T08:26:57Z</time>
      </trkpt>
      <trkpt lat="45.2893" lon="5.74229">
        <ele>1600.2519531</ele>
        <time>2011-06-04T08:27:04Z</time>
      </trkpt>
      <trkpt lat="45.28937" lon="5.74227">
        <ele>1600.7324219</ele>
        <time>2011-06-04T08:27:09Z</time>
      </trkpt>
      <trkpt lat="45.2894" lon="5.74225">
        <ele>1601.6938477</ele>
        <time>2011-06-04T08:27:14Z</time>
      </trkpt>
      <trkpt lat="45.28945" lon="5.74223">
        <ele>1603.1357422</ele>
        <time>2011-06-04T08:27:19Z</time>
      </trkpt>
      <trkpt lat="45.28949" lon="5.74222">
        <ele>1603.1357422</ele>
        <time>2011-06-04T08:27:22Z</time>
      </trkpt>
      <trkpt lat="45.28955" lon="5.74217">
        <ele>1607.9423828</ele>
        <time>2011-06-04T08:27:29Z</time>
      </trkpt>
      <trkpt lat="45.28956" lon="5.74216">
        <ele>1608.4228516</ele>
        <time>2011-06-04T08:27:30Z</time>
      </trkpt>
      <trkpt lat="45.28961" lon="5.74213">
        <ele>1612.7490234</ele>
        <time>2011-06-04T08:27:34Z</time>
      </trkpt>
      <trkpt lat="45.28967" lon="5.74207">
        <ele>1611.7875977</ele>
        <time>2011-06-04T08:27:39Z</time>
      </trkpt>
      <trkpt lat="45.28972" lon="5.74209">
        <ele>1614.190918</ele>
        <time>2011-06-04T08:27:44Z</time>
      </trkpt>
      <trkpt lat="45.28974" lon="5.74214">
        <ele>1614.190918</ele>
        <time>2011-06-04T08:27:47Z</time>
      </trkpt>
      <trkpt lat="45.28976" lon="5.74216">
        <ele>1613.2297363</ele>
        <time>2011-06-04T08:27:49Z</time>
      </trkpt>
      <trkpt lat="45.28978" lon="5.74219">
        <ele>1613.2297363</ele>
        <time>2011-06-04T08:27:52Z</time>
      </trkpt>
      <trkpt lat="45.28985" lon="5.74219">
        <ele>1611.3068848</ele>
        <time>2011-06-04T08:27:58Z</time>
      </trkpt>
      <trkpt lat="45.28986" lon="5.74217">
        <ele>1611.7875977</ele>
        <time>2011-06-04T08:28:00Z</time>
      </trkpt>
      <trkpt lat="45.28991" lon="5.74215">
        <ele>1612.2683105</ele>
        <time>2011-06-04T08:28:06Z</time>
      </trkpt>
      <trkpt lat="45.28992" lon="5.74216">
        <ele>1612.2683105</ele>
        <time>2011-06-04T08:28:07Z</time>
      </trkpt>
      <trkpt lat="45.28996" lon="5.74217">
        <ele>1609.8647461</ele>
        <time>2011-06-04T08:28:13Z</time>
      </trkpt>
      <trkpt lat="45.29002" lon="5.74215">
        <ele>1610.345459</ele>
        <time>2011-06-04T08:28:20Z</time>
      </trkpt>
      <trkpt lat="45.29007" lon="5.74216">
        <ele>1612.7490234</ele>
        <time>2011-06-04T08:28:26Z</time>
      </trkpt>
      <trkpt lat="45.29008" lon="5.74217">
        <ele>1612.2683105</ele>
        <time>2011-06-04T08:28:27Z</time>
      </trkpt>
      <trkpt lat="45.29013" lon="5.74221">
        <ele>1615.6330566</ele>
        <time>2011-06-04T08:28:31Z</time>
      </trkpt>
      <trkpt lat="45.2902" lon="5.74232">
        <ele>1617.5554199</ele>
        <time>2011-06-04T08:28:39Z</time>
      </trkpt>
      <trkpt lat="45.29021" lon="5.74237">
        <ele>1617.0749512</ele>
        <time>2011-06-04T08:28:43Z</time>
      </trkpt>
      <trkpt lat="45.29027" lon="5.74246">
        <ele>1614.6716309</ele>
        <time>2011-06-04T08:28:48Z</time>
      </trkpt>
      <trkpt lat="45.29033" lon="5.74247">
        <ele>1617.0749512</ele>
        <time>2011-06-04T08:28:52Z</time>
      </trkpt>
      <trkpt lat="45.29034" lon="5.74244">
        <ele>1616.5942383</ele>
        <time>2011-06-04T08:28:55Z</time>
      </trkpt>
      <trkpt lat="45.2904" lon="5.74238">
        <ele>1619.9587402</ele>
        <time>2011-06-04T08:29:00Z</time>
      </trkpt>
      <trkpt lat="45.29043" lon="5.74233">
        <ele>1622.8427734</ele>
        <time>2011-06-04T08:29:04Z</time>
      </trkpt>
      <trkpt lat="45.29044" lon="5.74229">
        <ele>1624.284668</ele>
        <time>2011-06-04T08:29:09Z</time>
      </trkpt>
      <trkpt lat="45.29046" lon="5.74227">
        <ele>1626.6879883</ele>
        <time>2011-06-04T08:29:15Z</time>
      </trkpt>
      <trkpt lat="45.29048" lon="5.7423">
        <ele>1630.0527344</ele>
        <time>2011-06-04T08:29:26Z</time>
      </trkpt>
      <trkpt lat="45.2905" lon="5.74232">
        <ele>1629.5720215</ele>
        <time>2011-06-04T08:29:28Z</time>
      </trkpt>
      <trkpt lat="45.29056" lon="5.74241">
        <ele>1630.5334473</ele>
        <time>2011-06-04T08:29:35Z</time>
      </trkpt>
      <trkpt lat="45.29056" lon="5.74245">
        <ele>1629.0913086</ele>
        <time>2011-06-04T08:29:37Z</time>
      </trkpt>
      <trkpt lat="45.29062" lon="5.74252">
        <ele>1629.5720215</ele>
        <time>2011-06-04T08:29:42Z</time>
      </trkpt>
      <trkpt lat="45.29064" lon="5.7426">
        <ele>1629.0913086</ele>
        <time>2011-06-04T08:29:47Z</time>
      </trkpt>
      <trkpt lat="45.29068" lon="5.74273">
        <ele>1627.1687012</ele>
        <time>2011-06-04T08:29:53Z</time>
      </trkpt>
      <trkpt lat="45.29073" lon="5.74283">
        <ele>1626.2072754</ele>
        <time>2011-06-04T08:29:58Z</time>
      </trkpt>
      <trkpt lat="45.29076" lon="5.74286">
        <ele>1627.1687012</ele>
        <time>2011-06-04T08:29:59Z</time>
      </trkpt>
      <trkpt lat="45.2908" lon="5.74291">
        <ele>1628.6108398</ele>
        <time>2011-06-04T08:30:01Z</time>
      </trkpt>
      <trkpt lat="45.29086" lon="5.74295">
        <ele>1631.4946289</ele>
        <time>2011-06-04T08:30:03Z</time>
      </trkpt>
      <trkpt lat="45.29096" lon="5.74308">
        <ele>1634.3786621</ele>
        <time>2011-06-04T08:30:09Z</time>
      </trkpt>
      <trkpt lat="45.29099" lon="5.74313">
        <ele>1633.8979492</ele>
        <time>2011-06-04T08:30:11Z</time>
      </trkpt>
      <trkpt lat="45.29109" lon="5.74329">
        <ele>1635.8205566</ele>
        <time>2011-06-04T08:30:18Z</time>
      </trkpt>
      <trkpt lat="45.29116" lon="5.74341">
        <ele>1638.223877</ele>
        <time>2011-06-04T08:30:23Z</time>
      </trkpt>
      <trkpt lat="45.29122" lon="5.74353">
        <ele>1641.107666</ele>
        <time>2011-06-04T08:30:28Z</time>
      </trkpt>
      <trkpt lat="45.29131" lon="5.7437">
        <ele>1643.9916992</ele>
        <time>2011-06-04T08:30:34Z</time>
      </trkpt>
      <trkpt lat="45.29136" lon="5.74381">
        <ele>1644.953125</ele>
        <time>2011-06-04T08:30:38Z</time>
      </trkpt>
      <trkpt lat="45.29139" lon="5.74392">
        <ele>1645.4338379</ele>
        <time>2011-06-04T08:30:43Z</time>
      </trkpt>
      <trkpt lat="45.29145" lon="5.74401">
        <ele>1643.9916992</ele>
        <time>2011-06-04T08:30:49Z</time>
      </trkpt>
      <trkpt lat="45.29151" lon="5.74413">
        <ele>1643.5109863</ele>
        <time>2011-06-04T08:30:56Z</time>
      </trkpt>
      <trkpt lat="45.29156" lon="5.7442">
        <ele>1643.9916992</ele>
        <time>2011-06-04T08:31:01Z</time>
      </trkpt>
      <trkpt lat="45.2916" lon="5.74422">
        <ele>1644.4724121</ele>
        <time>2011-06-04T08:31:04Z</time>
      </trkpt>
      <trkpt lat="45.29167" lon="5.74429">
        <ele>1648.317627</ele>
        <time>2011-06-04T08:31:10Z</time>
      </trkpt>
      <trkpt lat="45.29176" lon="5.74436">
        <ele>1650.2404785</ele>
        <time>2011-06-04T08:31:16Z</time>
      </trkpt>
      <trkpt lat="45.29177" lon="5.74436">
        <ele>1649.2790527</ele>
        <time>2011-06-04T08:31:17Z</time>
      </trkpt>
      <trkpt lat="45.29183" lon="5.74444">
        <ele>1646.3952637</ele>
        <time>2011-06-04T08:31:21Z</time>
      </trkpt>
      <trkpt lat="45.29194" lon="5.74448">
        <ele>1643.0302734</ele>
        <time>2011-06-04T08:31:26Z</time>
      </trkpt>
      <trkpt lat="45.29206" lon="5.74449">
        <ele>1640.1464844</ele>
        <time>2011-06-04T08:31:30Z</time>
      </trkpt>
      <trkpt lat="45.29212" lon="5.74449">
        <ele>1639.6657715</ele>
        <time>2011-06-04T08:31:32Z</time>
      </trkpt>
      <trkpt lat="45.29228" lon="5.74452">
        <ele>1636.7817383</ele>
        <time>2011-06-04T08:31:38Z</time>
      </trkpt>
      <trkpt lat="45.29243" lon="5.7445">
        <ele>1633.4172363</ele>
        <time>2011-06-04T08:31:43Z</time>
      </trkpt>
      <trkpt lat="45.29257" lon="5.74446">
        <ele>1631.0141602</ele>
        <time>2011-06-04T08:31:48Z</time>
      </trkpt>
      <trkpt lat="45.29272" lon="5.74437">
        <ele>1626.2072754</ele>
        <time>2011-06-04T08:31:54Z</time>
      </trkpt>
      <trkpt lat="45.29283" lon="5.74427">
        <ele>1620.920166</ele>
        <time>2011-06-04T08:31:59Z</time>
      </trkpt>
      <trkpt lat="45.29292" lon="5.74418">
        <ele>1615.6330566</ele>
        <time>2011-06-04T08:32:03Z</time>
      </trkpt>
      <trkpt lat="45.29303" lon="5.74404">
        <ele>1611.3068848</ele>
        <time>2011-06-04T08:32:08Z</time>
      </trkpt>
      <trkpt lat="45.29317" lon="5.74396">
        <ele>1607.4616699</ele>
        <time>2011-06-04T08:32:13Z</time>
      </trkpt>
      <trkpt lat="45.2933" lon="5.74389">
        <ele>1606.5002441</ele>
        <time>2011-06-04T08:32:18Z</time>
      </trkpt>
      <trkpt lat="45.2934" lon="5.74385">
        <ele>1605.5390625</ele>
        <time>2011-06-04T08:32:23Z</time>
      </trkpt>
      <trkpt lat="45.29349" lon="5.74375">
        <ele>1606.5002441</ele>
        <time>2011-06-04T08:32:28Z</time>
      </trkpt>
      <trkpt lat="45.29351" lon="5.74373">
        <ele>1607.4616699</ele>
        <time>2011-06-04T08:32:29Z</time>
      </trkpt>
      <trkpt lat="45.29365" lon="5.74368">
        <ele>1609.3842773</ele>
        <time>2011-06-04T08:32:35Z</time>
      </trkpt>
      <trkpt lat="45.29367" lon="5.74366">
        <ele>1609.3842773</ele>
        <time>2011-06-04T08:32:36Z</time>
      </trkpt>
      <trkpt lat="45.29377" lon="5.74361">
        <ele>1611.7875977</ele>
        <time>2011-06-04T08:32:41Z</time>
      </trkpt>
      <trkpt lat="45.29389" lon="5.74355">
        <ele>1613.2297363</ele>
        <time>2011-06-04T08:32:47Z</time>
      </trkpt>
      <trkpt lat="45.29399" lon="5.74351">
        <ele>1614.190918</ele>
        <time>2011-06-04T08:32:52Z</time>
      </trkpt>
      <trkpt lat="45.29406" lon="5.74347">
        <ele>1616.1135254</ele>
        <time>2011-06-04T08:32:57Z</time>
      </trkpt>
      <trkpt lat="45.29409" lon="5.74345">
        <ele>1616.5942383</ele>
        <time>2011-06-04T08:32:59Z</time>
      </trkpt>
      <trkpt lat="45.29417" lon="5.74343">
        <ele>1617.0749512</ele>
        <time>2011-06-04T08:33:05Z</time>
      </trkpt>
      <trkpt lat="45.29423" lon="5.7434">
        <ele>1618.5168457</ele>
        <time>2011-06-04T08:33:11Z</time>
      </trkpt>
      <trkpt lat="45.2943" lon="5.74337">
        <ele>1621.4006348</ele>
        <time>2011-06-04T08:33:17Z</time>
      </trkpt>
      <trkpt lat="45.29435" lon="5.74338">
        <ele>1620.4394531</ele>
        <time>2011-06-04T08:33:22Z</time>
      </trkpt>
      <trkpt lat="45.29437" lon="5.74337">
        <ele>1621.4006348</ele>
        <time>2011-06-04T08:33:24Z</time>
      </trkpt>
      <trkpt lat="45.29444" lon="5.74337">
        <ele>1624.7653809</ele>
        <time>2011-06-04T08:33:31Z</time>
      </trkpt>
      <trkpt lat="45.29446" lon="5.74337">
        <ele>1625.2458496</ele>
        <time>2011-06-04T08:33:33Z</time>
      </trkpt>
      <trkpt lat="45.2945" lon="5.74337">
        <ele>1626.2072754</ele>
        <time>2011-06-04T08:33:36Z</time>
      </trkpt>
      <trkpt lat="45.29459" lon="5.74341">
        <ele>1630.5334473</ele>
        <time>2011-06-04T08:33:43Z</time>
      </trkpt>
      <trkpt lat="45.29466" lon="5.74339">
        <ele>1632.9365234</ele>
        <time>2011-06-04T08:33:48Z</time>
      </trkpt>
      <trkpt lat="45.29468" lon="5.74339">
        <ele>1633.8979492</ele>
        <time>2011-06-04T08:33:50Z</time>
      </trkpt>
      <trkpt lat="45.29471" lon="5.74338">
        <ele>1633.4172363</ele>
        <time>2011-06-04T08:33:52Z</time>
      </trkpt>
      <trkpt lat="45.29478" lon="5.74343">
        <ele>1632.9365234</ele>
        <time>2011-06-04T08:33:58Z</time>
      </trkpt>
      <trkpt lat="45.29479" lon="5.74344">
        <ele>1632.9365234</ele>
        <time>2011-06-04T08:33:59Z</time>
      </trkpt>
      <trkpt lat="45.29487" lon="5.74344">
        <ele>1633.4172363</ele>
        <time>2011-06-04T08:34:06Z</time>
      </trkpt>
      <trkpt lat="45.29488" lon="5.74344">
        <ele>1633.4172363</ele>
        <time>2011-06-04T08:34:07Z</time>
      </trkpt>
      <trkpt lat="45.29492" lon="5.74344">
        <ele>1635.8205566</ele>
        <time>2011-06-04T08:34:10Z</time>
      </trkpt>
      <trkpt lat="45.29496" lon="5.74346">
        <ele>1637.7431641</ele>
        <time>2011-06-04T08:34:14Z</time>
      </trkpt>
      <trkpt lat="45.29501" lon="5.74346">
        <ele>1638.7045898</ele>
        <time>2011-06-04T08:34:18Z</time>
      </trkpt>
      <trkpt lat="45.2951" lon="5.74349">
        <ele>1642.5498047</ele>
        <time>2011-06-04T08:34:26Z</time>
      </trkpt>
      <trkpt lat="45.29514" lon="5.74351">
        <ele>1643.9916992</ele>
        <time>2011-06-04T08:34:31Z</time>
      </trkpt>
      <trkpt lat="45.29515" lon="5.74352">
        <ele>1643.9916992</ele>
        <time>2011-06-04T08:34:32Z</time>
      </trkpt>
      <trkpt lat="45.29519" lon="5.74354">
        <ele>1644.953125</ele>
        <time>2011-06-04T08:34:35Z</time>
      </trkpt>
      <trkpt lat="45.29526" lon="5.74351">
        <ele>1646.3952637</ele>
        <time>2011-06-04T08:34:40Z</time>
      </trkpt>
      <trkpt lat="45.29535" lon="5.7435">
        <ele>1650.2404785</ele>
        <time>2011-06-04T08:34:49Z</time>
      </trkpt>
      <trkpt lat="45.29543" lon="5.7435">
        <ele>1650.2404785</ele>
        <time>2011-06-04T08:34:57Z</time>
      </trkpt>
      <trkpt lat="45.29544" lon="5.7435">
        <ele>1650.2404785</ele>
        <time>2011-06-04T08:34:58Z</time>
      </trkpt>
      <trkpt lat="45.2955" lon="5.74354">
        <ele>1649.7597656</ele>
        <time>2011-06-04T08:35:05Z</time>
      </trkpt>
      <trkpt lat="45.29555" lon="5.74361">
        <ele>1648.317627</ele>
        <time>2011-06-04T08:35:11Z</time>
      </trkpt>
      <trkpt lat="45.29556" lon="5.74362">
        <ele>1650.7209473</ele>
        <time>2011-06-04T08:35:12Z</time>
      </trkpt>
      <trkpt lat="45.29563" lon="5.74362">
        <ele>1653.6049805</ele>
        <time>2011-06-04T08:35:17Z</time>
      </trkpt>
      <trkpt lat="45.29566" lon="5.74362">
        <ele>1656.0080566</ele>
        <time>2011-06-04T08:35:20Z</time>
      </trkpt>
      <trkpt lat="45.29571" lon="5.74361">
        <ele>1658.8920898</ele>
        <time>2011-06-04T08:35:24Z</time>
      </trkpt>
      <trkpt lat="45.29579" lon="5.74365">
        <ele>1662.2568359</ele>
        <time>2011-06-04T08:35:31Z</time>
      </trkpt>
      <trkpt lat="45.29587" lon="5.74366">
        <ele>1662.2568359</ele>
        <time>2011-06-04T08:35:39Z</time>
      </trkpt>
      <trkpt lat="45.29595" lon="5.74372">
        <ele>1660.3342285</ele>
        <time>2011-06-04T08:35:46Z</time>
      </trkpt>
      <trkpt lat="45.29599" lon="5.74373">
        <ele>1662.7375488</ele>
        <time>2011-06-04T08:35:49Z</time>
      </trkpt>
      <trkpt lat="45.29604" lon="5.74374">
        <ele>1661.7763672</ele>
        <time>2011-06-04T08:35:53Z</time>
      </trkpt>
      <trkpt lat="45.29611" lon="5.74378">
        <ele>1661.2956543</ele>
        <time>2011-06-04T08:35:59Z</time>
      </trkpt>
      <trkpt lat="45.29616" lon="5.7438">
        <ele>1663.6987305</ele>
        <time>2011-06-04T08:36:03Z</time>
      </trkpt>
      <trkpt lat="45.29624" lon="5.74379">
        <ele>1667.0634766</ele>
        <time>2011-06-04T08:36:11Z</time>
      </trkpt>
      <trkpt lat="45.29634" lon="5.74381">
        <ele>1669.9472656</ele>
        <time>2011-06-04T08:36:19Z</time>
      </trkpt>
      <trkpt lat="45.29637" lon="5.74382">
        <ele>1670.4279785</ele>
        <time>2011-06-04T08:36:21Z</time>
      </trkpt>
      <trkpt lat="45.29643" lon="5.74385">
        <ele>1670.9086914</ele>
        <time>2011-06-04T08:36:26Z</time>
      </trkpt>
      <trkpt lat="45.2965" lon="5.74389">
        <ele>1670.4279785</ele>
        <time>2011-06-04T08:36:32Z</time>
      </trkpt>
      <trkpt lat="45.29655" lon="5.74388">
        <ele>1670.4279785</ele>
        <time>2011-06-04T08:36:35Z</time>
      </trkpt>
      <trkpt lat="45.29674" lon="5.74381">
        <ele>1669.9472656</ele>
        <time>2011-06-04T08:36:42Z</time>
      </trkpt>
      <trkpt lat="45.29687" lon="5.74373">
        <ele>1668.986084</ele>
        <time>2011-06-04T08:36:47Z</time>
      </trkpt>
      <trkpt lat="45.29697" lon="5.74363">
        <ele>1668.0246582</ele>
        <time>2011-06-04T08:36:52Z</time>
      </trkpt>
      <trkpt lat="45.29707" lon="5.74351">
        <ele>1666.1020508</ele>
        <time>2011-06-04T08:36:57Z</time>
      </trkpt>
      <trkpt lat="45.29722" lon="5.7434">
        <ele>1664.1794434</ele>
        <time>2011-06-04T08:37:03Z</time>
      </trkpt>
      <trkpt lat="45.29734" lon="5.7433">
        <ele>1662.7375488</ele>
        <time>2011-06-04T08:37:09Z</time>
      </trkpt>
      <trkpt lat="45.29746" lon="5.7432">
        <ele>1660.8149414</ele>
        <time>2011-06-04T08:37:14Z</time>
      </trkpt>
      <trkpt lat="45.29753" lon="5.74309">
        <ele>1659.8532715</ele>
        <time>2011-06-04T08:37:19Z</time>
      </trkpt>
      <trkpt lat="45.2976" lon="5.74295">
        <ele>1656.9694824</ele>
        <time>2011-06-04T08:37:24Z</time>
      </trkpt>
      <trkpt lat="45.29765" lon="5.74282">
        <ele>1654.0856934</ele>
        <time>2011-06-04T08:37:28Z</time>
      </trkpt>
      <trkpt lat="45.29775" lon="5.7427">
        <ele>1651.2016602</ele>
        <time>2011-06-04T08:37:32Z</time>
      </trkpt>
      <trkpt lat="45.29784" lon="5.74263">
        <ele>1651.2016602</ele>
        <time>2011-06-04T08:37:36Z</time>
      </trkpt>
      <trkpt lat="45.29795" lon="5.74258">
        <ele>1649.7597656</ele>
        <time>2011-06-04T08:37:41Z</time>
      </trkpt>
      <trkpt lat="45.29806" lon="5.74258">
        <ele>1650.7209473</ele>
        <time>2011-06-04T08:37:46Z</time>
      </trkpt>
      <trkpt lat="45.29815" lon="5.7426">
        <ele>1652.6435547</ele>
        <time>2011-06-04T08:37:51Z</time>
      </trkpt>
      <trkpt lat="45.29825" lon="5.74263">
        <ele>1654.0856934</ele>
        <time>2011-06-04T08:37:56Z</time>
      </trkpt>
      <trkpt lat="45.29838" lon="5.74268">
        <ele>1656.9694824</ele>
        <time>2011-06-04T08:38:02Z</time>
      </trkpt>
      <trkpt lat="45.2985" lon="5.74278">
        <ele>1658.8920898</ele>
        <time>2011-06-04T08:38:08Z</time>
      </trkpt>
      <trkpt lat="45.29856" lon="5.74282">
        <ele>1658.8920898</ele>
        <time>2011-06-04T08:38:11Z</time>
      </trkpt>
      <trkpt lat="45.29865" lon="5.74293">
        <ele>1659.8532715</ele>
        <time>2011-06-04T08:38:16Z</time>
      </trkpt>
      <trkpt lat="45.29873" lon="5.74302">
        <ele>1660.8149414</ele>
        <time>2011-06-04T08:38:20Z</time>
      </trkpt>
      <trkpt lat="45.2988" lon="5.7431">
        <ele>1661.2956543</ele>
        <time>2011-06-04T08:38:24Z</time>
      </trkpt>
      <trkpt lat="45.2989" lon="5.74318">
        <ele>1662.2568359</ele>
        <time>2011-06-04T08:38:29Z</time>
      </trkpt>
      <trkpt lat="45.29901" lon="5.74329">
        <ele>1661.7763672</ele>
        <time>2011-06-04T08:38:34Z</time>
      </trkpt>
      <trkpt lat="45.29912" lon="5.74338">
        <ele>1661.2956543</ele>
        <time>2011-06-04T08:38:39Z</time>
      </trkpt>
      <trkpt lat="45.29921" lon="5.7435">
        <ele>1657.9309082</ele>
        <time>2011-06-04T08:38:44Z</time>
      </trkpt>
      <trkpt lat="45.29931" lon="5.74357">
        <ele>1655.5275879</ele>
        <time>2011-06-04T08:38:49Z</time>
      </trkpt>
      <trkpt lat="45.29932" lon="5.74358">
        <ele>1655.046875</ele>
        <time>2011-06-04T08:38:50Z</time>
      </trkpt>
      <trkpt lat="45.29937" lon="5.74358">
        <ele>1653.6049805</ele>
        <time>2011-06-04T08:38:54Z</time>
      </trkpt>
      <trkpt lat="45.29938" lon="5.74358">
        <ele>1653.6049805</ele>
        <time>2011-06-04T08:38:55Z</time>
      </trkpt>
      <trkpt lat="45.29946" lon="5.74359">
        <ele>1651.682373</ele>
        <time>2011-06-04T08:39:00Z</time>
      </trkpt>
      <trkpt lat="45.29952" lon="5.74365">
        <ele>1650.2404785</ele>
        <time>2011-06-04T08:39:04Z</time>
      </trkpt>
      <trkpt lat="45.29954" lon="5.74366">
        <ele>1649.2790527</ele>
        <time>2011-06-04T08:39:06Z</time>
      </trkpt>
      <trkpt lat="45.29956" lon="5.74363">
        <ele>1647.3564453</ele>
        <time>2011-06-04T08:39:12Z</time>
      </trkpt>
      <trkpt lat="45.29957" lon="5.74359">
        <ele>1644.953125</ele>
        <time>2011-06-04T08:39:17Z</time>
      </trkpt>
      <trkpt lat="45.2996" lon="5.74358">
        <ele>1643.0302734</ele>
        <time>2011-06-04T08:39:23Z</time>
      </trkpt>
      <trkpt lat="45.29964" lon="5.74364">
        <ele>1641.107666</ele>
        <time>2011-06-04T08:39:27Z</time>
      </trkpt>
      <trkpt lat="45.29967" lon="5.74368">
        <ele>1639.1850586</ele>
        <time>2011-06-04T08:39:32Z</time>
      </trkpt>
      <trkpt lat="45.29972" lon="5.74374">
        <ele>1638.223877</ele>
        <time>2011-06-04T08:39:36Z</time>
      </trkpt>
      <trkpt lat="45.29978" lon="5.74377">
        <ele>1638.223877</ele>
        <time>2011-06-04T08:39:40Z</time>
      </trkpt>
      <trkpt lat="45.29987" lon="5.74382">
        <ele>1637.2624512</ele>
        <time>2011-06-04T08:39:45Z</time>
      </trkpt>
      <trkpt lat="45.29988" lon="5.74382">
        <ele>1636.7817383</ele>
        <time>2011-06-04T08:39:46Z</time>
      </trkpt>
      <trkpt lat="45.2999" lon="5.74384">
        <ele>1636.3012695</ele>
        <time>2011-06-04T08:39:48Z</time>
      </trkpt>
      <trkpt lat="45.29993" lon="5.74388">
        <ele>1635.8205566</ele>
        <time>2011-06-04T08:39:54Z</time>
      </trkpt>
      <trkpt lat="45.30001" lon="5.74388">
        <ele>1632.9365234</ele>
        <time>2011-06-04T08:39:59Z</time>
      </trkpt>
      <trkpt lat="45.30009" lon="5.74394">
        <ele>1631.9753418</ele>
        <time>2011-06-04T08:40:03Z</time>
      </trkpt>
      <trkpt lat="45.30017" lon="5.74398">
        <ele>1631.9753418</ele>
        <time>2011-06-04T08:40:06Z</time>
      </trkpt>
      <trkpt lat="45.30027" lon="5.74411">
        <ele>1630.5334473</ele>
        <time>2011-06-04T08:40:11Z</time>
      </trkpt>
      <trkpt lat="45.30038" lon="5.74413">
        <ele>1630.5334473</ele>
        <time>2011-06-04T08:40:17Z</time>
      </trkpt>
      <trkpt lat="45.30043" lon="5.74412">
        <ele>1632.9365234</ele>
        <time>2011-06-04T08:40:19Z</time>
      </trkpt>
      <trkpt lat="45.3005" lon="5.74413">
        <ele>1631.0141602</ele>
        <time>2011-06-04T08:40:24Z</time>
      </trkpt>
      <trkpt lat="45.30053" lon="5.74415">
        <ele>1629.0913086</ele>
        <time>2011-06-04T08:40:26Z</time>
      </trkpt>
      <trkpt lat="45.30056" lon="5.74421">
        <ele>1624.7653809</ele>
        <time>2011-06-04T08:40:32Z</time>
      </trkpt>
      <trkpt lat="45.30064" lon="5.74427">
        <ele>1622.8427734</ele>
        <time>2011-06-04T08:40:39Z</time>
      </trkpt>
      <trkpt lat="45.30069" lon="5.74428">
        <ele>1621.4006348</ele>
        <time>2011-06-04T08:40:41Z</time>
      </trkpt>
      <trkpt lat="45.30075" lon="5.74438">
        <ele>1620.920166</ele>
        <time>2011-06-04T08:40:46Z</time>
      </trkpt>
      <trkpt lat="45.30082" lon="5.7444">
        <ele>1620.4394531</ele>
        <time>2011-06-04T08:40:50Z</time>
      </trkpt>
      <trkpt lat="45.30091" lon="5.74444">
        <ele>1623.8039551</ele>
        <time>2011-06-04T08:40:57Z</time>
      </trkpt>
      <trkpt lat="45.30095" lon="5.74443">
        <ele>1625.2458496</ele>
        <time>2011-06-04T08:41:00Z</time>
      </trkpt>
      <trkpt lat="45.30103" lon="5.74447">
        <ele>1627.1687012</ele>
        <time>2011-06-04T08:41:06Z</time>
      </trkpt>
      <trkpt lat="45.30104" lon="5.74448">
        <ele>1627.6491699</ele>
        <time>2011-06-04T08:41:07Z</time>
      </trkpt>
      <trkpt lat="45.30112" lon="5.74449">
        <ele>1630.0527344</ele>
        <time>2011-06-04T08:41:12Z</time>
      </trkpt>
      <trkpt lat="45.30122" lon="5.74454">
        <ele>1633.4172363</ele>
        <time>2011-06-04T08:41:19Z</time>
      </trkpt>
      <trkpt lat="45.3013" lon="5.74458">
        <ele>1634.3786621</ele>
        <time>2011-06-04T08:41:25Z</time>
      </trkpt>
      <trkpt lat="45.30135" lon="5.74462">
        <ele>1633.8979492</ele>
        <time>2011-06-04T08:41:30Z</time>
      </trkpt>
      <trkpt lat="45.30146" lon="5.74467">
        <ele>1634.859375</ele>
        <time>2011-06-04T08:41:36Z</time>
      </trkpt>
      <trkpt lat="45.30159" lon="5.74477">
        <ele>1634.3786621</ele>
        <time>2011-06-04T08:41:41Z</time>
      </trkpt>
      <trkpt lat="45.30172" lon="5.74484">
        <ele>1636.3012695</ele>
        <time>2011-06-04T08:41:46Z</time>
      </trkpt>
      <trkpt lat="45.30184" lon="5.74491">
        <ele>1638.223877</ele>
        <time>2011-06-04T08:41:51Z</time>
      </trkpt>
      <trkpt lat="45.30194" lon="5.74498">
        <ele>1638.7045898</ele>
        <time>2011-06-04T08:41:55Z</time>
      </trkpt>
      <trkpt lat="45.30207" lon="5.74507">
        <ele>1640.1464844</ele>
        <time>2011-06-04T08:42:01Z</time>
      </trkpt>
      <trkpt lat="45.3021" lon="5.7451">
        <ele>1640.1464844</ele>
        <time>2011-06-04T08:42:03Z</time>
      </trkpt>
      <trkpt lat="45.30221" lon="5.7452">
        <ele>1640.6269531</ele>
        <time>2011-06-04T08:42:09Z</time>
      </trkpt>
      <trkpt lat="45.3023" lon="5.74527">
        <ele>1641.5883789</ele>
        <time>2011-06-04T08:42:13Z</time>
      </trkpt>
      <trkpt lat="45.30232" lon="5.74528">
        <ele>1641.5883789</ele>
        <time>2011-06-04T08:42:14Z</time>
      </trkpt>
      <trkpt lat="45.30239" lon="5.74531">
        <ele>1642.0690918</ele>
        <time>2011-06-04T08:42:18Z</time>
      </trkpt>
      <trkpt lat="45.30253" lon="5.74536">
        <ele>1643.0302734</ele>
        <time>2011-06-04T08:42:25Z</time>
      </trkpt>
      <trkpt lat="45.3026" lon="5.74542">
        <ele>1643.9916992</ele>
        <time>2011-06-04T08:42:29Z</time>
      </trkpt>
      <trkpt lat="45.30268" lon="5.74548">
        <ele>1644.953125</ele>
        <time>2011-06-04T08:42:34Z</time>
      </trkpt>
      <trkpt lat="45.30278" lon="5.74555">
        <ele>1644.4724121</ele>
        <time>2011-06-04T08:42:39Z</time>
      </trkpt>
      <trkpt lat="45.30283" lon="5.74559">
        <ele>1645.9145508</ele>
        <time>2011-06-04T08:42:42Z</time>
      </trkpt>
      <trkpt lat="45.30297" lon="5.74565">
        <ele>1650.7209473</ele>
        <time>2011-06-04T08:42:49Z</time>
      </trkpt>
      <trkpt lat="45.30308" lon="5.74566">
        <ele>1653.1242676</ele>
        <time>2011-06-04T08:42:55Z</time>
      </trkpt>
      <trkpt lat="45.30317" lon="5.74573">
        <ele>1652.6435547</ele>
        <time>2011-06-04T08:43:00Z</time>
      </trkpt>
      <trkpt lat="45.30326" lon="5.74582">
        <ele>1651.2016602</ele>
        <time>2011-06-04T08:43:05Z</time>
      </trkpt>
      <trkpt lat="45.30333" lon="5.74587">
        <ele>1653.1242676</ele>
        <time>2011-06-04T08:43:09Z</time>
      </trkpt>
      <trkpt lat="45.30345" lon="5.74593">
        <ele>1656.0080566</ele>
        <time>2011-06-04T08:43:15Z</time>
      </trkpt>
      <trkpt lat="45.30353" lon="5.74594">
        <ele>1658.411377</ele>
        <time>2011-06-04T08:43:19Z</time>
      </trkpt>
      <trkpt lat="45.30363" lon="5.746">
        <ele>1657.9309082</ele>
        <time>2011-06-04T08:43:25Z</time>
      </trkpt>
      <trkpt lat="45.30372" lon="5.7461">
        <ele>1657.4501953</ele>
        <time>2011-06-04T08:43:31Z</time>
      </trkpt>
      <trkpt lat="45.30378" lon="5.74615">
        <ele>1656.4887695</ele>
        <time>2011-06-04T08:43:37Z</time>
      </trkpt>
      <trkpt lat="45.30384" lon="5.74618">
        <ele>1657.4501953</ele>
        <time>2011-06-04T08:43:42Z</time>
      </trkpt>
      <trkpt lat="45.30392" lon="5.74622">
        <ele>1657.9309082</ele>
        <time>2011-06-04T08:43:49Z</time>
      </trkpt>
      <trkpt lat="45.30399" lon="5.74624">
        <ele>1660.3342285</ele>
        <time>2011-06-04T08:43:54Z</time>
      </trkpt>
      <trkpt lat="45.304" lon="5.74624">
        <ele>1660.3342285</ele>
        <time>2011-06-04T08:43:55Z</time>
      </trkpt>
      <trkpt lat="45.30406" lon="5.74624">
        <ele>1662.7375488</ele>
        <time>2011-06-04T08:43:58Z</time>
      </trkpt>
      <trkpt lat="45.30414" lon="5.74626">
        <ele>1664.1794434</ele>
        <time>2011-06-04T08:44:05Z</time>
      </trkpt>
      <trkpt lat="45.30422" lon="5.74629">
        <ele>1662.7375488</ele>
        <time>2011-06-04T08:44:11Z</time>
      </trkpt>
      <trkpt lat="45.3043" lon="5.74634">
        <ele>1663.6987305</ele>
        <time>2011-06-04T08:44:17Z</time>
      </trkpt>
      <trkpt lat="45.30442" lon="5.74637">
        <ele>1665.1408691</ele>
        <time>2011-06-04T08:44:25Z</time>
      </trkpt>
      <trkpt lat="45.30449" lon="5.7464">
        <ele>1664.1794434</ele>
        <time>2011-06-04T08:44:30Z</time>
      </trkpt>
      <trkpt lat="45.30452" lon="5.74646">
        <ele>1661.2956543</ele>
        <time>2011-06-04T08:44:34Z</time>
      </trkpt>
      <trkpt lat="45.30455" lon="5.74644">
        <ele>1660.8149414</ele>
        <time>2011-06-04T08:44:38Z</time>
      </trkpt>
      <trkpt lat="45.30459" lon="5.74643">
        <ele>1660.3342285</ele>
        <time>2011-06-04T08:44:41Z</time>
      </trkpt>
      <trkpt lat="45.30462" lon="5.74644">
        <ele>1660.3342285</ele>
        <time>2011-06-04T08:44:44Z</time>
      </trkpt>
      <trkpt lat="45.30469" lon="5.74646">
        <ele>1660.3342285</ele>
        <time>2011-06-04T08:44:50Z</time>
      </trkpt>
      <trkpt lat="45.30477" lon="5.74649">
        <ele>1660.8149414</ele>
        <time>2011-06-04T08:44:55Z</time>
      </trkpt>
      <trkpt lat="45.30484" lon="5.74651">
        <ele>1661.2956543</ele>
        <time>2011-06-04T08:45:00Z</time>
      </trkpt>
      <trkpt lat="45.30493" lon="5.74653">
        <ele>1661.2956543</ele>
        <time>2011-06-04T08:45:07Z</time>
      </trkpt>
      <trkpt lat="45.30495" lon="5.74653">
        <ele>1661.7763672</ele>
        <time>2011-06-04T08:45:08Z</time>
      </trkpt>
      <trkpt lat="45.30509" lon="5.74659">
        <ele>1662.7375488</ele>
        <time>2011-06-04T08:45:15Z</time>
      </trkpt>
      <trkpt lat="45.30529" lon="5.74667">
        <ele>1663.6987305</ele>
        <time>2011-06-04T08:45:22Z</time>
      </trkpt>
      <trkpt lat="45.30539" lon="5.74671">
        <ele>1665.621582</ele>
        <time>2011-06-04T08:45:27Z</time>
      </trkpt>
      <trkpt lat="45.30542" lon="5.74673">
        <ele>1666.1020508</ele>
        <time>2011-06-04T08:45:29Z</time>
      </trkpt>
      <trkpt lat="45.30547" lon="5.74676">
        <ele>1667.5439453</ele>
        <time>2011-06-04T08:45:33Z</time>
      </trkpt>
      <trkpt lat="45.30551" lon="5.74675">
        <ele>1668.5053711</ele>
        <time>2011-06-04T08:45:35Z</time>
      </trkpt>
      <trkpt lat="45.30557" lon="5.74682">
        <ele>1669.9472656</ele>
        <time>2011-06-04T08:45:40Z</time>
      </trkpt>
      <trkpt lat="45.30557" lon="5.74683">
        <ele>1670.4279785</ele>
        <time>2011-06-04T08:45:41Z</time>
      </trkpt>
      <trkpt lat="45.30558" lon="5.74684">
        <ele>1671.869873</ele>
        <time>2011-06-04T08:45:43Z</time>
      </trkpt>
      <trkpt lat="45.30562" lon="5.74683">
        <ele>1674.2731934</ele>
        <time>2011-06-04T08:45:46Z</time>
      </trkpt>
      <trkpt lat="45.30566" lon="5.74684">
        <ele>1674.7539063</ele>
        <time>2011-06-04T08:45:49Z</time>
      </trkpt>
      <trkpt lat="45.30567" lon="5.74687">
        <ele>1679.079834</ele>
        <time>2011-06-04T08:45:52Z</time>
      </trkpt>
      <trkpt lat="45.3057" lon="5.74688">
        <ele>1680.5219727</ele>
        <time>2011-06-04T08:45:55Z</time>
      </trkpt>
      <trkpt lat="45.30576" lon="5.74695">
        <ele>1680.0412598</ele>
        <time>2011-06-04T08:46:02Z</time>
      </trkpt>
      <trkpt lat="45.3058" lon="5.74699">
        <ele>1681.0026855</ele>
        <time>2011-06-04T08:46:06Z</time>
      </trkpt>
      <trkpt lat="45.30586" lon="5.74707">
        <ele>1681.4831543</ele>
        <time>2011-06-04T08:46:14Z</time>
      </trkpt>
      <trkpt lat="45.30591" lon="5.7471">
        <ele>1683.4057617</ele>
        <time>2011-06-04T08:46:18Z</time>
      </trkpt>
      <trkpt lat="45.30595" lon="5.74713">
        <ele>1684.8479004</ele>
        <time>2011-06-04T08:46:23Z</time>
      </trkpt>
      <trkpt lat="45.30597" lon="5.74715">
        <ele>1685.3283691</ele>
        <time>2011-06-04T08:46:25Z</time>
      </trkpt>
      <trkpt lat="45.30601" lon="5.74717">
        <ele>1687.2509766</ele>
        <time>2011-06-04T08:46:31Z</time>
      </trkpt>
      <trkpt lat="45.30608" lon="5.7472">
        <ele>1690.6154785</ele>
        <time>2011-06-04T08:46:37Z</time>
      </trkpt>
      <trkpt lat="45.30618" lon="5.74724">
        <ele>1692.0578613</ele>
        <time>2011-06-04T08:46:46Z</time>
      </trkpt>
      <trkpt lat="45.30624" lon="5.74735">
        <ele>1692.5385742</ele>
        <time>2011-06-04T08:46:54Z</time>
      </trkpt>
      <trkpt lat="45.30628" lon="5.74742">
        <ele>1694.9416504</ele>
        <time>2011-06-04T08:47:00Z</time>
      </trkpt>
      <trkpt lat="45.30634" lon="5.74746">
        <ele>1695.4223633</ele>
        <time>2011-06-04T08:47:05Z</time>
      </trkpt>
      <trkpt lat="45.3064" lon="5.7475">
        <ele>1695.9030762</ele>
        <time>2011-06-04T08:47:11Z</time>
      </trkpt>
      <trkpt lat="45.30643" lon="5.74752">
        <ele>1695.9030762</ele>
        <time>2011-06-04T08:47:14Z</time>
      </trkpt>
      <trkpt lat="45.30647" lon="5.74754">
        <ele>1696.8642578</ele>
        <time>2011-06-04T08:47:17Z</time>
      </trkpt>
      <trkpt lat="45.30655" lon="5.74756">
        <ele>1697.3449707</ele>
        <time>2011-06-04T08:47:24Z</time>
      </trkpt>
      <trkpt lat="45.30656" lon="5.74757">
        <ele>1696.8642578</ele>
        <time>2011-06-04T08:47:26Z</time>
      </trkpt>
      <trkpt lat="45.30663" lon="5.74763">
        <ele>1695.9030762</ele>
        <time>2011-06-04T08:47:32Z</time>
      </trkpt>
      <trkpt lat="45.30666" lon="5.74765">
        <ele>1696.3837891</ele>
        <time>2011-06-04T08:47:34Z</time>
      </trkpt>
      <trkpt lat="45.30669" lon="5.74766">
        <ele>1696.8642578</ele>
        <time>2011-06-04T08:47:36Z</time>
      </trkpt>
      <trkpt lat="45.30678" lon="5.74769">
        <ele>1699.748291</ele>
        <time>2011-06-04T08:47:43Z</time>
      </trkpt>
      <trkpt lat="45.30682" lon="5.74774">
        <ele>1700.7094727</ele>
        <time>2011-06-04T08:47:48Z</time>
      </trkpt>
      <trkpt lat="45.30694" lon="5.7479">
        <ele>1700.7094727</ele>
        <time>2011-06-04T08:47:56Z</time>
      </trkpt>
      <trkpt lat="45.30701" lon="5.74804">
        <ele>1699.748291</ele>
        <time>2011-06-04T08:48:01Z</time>
      </trkpt>
      <trkpt lat="45.30703" lon="5.74807">
        <ele>1700.2290039</ele>
        <time>2011-06-04T08:48:02Z</time>
      </trkpt>
      <trkpt lat="45.30706" lon="5.7481">
        <ele>1700.2290039</ele>
        <time>2011-06-04T08:48:04Z</time>
      </trkpt>
      <trkpt lat="45.30713" lon="5.74818">
        <ele>1701.1901855</ele>
        <time>2011-06-04T08:48:10Z</time>
      </trkpt>
      <trkpt lat="45.30715" lon="5.74821">
        <ele>1701.6708984</ele>
        <time>2011-06-04T08:48:12Z</time>
      </trkpt>
      <trkpt lat="45.30718" lon="5.74828">
        <ele>1701.6708984</ele>
        <time>2011-06-04T08:48:15Z</time>
      </trkpt>
      <trkpt lat="45.30724" lon="5.74839">
        <ele>1700.7094727</ele>
        <time>2011-06-04T08:48:21Z</time>
      </trkpt>
      <trkpt lat="45.30726" lon="5.74845">
        <ele>1700.2290039</ele>
        <time>2011-06-04T08:48:25Z</time>
      </trkpt>
      <trkpt lat="45.30729" lon="5.7485">
        <ele>1699.748291</ele>
        <time>2011-06-04T08:48:29Z</time>
      </trkpt>
      <trkpt lat="45.30729" lon="5.74852">
        <ele>1699.748291</ele>
        <time>2011-06-04T08:48:30Z</time>
      </trkpt>
      <trkpt lat="45.30734" lon="5.74863">
        <ele>1699.2675781</ele>
        <time>2011-06-04T08:48:37Z</time>
      </trkpt>
      <trkpt lat="45.30739" lon="5.74871">
        <ele>1699.2675781</ele>
        <time>2011-06-04T08:48:41Z</time>
      </trkpt>
      <trkpt lat="45.30744" lon="5.74875">
        <ele>1699.2675781</ele>
        <time>2011-06-04T08:48:44Z</time>
      </trkpt>
      <trkpt lat="45.30751" lon="5.74881">
        <ele>1699.2675781</ele>
        <time>2011-06-04T08:48:48Z</time>
      </trkpt>
      <trkpt lat="45.30758" lon="5.74887">
        <ele>1699.748291</ele>
        <time>2011-06-04T08:48:53Z</time>
      </trkpt>
      <trkpt lat="45.30763" lon="5.74895">
        <ele>1700.2290039</ele>
        <time>2011-06-04T08:48:57Z</time>
      </trkpt>
      <trkpt lat="45.30765" lon="5.74898">
        <ele>1700.7094727</ele>
        <time>2011-06-04T08:48:59Z</time>
      </trkpt>
      <trkpt lat="45.30768" lon="5.74907">
        <ele>1699.2675781</ele>
        <time>2011-06-04T08:49:05Z</time>
      </trkpt>
      <trkpt lat="45.3077" lon="5.74914">
        <ele>1698.3061523</ele>
        <time>2011-06-04T08:49:08Z</time>
      </trkpt>
      <trkpt lat="45.30777" lon="5.74919">
        <ele>1698.3061523</ele>
        <time>2011-06-04T08:49:13Z</time>
      </trkpt>
      <trkpt lat="45.30783" lon="5.74924">
        <ele>1699.2675781</ele>
        <time>2011-06-04T08:49:17Z</time>
      </trkpt>
      <trkpt lat="45.30784" lon="5.74929">
        <ele>1698.7868652</ele>
        <time>2011-06-04T08:49:19Z</time>
      </trkpt>
      <trkpt lat="45.30789" lon="5.74939">
        <ele>1696.3837891</ele>
        <time>2011-06-04T08:49:26Z</time>
      </trkpt>
      <trkpt lat="45.3079" lon="5.74945">
        <ele>1694.4609375</ele>
        <time>2011-06-04T08:49:30Z</time>
      </trkpt>
      <trkpt lat="45.30787" lon="5.74952">
        <ele>1692.0578613</ele>
        <time>2011-06-04T08:49:33Z</time>
      </trkpt>
      <trkpt lat="45.30793" lon="5.74961">
        <ele>1689.173584</ele>
        <time>2011-06-04T08:49:37Z</time>
      </trkpt>
      <trkpt lat="45.30798" lon="5.74968">
        <ele>1687.7316895</ele>
        <time>2011-06-04T08:49:40Z</time>
      </trkpt>
      <trkpt lat="45.30799" lon="5.74975">
        <ele>1686.7702637</ele>
        <time>2011-06-04T08:49:43Z</time>
      </trkpt>
      <trkpt lat="45.308" lon="5.74977">
        <ele>1686.2897949</ele>
        <time>2011-06-04T08:49:44Z</time>
      </trkpt>
      <trkpt lat="45.30797" lon="5.74988">
        <ele>1684.8479004</ele>
        <time>2011-06-04T08:49:48Z</time>
      </trkpt>
      <trkpt lat="45.30799" lon="5.74999">
        <ele>1683.4057617</ele>
        <time>2011-06-04T08:49:53Z</time>
      </trkpt>
      <trkpt lat="45.30801" lon="5.75004">
        <ele>1682.4445801</ele>
        <time>2011-06-04T08:49:55Z</time>
      </trkpt>
      <trkpt lat="45.30801" lon="5.75007">
        <ele>1681.9638672</ele>
        <time>2011-06-04T08:49:57Z</time>
      </trkpt>
      <trkpt lat="45.30804" lon="5.75017">
        <ele>1680.5219727</ele>
        <time>2011-06-04T08:50:01Z</time>
      </trkpt>
      <trkpt lat="45.3081" lon="5.75029">
        <ele>1679.079834</ele>
        <time>2011-06-04T08:50:06Z</time>
      </trkpt>
      <trkpt lat="45.30812" lon="5.75032">
        <ele>1679.079834</ele>
        <time>2011-06-04T08:50:08Z</time>
      </trkpt>
      <trkpt lat="45.30822" lon="5.75039">
        <ele>1675.7150879</ele>
        <time>2011-06-04T08:50:14Z</time>
      </trkpt>
      <trkpt lat="45.30823" lon="5.75041">
        <ele>1674.7539063</ele>
        <time>2011-06-04T08:50:15Z</time>
      </trkpt>
      <trkpt lat="45.30829" lon="5.75049">
        <ele>1672.3505859</ele>
        <time>2011-06-04T08:50:20Z</time>
      </trkpt>
      <trkpt lat="45.30839" lon="5.75069">
        <ele>1667.0634766</ele>
        <time>2011-06-04T08:50:28Z</time>
      </trkpt>
      <trkpt lat="45.3084" lon="5.75075">
        <ele>1665.621582</ele>
        <time>2011-06-04T08:50:30Z</time>
      </trkpt>
      <trkpt lat="45.30845" lon="5.75085">
        <ele>1661.7763672</ele>
        <time>2011-06-04T08:50:35Z</time>
      </trkpt>
      <trkpt lat="45.30851" lon="5.75099">
        <ele>1657.4501953</ele>
        <time>2011-06-04T08:50:40Z</time>
      </trkpt>
      <trkpt lat="45.30856" lon="5.75111">
        <ele>1655.046875</ele>
        <time>2011-06-04T08:50:44Z</time>
      </trkpt>
      <trkpt lat="45.30864" lon="5.75132">
        <ele>1649.7597656</ele>
        <time>2011-06-04T08:50:51Z</time>
      </trkpt>
      <trkpt lat="45.30869" lon="5.75152">
        <ele>1646.3952637</ele>
        <time>2011-06-04T08:50:56Z</time>
      </trkpt>
      <trkpt lat="45.30877" lon="5.75177">
        <ele>1645.4338379</ele>
        <time>2011-06-04T08:51:03Z</time>
      </trkpt>
      <trkpt lat="45.30883" lon="5.75191">
        <ele>1644.953125</ele>
        <time>2011-06-04T08:51:08Z</time>
      </trkpt>
      <trkpt lat="45.30888" lon="5.75208">
        <ele>1645.9145508</ele>
        <time>2011-06-04T08:51:14Z</time>
      </trkpt>
      <trkpt lat="45.30895" lon="5.75229">
        <ele>1645.9145508</ele>
        <time>2011-06-04T08:51:20Z</time>
      </trkpt>
      <trkpt lat="45.30902" lon="5.7524">
        <ele>1646.3952637</ele>
        <time>2011-06-04T08:51:24Z</time>
      </trkpt>
      <trkpt lat="45.30909" lon="5.75257">
        <ele>1646.3952637</ele>
        <time>2011-06-04T08:51:29Z</time>
      </trkpt>
      <trkpt lat="45.30923" lon="5.75278">
        <ele>1643.9916992</ele>
        <time>2011-06-04T08:51:36Z</time>
      </trkpt>
      <trkpt lat="45.30935" lon="5.75293">
        <ele>1640.1464844</ele>
        <time>2011-06-04T08:51:41Z</time>
      </trkpt>
      <trkpt lat="45.30946" lon="5.75306">
        <ele>1637.2624512</ele>
        <time>2011-06-04T08:51:46Z</time>
      </trkpt>
      <trkpt lat="45.30956" lon="5.75315">
        <ele>1636.3012695</ele>
        <time>2011-06-04T08:51:50Z</time>
      </trkpt>
      <trkpt lat="45.30967" lon="5.7533">
        <ele>1634.3786621</ele>
        <time>2011-06-04T08:51:56Z</time>
      </trkpt>
      <trkpt lat="45.30973" lon="5.75343">
        <ele>1634.859375</ele>
        <time>2011-06-04T08:52:01Z</time>
      </trkpt>
      <trkpt lat="45.30974" lon="5.75348">
        <ele>1635.3398438</ele>
        <time>2011-06-04T08:52:03Z</time>
      </trkpt>
      <trkpt lat="45.30982" lon="5.75361">
        <ele>1636.3012695</ele>
        <time>2011-06-04T08:52:09Z</time>
      </trkpt>
      <trkpt lat="45.30992" lon="5.75368">
        <ele>1637.7431641</ele>
        <time>2011-06-04T08:52:15Z</time>
      </trkpt>
      <trkpt lat="45.30999" lon="5.7537">
        <ele>1638.7045898</ele>
        <time>2011-06-04T08:52:19Z</time>
      </trkpt>
      <trkpt lat="45.31005" lon="5.75375">
        <ele>1638.223877</ele>
        <time>2011-06-04T08:52:24Z</time>
      </trkpt>
      <trkpt lat="45.31009" lon="5.75383">
        <ele>1637.7431641</ele>
        <time>2011-06-04T08:52:30Z</time>
      </trkpt>
      <trkpt lat="45.31017" lon="5.75393">
        <ele>1636.7817383</ele>
        <time>2011-06-04T08:52:35Z</time>
      </trkpt>
      <trkpt lat="45.31025" lon="5.75399">
        <ele>1636.7817383</ele>
        <time>2011-06-04T08:52:42Z</time>
      </trkpt>
      <trkpt lat="45.31031" lon="5.75402">
        <ele>1636.7817383</ele>
        <time>2011-06-04T08:52:47Z</time>
      </trkpt>
      <trkpt lat="45.31032" lon="5.75403">
        <ele>1636.7817383</ele>
        <time>2011-06-04T08:52:48Z</time>
      </trkpt>
      <trkpt lat="45.31036" lon="5.75409">
        <ele>1637.2624512</ele>
        <time>2011-06-04T08:52:53Z</time>
      </trkpt>
      <trkpt lat="45.31044" lon="5.75414">
        <ele>1637.7431641</ele>
        <time>2011-06-04T08:53:01Z</time>
      </trkpt>
      <trkpt lat="45.31045" lon="5.75415">
        <ele>1636.7817383</ele>
        <time>2011-06-04T08:53:08Z</time>
      </trkpt>
      <trkpt lat="45.3105" lon="5.75417">
        <ele>1638.223877</ele>
        <time>2011-06-04T08:53:12Z</time>
      </trkpt>
      <trkpt lat="45.31061" lon="5.75424">
        <ele>1639.6657715</ele>
        <time>2011-06-04T08:53:21Z</time>
      </trkpt>
      <trkpt lat="45.31072" lon="5.75432">
        <ele>1641.107666</ele>
        <time>2011-06-04T08:53:31Z</time>
      </trkpt>
      <trkpt lat="45.31082" lon="5.75442">
        <ele>1641.5883789</ele>
        <time>2011-06-04T08:53:38Z</time>
      </trkpt>
      <trkpt lat="45.31092" lon="5.7545">
        <ele>1643.0302734</ele>
        <time>2011-06-04T08:53:43Z</time>
      </trkpt>
      <trkpt lat="45.31105" lon="5.75458">
        <ele>1645.4338379</ele>
        <time>2011-06-04T08:53:49Z</time>
      </trkpt>
      <trkpt lat="45.31119" lon="5.75465">
        <ele>1646.8757324</ele>
        <time>2011-06-04T08:53:55Z</time>
      </trkpt>
      <trkpt lat="45.3113" lon="5.75469">
        <ele>1645.9145508</ele>
        <time>2011-06-04T08:54:00Z</time>
      </trkpt>
      <trkpt lat="45.31143" lon="5.75472">
        <ele>1645.9145508</ele>
        <time>2011-06-04T08:54:06Z</time>
      </trkpt>
      <trkpt lat="45.31157" lon="5.75475">
        <ele>1644.953125</ele>
        <time>2011-06-04T08:54:12Z</time>
      </trkpt>
      <trkpt lat="45.31171" lon="5.75476">
        <ele>1644.4724121</ele>
        <time>2011-06-04T08:54:18Z</time>
      </trkpt>
      <trkpt lat="45.31173" lon="5.75476">
        <ele>1644.4724121</ele>
        <time>2011-06-04T08:54:19Z</time>
      </trkpt>
      <trkpt lat="45.31177" lon="5.75479">
        <ele>1644.4724121</ele>
        <time>2011-06-04T08:54:23Z</time>
      </trkpt>
      <trkpt lat="45.31186" lon="5.75476">
        <ele>1644.4724121</ele>
        <time>2011-06-04T08:54:28Z</time>
      </trkpt>
      <trkpt lat="45.312" lon="5.75475">
        <ele>1643.9916992</ele>
        <time>2011-06-04T08:54:33Z</time>
      </trkpt>
      <trkpt lat="45.31212" lon="5.7547">
        <ele>1643.9916992</ele>
        <time>2011-06-04T08:54:38Z</time>
      </trkpt>
      <trkpt lat="45.31224" lon="5.75461">
        <ele>1644.4724121</ele>
        <time>2011-06-04T08:54:43Z</time>
      </trkpt>
      <trkpt lat="45.31235" lon="5.75447">
        <ele>1644.4724121</ele>
        <time>2011-06-04T08:54:49Z</time>
      </trkpt>
      <trkpt lat="45.31247" lon="5.75434">
        <ele>1644.4724121</ele>
        <time>2011-06-04T08:54:55Z</time>
      </trkpt>
      <trkpt lat="45.31249" lon="5.75432">
        <ele>1644.4724121</ele>
        <time>2011-06-04T08:54:56Z</time>
      </trkpt>
      <trkpt lat="45.31263" lon="5.75424">
        <ele>1643.0302734</ele>
        <time>2011-06-04T08:55:02Z</time>
      </trkpt>
      <trkpt lat="45.3128" lon="5.75416">
        <ele>1642.0690918</ele>
        <time>2011-06-04T08:55:09Z</time>
      </trkpt>
      <trkpt lat="45.31295" lon="5.7541">
        <ele>1642.0690918</ele>
        <time>2011-06-04T08:55:15Z</time>
      </trkpt>
      <trkpt lat="45.31308" lon="5.75405">
        <ele>1642.0690918</ele>
        <time>2011-06-04T08:55:20Z</time>
      </trkpt>
      <trkpt lat="45.31322" lon="5.75395">
        <ele>1642.5498047</ele>
        <time>2011-06-04T08:55:26Z</time>
      </trkpt>
      <trkpt lat="45.31331" lon="5.75387">
        <ele>1641.5883789</ele>
        <time>2011-06-04T08:55:30Z</time>
      </trkpt>
      <trkpt lat="45.31348" lon="5.75379">
        <ele>1639.6657715</ele>
        <time>2011-06-04T08:55:36Z</time>
      </trkpt>
      <trkpt lat="45.31361" lon="5.75378">
        <ele>1639.6657715</ele>
        <time>2011-06-04T08:55:41Z</time>
      </trkpt>
      <trkpt lat="45.31372" lon="5.7538">
        <ele>1640.1464844</ele>
        <time>2011-06-04T08:55:45Z</time>
      </trkpt>
      <trkpt lat="45.31389" lon="5.75381">
        <ele>1640.6269531</ele>
        <time>2011-06-04T08:55:52Z</time>
      </trkpt>
      <trkpt lat="45.31402" lon="5.75382">
        <ele>1641.5883789</ele>
        <time>2011-06-04T08:55:57Z</time>
      </trkpt>
      <trkpt lat="45.31414" lon="5.75382">
        <ele>1642.5498047</ele>
        <time>2011-06-04T08:56:02Z</time>
      </trkpt>
      <trkpt lat="45.31427" lon="5.75384">
        <ele>1643.5109863</ele>
        <time>2011-06-04T08:56:07Z</time>
      </trkpt>
      <trkpt lat="45.31441" lon="5.75388">
        <ele>1645.4338379</ele>
        <time>2011-06-04T08:56:13Z</time>
      </trkpt>
      <trkpt lat="45.31454" lon="5.75391">
        <ele>1645.9145508</ele>
        <time>2011-06-04T08:56:19Z</time>
      </trkpt>
      <trkpt lat="45.31468" lon="5.75391">
        <ele>1646.8757324</ele>
        <time>2011-06-04T08:56:25Z</time>
      </trkpt>
      <trkpt lat="45.31481" lon="5.75391">
        <ele>1648.7983398</ele>
        <time>2011-06-04T08:56:31Z</time>
      </trkpt>
      <trkpt lat="45.31492" lon="5.75393">
        <ele>1650.7209473</ele>
        <time>2011-06-04T08:56:36Z</time>
      </trkpt>
      <trkpt lat="45.31503" lon="5.75399">
        <ele>1651.682373</ele>
        <time>2011-06-04T08:56:41Z</time>
      </trkpt>
      <trkpt lat="45.31514" lon="5.75406">
        <ele>1652.6435547</ele>
        <time>2011-06-04T08:56:46Z</time>
      </trkpt>
      <trkpt lat="45.31525" lon="5.75417">
        <ele>1652.6435547</ele>
        <time>2011-06-04T08:56:52Z</time>
      </trkpt>
      <trkpt lat="45.31535" lon="5.75424">
        <ele>1653.6049805</ele>
        <time>2011-06-04T08:56:57Z</time>
      </trkpt>
      <trkpt lat="45.31548" lon="5.75433">
        <ele>1654.5661621</ele>
        <time>2011-06-04T08:57:03Z</time>
      </trkpt>
      <trkpt lat="45.31561" lon="5.75437">
        <ele>1655.046875</ele>
        <time>2011-06-04T08:57:09Z</time>
      </trkpt>
      <trkpt lat="45.31575" lon="5.75442">
        <ele>1656.4887695</ele>
        <time>2011-06-04T08:57:16Z</time>
      </trkpt>
      <trkpt lat="45.31588" lon="5.75444">
        <ele>1656.4887695</ele>
        <time>2011-06-04T08:57:22Z</time>
      </trkpt>
      <trkpt lat="45.31602" lon="5.75449">
        <ele>1656.9694824</ele>
        <time>2011-06-04T08:57:28Z</time>
      </trkpt>
      <trkpt lat="45.31615" lon="5.7546">
        <ele>1658.8920898</ele>
        <time>2011-06-04T08:57:34Z</time>
      </trkpt>
      <trkpt lat="45.31624" lon="5.7547">
        <ele>1659.3728027</ele>
        <time>2011-06-04T08:57:39Z</time>
      </trkpt>
      <trkpt lat="45.31628" lon="5.75474">
        <ele>1659.3728027</ele>
        <time>2011-06-04T08:57:41Z</time>
      </trkpt>
      <trkpt lat="45.31643" lon="5.75491">
        <ele>1659.8532715</ele>
        <time>2011-06-04T08:57:49Z</time>
      </trkpt>
      <trkpt lat="45.31654" lon="5.75503">
        <ele>1659.3728027</ele>
        <time>2011-06-04T08:57:55Z</time>
      </trkpt>
      <trkpt lat="45.31663" lon="5.75513">
        <ele>1659.8532715</ele>
        <time>2011-06-04T08:58:00Z</time>
      </trkpt>
      <trkpt lat="45.31673" lon="5.75523">
        <ele>1660.8149414</ele>
        <time>2011-06-04T08:58:06Z</time>
      </trkpt>
      <trkpt lat="45.31686" lon="5.75534">
        <ele>1661.7763672</ele>
        <time>2011-06-04T08:58:13Z</time>
      </trkpt>
      <trkpt lat="45.31692" lon="5.75538">
        <ele>1662.2568359</ele>
        <time>2011-06-04T08:58:16Z</time>
      </trkpt>
      <trkpt lat="45.317" lon="5.75542">
        <ele>1662.2568359</ele>
        <time>2011-06-04T08:58:20Z</time>
      </trkpt>
      <trkpt lat="45.31709" lon="5.75547">
        <ele>1662.7375488</ele>
        <time>2011-06-04T08:58:25Z</time>
      </trkpt>
      <trkpt lat="45.31723" lon="5.75554">
        <ele>1664.1794434</ele>
        <time>2011-06-04T08:58:32Z</time>
      </trkpt>
      <trkpt lat="45.31733" lon="5.75563">
        <ele>1665.1408691</ele>
        <time>2011-06-04T08:58:37Z</time>
      </trkpt>
      <trkpt lat="45.3174" lon="5.75574">
        <ele>1665.1408691</ele>
        <time>2011-06-04T08:58:42Z</time>
      </trkpt>
      <trkpt lat="45.31752" lon="5.75587">
        <ele>1665.621582</ele>
        <time>2011-06-04T08:58:48Z</time>
      </trkpt>
      <trkpt lat="45.31754" lon="5.75589">
        <ele>1666.1020508</ele>
        <time>2011-06-04T08:58:49Z</time>
      </trkpt>
      <trkpt lat="45.31769" lon="5.75593">
        <ele>1667.0634766</ele>
        <time>2011-06-04T08:58:56Z</time>
      </trkpt>
      <trkpt lat="45.31781" lon="5.75586">
        <ele>1667.5439453</ele>
        <time>2011-06-04T08:59:02Z</time>
      </trkpt>
      <trkpt lat="45.31794" lon="5.75578">
        <ele>1667.5439453</ele>
        <time>2011-06-04T08:59:08Z</time>
      </trkpt>
      <trkpt lat="45.31807" lon="5.75571">
        <ele>1668.5053711</ele>
        <time>2011-06-04T08:59:14Z</time>
      </trkpt>
      <trkpt lat="45.31811" lon="5.75568">
        <ele>1668.986084</ele>
        <time>2011-06-04T08:59:16Z</time>
      </trkpt>
      <trkpt lat="45.31818" lon="5.75567">
        <ele>1669.9472656</ele>
        <time>2011-06-04T08:59:19Z</time>
      </trkpt>
      <trkpt lat="45.31833" lon="5.75578">
        <ele>1671.869873</ele>
        <time>2011-06-04T08:59:26Z</time>
      </trkpt>
      <trkpt lat="45.31844" lon="5.75588">
        <ele>1673.3120117</ele>
        <time>2011-06-04T08:59:31Z</time>
      </trkpt>
      <trkpt lat="45.31855" lon="5.756">
        <ele>1675.234375</ele>
        <time>2011-06-04T08:59:37Z</time>
      </trkpt>
      <trkpt lat="45.31865" lon="5.75609">
        <ele>1676.1960449</ele>
        <time>2011-06-04T08:59:42Z</time>
      </trkpt>
      <trkpt lat="45.31877" lon="5.75623">
        <ele>1675.7150879</ele>
        <time>2011-06-04T08:59:48Z</time>
      </trkpt>
      <trkpt lat="45.31889" lon="5.75639">
        <ele>1674.2731934</ele>
        <time>2011-06-04T08:59:54Z</time>
      </trkpt>
      <trkpt lat="45.31897" lon="5.7566">
        <ele>1674.2731934</ele>
        <time>2011-06-04T09:00:00Z</time>
      </trkpt>
      <trkpt lat="45.31895" lon="5.75676">
        <ele>1674.2731934</ele>
        <time>2011-06-04T09:00:04Z</time>
      </trkpt>
      <trkpt lat="45.31888" lon="5.75689">
        <ele>1675.7150879</ele>
        <time>2011-06-04T09:00:09Z</time>
      </trkpt>
      <trkpt lat="45.31888" lon="5.75691">
        <ele>1675.7150879</ele>
        <time>2011-06-04T09:00:10Z</time>
      </trkpt>
      <trkpt lat="45.31888" lon="5.75704">
        <ele>1675.7150879</ele>
        <time>2011-06-04T09:00:15Z</time>
      </trkpt>
      <trkpt lat="45.31887" lon="5.7572">
        <ele>1676.6767578</ele>
        <time>2011-06-04T09:00:20Z</time>
      </trkpt>
      <trkpt lat="45.3189" lon="5.7574">
        <ele>1677.6379395</ele>
        <time>2011-06-04T09:00:26Z</time>
      </trkpt>
      <trkpt lat="45.31894" lon="5.75755">
        <ele>1677.6379395</ele>
        <time>2011-06-04T09:00:31Z</time>
      </trkpt>
      <trkpt lat="45.31899" lon="5.75771">
        <ele>1677.6379395</ele>
        <time>2011-06-04T09:00:36Z</time>
      </trkpt>
      <trkpt lat="45.31904" lon="5.75787">
        <ele>1677.6379395</ele>
        <time>2011-06-04T09:00:41Z</time>
      </trkpt>
      <trkpt lat="45.31909" lon="5.75801">
        <ele>1678.1186523</ele>
        <time>2011-06-04T09:00:45Z</time>
      </trkpt>
      <trkpt lat="45.31914" lon="5.75817">
        <ele>1678.1186523</ele>
        <time>2011-06-04T09:00:50Z</time>
      </trkpt>
      <trkpt lat="45.31915" lon="5.75821">
        <ele>1678.5993652</ele>
        <time>2011-06-04T09:00:53Z</time>
      </trkpt>
      <trkpt lat="45.31916" lon="5.75832">
        <ele>1679.5605469</ele>
        <time>2011-06-04T09:00:59Z</time>
      </trkpt>
      <trkpt lat="45.31922" lon="5.75848">
        <ele>1683.4057617</ele>
        <time>2011-06-04T09:01:09Z</time>
      </trkpt>
      <trkpt lat="45.31928" lon="5.75859">
        <ele>1686.2897949</ele>
        <time>2011-06-04T09:01:17Z</time>
      </trkpt>
      <trkpt lat="45.31934" lon="5.75867">
        <ele>1690.1350098</ele>
        <time>2011-06-04T09:01:23Z</time>
      </trkpt>
      <trkpt lat="45.3194" lon="5.75875">
        <ele>1692.5385742</ele>
        <time>2011-06-04T09:01:30Z</time>
      </trkpt>
      <trkpt lat="45.31945" lon="5.75883">
        <ele>1695.4223633</ele>
        <time>2011-06-04T09:01:36Z</time>
      </trkpt>
      <trkpt lat="45.31948" lon="5.7589">
        <ele>1696.8642578</ele>
        <time>2011-06-04T09:01:41Z</time>
      </trkpt>
      <trkpt lat="45.31954" lon="5.759">
        <ele>1697.8256836</ele>
        <time>2011-06-04T09:01:46Z</time>
      </trkpt>
      <trkpt lat="45.31958" lon="5.75911">
        <ele>1697.8256836</ele>
        <time>2011-06-04T09:01:52Z</time>
      </trkpt>
      <trkpt lat="45.3196" lon="5.75919">
        <ele>1694.9416504</ele>
        <time>2011-06-04T09:01:56Z</time>
      </trkpt>
      <trkpt lat="45.31961" lon="5.7592">
        <ele>1694.4609375</ele>
        <time>2011-06-04T09:01:57Z</time>
      </trkpt>
      <trkpt lat="45.31957" lon="5.75933">
        <ele>1693.4997559</ele>
        <time>2011-06-04T09:02:04Z</time>
      </trkpt>
      <trkpt lat="45.31956" lon="5.75938">
        <ele>1694.9416504</ele>
        <time>2011-06-04T09:02:07Z</time>
      </trkpt>
      <trkpt lat="45.31954" lon="5.75944">
        <ele>1696.3837891</ele>
        <time>2011-06-04T09:02:12Z</time>
      </trkpt>
      <trkpt lat="45.31953" lon="5.75951">
        <ele>1697.8256836</ele>
        <time>2011-06-04T09:02:18Z</time>
      </trkpt>
      <trkpt lat="45.31952" lon="5.7596">
        <ele>1699.748291</ele>
        <time>2011-06-04T09:02:25Z</time>
      </trkpt>
      <trkpt lat="45.31952" lon="5.75967">
        <ele>1702.1513672</ele>
        <time>2011-06-04T09:02:32Z</time>
      </trkpt>
      <trkpt lat="45.3195" lon="5.75976">
        <ele>1704.0742188</ele>
        <time>2011-06-04T09:02:38Z</time>
      </trkpt>
      <trkpt lat="45.31949" lon="5.7598">
        <ele>1705.996582</ele>
        <time>2011-06-04T09:02:43Z</time>
      </trkpt>
      <trkpt lat="45.31948" lon="5.75989">
        <ele>1708.4001465</ele>
        <time>2011-06-04T09:02:50Z</time>
      </trkpt>
      <trkpt lat="45.31946" lon="5.75996">
        <ele>1708.8808594</ele>
        <time>2011-06-04T09:02:56Z</time>
      </trkpt>
      <trkpt lat="45.31945" lon="5.76006">
        <ele>1710.3227539</ele>
        <time>2011-06-04T09:03:04Z</time>
      </trkpt>
      <trkpt lat="45.31943" lon="5.76015">
        <ele>1711.2841797</ele>
        <time>2011-06-04T09:03:12Z</time>
      </trkpt>
      <trkpt lat="45.31941" lon="5.76024">
        <ele>1712.7260742</ele>
        <time>2011-06-04T09:03:20Z</time>
      </trkpt>
      <trkpt lat="45.3194" lon="5.76034">
        <ele>1715.6101074</ele>
        <time>2011-06-04T09:03:28Z</time>
      </trkpt>
      <trkpt lat="45.31939" lon="5.76045">
        <ele>1718.4938965</ele>
        <time>2011-06-04T09:03:37Z</time>
      </trkpt>
      <trkpt lat="45.31938" lon="5.76051">
        <ele>1719.4553223</ele>
        <time>2011-06-04T09:03:42Z</time>
      </trkpt>
      <trkpt lat="45.31936" lon="5.7606">
        <ele>1721.3776855</ele>
        <time>2011-06-04T09:03:48Z</time>
      </trkpt>
      <trkpt lat="45.31935" lon="5.76062">
        <ele>1721.3776855</ele>
        <time>2011-06-04T09:03:54Z</time>
      </trkpt>
      <trkpt lat="45.31935" lon="5.76063">
        <ele>1720.4165039</ele>
        <time>2011-06-04T09:04:03Z</time>
      </trkpt>
      <trkpt lat="45.31935" lon="5.76064">
        <ele>1719.935791</ele>
        <time>2011-06-04T09:04:08Z</time>
      </trkpt>
      <trkpt lat="45.31938" lon="5.76068">
        <ele>1720.8972168</ele>
        <time>2011-06-04T09:04:14Z</time>
      </trkpt>
      <trkpt lat="45.31943" lon="5.76074">
        <ele>1722.8198242</ele>
        <time>2011-06-04T09:04:21Z</time>
      </trkpt>
      <trkpt lat="45.31945" lon="5.76076">
        <ele>1723.7810059</ele>
        <time>2011-06-04T09:04:23Z</time>
      </trkpt>
      <trkpt lat="45.3195" lon="5.76081">
        <ele>1725.2231445</ele>
        <time>2011-06-04T09:04:29Z</time>
      </trkpt>
      <trkpt lat="45.31955" lon="5.76087">
        <ele>1728.1071777</ele>
        <time>2011-06-04T09:04:36Z</time>
      </trkpt>
      <trkpt lat="45.3196" lon="5.76093">
        <ele>1729.0683594</ele>
        <time>2011-06-04T09:04:43Z</time>
      </trkpt>
      <trkpt lat="45.31964" lon="5.76096">
        <ele>1730.510498</ele>
        <time>2011-06-04T09:04:48Z</time>
      </trkpt>
      <trkpt lat="45.31969" lon="5.76099">
        <ele>1733.3942871</ele>
        <time>2011-06-04T09:04:54Z</time>
      </trkpt>
      <trkpt lat="45.3197" lon="5.761">
        <ele>1733.3942871</ele>
        <time>2011-06-04T09:04:55Z</time>
      </trkpt>
      <trkpt lat="45.31976" lon="5.76106">
        <ele>1734.8364258</ele>
        <time>2011-06-04T09:05:01Z</time>
      </trkpt>
      <trkpt lat="45.31977" lon="5.76107">
        <ele>1734.8364258</ele>
        <time>2011-06-04T09:05:02Z</time>
      </trkpt>
      <trkpt lat="45.31981" lon="5.76114">
        <ele>1736.7587891</ele>
        <time>2011-06-04T09:05:07Z</time>
      </trkpt>
      <trkpt lat="45.31986" lon="5.76118">
        <ele>1738.2009277</ele>
        <time>2011-06-04T09:05:12Z</time>
      </trkpt>
      <trkpt lat="45.3199" lon="5.76119">
        <ele>1738.6816406</ele>
        <time>2011-06-04T09:05:16Z</time>
      </trkpt>
      <trkpt lat="45.31993" lon="5.76127">
        <ele>1739.1621094</ele>
        <time>2011-06-04T09:05:22Z</time>
      </trkpt>
      <trkpt lat="45.31994" lon="5.76131">
        <ele>1740.1237793</ele>
        <time>2011-06-04T09:05:25Z</time>
      </trkpt>
      <trkpt lat="45.32" lon="5.7614">
        <ele>1740.604248</ele>
        <time>2011-06-04T09:05:32Z</time>
      </trkpt>
      <trkpt lat="45.32004" lon="5.76147">
        <ele>1740.604248</ele>
        <time>2011-06-04T09:05:36Z</time>
      </trkpt>
      <trkpt lat="45.32011" lon="5.76152">
        <ele>1740.604248</ele>
        <time>2011-06-04T09:05:41Z</time>
      </trkpt>
      <trkpt lat="45.32015" lon="5.76155">
        <ele>1742.0463867</ele>
        <time>2011-06-04T09:05:45Z</time>
      </trkpt>
      <trkpt lat="45.32018" lon="5.7616">
        <ele>1742.0463867</ele>
        <time>2011-06-04T09:05:50Z</time>
      </trkpt>
      <trkpt lat="45.32021" lon="5.76153">
        <ele>1742.0463867</ele>
        <time>2011-06-04T09:05:57Z</time>
      </trkpt>
      <trkpt lat="45.32021" lon="5.76148">
        <ele>1742.0463867</ele>
        <time>2011-06-04T09:06:02Z</time>
      </trkpt>
      <trkpt lat="45.3202" lon="5.76145">
        <ele>1743.0075684</ele>
        <time>2011-06-04T09:06:04Z</time>
      </trkpt>
      <trkpt lat="45.32017" lon="5.76141">
        <ele>1744.9301758</ele>
        <time>2011-06-04T09:06:07Z</time>
      </trkpt>
      <trkpt lat="45.32017" lon="5.76138">
        <ele>1745.8916016</ele>
        <time>2011-06-04T09:06:09Z</time>
      </trkpt>
      <trkpt lat="45.32018" lon="5.7613">
        <ele>1748.2946777</ele>
        <time>2011-06-04T09:06:14Z</time>
      </trkpt>
      <trkpt lat="45.32019" lon="5.76129">
        <ele>1748.7753906</ele>
        <time>2011-06-04T09:06:15Z</time>
      </trkpt>
      <trkpt lat="45.32023" lon="5.76125">
        <ele>1749.7368164</ele>
        <time>2011-06-04T09:06:19Z</time>
      </trkpt>
      <trkpt lat="45.32026" lon="5.76125">
        <ele>1751.1787109</ele>
        <time>2011-06-04T09:06:23Z</time>
      </trkpt>
      <trkpt lat="45.3203" lon="5.76129">
        <ele>1752.1398926</ele>
        <time>2011-06-04T09:06:29Z</time>
      </trkpt>
      <trkpt lat="45.32033" lon="5.76135">
        <ele>1752.6206055</ele>
        <time>2011-06-04T09:06:33Z</time>
      </trkpt>
      <trkpt lat="45.32033" lon="5.76139">
        <ele>1753.1013184</ele>
        <time>2011-06-04T09:06:35Z</time>
      </trkpt>
      <trkpt lat="45.32036" lon="5.76142">
        <ele>1753.5820313</ele>
        <time>2011-06-04T09:06:39Z</time>
      </trkpt>
      <trkpt lat="45.32037" lon="5.7614">
        <ele>1754.0627441</ele>
        <time>2011-06-04T09:06:41Z</time>
      </trkpt>
      <trkpt lat="45.32038" lon="5.76137">
        <ele>1754.5432129</ele>
        <time>2011-06-04T09:06:44Z</time>
      </trkpt>
      <trkpt lat="45.32042" lon="5.76129">
        <ele>1755.5046387</ele>
        <time>2011-06-04T09:06:50Z</time>
      </trkpt>
      <trkpt lat="45.32043" lon="5.76127">
        <ele>1755.9851074</ele>
        <time>2011-06-04T09:06:52Z</time>
      </trkpt>
      <trkpt lat="45.32047" lon="5.7613">
        <ele>1757.9082031</ele>
        <time>2011-06-04T09:06:57Z</time>
      </trkpt>
      <trkpt lat="45.32048" lon="5.76137">
        <ele>1759.8305664</ele>
        <time>2011-06-04T09:07:01Z</time>
      </trkpt>
      <trkpt lat="45.32049" lon="5.76138">
        <ele>1760.7919922</ele>
        <time>2011-06-04T09:07:03Z</time>
      </trkpt>
      <trkpt lat="45.32051" lon="5.76145">
        <ele>1762.2338867</ele>
        <time>2011-06-04T09:07:07Z</time>
      </trkpt>
      <trkpt lat="45.32052" lon="5.76142">
        <ele>1762.2338867</ele>
        <time>2011-06-04T09:07:12Z</time>
      </trkpt>
      <trkpt lat="45.32052" lon="5.7614">
        <ele>1762.2338867</ele>
        <time>2011-06-04T09:07:13Z</time>
      </trkpt>
      <trkpt lat="45.32055" lon="5.76134">
        <ele>1763.1953125</ele>
        <time>2011-06-04T09:07:19Z</time>
      </trkpt>
      <trkpt lat="45.32056" lon="5.76133">
        <ele>1763.1953125</ele>
        <time>2011-06-04T09:07:20Z</time>
      </trkpt>
      <trkpt lat="45.32059" lon="5.76134">
        <ele>1764.637207</ele>
        <time>2011-06-04T09:07:24Z</time>
      </trkpt>
      <trkpt lat="45.32063" lon="5.76141">
        <ele>1766.5598145</ele>
        <time>2011-06-04T09:07:30Z</time>
      </trkpt>
      <trkpt lat="45.32064" lon="5.76145">
        <ele>1768.9631348</ele>
        <time>2011-06-04T09:07:35Z</time>
      </trkpt>
      <trkpt lat="45.32067" lon="5.7615">
        <ele>1769.9243164</ele>
        <time>2011-06-04T09:07:39Z</time>
      </trkpt>
      <trkpt lat="45.32072" lon="5.76156">
        <ele>1770.4050293</ele>
        <time>2011-06-04T09:07:44Z</time>
      </trkpt>
      <trkpt lat="45.32074" lon="5.7616">
        <ele>1770.8857422</ele>
        <time>2011-06-04T09:07:47Z</time>
      </trkpt>
      <trkpt lat="45.32078" lon="5.76159">
        <ele>1771.8469238</ele>
        <time>2011-06-04T09:07:51Z</time>
      </trkpt>
      <trkpt lat="45.32082" lon="5.7615">
        <ele>1772.8085938</ele>
        <time>2011-06-04T09:07:59Z</time>
      </trkpt>
      <trkpt lat="45.32085" lon="5.76146">
        <ele>1772.8085938</ele>
        <time>2011-06-04T09:08:03Z</time>
      </trkpt>
      <trkpt lat="45.3209" lon="5.76152">
        <ele>1775.2116699</ele>
        <time>2011-06-04T09:08:10Z</time>
      </trkpt>
      <trkpt lat="45.32091" lon="5.76154">
        <ele>1775.6923828</ele>
        <time>2011-06-04T09:08:11Z</time>
      </trkpt>
      <trkpt lat="45.32098" lon="5.76157">
        <ele>1779.5375977</ele>
        <time>2011-06-04T09:08:20Z</time>
      </trkpt>
      <trkpt lat="45.32104" lon="5.76157">
        <ele>1779.5375977</ele>
        <time>2011-06-04T09:08:26Z</time>
      </trkpt>
      <trkpt lat="45.32109" lon="5.76158">
        <ele>1781.4602051</ele>
        <time>2011-06-04T09:08:32Z</time>
      </trkpt>
      <trkpt lat="45.32113" lon="5.76154">
        <ele>1782.9020996</ele>
        <time>2011-06-04T09:08:38Z</time>
      </trkpt>
      <trkpt lat="45.32116" lon="5.76147">
        <ele>1783.8635254</ele>
        <time>2011-06-04T09:08:44Z</time>
      </trkpt>
      <trkpt lat="45.32119" lon="5.76148">
        <ele>1785.7861328</ele>
        <time>2011-06-04T09:08:48Z</time>
      </trkpt>
      <trkpt lat="45.32122" lon="5.76149">
        <ele>1787.2280273</ele>
        <time>2011-06-04T09:08:53Z</time>
      </trkpt>
      <trkpt lat="45.32127" lon="5.76155">
        <ele>1787.7087402</ele>
        <time>2011-06-04T09:09:00Z</time>
      </trkpt>
      <trkpt lat="45.32129" lon="5.7616">
        <ele>1788.1896973</ele>
        <time>2011-06-04T09:09:05Z</time>
      </trkpt>
      <trkpt lat="45.32132" lon="5.76161">
        <ele>1789.1508789</ele>
        <time>2011-06-04T09:09:09Z</time>
      </trkpt>
      <trkpt lat="45.32137" lon="5.76161">
        <ele>1792.0349121</ele>
        <time>2011-06-04T09:09:16Z</time>
      </trkpt>
      <trkpt lat="45.32138" lon="5.76156">
        <ele>1792.9960938</ele>
        <time>2011-06-04T09:09:20Z</time>
      </trkpt>
      <trkpt lat="45.3214" lon="5.76149">
        <ele>1793.4768066</ele>
        <time>2011-06-04T09:09:25Z</time>
      </trkpt>
      <trkpt lat="45.32143" lon="5.76151">
        <ele>1793.4768066</ele>
        <time>2011-06-04T09:09:30Z</time>
      </trkpt>
      <trkpt lat="45.32147" lon="5.76157">
        <ele>1795.880127</ele>
        <time>2011-06-04T09:09:36Z</time>
      </trkpt>
      <trkpt lat="45.32152" lon="5.76161">
        <ele>1799.7253418</ele>
        <time>2011-06-04T09:09:45Z</time>
      </trkpt>
      <trkpt lat="45.32155" lon="5.76154">
        <ele>1800.2060547</ele>
        <time>2011-06-04T09:09:51Z</time>
      </trkpt>
      <trkpt lat="45.32159" lon="5.76153">
        <ele>1801.6479492</ele>
        <time>2011-06-04T09:09:56Z</time>
      </trkpt>
      <trkpt lat="45.32161" lon="5.76156">
        <ele>1802.6091309</ele>
        <time>2011-06-04T09:09:59Z</time>
      </trkpt>
      <trkpt lat="45.32164" lon="5.76164">
        <ele>1803.0898438</ele>
        <time>2011-06-04T09:10:05Z</time>
      </trkpt>
      <trkpt lat="45.32166" lon="5.76167">
        <ele>1803.5705566</ele>
        <time>2011-06-04T09:10:08Z</time>
      </trkpt>
      <trkpt lat="45.32172" lon="5.76168">
        <ele>1805.0126953</ele>
        <time>2011-06-04T09:10:15Z</time>
      </trkpt>
      <trkpt lat="45.32175" lon="5.76168">
        <ele>1807.8967285</ele>
        <time>2011-06-04T09:10:20Z</time>
      </trkpt>
      <trkpt lat="45.32179" lon="5.76168">
        <ele>1810.7805176</ele>
        <time>2011-06-04T09:10:25Z</time>
      </trkpt>
      <trkpt lat="45.32183" lon="5.76167">
        <ele>1812.2224121</ele>
        <time>2011-06-04T09:10:31Z</time>
      </trkpt>
      <trkpt lat="45.32189" lon="5.76166">
        <ele>1815.5871582</ele>
        <time>2011-06-04T09:10:39Z</time>
      </trkpt>
      <trkpt lat="45.32193" lon="5.76166">
        <ele>1817.0290527</ele>
        <time>2011-06-04T09:10:44Z</time>
      </trkpt>
      <trkpt lat="45.32198" lon="5.76166">
        <ele>1817.5095215</ele>
        <time>2011-06-04T09:10:49Z</time>
      </trkpt>
      <trkpt lat="45.32201" lon="5.76159">
        <ele>1818.4709473</ele>
        <time>2011-06-04T09:10:55Z</time>
      </trkpt>
      <trkpt lat="45.32203" lon="5.76157">
        <ele>1817.5095215</ele>
        <time>2011-06-04T09:11:00Z</time>
      </trkpt>
      <trkpt lat="45.32208" lon="5.76163">
        <ele>1819.432373</ele>
        <time>2011-06-04T09:11:07Z</time>
      </trkpt>
      <trkpt lat="45.32212" lon="5.76165">
        <ele>1820.8745117</ele>
        <time>2011-06-04T09:11:11Z</time>
      </trkpt>
      <trkpt lat="45.32216" lon="5.76173">
        <ele>1820.3937988</ele>
        <time>2011-06-04T09:11:16Z</time>
      </trkpt>
      <trkpt lat="45.3222" lon="5.76175">
        <ele>1822.3164063</ele>
        <time>2011-06-04T09:11:21Z</time>
      </trkpt>
      <trkpt lat="45.32224" lon="5.76178">
        <ele>1823.7583008</ele>
        <time>2011-06-04T09:11:26Z</time>
      </trkpt>
      <trkpt lat="45.32228" lon="5.76181">
        <ele>1824.7197266</ele>
        <time>2011-06-04T09:11:31Z</time>
      </trkpt>
      <trkpt lat="45.32232" lon="5.76181">
        <ele>1826.1616211</ele>
        <time>2011-06-04T09:11:36Z</time>
      </trkpt>
      <trkpt lat="45.32236" lon="5.7618">
        <ele>1827.6035156</ele>
        <time>2011-06-04T09:11:43Z</time>
      </trkpt>
      <trkpt lat="45.32238" lon="5.76177">
        <ele>1829.526123</ele>
        <time>2011-06-04T09:11:48Z</time>
      </trkpt>
      <trkpt lat="45.32241" lon="5.76182">
        <ele>1831.4487305</ele>
        <time>2011-06-04T09:11:54Z</time>
      </trkpt>
      <trkpt lat="45.32248" lon="5.76182">
        <ele>1832.4101563</ele>
        <time>2011-06-04T09:12:01Z</time>
      </trkpt>
      <trkpt lat="45.32251" lon="5.76182">
        <ele>1833.3713379</ele>
        <time>2011-06-04T09:12:06Z</time>
      </trkpt>
      <trkpt lat="45.32254" lon="5.76182">
        <ele>1834.3327637</ele>
        <time>2011-06-04T09:12:10Z</time>
      </trkpt>
      <trkpt lat="45.32258" lon="5.7618">
        <ele>1835.2939453</ele>
        <time>2011-06-04T09:12:15Z</time>
      </trkpt>
      <trkpt lat="45.32262" lon="5.76179">
        <ele>1835.2939453</ele>
        <time>2011-06-04T09:12:21Z</time>
      </trkpt>
      <trkpt lat="45.32268" lon="5.7618">
        <ele>1836.736084</ele>
        <time>2011-06-04T09:12:26Z</time>
      </trkpt>
      <trkpt lat="45.3227" lon="5.76179">
        <ele>1836.736084</ele>
        <time>2011-06-04T09:12:28Z</time>
      </trkpt>
      <trkpt lat="45.32275" lon="5.76176">
        <ele>1836.736084</ele>
        <time>2011-06-04T09:12:32Z</time>
      </trkpt>
      <trkpt lat="45.3228" lon="5.76175">
        <ele>1837.6975098</ele>
        <time>2011-06-04T09:12:36Z</time>
      </trkpt>
      <trkpt lat="45.32286" lon="5.76184">
        <ele>1837.2167969</ele>
        <time>2011-06-04T09:12:42Z</time>
      </trkpt>
      <trkpt lat="45.3229" lon="5.76188">
        <ele>1838.6589355</ele>
        <time>2011-06-04T09:12:47Z</time>
      </trkpt>
      <trkpt lat="45.32294" lon="5.76188">
        <ele>1840.5812988</ele>
        <time>2011-06-04T09:12:51Z</time>
      </trkpt>
      <trkpt lat="45.32296" lon="5.76192">
        <ele>1841.5427246</ele>
        <time>2011-06-04T09:12:56Z</time>
      </trkpt>
      <trkpt lat="45.32298" lon="5.76195">
        <ele>1841.5427246</ele>
        <time>2011-06-04T09:13:01Z</time>
      </trkpt>
      <trkpt lat="45.32302" lon="5.76197">
        <ele>1842.0234375</ele>
        <time>2011-06-04T09:13:06Z</time>
      </trkpt>
      <trkpt lat="45.32303" lon="5.76202">
        <ele>1842.0234375</ele>
        <time>2011-06-04T09:13:09Z</time>
      </trkpt>
      <trkpt lat="45.32304" lon="5.76209">
        <ele>1841.5427246</ele>
        <time>2011-06-04T09:13:13Z</time>
      </trkpt>
      <trkpt lat="45.32306" lon="5.76214">
        <ele>1840.1008301</ele>
        <time>2011-06-04T09:13:17Z</time>
      </trkpt>
      <trkpt lat="45.32308" lon="5.76216">
        <ele>1837.6975098</ele>
        <time>2011-06-04T09:13:22Z</time>
      </trkpt>
      <trkpt lat="45.32315" lon="5.76215">
        <ele>1837.2167969</ele>
        <time>2011-06-04T09:13:28Z</time>
      </trkpt>
      <trkpt lat="45.32319" lon="5.76214">
        <ele>1836.2556152</ele>
        <time>2011-06-04T09:13:33Z</time>
      </trkpt>
      <trkpt lat="45.3232" lon="5.76212">
        <ele>1835.7746582</ele>
        <time>2011-06-04T09:13:39Z</time>
      </trkpt>
      <trkpt lat="45.32324" lon="5.76213">
        <ele>1835.2939453</ele>
        <time>2011-06-04T09:13:51Z</time>
      </trkpt>
      <trkpt lat="45.32329" lon="5.76219">
        <ele>1835.2939453</ele>
        <time>2011-06-04T09:13:56Z</time>
      </trkpt>
      <trkpt lat="45.32329" lon="5.7622">
        <ele>1835.2939453</ele>
        <time>2011-06-04T09:13:57Z</time>
      </trkpt>
      <trkpt lat="45.32332" lon="5.76221">
        <ele>1835.7746582</ele>
        <time>2011-06-04T09:13:59Z</time>
      </trkpt>
      <trkpt lat="45.32336" lon="5.76229">
        <ele>1836.2556152</ele>
        <time>2011-06-04T09:14:05Z</time>
      </trkpt>
      <trkpt lat="45.32342" lon="5.76236">
        <ele>1834.8134766</ele>
        <time>2011-06-04T09:14:09Z</time>
      </trkpt>
      <trkpt lat="45.32348" lon="5.7624">
        <ele>1834.8134766</ele>
        <time>2011-06-04T09:14:14Z</time>
      </trkpt>
      <trkpt lat="45.32349" lon="5.76241">
        <ele>1834.3327637</ele>
        <time>2011-06-04T09:14:15Z</time>
      </trkpt>
      <trkpt lat="45.32356" lon="5.76245">
        <ele>1833.8520508</ele>
        <time>2011-06-04T09:14:19Z</time>
      </trkpt>
      <trkpt lat="45.32361" lon="5.76253">
        <ele>1833.8520508</ele>
        <time>2011-06-04T09:14:25Z</time>
      </trkpt>
      <trkpt lat="45.32374" lon="5.7627">
        <ele>1834.3327637</ele>
        <time>2011-06-04T09:14:36Z</time>
      </trkpt>
      <trkpt lat="45.32379" lon="5.76277">
        <ele>1834.3327637</ele>
        <time>2011-06-04T09:14:41Z</time>
      </trkpt>
      <trkpt lat="45.32387" lon="5.76285">
        <ele>1835.2939453</ele>
        <time>2011-06-04T09:14:48Z</time>
      </trkpt>
      <trkpt lat="45.32393" lon="5.76294">
        <ele>1835.7746582</ele>
        <time>2011-06-04T09:14:54Z</time>
      </trkpt>
      <trkpt lat="45.32399" lon="5.76298">
        <ele>1836.736084</ele>
        <time>2011-06-04T09:14:58Z</time>
      </trkpt>
      <trkpt lat="45.32403" lon="5.763">
        <ele>1836.2556152</ele>
        <time>2011-06-04T09:15:01Z</time>
      </trkpt>
      <trkpt lat="45.32406" lon="5.7631">
        <ele>1837.2167969</ele>
        <time>2011-06-04T09:15:07Z</time>
      </trkpt>
      <trkpt lat="45.32407" lon="5.76311">
        <ele>1837.2167969</ele>
        <time>2011-06-04T09:15:08Z</time>
      </trkpt>
      <trkpt lat="45.3241" lon="5.76313">
        <ele>1838.1782227</ele>
        <time>2011-06-04T09:15:11Z</time>
      </trkpt>
      <trkpt lat="45.32414" lon="5.76326">
        <ele>1841.5427246</ele>
        <time>2011-06-04T09:15:17Z</time>
      </trkpt>
      <trkpt lat="45.32418" lon="5.76333">
        <ele>1842.9846191</ele>
        <time>2011-06-04T09:15:21Z</time>
      </trkpt>
      <trkpt lat="45.32423" lon="5.76343">
        <ele>1844.4265137</ele>
        <time>2011-06-04T09:15:27Z</time>
      </trkpt>
      <trkpt lat="45.32424" lon="5.76345">
        <ele>1844.9072266</ele>
        <time>2011-06-04T09:15:29Z</time>
      </trkpt>
      <trkpt lat="45.32427" lon="5.7635">
        <ele>1846.3493652</ele>
        <time>2011-06-04T09:15:34Z</time>
      </trkpt>
      <trkpt lat="45.32429" lon="5.76353">
        <ele>1847.7912598</ele>
        <time>2011-06-04T09:15:36Z</time>
      </trkpt>
      <trkpt lat="45.32434" lon="5.76357">
        <ele>1851.1557617</ele>
        <time>2011-06-04T09:15:43Z</time>
      </trkpt>
      <trkpt lat="45.32438" lon="5.76363">
        <ele>1853.5593262</ele>
        <time>2011-06-04T09:15:49Z</time>
      </trkpt>
      <trkpt lat="45.32444" lon="5.76365">
        <ele>1856.9238281</ele>
        <time>2011-06-04T09:15:56Z</time>
      </trkpt>
      <trkpt lat="45.32447" lon="5.76372">
        <ele>1858.8464355</ele>
        <time>2011-06-04T09:16:02Z</time>
      </trkpt>
      <trkpt lat="45.32448" lon="5.76373">
        <ele>1858.3657227</ele>
        <time>2011-06-04T09:16:08Z</time>
      </trkpt>
      <trkpt lat="45.32449" lon="5.76373">
        <ele>1858.3657227</ele>
        <time>2011-06-04T09:16:09Z</time>
      </trkpt>
      <trkpt lat="45.32451" lon="5.76376">
        <ele>1857.8852539</ele>
        <time>2011-06-04T09:16:12Z</time>
      </trkpt>
      <trkpt lat="45.32454" lon="5.7638">
        <ele>1858.3657227</ele>
        <time>2011-06-04T09:16:16Z</time>
      </trkpt>
      <trkpt lat="45.32457" lon="5.76381">
        <ele>1859.8076172</ele>
        <time>2011-06-04T09:16:19Z</time>
      </trkpt>
      <trkpt lat="45.32464" lon="5.76382">
        <ele>1861.7304688</ele>
        <time>2011-06-04T09:16:26Z</time>
      </trkpt>
      <trkpt lat="45.3247" lon="5.76388">
        <ele>1864.1335449</ele>
        <time>2011-06-04T09:16:32Z</time>
      </trkpt>
      <trkpt lat="45.32472" lon="5.76389">
        <ele>1865.0949707</ele>
        <time>2011-06-04T09:16:35Z</time>
      </trkpt>
      <trkpt lat="45.32475" lon="5.76393">
        <ele>1865.5756836</ele>
        <time>2011-06-04T09:16:39Z</time>
      </trkpt>
      <trkpt lat="45.32481" lon="5.76395">
        <ele>1867.4980469</ele>
        <time>2011-06-04T09:16:46Z</time>
      </trkpt>
      <trkpt lat="45.32485" lon="5.76397">
        <ele>1868.9404297</ele>
        <time>2011-06-04T09:16:52Z</time>
      </trkpt>
      <trkpt lat="45.32488" lon="5.76399">
        <ele>1869.4211426</ele>
        <time>2011-06-04T09:16:57Z</time>
      </trkpt>
      <trkpt lat="45.3249" lon="5.76399">
        <ele>1870.3823242</ele>
        <time>2011-06-04T09:16:59Z</time>
      </trkpt>
      <trkpt lat="45.32495" lon="5.76407">
        <ele>1872.7856445</ele>
        <time>2011-06-04T09:17:06Z</time>
      </trkpt>
      <trkpt lat="45.32496" lon="5.76409">
        <ele>1873.2663574</ele>
        <time>2011-06-04T09:17:08Z</time>
      </trkpt>
      <trkpt lat="45.32499" lon="5.76411">
        <ele>1872.7856445</ele>
        <time>2011-06-04T09:17:15Z</time>
      </trkpt>
      <trkpt lat="45.32498" lon="5.76407">
        <ele>1871.8242188</ele>
        <time>2011-06-04T09:17:21Z</time>
      </trkpt>
      <trkpt lat="45.32498" lon="5.76407">
        <ele>1870.8630371</ele>
        <time>2011-06-04T09:17:30Z</time>
      </trkpt>
      <trkpt lat="45.32499" lon="5.76406">
        <ele>1869.9016113</ele>
        <time>2011-06-04T09:17:45Z</time>
      </trkpt>
      <trkpt lat="45.32498" lon="5.76407">
        <ele>1869.9016113</ele>
        <time>2011-06-04T09:17:47Z</time>
      </trkpt>
      <trkpt lat="45.32494" lon="5.76404">
        <ele>1867.4980469</ele>
        <time>2011-06-04T09:17:52Z</time>
      </trkpt>
      <trkpt lat="45.32491" lon="5.76401">
        <ele>1866.5368652</ele>
        <time>2011-06-04T09:17:55Z</time>
      </trkpt>
      <trkpt lat="45.32485" lon="5.76395">
        <ele>1864.6142578</ele>
        <time>2011-06-04T09:18:01Z</time>
      </trkpt>
      <trkpt lat="45.32482" lon="5.76393">
        <ele>1863.1723633</ele>
        <time>2011-06-04T09:18:04Z</time>
      </trkpt>
      <trkpt lat="45.32475" lon="5.76387">
        <ele>1864.1335449</ele>
        <time>2011-06-04T09:18:10Z</time>
      </trkpt>
      <trkpt lat="45.32469" lon="5.76379">
        <ele>1862.6916504</ele>
        <time>2011-06-04T09:18:14Z</time>
      </trkpt>
      <trkpt lat="45.32464" lon="5.76373">
        <ele>1859.8076172</ele>
        <time>2011-06-04T09:18:19Z</time>
      </trkpt>
      <trkpt lat="45.32459" lon="5.76374">
        <ele>1859.3271484</ele>
        <time>2011-06-04T09:18:23Z</time>
      </trkpt>
      <trkpt lat="45.32454" lon="5.76367">
        <ele>1857.404541</ele>
        <time>2011-06-04T09:18:27Z</time>
      </trkpt>
      <trkpt lat="45.32453" lon="5.76364">
        <ele>1857.404541</ele>
        <time>2011-06-04T09:18:28Z</time>
      </trkpt>
      <trkpt lat="45.32448" lon="5.76356">
        <ele>1855.4819336</ele>
        <time>2011-06-04T09:18:33Z</time>
      </trkpt>
      <trkpt lat="45.32444" lon="5.76351">
        <ele>1853.0786133</ele>
        <time>2011-06-04T09:18:37Z</time>
      </trkpt>
      <trkpt lat="45.3244" lon="5.76346">
        <ele>1851.6364746</ele>
        <time>2011-06-04T09:18:40Z</time>
      </trkpt>
      <trkpt lat="45.32436" lon="5.7634">
        <ele>1847.7912598</ele>
        <time>2011-06-04T09:18:44Z</time>
      </trkpt>
      <trkpt lat="45.32432" lon="5.76339">
        <ele>1846.3493652</ele>
        <time>2011-06-04T09:18:46Z</time>
      </trkpt>
      <trkpt lat="45.32427" lon="5.76336">
        <ele>1844.4265137</ele>
        <time>2011-06-04T09:18:50Z</time>
      </trkpt>
      <trkpt lat="45.32421" lon="5.76331">
        <ele>1842.0234375</ele>
        <time>2011-06-04T09:18:54Z</time>
      </trkpt>
      <trkpt lat="45.32417" lon="5.76326">
        <ele>1840.5812988</ele>
        <time>2011-06-04T09:18:57Z</time>
      </trkpt>
      <trkpt lat="45.32413" lon="5.76322">
        <ele>1840.1008301</ele>
        <time>2011-06-04T09:19:01Z</time>
      </trkpt>
      <trkpt lat="45.32408" lon="5.76321">
        <ele>1839.6201172</ele>
        <time>2011-06-04T09:19:04Z</time>
      </trkpt>
      <trkpt lat="45.32404" lon="5.76314">
        <ele>1838.6589355</ele>
        <time>2011-06-04T09:19:08Z</time>
      </trkpt>
      <trkpt lat="45.32402" lon="5.7631">
        <ele>1838.6589355</ele>
        <time>2011-06-04T09:19:12Z</time>
      </trkpt>
      <trkpt lat="45.32397" lon="5.76299">
        <ele>1838.1782227</ele>
        <time>2011-06-04T09:19:16Z</time>
      </trkpt>
      <trkpt lat="45.32387" lon="5.76287">
        <ele>1835.7746582</ele>
        <time>2011-06-04T09:19:21Z</time>
      </trkpt>
      <trkpt lat="45.32371" lon="5.7629">
        <ele>1833.8520508</ele>
        <time>2011-06-04T09:19:27Z</time>
      </trkpt>
      <trkpt lat="45.32359" lon="5.76298">
        <ele>1833.3713379</ele>
        <time>2011-06-04T09:19:32Z</time>
      </trkpt>
      <trkpt lat="45.32352" lon="5.76299">
        <ele>1832.890625</ele>
        <time>2011-06-04T09:19:35Z</time>
      </trkpt>
      <trkpt lat="45.32337" lon="5.76301">
        <ele>1831.4487305</ele>
        <time>2011-06-04T09:19:41Z</time>
      </trkpt>
      <trkpt lat="45.32323" lon="5.76296">
        <ele>1827.6035156</ele>
        <time>2011-06-04T09:19:47Z</time>
      </trkpt>
      <trkpt lat="45.32314" lon="5.76289">
        <ele>1824.2390137</ele>
        <time>2011-06-04T09:19:51Z</time>
      </trkpt>
      <trkpt lat="45.3231" lon="5.7629">
        <ele>1822.3164063</ele>
        <time>2011-06-04T09:19:53Z</time>
      </trkpt>
      <trkpt lat="45.32301" lon="5.76288">
        <ele>1818.4709473</ele>
        <time>2011-06-04T09:19:57Z</time>
      </trkpt>
      <trkpt lat="45.32294" lon="5.76285">
        <ele>1814.1450195</ele>
        <time>2011-06-04T09:20:01Z</time>
      </trkpt>
      <trkpt lat="45.32285" lon="5.76287">
        <ele>1810.2998047</ele>
        <time>2011-06-04T09:20:06Z</time>
      </trkpt>
      <trkpt lat="45.3228" lon="5.76285">
        <ele>1808.3771973</ele>
        <time>2011-06-04T09:20:09Z</time>
      </trkpt>
      <trkpt lat="45.32276" lon="5.76285">
        <ele>1806.9353027</ele>
        <time>2011-06-04T09:20:11Z</time>
      </trkpt>
      <trkpt lat="45.32264" lon="5.76282">
        <ele>1803.0898438</ele>
        <time>2011-06-04T09:20:16Z</time>
      </trkpt>
      <trkpt lat="45.32258" lon="5.7628">
        <ele>1800.2060547</ele>
        <time>2011-06-04T09:20:19Z</time>
      </trkpt>
      <trkpt lat="45.32243" lon="5.76282">
        <ele>1795.3994141</ele>
        <time>2011-06-04T09:20:25Z</time>
      </trkpt>
      <trkpt lat="45.32227" lon="5.76286">
        <ele>1791.0734863</ele>
        <time>2011-06-04T09:20:31Z</time>
      </trkpt>
      <trkpt lat="45.32217" lon="5.76291">
        <ele>1787.2280273</ele>
        <time>2011-06-04T09:20:35Z</time>
      </trkpt>
      <trkpt lat="45.32203" lon="5.76294">
        <ele>1782.4216309</ele>
        <time>2011-06-04T09:20:41Z</time>
      </trkpt>
      <trkpt lat="45.32193" lon="5.76298">
        <ele>1777.1345215</ele>
        <time>2011-06-04T09:20:46Z</time>
      </trkpt>
      <trkpt lat="45.32182" lon="5.76299">
        <ele>1773.7697754</ele>
        <time>2011-06-04T09:20:50Z</time>
      </trkpt>
      <trkpt lat="45.32177" lon="5.76295">
        <ele>1770.8857422</ele>
        <time>2011-06-04T09:20:55Z</time>
      </trkpt>
      <trkpt lat="45.3217" lon="5.76297">
        <ele>1768.4824219</ele>
        <time>2011-06-04T09:21:00Z</time>
      </trkpt>
      <trkpt lat="45.32161" lon="5.76304">
        <ele>1764.1564941</ele>
        <time>2011-06-04T09:21:05Z</time>
      </trkpt>
      <trkpt lat="45.32155" lon="5.76303">
        <ele>1762.2338867</ele>
        <time>2011-06-04T09:21:08Z</time>
      </trkpt>
      <trkpt lat="45.32148" lon="5.76298">
        <ele>1759.3500977</ele>
        <time>2011-06-04T09:21:12Z</time>
      </trkpt>
      <trkpt lat="45.32142" lon="5.76299">
        <ele>1757.4274902</ele>
        <time>2011-06-04T09:21:15Z</time>
      </trkpt>
      <trkpt lat="45.32133" lon="5.76294">
        <ele>1754.5432129</ele>
        <time>2011-06-04T09:21:19Z</time>
      </trkpt>
      <trkpt lat="45.32126" lon="5.76292">
        <ele>1750.697998</ele>
        <time>2011-06-04T09:21:23Z</time>
      </trkpt>
      <trkpt lat="45.32115" lon="5.76287">
        <ele>1746.3723145</ele>
        <time>2011-06-04T09:21:28Z</time>
      </trkpt>
      <trkpt lat="45.32112" lon="5.76285">
        <ele>1744.9301758</ele>
        <time>2011-06-04T09:21:30Z</time>
      </trkpt>
      <trkpt lat="45.32111" lon="5.76284">
        <ele>1744.4494629</ele>
        <time>2011-06-04T09:21:32Z</time>
      </trkpt>
      <trkpt lat="45.32104" lon="5.76281">
        <ele>1742.5270996</ele>
        <time>2011-06-04T09:21:37Z</time>
      </trkpt>
      <trkpt lat="45.32101" lon="5.76281">
        <ele>1741.0849609</ele>
        <time>2011-06-04T09:21:40Z</time>
      </trkpt>
      <trkpt lat="45.32099" lon="5.76282">
        <ele>1740.604248</ele>
        <time>2011-06-04T09:21:42Z</time>
      </trkpt>
      <trkpt lat="45.32093" lon="5.76284">
        <ele>1738.6816406</ele>
        <time>2011-06-04T09:21:46Z</time>
      </trkpt>
      <trkpt lat="45.32087" lon="5.76283">
        <ele>1736.2783203</ele>
        <time>2011-06-04T09:21:50Z</time>
      </trkpt>
      <trkpt lat="45.32085" lon="5.76285">
        <ele>1735.7976074</ele>
        <time>2011-06-04T09:21:52Z</time>
      </trkpt>
      <trkpt lat="45.32086" lon="5.76291">
        <ele>1734.3557129</ele>
        <time>2011-06-04T09:21:56Z</time>
      </trkpt>
      <trkpt lat="45.32087" lon="5.76295">
        <ele>1733.875</ele>
        <time>2011-06-04T09:21:58Z</time>
      </trkpt>
      <trkpt lat="45.32088" lon="5.76299">
        <ele>1733.3942871</ele>
        <time>2011-06-04T09:22:00Z</time>
      </trkpt>
      <trkpt lat="45.32091" lon="5.76311">
        <ele>1732.9135742</ele>
        <time>2011-06-04T09:22:04Z</time>
      </trkpt>
      <trkpt lat="45.32093" lon="5.76317">
        <ele>1732.4331055</ele>
        <time>2011-06-04T09:22:06Z</time>
      </trkpt>
      <trkpt lat="45.32099" lon="5.76338">
        <ele>1732.9135742</ele>
        <time>2011-06-04T09:22:13Z</time>
      </trkpt>
      <trkpt lat="45.32104" lon="5.76348">
        <ele>1732.9135742</ele>
        <time>2011-06-04T09:22:17Z</time>
      </trkpt>
      <trkpt lat="45.32111" lon="5.7636">
        <ele>1731.9523926</ele>
        <time>2011-06-04T09:22:23Z</time>
      </trkpt>
      <trkpt lat="45.32113" lon="5.76365">
        <ele>1731.4716797</ele>
        <time>2011-06-04T09:22:25Z</time>
      </trkpt>
      <trkpt lat="45.3212" lon="5.76371">
        <ele>1731.4716797</ele>
        <time>2011-06-04T09:22:29Z</time>
      </trkpt>
      <trkpt lat="45.32128" lon="5.76375">
        <ele>1731.4716797</ele>
        <time>2011-06-04T09:22:35Z</time>
      </trkpt>
      <trkpt lat="45.32131" lon="5.7638">
        <ele>1730.510498</ele>
        <time>2011-06-04T09:22:39Z</time>
      </trkpt>
      <trkpt lat="45.32134" lon="5.76384">
        <ele>1730.0297852</ele>
        <time>2011-06-04T09:22:42Z</time>
      </trkpt>
      <trkpt lat="45.32135" lon="5.76392">
        <ele>1729.0683594</ele>
        <time>2011-06-04T09:22:47Z</time>
      </trkpt>
      <trkpt lat="45.32138" lon="5.76398">
        <ele>1728.1071777</ele>
        <time>2011-06-04T09:22:51Z</time>
      </trkpt>
      <trkpt lat="45.3214" lon="5.76409">
        <ele>1726.1845703</ele>
        <time>2011-06-04T09:22:56Z</time>
      </trkpt>
      <trkpt lat="45.3214" lon="5.76417">
        <ele>1723.3005371</ele>
        <time>2011-06-04T09:23:01Z</time>
      </trkpt>
      <trkpt lat="45.32141" lon="5.76419">
        <ele>1722.8198242</ele>
        <time>2011-06-04T09:23:03Z</time>
      </trkpt>
      <trkpt lat="45.32143" lon="5.76424">
        <ele>1721.3776855</ele>
        <time>2011-06-04T09:23:07Z</time>
      </trkpt>
      <trkpt lat="45.32145" lon="5.76429">
        <ele>1719.4553223</ele>
        <time>2011-06-04T09:23:11Z</time>
      </trkpt>
      <trkpt lat="45.32142" lon="5.76434">
        <ele>1717.052002</ele>
        <time>2011-06-04T09:23:15Z</time>
      </trkpt>
      <trkpt lat="45.32145" lon="5.76439">
        <ele>1714.1679688</ele>
        <time>2011-06-04T09:23:19Z</time>
      </trkpt>
      <trkpt lat="45.32147" lon="5.76445">
        <ele>1712.7260742</ele>
        <time>2011-06-04T09:23:23Z</time>
      </trkpt>
      <trkpt lat="45.32148" lon="5.7645">
        <ele>1710.8034668</ele>
        <time>2011-06-04T09:23:26Z</time>
      </trkpt>
      <trkpt lat="45.3215" lon="5.76457">
        <ele>1707.9194336</ele>
        <time>2011-06-04T09:23:31Z</time>
      </trkpt>
      <trkpt lat="45.32153" lon="5.76469">
        <ele>1705.0354004</ele>
        <time>2011-06-04T09:23:36Z</time>
      </trkpt>
      <trkpt lat="45.32156" lon="5.76472">
        <ele>1704.0742188</ele>
        <time>2011-06-04T09:23:39Z</time>
      </trkpt>
      <trkpt lat="45.32158" lon="5.76473">
        <ele>1704.0742188</ele>
        <time>2011-06-04T09:23:41Z</time>
      </trkpt>
      <trkpt lat="45.32159" lon="5.76475">
        <ele>1702.1513672</ele>
        <time>2011-06-04T09:23:46Z</time>
      </trkpt>
      <trkpt lat="45.32158" lon="5.76478">
        <ele>1701.1901855</ele>
        <time>2011-06-04T09:23:51Z</time>
      </trkpt>
      <trkpt lat="45.32156" lon="5.76478">
        <ele>1700.7094727</ele>
        <time>2011-06-04T09:23:57Z</time>
      </trkpt>
      <trkpt lat="45.32157" lon="5.76483">
        <ele>1699.2675781</ele>
        <time>2011-06-04T09:24:02Z</time>
      </trkpt>
      <trkpt lat="45.32158" lon="5.76488">
        <ele>1698.7868652</ele>
        <time>2011-06-04T09:24:04Z</time>
      </trkpt>
      <trkpt lat="45.32162" lon="5.76499">
        <ele>1696.8642578</ele>
        <time>2011-06-04T09:24:09Z</time>
      </trkpt>
      <trkpt lat="45.32163" lon="5.76505">
        <ele>1694.9416504</ele>
        <time>2011-06-04T09:24:12Z</time>
      </trkpt>
      <trkpt lat="45.32162" lon="5.76516">
        <ele>1693.4997559</ele>
        <time>2011-06-04T09:24:17Z</time>
      </trkpt>
      <trkpt lat="45.32163" lon="5.76519">
        <ele>1692.0578613</ele>
        <time>2011-06-04T09:24:21Z</time>
      </trkpt>
      <trkpt lat="45.32163" lon="5.7652">
        <ele>1692.0578613</ele>
        <time>2011-06-04T09:24:22Z</time>
      </trkpt>
      <trkpt lat="45.32162" lon="5.76528">
        <ele>1689.6542969</ele>
        <time>2011-06-04T09:24:28Z</time>
      </trkpt>
      <trkpt lat="45.32162" lon="5.76534">
        <ele>1689.6542969</ele>
        <time>2011-06-04T09:24:31Z</time>
      </trkpt>
      <trkpt lat="45.32162" lon="5.76546">
        <ele>1686.7702637</ele>
        <time>2011-06-04T09:24:36Z</time>
      </trkpt>
      <trkpt lat="45.32163" lon="5.76547">
        <ele>1685.809082</ele>
        <time>2011-06-04T09:24:38Z</time>
      </trkpt>
      <trkpt lat="45.32164" lon="5.76547">
        <ele>1685.3283691</ele>
        <time>2011-06-04T09:24:40Z</time>
      </trkpt>
      <trkpt lat="45.32166" lon="5.76554">
        <ele>1682.4445801</ele>
        <time>2011-06-04T09:24:44Z</time>
      </trkpt>
      <trkpt lat="45.32168" lon="5.76563">
        <ele>1680.5219727</ele>
        <time>2011-06-04T09:24:48Z</time>
      </trkpt>
      <trkpt lat="45.32169" lon="5.76565">
        <ele>1679.5605469</ele>
        <time>2011-06-04T09:24:50Z</time>
      </trkpt>
      <trkpt lat="45.3217" lon="5.76569">
        <ele>1679.079834</ele>
        <time>2011-06-04T09:24:54Z</time>
      </trkpt>
      <trkpt lat="45.3217" lon="5.76574">
        <ele>1677.6379395</ele>
        <time>2011-06-04T09:25:00Z</time>
      </trkpt>
      <trkpt lat="45.3217" lon="5.76579">
        <ele>1676.1960449</ele>
        <time>2011-06-04T09:25:03Z</time>
      </trkpt>
      <trkpt lat="45.32172" lon="5.76583">
        <ele>1673.7924805</ele>
        <time>2011-06-04T09:25:07Z</time>
      </trkpt>
      <trkpt lat="45.32173" lon="5.76587">
        <ele>1672.8312988</ele>
        <time>2011-06-04T09:25:10Z</time>
      </trkpt>
      <trkpt lat="45.32176" lon="5.76589">
        <ele>1671.869873</ele>
        <time>2011-06-04T09:25:15Z</time>
      </trkpt>
      <trkpt lat="45.32174" lon="5.76594">
        <ele>1669.4667969</ele>
        <time>2011-06-04T09:25:20Z</time>
      </trkpt>
      <trkpt lat="45.32175" lon="5.76597">
        <ele>1668.986084</ele>
        <time>2011-06-04T09:25:23Z</time>
      </trkpt>
      <trkpt lat="45.32177" lon="5.76604">
        <ele>1668.5053711</ele>
        <time>2011-06-04T09:25:28Z</time>
      </trkpt>
      <trkpt lat="45.32181" lon="5.76615">
        <ele>1666.5827637</ele>
        <time>2011-06-04T09:25:33Z</time>
      </trkpt>
      <trkpt lat="45.32181" lon="5.76617">
        <ele>1665.621582</ele>
        <time>2011-06-04T09:25:35Z</time>
      </trkpt>
      <trkpt lat="45.32182" lon="5.76619">
        <ele>1664.6601563</ele>
        <time>2011-06-04T09:25:37Z</time>
      </trkpt>
      <trkpt lat="45.32183" lon="5.76621">
        <ele>1663.2182617</ele>
        <time>2011-06-04T09:25:39Z</time>
      </trkpt>
      <trkpt lat="45.32187" lon="5.76627">
        <ele>1663.2182617</ele>
        <time>2011-06-04T09:25:43Z</time>
      </trkpt>
      <trkpt lat="45.32188" lon="5.7663">
        <ele>1662.2568359</ele>
        <time>2011-06-04T09:25:46Z</time>
      </trkpt>
      <trkpt lat="45.3219" lon="5.76637">
        <ele>1660.3342285</ele>
        <time>2011-06-04T09:25:52Z</time>
      </trkpt>
      <trkpt lat="45.32192" lon="5.76639">
        <ele>1660.3342285</ele>
        <time>2011-06-04T09:25:55Z</time>
      </trkpt>
      <trkpt lat="45.32193" lon="5.76641">
        <ele>1659.3728027</ele>
        <time>2011-06-04T09:25:58Z</time>
      </trkpt>
      <trkpt lat="45.32193" lon="5.76642">
        <ele>1658.411377</ele>
        <time>2011-06-04T09:26:01Z</time>
      </trkpt>
      <trkpt lat="45.32193" lon="5.76644">
        <ele>1657.4501953</ele>
        <time>2011-06-04T09:26:05Z</time>
      </trkpt>
      <trkpt lat="45.32195" lon="5.76647">
        <ele>1656.0080566</ele>
        <time>2011-06-04T09:26:10Z</time>
      </trkpt>
      <trkpt lat="45.32196" lon="5.76651">
        <ele>1655.5275879</ele>
        <time>2011-06-04T09:26:15Z</time>
      </trkpt>
      <trkpt lat="45.32197" lon="5.76652">
        <ele>1655.046875</ele>
        <time>2011-06-04T09:26:16Z</time>
      </trkpt>
      <trkpt lat="45.32205" lon="5.76663">
        <ele>1650.7209473</ele>
        <time>2011-06-04T09:26:22Z</time>
      </trkpt>
      <trkpt lat="45.32211" lon="5.7667">
        <ele>1646.8757324</ele>
        <time>2011-06-04T09:26:27Z</time>
      </trkpt>
      <trkpt lat="45.32214" lon="5.76673">
        <ele>1644.953125</ele>
        <time>2011-06-04T09:26:30Z</time>
      </trkpt>
      <trkpt lat="45.32215" lon="5.76676">
        <ele>1643.9916992</ele>
        <time>2011-06-04T09:26:33Z</time>
      </trkpt>
      <trkpt lat="45.32217" lon="5.76678">
        <ele>1642.0690918</ele>
        <time>2011-06-04T09:26:36Z</time>
      </trkpt>
      <trkpt lat="45.32219" lon="5.76686">
        <ele>1639.1850586</ele>
        <time>2011-06-04T09:26:40Z</time>
      </trkpt>
      <trkpt lat="45.32221" lon="5.7669">
        <ele>1638.7045898</ele>
        <time>2011-06-04T09:26:42Z</time>
      </trkpt>
      <trkpt lat="45.32232" lon="5.76699">
        <ele>1637.7431641</ele>
        <time>2011-06-04T09:26:47Z</time>
      </trkpt>
      <trkpt lat="45.32246" lon="5.76708">
        <ele>1640.6269531</ele>
        <time>2011-06-04T09:26:53Z</time>
      </trkpt>
      <trkpt lat="45.3225" lon="5.76711">
        <ele>1640.1464844</ele>
        <time>2011-06-04T09:26:55Z</time>
      </trkpt>
      <trkpt lat="45.32254" lon="5.76716">
        <ele>1642.0690918</ele>
        <time>2011-06-04T09:27:00Z</time>
      </trkpt>
      <trkpt lat="45.32262" lon="5.76727">
        <ele>1639.1850586</ele>
        <time>2011-06-04T09:27:06Z</time>
      </trkpt>
      <trkpt lat="45.32265" lon="5.76731">
        <ele>1637.7431641</ele>
        <time>2011-06-04T09:27:08Z</time>
      </trkpt>
      <trkpt lat="45.32276" lon="5.76735">
        <ele>1634.3786621</ele>
        <time>2011-06-04T09:27:13Z</time>
      </trkpt>
      <trkpt lat="45.32283" lon="5.76739">
        <ele>1633.4172363</ele>
        <time>2011-06-04T09:27:17Z</time>
      </trkpt>
      <trkpt lat="45.32285" lon="5.76741">
        <ele>1632.9365234</ele>
        <time>2011-06-04T09:27:21Z</time>
      </trkpt>
      <trkpt lat="45.32286" lon="5.76742">
        <ele>1631.9753418</ele>
        <time>2011-06-04T09:27:26Z</time>
      </trkpt>
      <trkpt lat="45.32286" lon="5.76746">
        <ele>1630.5334473</ele>
        <time>2011-06-04T09:27:31Z</time>
      </trkpt>
      <trkpt lat="45.3229" lon="5.7675">
        <ele>1628.6108398</ele>
        <time>2011-06-04T09:27:35Z</time>
      </trkpt>
      <trkpt lat="45.32293" lon="5.76753">
        <ele>1627.6491699</ele>
        <time>2011-06-04T09:27:38Z</time>
      </trkpt>
      <trkpt lat="45.32301" lon="5.76761">
        <ele>1624.284668</ele>
        <time>2011-06-04T09:27:43Z</time>
      </trkpt>
      <trkpt lat="45.32303" lon="5.76763">
        <ele>1623.8039551</ele>
        <time>2011-06-04T09:27:44Z</time>
      </trkpt>
      <trkpt lat="45.32312" lon="5.76771">
        <ele>1621.8813477</ele>
        <time>2011-06-04T09:27:49Z</time>
      </trkpt>
      <trkpt lat="45.32318" lon="5.76777">
        <ele>1624.7653809</ele>
        <time>2011-06-04T09:27:53Z</time>
      </trkpt>
      <trkpt lat="45.3232" lon="5.7678">
        <ele>1625.2458496</ele>
        <time>2011-06-04T09:27:55Z</time>
      </trkpt>
      <trkpt lat="45.32327" lon="5.76784">
        <ele>1624.284668</ele>
        <time>2011-06-04T09:28:00Z</time>
      </trkpt>
      <trkpt lat="45.32329" lon="5.76786">
        <ele>1623.8039551</ele>
        <time>2011-06-04T09:28:03Z</time>
      </trkpt>
      <trkpt lat="45.32332" lon="5.76788">
        <ele>1622.3620605</ele>
        <time>2011-06-04T09:28:06Z</time>
      </trkpt>
      <trkpt lat="45.32336" lon="5.76792">
        <ele>1618.9975586</ele>
        <time>2011-06-04T09:28:12Z</time>
      </trkpt>
      <trkpt lat="45.32338" lon="5.76794">
        <ele>1617.5554199</ele>
        <time>2011-06-04T09:28:17Z</time>
      </trkpt>
      <trkpt lat="45.32337" lon="5.76798">
        <ele>1615.6330566</ele>
        <time>2011-06-04T09:28:24Z</time>
      </trkpt>
      <trkpt lat="45.32338" lon="5.768">
        <ele>1615.1523438</ele>
        <time>2011-06-04T09:28:27Z</time>
      </trkpt>
      <trkpt lat="45.32343" lon="5.76806">
        <ele>1613.7102051</ele>
        <time>2011-06-04T09:28:31Z</time>
      </trkpt>
      <trkpt lat="45.32346" lon="5.76808">
        <ele>1612.2683105</ele>
        <time>2011-06-04T09:28:36Z</time>
      </trkpt>
      <trkpt lat="45.32346" lon="5.7681">
        <ele>1609.8647461</ele>
        <time>2011-06-04T09:28:41Z</time>
      </trkpt>
      <trkpt lat="45.32347" lon="5.7681">
        <ele>1608.9035645</ele>
        <time>2011-06-04T09:28:43Z</time>
      </trkpt>
      <trkpt lat="45.32347" lon="5.76814">
        <ele>1607.4616699</ele>
        <time>2011-06-04T09:28:46Z</time>
      </trkpt>
      <trkpt lat="45.32351" lon="5.76817">
        <ele>1604.5776367</ele>
        <time>2011-06-04T09:28:51Z</time>
      </trkpt>
      <trkpt lat="45.32353" lon="5.76818">
        <ele>1603.6164551</ele>
        <time>2011-06-04T09:28:55Z</time>
      </trkpt>
      <trkpt lat="45.32355" lon="5.7682">
        <ele>1602.6550293</ele>
        <time>2011-06-04T09:28:57Z</time>
      </trkpt>
      <trkpt lat="45.3236" lon="5.76826">
        <ele>1600.7324219</ele>
        <time>2011-06-04T09:29:01Z</time>
      </trkpt>
      <trkpt lat="45.32369" lon="5.76834">
        <ele>1598.8098145</ele>
        <time>2011-06-04T09:29:06Z</time>
      </trkpt>
      <trkpt lat="45.32377" lon="5.76839">
        <ele>1596.4067383</ele>
        <time>2011-06-04T09:29:10Z</time>
      </trkpt>
      <trkpt lat="45.32381" lon="5.76842">
        <ele>1594.4836426</ele>
        <time>2011-06-04T09:29:13Z</time>
      </trkpt>
      <trkpt lat="45.32383" lon="5.76844">
        <ele>1591.1191406</ele>
        <time>2011-06-04T09:29:18Z</time>
      </trkpt>
      <trkpt lat="45.32385" lon="5.76847">
        <ele>1588.7160645</ele>
        <time>2011-06-04T09:29:22Z</time>
      </trkpt>
      <trkpt lat="45.32387" lon="5.76849">
        <ele>1587.7546387</ele>
        <time>2011-06-04T09:29:24Z</time>
      </trkpt>
      <trkpt lat="45.32388" lon="5.76861">
        <ele>1584.8708496</ele>
        <time>2011-06-04T09:29:29Z</time>
      </trkpt>
      <trkpt lat="45.3239" lon="5.76867">
        <ele>1582.947998</ele>
        <time>2011-06-04T09:29:32Z</time>
      </trkpt>
      <trkpt lat="45.32395" lon="5.76875">
        <ele>1581.0256348</ele>
        <time>2011-06-04T09:29:39Z</time>
      </trkpt>
      <trkpt lat="45.32395" lon="5.76875">
        <ele>1580.064209</ele>
        <time>2011-06-04T09:29:40Z</time>
      </trkpt>
      <trkpt lat="45.32394" lon="5.7688">
        <ele>1579.1025391</ele>
        <time>2011-06-04T09:29:46Z</time>
      </trkpt>
      <trkpt lat="45.32391" lon="5.7688">
        <ele>1579.1025391</ele>
        <time>2011-06-04T09:29:51Z</time>
      </trkpt>
      <trkpt lat="45.32391" lon="5.76881">
        <ele>1578.6220703</ele>
        <time>2011-06-04T09:29:52Z</time>
      </trkpt>
      <trkpt lat="45.32398" lon="5.76889">
        <ele>1576.21875</ele>
        <time>2011-06-04T09:29:57Z</time>
      </trkpt>
      <trkpt lat="45.32403" lon="5.76896">
        <ele>1575.7380371</ele>
        <time>2011-06-04T09:30:00Z</time>
      </trkpt>
      <trkpt lat="45.32411" lon="5.76907">
        <ele>1573.8154297</ele>
        <time>2011-06-04T09:30:05Z</time>
      </trkpt>
      <trkpt lat="45.32413" lon="5.76912">
        <ele>1572.854248</ele>
        <time>2011-06-04T09:30:07Z</time>
      </trkpt>
      <trkpt lat="45.32417" lon="5.76918">
        <ele>1569.9702148</ele>
        <time>2011-06-04T09:30:10Z</time>
      </trkpt>
      <trkpt lat="45.32424" lon="5.76921">
        <ele>1565.1638184</ele>
        <time>2011-06-04T09:30:16Z</time>
      </trkpt>
      <trkpt lat="45.32427" lon="5.76924">
        <ele>1565.1638184</ele>
        <time>2011-06-04T09:30:19Z</time>
      </trkpt>
      <trkpt lat="45.32434" lon="5.76931">
        <ele>1561.7990723</ele>
        <time>2011-06-04T09:30:24Z</time>
      </trkpt>
      <trkpt lat="45.32446" lon="5.76945">
        <ele>1560.8376465</ele>
        <time>2011-06-04T09:30:30Z</time>
      </trkpt>
      <trkpt lat="45.32454" lon="5.76948">
        <ele>1558.9150391</ele>
        <time>2011-06-04T09:30:34Z</time>
      </trkpt>
      <trkpt lat="45.32456" lon="5.76949">
        <ele>1558.9150391</ele>
        <time>2011-06-04T09:30:35Z</time>
      </trkpt>
      <trkpt lat="45.3246" lon="5.7695">
        <ele>1560.8376465</ele>
        <time>2011-06-04T09:30:40Z</time>
      </trkpt>
      <trkpt lat="45.32462" lon="5.76951">
        <ele>1561.3183594</ele>
        <time>2011-06-04T09:30:43Z</time>
      </trkpt>
      <trkpt lat="45.32467" lon="5.76951">
        <ele>1563.2409668</ele>
        <time>2011-06-04T09:30:49Z</time>
      </trkpt>
      <trkpt lat="45.32472" lon="5.76956">
        <ele>1564.2023926</ele>
        <time>2011-06-04T09:30:54Z</time>
      </trkpt>
      <trkpt lat="45.32475" lon="5.76958">
        <ele>1564.2023926</ele>
        <time>2011-06-04T09:30:57Z</time>
      </trkpt>
      <trkpt lat="45.32482" lon="5.76962">
        <ele>1563.2409668</ele>
        <time>2011-06-04T09:31:03Z</time>
      </trkpt>
      <trkpt lat="45.32484" lon="5.76963">
        <ele>1563.2409668</ele>
        <time>2011-06-04T09:31:04Z</time>
      </trkpt>
      <trkpt lat="45.32488" lon="5.7697">
        <ele>1562.7602539</ele>
        <time>2011-06-04T09:31:09Z</time>
      </trkpt>
      <trkpt lat="45.3249" lon="5.76978">
        <ele>1563.2409668</ele>
        <time>2011-06-04T09:31:13Z</time>
      </trkpt>
      <trkpt lat="45.32497" lon="5.7699">
        <ele>1562.7602539</ele>
        <time>2011-06-04T09:31:17Z</time>
      </trkpt>
      <trkpt lat="45.32505" lon="5.76997">
        <ele>1562.279541</ele>
        <time>2011-06-04T09:31:20Z</time>
      </trkpt>
      <trkpt lat="45.32516" lon="5.77008">
        <ele>1561.7990723</ele>
        <time>2011-06-04T09:31:25Z</time>
      </trkpt>
      <trkpt lat="45.32524" lon="5.77011">
        <ele>1561.3183594</ele>
        <time>2011-06-04T09:31:29Z</time>
      </trkpt>
      <trkpt lat="45.32527" lon="5.77012">
        <ele>1561.7990723</ele>
        <time>2011-06-04T09:31:31Z</time>
      </trkpt>
      <trkpt lat="45.32532" lon="5.77014">
        <ele>1561.3183594</ele>
        <time>2011-06-04T09:31:36Z</time>
      </trkpt>
      <trkpt lat="45.32533" lon="5.77014">
        <ele>1560.8376465</ele>
        <time>2011-06-04T09:31:37Z</time>
      </trkpt>
      <trkpt lat="45.32536" lon="5.77018">
        <ele>1558.4343262</ele>
        <time>2011-06-04T09:31:43Z</time>
      </trkpt>
      <trkpt lat="45.32539" lon="5.7702">
        <ele>1554.5891113</ele>
        <time>2011-06-04T09:31:47Z</time>
      </trkpt>
      <trkpt lat="45.32544" lon="5.7702">
        <ele>1551.7053223</ele>
        <time>2011-06-04T09:31:51Z</time>
      </trkpt>
      <trkpt lat="45.32557" lon="5.77013">
        <ele>1547.8598633</ele>
        <time>2011-06-04T09:31:56Z</time>
      </trkpt>
      <trkpt lat="45.32564" lon="5.77013">
        <ele>1548.3405762</ele>
        <time>2011-06-04T09:32:01Z</time>
      </trkpt>
      <trkpt lat="45.32571" lon="5.77008">
        <ele>1546.4179688</ele>
        <time>2011-06-04T09:32:04Z</time>
      </trkpt>
      <trkpt lat="45.32582" lon="5.7701">
        <ele>1545.456543</ele>
        <time>2011-06-04T09:32:09Z</time>
      </trkpt>
      <trkpt lat="45.32595" lon="5.77018">
        <ele>1543.5339355</ele>
        <time>2011-06-04T09:32:16Z</time>
      </trkpt>
      <trkpt lat="45.32598" lon="5.77019">
        <ele>1543.0532227</ele>
        <time>2011-06-04T09:32:17Z</time>
      </trkpt>
      <trkpt lat="45.32605" lon="5.7702">
        <ele>1544.4951172</ele>
        <time>2011-06-04T09:32:22Z</time>
      </trkpt>
      <trkpt lat="45.32605" lon="5.77022">
        <ele>1544.4951172</ele>
        <time>2011-06-04T09:32:24Z</time>
      </trkpt>
      <trkpt lat="45.3261" lon="5.77024">
        <ele>1543.5339355</ele>
        <time>2011-06-04T09:32:29Z</time>
      </trkpt>
      <trkpt lat="45.32618" lon="5.77031">
        <ele>1562.279541</ele>
        <time>2011-06-04T09:32:54Z</time>
      </trkpt>
      <trkpt lat="45.32628" lon="5.77043">
        <ele>1559.8762207</ele>
        <time>2011-06-04T09:33:00Z</time>
      </trkpt>
      <trkpt lat="45.32633" lon="5.77045">
        <ele>1558.9150391</ele>
        <time>2011-06-04T09:33:03Z</time>
      </trkpt>
      <trkpt lat="45.32639" lon="5.7705">
        <ele>1556.0310059</ele>
        <time>2011-06-04T09:33:08Z</time>
      </trkpt>
      <trkpt lat="45.32641" lon="5.77057">
        <ele>1553.6279297</ele>
        <time>2011-06-04T09:33:12Z</time>
      </trkpt>
      <trkpt lat="45.32644" lon="5.77058">
        <ele>1551.2246094</ele>
        <time>2011-06-04T09:33:16Z</time>
      </trkpt>
      <trkpt lat="45.32645" lon="5.77059">
        <ele>1550.2634277</ele>
        <time>2011-06-04T09:33:18Z</time>
      </trkpt>
      <trkpt lat="45.32648" lon="5.77069">
        <ele>1547.3791504</ele>
        <time>2011-06-04T09:33:23Z</time>
      </trkpt>
      <trkpt lat="45.32653" lon="5.77076">
        <ele>1547.8598633</ele>
        <time>2011-06-04T09:33:28Z</time>
      </trkpt>
      <trkpt lat="45.32658" lon="5.77086">
        <ele>1547.3791504</ele>
        <time>2011-06-04T09:33:33Z</time>
      </trkpt>
      <trkpt lat="45.32667" lon="5.77096">
        <ele>1541.6113281</ele>
        <time>2011-06-04T09:33:41Z</time>
      </trkpt>
      <trkpt lat="45.32668" lon="5.77099">
        <ele>1539.2080078</ele>
        <time>2011-06-04T09:33:43Z</time>
      </trkpt>
      <trkpt lat="45.32669" lon="5.77111">
        <ele>1534.8823242</ele>
        <time>2011-06-04T09:33:48Z</time>
      </trkpt>
      <trkpt lat="45.32672" lon="5.77132">
        <ele>1529.1140137</ele>
        <time>2011-06-04T09:33:54Z</time>
      </trkpt>
      <trkpt lat="45.32678" lon="5.77139">
        <ele>1527.6721191</ele>
        <time>2011-06-04T09:33:58Z</time>
      </trkpt>
      <trkpt lat="45.3269" lon="5.77153">
        <ele>1528.6335449</ele>
        <time>2011-06-04T09:34:05Z</time>
      </trkpt>
      <trkpt lat="45.32693" lon="5.7716">
        <ele>1531.0368652</ele>
        <time>2011-06-04T09:34:10Z</time>
      </trkpt>
      <trkpt lat="45.32696" lon="5.77162">
        <ele>1531.0368652</ele>
        <time>2011-06-04T09:34:14Z</time>
      </trkpt>
      <trkpt lat="45.327" lon="5.77168">
        <ele>1528.152832</ele>
        <time>2011-06-04T09:34:20Z</time>
      </trkpt>
      <trkpt lat="45.32703" lon="5.77171">
        <ele>1524.7883301</ele>
        <time>2011-06-04T09:34:23Z</time>
      </trkpt>
      <trkpt lat="45.3271" lon="5.77175">
        <ele>1516.6171875</ele>
        <time>2011-06-04T09:34:30Z</time>
      </trkpt>
      <trkpt lat="45.32711" lon="5.77176">
        <ele>1515.6557617</ele>
        <time>2011-06-04T09:34:32Z</time>
      </trkpt>
      <trkpt lat="45.32716" lon="5.77178">
        <ele>1514.6943359</ele>
        <time>2011-06-04T09:34:35Z</time>
      </trkpt>
      <trkpt lat="45.32723" lon="5.77186">
        <ele>1512.7717285</ele>
        <time>2011-06-04T09:34:40Z</time>
      </trkpt>
      <trkpt lat="45.32725" lon="5.77188">
        <ele>1511.8105469</ele>
        <time>2011-06-04T09:34:46Z</time>
      </trkpt>
      <trkpt lat="45.32728" lon="5.7719">
        <ele>1514.6943359</ele>
        <time>2011-06-04T09:34:54Z</time>
      </trkpt>
      <trkpt lat="45.32729" lon="5.7719">
        <ele>1517.5783691</ele>
        <time>2011-06-04T09:35:02Z</time>
      </trkpt>
      <trkpt lat="45.3273" lon="5.7719">
        <ele>1517.5783691</ele>
        <time>2011-06-04T09:35:07Z</time>
      </trkpt>
      <trkpt lat="45.3273" lon="5.77189">
        <ele>1517.5783691</ele>
        <time>2011-06-04T09:35:08Z</time>
      </trkpt>
      <trkpt lat="45.3273" lon="5.77184">
        <ele>1514.6943359</ele>
        <time>2011-06-04T09:35:13Z</time>
      </trkpt>
      <trkpt lat="45.32735" lon="5.77183">
        <ele>1512.7717285</ele>
        <time>2011-06-04T09:35:18Z</time>
      </trkpt>
      <trkpt lat="45.32738" lon="5.77178">
        <ele>1510.3684082</ele>
        <time>2011-06-04T09:35:23Z</time>
      </trkpt>
      <trkpt lat="45.3274" lon="5.7717">
        <ele>1507.0039063</ele>
        <time>2011-06-04T09:35:28Z</time>
      </trkpt>
      <trkpt lat="45.32742" lon="5.7716">
        <ele>1505.5620117</ele>
        <time>2011-06-04T09:35:32Z</time>
      </trkpt>
      <trkpt lat="45.32742" lon="5.77143">
        <ele>1503.1586914</ele>
        <time>2011-06-04T09:35:38Z</time>
      </trkpt>
      <trkpt lat="45.32743" lon="5.7714">
        <ele>1501.7167969</ele>
        <time>2011-06-04T09:35:40Z</time>
      </trkpt>
      <trkpt lat="45.32744" lon="5.7713">
        <ele>1498.8325195</ele>
        <time>2011-06-04T09:35:44Z</time>
      </trkpt>
      <trkpt lat="45.32746" lon="5.77127">
        <ele>1497.8713379</ele>
        <time>2011-06-04T09:35:46Z</time>
      </trkpt>
      <trkpt lat="45.32745" lon="5.77112">
        <ele>1496.4294434</ele>
        <time>2011-06-04T09:35:52Z</time>
      </trkpt>
      <trkpt lat="45.32744" lon="5.77106">
        <ele>1496.9099121</ele>
        <time>2011-06-04T09:35:54Z</time>
      </trkpt>
      <trkpt lat="45.32731" lon="5.77092">
        <ele>1495.9487305</ele>
        <time>2011-06-04T09:36:01Z</time>
      </trkpt>
      <trkpt lat="45.32727" lon="5.77077">
        <ele>1492.5842285</ele>
        <time>2011-06-04T09:36:06Z</time>
      </trkpt>
      <trkpt lat="45.32732" lon="5.77063">
        <ele>1493.5454102</ele>
        <time>2011-06-04T09:36:11Z</time>
      </trkpt>
      <trkpt lat="45.32735" lon="5.77055">
        <ele>1493.0646973</ele>
        <time>2011-06-04T09:36:14Z</time>
      </trkpt>
      <trkpt lat="45.32732" lon="5.77048">
        <ele>1490.661377</ele>
        <time>2011-06-04T09:36:17Z</time>
      </trkpt>
      <trkpt lat="45.32734" lon="5.77037">
        <ele>1484.8937988</ele>
        <time>2011-06-04T09:36:22Z</time>
      </trkpt>
      <trkpt lat="45.32739" lon="5.7703">
        <ele>1479.1254883</ele>
        <time>2011-06-04T09:36:28Z</time>
      </trkpt>
      <trkpt lat="45.32739" lon="5.77028">
        <ele>1479.1254883</ele>
        <time>2011-06-04T09:36:29Z</time>
      </trkpt>
      <trkpt lat="45.32747" lon="5.77024">
        <ele>1474.7998047</ele>
        <time>2011-06-04T09:36:36Z</time>
      </trkpt>
      <trkpt lat="45.32748" lon="5.77022">
        <ele>1476.7224121</ele>
        <time>2011-06-04T09:36:38Z</time>
      </trkpt>
      <trkpt lat="45.32751" lon="5.77015">
        <ele>1478.6450195</ele>
        <time>2011-06-04T09:36:43Z</time>
      </trkpt>
      <trkpt lat="45.32754" lon="5.77009">
        <ele>1479.6062012</ele>
        <time>2011-06-04T09:36:47Z</time>
      </trkpt>
      <trkpt lat="45.32763" lon="5.77001">
        <ele>1479.1254883</ele>
        <time>2011-06-04T09:36:53Z</time>
      </trkpt>
      <trkpt lat="45.32766" lon="5.76997">
        <ele>1477.6835938</ele>
        <time>2011-06-04T09:36:57Z</time>
      </trkpt>
      <trkpt lat="45.32771" lon="5.76988">
        <ele>1474.7998047</ele>
        <time>2011-06-04T09:37:02Z</time>
      </trkpt>
      <trkpt lat="45.32774" lon="5.76986">
        <ele>1474.7998047</ele>
        <time>2011-06-04T09:37:04Z</time>
      </trkpt>
      <trkpt lat="45.32777" lon="5.76978">
        <ele>1472.8771973</ele>
        <time>2011-06-04T09:37:09Z</time>
      </trkpt>
      <trkpt lat="45.32777" lon="5.7697">
        <ele>1474.7998047</ele>
        <time>2011-06-04T09:37:14Z</time>
      </trkpt>
      <trkpt lat="45.32781" lon="5.76962">
        <ele>1472.8771973</ele>
        <time>2011-06-04T09:37:18Z</time>
      </trkpt>
      <trkpt lat="45.32786" lon="5.76951">
        <ele>1472.8771973</ele>
        <time>2011-06-04T09:37:22Z</time>
      </trkpt>
      <trkpt lat="45.32787" lon="5.76949">
        <ele>1472.8771973</ele>
        <time>2011-06-04T09:37:23Z</time>
      </trkpt>
      <trkpt lat="45.32793" lon="5.76946">
        <ele>1471.9157715</ele>
        <time>2011-06-04T09:37:28Z</time>
      </trkpt>
      <trkpt lat="45.32797" lon="5.76946">
        <ele>1472.3964844</ele>
        <time>2011-06-04T09:37:33Z</time>
      </trkpt>
      <trkpt lat="45.32802" lon="5.76944">
        <ele>1470.9545898</ele>
        <time>2011-06-04T09:37:38Z</time>
      </trkpt>
      <trkpt lat="45.32809" lon="5.76953">
        <ele>1471.9157715</ele>
        <time>2011-06-04T09:37:44Z</time>
      </trkpt>
      <trkpt lat="45.32811" lon="5.76964">
        <ele>1467.5895996</ele>
        <time>2011-06-04T09:37:49Z</time>
      </trkpt>
      <trkpt lat="45.32811" lon="5.76965">
        <ele>1467.1091309</ele>
        <time>2011-06-04T09:37:50Z</time>
      </trkpt>
      <trkpt lat="45.32807" lon="5.76973">
        <ele>1462.7832031</ele>
        <time>2011-06-04T09:37:56Z</time>
      </trkpt>
      <trkpt lat="45.32813" lon="5.76978">
        <ele>1462.7832031</ele>
        <time>2011-06-04T09:38:00Z</time>
      </trkpt>
      <trkpt lat="45.32824" lon="5.76989">
        <ele>1460.3798828</ele>
        <time>2011-06-04T09:38:06Z</time>
      </trkpt>
      <trkpt lat="45.32829" lon="5.76999">
        <ele>1454.1315918</ele>
        <time>2011-06-04T09:38:11Z</time>
      </trkpt>
      <trkpt lat="45.3283" lon="5.77003">
        <ele>1449.324707</ele>
        <time>2011-06-04T09:38:15Z</time>
      </trkpt>
      <trkpt lat="45.3282" lon="5.77004">
        <ele>1439.7116699</ele>
        <time>2011-06-04T09:38:21Z</time>
      </trkpt>
      <trkpt lat="45.3282" lon="5.77004">
        <ele>1436.347168</ele>
        <time>2011-06-04T09:38:23Z</time>
      </trkpt>
      <trkpt lat="45.32832" lon="5.77012">
        <ele>1426.7338867</ele>
        <time>2011-06-04T09:38:28Z</time>
      </trkpt>
      <trkpt lat="45.32831" lon="5.77016">
        <ele>1423.3693848</ele>
        <time>2011-06-04T09:38:30Z</time>
      </trkpt>
      <trkpt lat="45.32824" lon="5.7702">
        <ele>1417.1206055</ele>
        <time>2011-06-04T09:38:35Z</time>
      </trkpt>
      <trkpt lat="45.32829" lon="5.77032">
        <ele>1408.9494629</ele>
        <time>2011-06-04T09:38:40Z</time>
      </trkpt>
      <trkpt lat="45.32837" lon="5.77035">
        <ele>1406.5461426</ele>
        <time>2011-06-04T09:38:44Z</time>
      </trkpt>
      <trkpt lat="45.32845" lon="5.7704">
        <ele>1403.6621094</ele>
        <time>2011-06-04T09:38:49Z</time>
      </trkpt>
      <trkpt lat="45.32851" lon="5.77048">
        <ele>1400.2976074</ele>
        <time>2011-06-04T09:38:54Z</time>
      </trkpt>
      <trkpt lat="45.32861" lon="5.77053">
        <ele>1398.3747559</ele>
        <time>2011-06-04T09:38:59Z</time>
      </trkpt>
      <trkpt lat="45.32864" lon="5.77055">
        <ele>1398.8554688</ele>
        <time>2011-06-04T09:39:01Z</time>
      </trkpt>
      <trkpt lat="45.32869" lon="5.77058">
        <ele>1397.8942871</ele>
        <time>2011-06-04T09:39:04Z</time>
      </trkpt>
      <trkpt lat="45.32884" lon="5.77061">
        <ele>1398.8554688</ele>
        <time>2011-06-04T09:39:10Z</time>
      </trkpt>
      <trkpt lat="45.32891" lon="5.77061">
        <ele>1404.6235352</ele>
        <time>2011-06-04T09:39:13Z</time>
      </trkpt>
      <trkpt lat="45.32892" lon="5.77063">
        <ele>1402.2199707</ele>
        <time>2011-06-04T09:39:15Z</time>
      </trkpt>
      <trkpt lat="45.32896" lon="5.77069">
        <ele>1399.8168945</ele>
        <time>2011-06-04T09:39:21Z</time>
      </trkpt>
      <trkpt lat="45.329" lon="5.77072">
        <ele>1403.1813965</ele>
        <time>2011-06-04T09:39:25Z</time>
      </trkpt>
      <trkpt lat="45.329" lon="5.77073">
        <ele>1404.6235352</ele>
        <time>2011-06-04T09:39:26Z</time>
      </trkpt>
      <trkpt lat="45.32908" lon="5.77074">
        <ele>1401.739502</ele>
        <time>2011-06-04T09:39:30Z</time>
      </trkpt>
      <trkpt lat="45.32912" lon="5.77073">
        <ele>1401.2587891</ele>
        <time>2011-06-04T09:39:35Z</time>
      </trkpt>
      <trkpt lat="45.32919" lon="5.77077">
        <ele>1403.6621094</ele>
        <time>2011-06-04T09:39:45Z</time>
      </trkpt>
      <trkpt lat="45.32918" lon="5.77083">
        <ele>1399.3361816</ele>
        <time>2011-06-04T09:39:50Z</time>
      </trkpt>
      <trkpt lat="45.32918" lon="5.77086">
        <ele>1398.3747559</ele>
        <time>2011-06-04T09:39:54Z</time>
      </trkpt>
      <trkpt lat="45.32923" lon="5.77087">
        <ele>1396.9328613</ele>
        <time>2011-06-04T09:39:58Z</time>
      </trkpt>
      <trkpt lat="45.32925" lon="5.77089">
        <ele>1409.4301758</ele>
        <time>2011-06-04T09:40:02Z</time>
      </trkpt>
      <trkpt lat="45.32929" lon="5.7709">
        <ele>1407.9882813</ele>
        <time>2011-06-04T09:40:06Z</time>
      </trkpt>
      <trkpt lat="45.32939" lon="5.77095">
        <ele>1407.0268555</ele>
        <time>2011-06-04T09:40:12Z</time>
      </trkpt>
      <trkpt lat="45.32938" lon="5.77096">
        <ele>1406.5461426</ele>
        <time>2011-06-04T09:40:13Z</time>
      </trkpt>
      <trkpt lat="45.32932" lon="5.771">
        <ele>1401.739502</ele>
        <time>2011-06-04T09:40:18Z</time>
      </trkpt>
      <trkpt lat="45.32939" lon="5.77104">
        <ele>1397.8942871</ele>
        <time>2011-06-04T09:40:22Z</time>
      </trkpt>
      <trkpt lat="45.3294" lon="5.77105">
        <ele>1396.9328613</ele>
        <time>2011-06-04T09:40:23Z</time>
      </trkpt>
      <trkpt lat="45.32948" lon="5.771">
        <ele>1391.1650391</ele>
        <time>2011-06-04T09:40:28Z</time>
      </trkpt>
      <trkpt lat="45.32952" lon="5.77099">
        <ele>1388.28125</ele>
        <time>2011-06-04T09:40:33Z</time>
      </trkpt>
      <trkpt lat="45.32955" lon="5.77098">
        <ele>1384.9165039</ele>
        <time>2011-06-04T09:40:38Z</time>
      </trkpt>
      <trkpt lat="45.32959" lon="5.77101">
        <ele>1382.9936523</ele>
        <time>2011-06-04T09:40:42Z</time>
      </trkpt>
      <trkpt lat="45.32967" lon="5.77105">
        <ele>1382.5131836</ele>
        <time>2011-06-04T09:40:48Z</time>
      </trkpt>
      <trkpt lat="45.32977" lon="5.77101">
        <ele>1388.7619629</ele>
        <time>2011-06-04T09:40:54Z</time>
      </trkpt>
      <trkpt lat="45.32991" lon="5.77095">
        <ele>1392.6071777</ele>
        <time>2011-06-04T09:40:58Z</time>
      </trkpt>
      <trkpt lat="45.32994" lon="5.77097">
        <ele>1387.800293</ele>
        <time>2011-06-04T09:41:02Z</time>
      </trkpt>
      <trkpt lat="45.32981" lon="5.7711">
        <ele>1383.9550781</ele>
        <time>2011-06-04T09:41:08Z</time>
      </trkpt>
      <trkpt lat="45.3298" lon="5.77113">
        <ele>1382.5131836</ele>
        <time>2011-06-04T09:41:10Z</time>
      </trkpt>
      <trkpt lat="45.32979" lon="5.77114">
        <ele>1376.2646484</ele>
        <time>2011-06-04T09:41:15Z</time>
      </trkpt>
      <trkpt lat="45.3298" lon="5.77112">
        <ele>1376.7453613</ele>
        <time>2011-06-04T09:41:16Z</time>
      </trkpt>
      <trkpt lat="45.32989" lon="5.77109">
        <ele>1371.4577637</ele>
        <time>2011-06-04T09:41:22Z</time>
      </trkpt>
      <trkpt lat="45.33" lon="5.77112">
        <ele>1383.4743652</ele>
        <time>2011-06-04T09:41:26Z</time>
      </trkpt>
      <trkpt lat="45.33004" lon="5.77111">
        <ele>1382.9936523</ele>
        <time>2011-06-04T09:41:28Z</time>
      </trkpt>
      <trkpt lat="45.33014" lon="5.7711">
        <ele>1379.6291504</ele>
        <time>2011-06-04T09:41:33Z</time>
      </trkpt>
      <trkpt lat="45.3302" lon="5.77109">
        <ele>1377.706543</ele>
        <time>2011-06-04T09:41:37Z</time>
      </trkpt>
      <trkpt lat="45.33022" lon="5.77108">
        <ele>1378.6679688</ele>
        <time>2011-06-04T09:41:38Z</time>
      </trkpt>
      <trkpt lat="45.33028" lon="5.77096">
        <ele>1377.706543</ele>
        <time>2011-06-04T09:41:44Z</time>
      </trkpt>
      <trkpt lat="45.3303" lon="5.77082">
        <ele>1381.5517578</ele>
        <time>2011-06-04T09:41:52Z</time>
      </trkpt>
      <trkpt lat="45.33041" lon="5.77077">
        <ele>1386.8388672</ele>
        <time>2011-06-04T09:41:57Z</time>
      </trkpt>
      <trkpt lat="45.33049" lon="5.7707">
        <ele>1389.2424316</ele>
        <time>2011-06-04T09:42:02Z</time>
      </trkpt>
      <trkpt lat="45.33052" lon="5.77066">
        <ele>1396.4523926</ele>
        <time>2011-06-04T09:42:06Z</time>
      </trkpt>
      <trkpt lat="45.33055" lon="5.77057">
        <ele>1406.5461426</ele>
        <time>2011-06-04T09:42:14Z</time>
      </trkpt>
      <trkpt lat="45.33062" lon="5.77033">
        <ele>1404.6235352</ele>
        <time>2011-06-04T09:42:30Z</time>
      </trkpt>
      <trkpt lat="45.33057" lon="5.77031">
        <ele>1390.6843262</ele>
        <time>2011-06-04T09:42:36Z</time>
      </trkpt>
      <trkpt lat="45.3306" lon="5.77032">
        <ele>1383.4743652</ele>
        <time>2011-06-04T09:42:45Z</time>
      </trkpt>
      <trkpt lat="45.33061" lon="5.77026">
        <ele>1378.6679688</ele>
        <time>2011-06-04T09:42:50Z</time>
      </trkpt>
      <trkpt lat="45.33072" lon="5.77023">
        <ele>1374.8227539</ele>
        <time>2011-06-04T09:42:56Z</time>
      </trkpt>
      <trkpt lat="45.33083" lon="5.77017">
        <ele>1370.496582</ele>
        <time>2011-06-04T09:43:00Z</time>
      </trkpt>
      <trkpt lat="45.33093" lon="5.77011">
        <ele>1363.767334</ele>
        <time>2011-06-04T09:43:05Z</time>
      </trkpt>
      <trkpt lat="45.33095" lon="5.77011">
        <ele>1362.8061523</ele>
        <time>2011-06-04T09:43:06Z</time>
      </trkpt>
      <trkpt lat="45.33101" lon="5.77011">
        <ele>1359.9221191</ele>
        <time>2011-06-04T09:43:11Z</time>
      </trkpt>
      <trkpt lat="45.33093" lon="5.77016">
        <ele>1353.1928711</ele>
        <time>2011-06-04T09:43:15Z</time>
      </trkpt>
      <trkpt lat="45.33081" lon="5.7703">
        <ele>1341.6572266</ele>
        <time>2011-06-04T09:43:22Z</time>
      </trkpt>
      <trkpt lat="45.33076" lon="5.77034">
        <ele>1339.734375</ele>
        <time>2011-06-04T09:43:24Z</time>
      </trkpt>
      <trkpt lat="45.33069" lon="5.77046">
        <ele>1334.4472656</ele>
        <time>2011-06-04T09:43:28Z</time>
      </trkpt>
      <trkpt lat="45.33069" lon="5.77049">
        <ele>1331.5632324</ele>
        <time>2011-06-04T09:43:32Z</time>
      </trkpt>
      <trkpt lat="45.33076" lon="5.77048">
        <ele>1327.7180176</ele>
        <time>2011-06-04T09:43:36Z</time>
      </trkpt>
      <trkpt lat="45.33093" lon="5.7704">
        <ele>1321.9499512</ele>
        <time>2011-06-04T09:43:43Z</time>
      </trkpt>
      <trkpt lat="45.33104" lon="5.77038">
        <ele>1320.5080566</ele>
        <time>2011-06-04T09:43:47Z</time>
      </trkpt>
      <trkpt lat="45.33118" lon="5.77039">
        <ele>1326.276123</ele>
        <time>2011-06-04T09:43:52Z</time>
      </trkpt>
      <trkpt lat="45.33117" lon="5.7704">
        <ele>1322.911377</ele>
        <time>2011-06-04T09:43:54Z</time>
      </trkpt>
      <trkpt lat="45.33104" lon="5.77045">
        <ele>1317.1435547</ele>
        <time>2011-06-04T09:43:58Z</time>
      </trkpt>
      <trkpt lat="45.33102" lon="5.77049">
        <ele>1316.1821289</ele>
        <time>2011-06-04T09:44:00Z</time>
      </trkpt>
      <trkpt lat="45.33097" lon="5.77064">
        <ele>1306.5688477</ele>
        <time>2011-06-04T09:44:05Z</time>
      </trkpt>
      <trkpt lat="45.33095" lon="5.77071">
        <ele>1303.2043457</ele>
        <time>2011-06-04T09:44:07Z</time>
      </trkpt>
      <trkpt lat="45.33094" lon="5.77076">
        <ele>1293.1105957</ele>
        <time>2011-06-04T09:44:10Z</time>
      </trkpt>
      <trkpt lat="45.33104" lon="5.77072">
        <ele>1296.4753418</ele>
        <time>2011-06-04T09:44:14Z</time>
      </trkpt>
      <trkpt lat="45.33105" lon="5.77069">
        <ele>1295.9946289</ele>
        <time>2011-06-04T09:44:15Z</time>
      </trkpt>
      <trkpt lat="45.33114" lon="5.77056">
        <ele>1297.9172363</ele>
        <time>2011-06-04T09:44:20Z</time>
      </trkpt>
      <trkpt lat="45.33123" lon="5.77053">
        <ele>1295.0332031</ele>
        <time>2011-06-04T09:44:24Z</time>
      </trkpt>
      <trkpt lat="45.33125" lon="5.77061">
        <ele>1305.1269531</ele>
        <time>2011-06-04T09:44:28Z</time>
      </trkpt>
      <trkpt lat="45.33119" lon="5.77077">
        <ele>1304.6462402</ele>
        <time>2011-06-04T09:44:34Z</time>
      </trkpt>
      <trkpt lat="45.33123" lon="5.77087">
        <ele>1305.1269531</ele>
        <time>2011-06-04T09:44:37Z</time>
      </trkpt>
      <trkpt lat="45.33122" lon="5.77101">
        <ele>1302.2429199</ele>
        <time>2011-06-04T09:44:41Z</time>
      </trkpt>
      <trkpt lat="45.33117" lon="5.77108">
        <ele>1310.4143066</ele>
        <time>2011-06-04T09:44:46Z</time>
      </trkpt>
      <trkpt lat="45.3313" lon="5.77097">
        <ele>1326.276123</ele>
        <time>2011-06-04T09:44:53Z</time>
      </trkpt>
      <trkpt lat="45.33135" lon="5.77082">
        <ele>1327.7180176</ele>
        <time>2011-06-04T09:44:59Z</time>
      </trkpt>
      <trkpt lat="45.33142" lon="5.7708">
        <ele>1327.2375488</ele>
        <time>2011-06-04T09:45:03Z</time>
      </trkpt>
      <trkpt lat="45.33141" lon="5.77084">
        <ele>1323.8725586</ele>
        <time>2011-06-04T09:45:06Z</time>
      </trkpt>
      <trkpt lat="45.33139" lon="5.77097">
        <ele>1319.0661621</ele>
        <time>2011-06-04T09:45:11Z</time>
      </trkpt>
      <trkpt lat="45.3314" lon="5.77106">
        <ele>1316.6628418</ele>
        <time>2011-06-04T09:45:14Z</time>
      </trkpt>
      <trkpt lat="45.33132" lon="5.77122">
        <ele>1307.0495605</ele>
        <time>2011-06-04T09:45:20Z</time>
      </trkpt>
      <trkpt lat="45.3313" lon="5.77124">
        <ele>1305.607666</ele>
        <time>2011-06-04T09:45:21Z</time>
      </trkpt>
      <trkpt lat="45.33128" lon="5.77126">
        <ele>1302.7236328</ele>
        <time>2011-06-04T09:45:24Z</time>
      </trkpt>
      <trkpt lat="45.33139" lon="5.77118">
        <ele>1301.2817383</ele>
        <time>2011-06-04T09:45:30Z</time>
      </trkpt>
      <trkpt lat="45.33146" lon="5.77108">
        <ele>1299.8398438</ele>
        <time>2011-06-04T09:45:34Z</time>
      </trkpt>
      <trkpt lat="45.33153" lon="5.77102">
        <ele>1299.3591309</ele>
        <time>2011-06-04T09:45:37Z</time>
      </trkpt>
      <trkpt lat="45.33162" lon="5.77097">
        <ele>1296.9558105</ele>
        <time>2011-06-04T09:45:41Z</time>
      </trkpt>
      <trkpt lat="45.33161" lon="5.771">
        <ele>1293.5913086</ele>
        <time>2011-06-04T09:45:43Z</time>
      </trkpt>
      <trkpt lat="45.33156" lon="5.77112">
        <ele>1286.8618164</ele>
        <time>2011-06-04T09:45:48Z</time>
      </trkpt>
      <trkpt lat="45.33153" lon="5.77133">
        <ele>1290.7070313</ele>
        <time>2011-06-04T09:45:53Z</time>
      </trkpt>
      <trkpt lat="45.33153" lon="5.77144">
        <ele>1291.1877441</ele>
        <time>2011-06-04T09:45:56Z</time>
      </trkpt>
      <trkpt lat="45.33147" lon="5.77157">
        <ele>1284.4587402</ele>
        <time>2011-06-04T09:46:01Z</time>
      </trkpt>
      <trkpt lat="45.33144" lon="5.77166">
        <ele>1275.3259277</ele>
        <time>2011-06-04T09:46:06Z</time>
      </trkpt>
      <trkpt lat="45.33152" lon="5.7716">
        <ele>1277.7294922</ele>
        <time>2011-06-04T09:46:12Z</time>
      </trkpt>
      <trkpt lat="45.33154" lon="5.77158">
        <ele>1277.2490234</ele>
        <time>2011-06-04T09:46:13Z</time>
      </trkpt>
      <trkpt lat="45.3316" lon="5.77148">
        <ele>1281.0942383</ele>
        <time>2011-06-04T09:46:18Z</time>
      </trkpt>
      <trkpt lat="45.33163" lon="5.77147">
        <ele>1281.0942383</ele>
        <time>2011-06-04T09:46:20Z</time>
      </trkpt>
      <trkpt lat="45.33171" lon="5.77146">
        <ele>1280.1328125</ele>
        <time>2011-06-04T09:46:24Z</time>
      </trkpt>
      <trkpt lat="45.33179" lon="5.77143">
        <ele>1281.574707</ele>
        <time>2011-06-04T09:46:28Z</time>
      </trkpt>
      <trkpt lat="45.33185" lon="5.77136">
        <ele>1281.0942383</ele>
        <time>2011-06-04T09:46:31Z</time>
      </trkpt>
      <trkpt lat="45.33195" lon="5.77125">
        <ele>1276.2875977</ele>
        <time>2011-06-04T09:46:37Z</time>
      </trkpt>
      <trkpt lat="45.33196" lon="5.77135">
        <ele>1272.4421387</ele>
        <time>2011-06-04T09:46:42Z</time>
      </trkpt>
      <trkpt lat="45.33195" lon="5.77144">
        <ele>1269.0776367</ele>
        <time>2011-06-04T09:46:46Z</time>
      </trkpt>
      <trkpt lat="45.33196" lon="5.77147">
        <ele>1267.635498</ele>
        <time>2011-06-04T09:46:48Z</time>
      </trkpt>
      <trkpt lat="45.33189" lon="5.7716">
        <ele>1261.8679199</ele>
        <time>2011-06-04T09:46:54Z</time>
      </trkpt>
      <trkpt lat="45.33191" lon="5.77161">
        <ele>1263.7902832</ele>
        <time>2011-06-04T09:46:56Z</time>
      </trkpt>
      <trkpt lat="45.33202" lon="5.77149">
        <ele>1266.6743164</ele>
        <time>2011-06-04T09:47:02Z</time>
      </trkpt>
      <trkpt lat="45.3321" lon="5.77147">
        <ele>1266.6743164</ele>
        <time>2011-06-04T09:47:07Z</time>
      </trkpt>
      <trkpt lat="45.33217" lon="5.77139">
        <ele>1260.9064941</ele>
        <time>2011-06-04T09:47:12Z</time>
      </trkpt>
      <trkpt lat="45.33222" lon="5.77134">
        <ele>1259.4643555</ele>
        <time>2011-06-04T09:47:17Z</time>
      </trkpt>
      <trkpt lat="45.33217" lon="5.77145">
        <ele>1251.7739258</ele>
        <time>2011-06-04T09:47:22Z</time>
      </trkpt>
      <trkpt lat="45.33211" lon="5.77158">
        <ele>1244.0834961</ele>
        <time>2011-06-04T09:47:27Z</time>
      </trkpt>
      <trkpt lat="45.33209" lon="5.77162">
        <ele>1242.1606445</ele>
        <time>2011-06-04T09:47:32Z</time>
      </trkpt>
      <trkpt lat="45.33209" lon="5.77161">
        <ele>1241.6799316</ele>
        <time>2011-06-04T09:47:33Z</time>
      </trkpt>
      <trkpt lat="45.33212" lon="5.77159">
        <ele>1241.6799316</ele>
        <time>2011-06-04T09:47:35Z</time>
      </trkpt>
      <trkpt lat="45.33223" lon="5.77157">
        <ele>1238.7961426</ele>
        <time>2011-06-04T09:47:40Z</time>
      </trkpt>
      <trkpt lat="45.33231" lon="5.77147">
        <ele>1240.2380371</ele>
        <time>2011-06-04T09:47:45Z</time>
      </trkpt>
      <trkpt lat="45.33233" lon="5.77145">
        <ele>1240.7185059</ele>
        <time>2011-06-04T09:47:46Z</time>
      </trkpt>
      <trkpt lat="45.33243" lon="5.77126">
        <ele>1241.6799316</ele>
        <time>2011-06-04T09:47:52Z</time>
      </trkpt>
      <trkpt lat="45.33246" lon="5.7712">
        <ele>1241.1992188</ele>
        <time>2011-06-04T09:47:54Z</time>
      </trkpt>
      <trkpt lat="45.33237" lon="5.77107">
        <ele>1240.2380371</ele>
        <time>2011-06-04T09:47:59Z</time>
      </trkpt>
      <trkpt lat="45.33229" lon="5.77097">
        <ele>1243.1218262</ele>
        <time>2011-06-04T09:48:03Z</time>
      </trkpt>
      <trkpt lat="45.33223" lon="5.77088">
        <ele>1244.0834961</ele>
        <time>2011-06-04T09:48:07Z</time>
      </trkpt>
      <trkpt lat="45.33224" lon="5.77075">
        <ele>1250.3320313</ele>
        <time>2011-06-04T09:48:11Z</time>
      </trkpt>
      <trkpt lat="45.33232" lon="5.77061">
        <ele>1251.2932129</ele>
        <time>2011-06-04T09:48:15Z</time>
      </trkpt>
      <trkpt lat="45.33234" lon="5.77042">
        <ele>1254.1772461</ele>
        <time>2011-06-04T09:48:21Z</time>
      </trkpt>
      <trkpt lat="45.33224" lon="5.77025">
        <ele>1246.9672852</ele>
        <time>2011-06-04T09:48:26Z</time>
      </trkpt>
      <trkpt lat="45.33221" lon="5.77017">
        <ele>1245.5253906</ele>
        <time>2011-06-04T09:48:28Z</time>
      </trkpt>
      <trkpt lat="45.3322" lon="5.77005">
        <ele>1241.1992188</ele>
        <time>2011-06-04T09:48:32Z</time>
      </trkpt>
      <trkpt lat="45.33226" lon="5.77005">
        <ele>1234.4702148</ele>
        <time>2011-06-04T09:48:36Z</time>
      </trkpt>
      <trkpt lat="45.33235" lon="5.77016">
        <ele>1221.4921875</ele>
        <time>2011-06-04T09:48:41Z</time>
      </trkpt>
      <trkpt lat="45.33234" lon="5.77034">
        <ele>1216.685791</ele>
        <time>2011-06-04T09:48:45Z</time>
      </trkpt>
      <trkpt lat="45.33236" lon="5.77045">
        <ele>1220.5310059</ele>
        <time>2011-06-04T09:48:50Z</time>
      </trkpt>
      <trkpt lat="45.33236" lon="5.77046">
        <ele>1221.9729004</ele>
        <time>2011-06-04T09:48:52Z</time>
      </trkpt>
      <trkpt lat="45.33237" lon="5.77035">
        <ele>1219.5698242</ele>
        <time>2011-06-04T09:48:57Z</time>
      </trkpt>
      <trkpt lat="45.33245" lon="5.77032">
        <ele>1220.050293</ele>
        <time>2011-06-04T09:49:00Z</time>
      </trkpt>
      <trkpt lat="45.33248" lon="5.77019">
        <ele>1218.6083984</ele>
        <time>2011-06-04T09:49:05Z</time>
      </trkpt>
      <trkpt lat="45.3325" lon="5.77014">
        <ele>1217.6469727</ele>
        <time>2011-06-04T09:49:07Z</time>
      </trkpt>
      <trkpt lat="45.33255" lon="5.77007">
        <ele>1215.7246094</ele>
        <time>2011-06-04T09:49:12Z</time>
      </trkpt>
      <trkpt lat="45.33257" lon="5.77006">
        <ele>1215.2438965</ele>
        <time>2011-06-04T09:49:13Z</time>
      </trkpt>
      <trkpt lat="45.33259" lon="5.77002">
        <ele>1214.7631836</ele>
        <time>2011-06-04T09:49:16Z</time>
      </trkpt>
      <trkpt lat="45.33261" lon="5.76985">
        <ele>1212.8405762</ele>
        <time>2011-06-04T09:49:22Z</time>
      </trkpt>
      <trkpt lat="45.33262" lon="5.76978">
        <ele>1212.3598633</ele>
        <time>2011-06-04T09:49:25Z</time>
      </trkpt>
      <trkpt lat="45.3327" lon="5.76964">
        <ele>1215.7246094</ele>
        <time>2011-06-04T09:49:31Z</time>
      </trkpt>
      <trkpt lat="45.33272" lon="5.76954">
        <ele>1217.6469727</ele>
        <time>2011-06-04T09:49:35Z</time>
      </trkpt>
      <trkpt lat="45.33278" lon="5.7695">
        <ele>1219.5698242</ele>
        <time>2011-06-04T09:49:39Z</time>
      </trkpt>
      <trkpt lat="45.33286" lon="5.76942">
        <ele>1215.2438965</ele>
        <time>2011-06-04T09:49:44Z</time>
      </trkpt>
      <trkpt lat="45.333" lon="5.76934">
        <ele>1215.7246094</ele>
        <time>2011-06-04T09:49:51Z</time>
      </trkpt>
      <trkpt lat="45.33305" lon="5.76929">
        <ele>1208.5144043</ele>
        <time>2011-06-04T09:49:56Z</time>
      </trkpt>
      <trkpt lat="45.33307" lon="5.76927">
        <ele>1206.5917969</ele>
        <time>2011-06-04T09:49:57Z</time>
      </trkpt>
      <trkpt lat="45.33321" lon="5.76927">
        <ele>1202.2658691</ele>
        <time>2011-06-04T09:50:02Z</time>
      </trkpt>
      <trkpt lat="45.33328" lon="5.76928">
        <ele>1197.9401855</ele>
        <time>2011-06-04T09:50:04Z</time>
      </trkpt>
      <trkpt lat="45.33332" lon="5.76934">
        <ele>1195.5366211</ele>
        <time>2011-06-04T09:50:08Z</time>
      </trkpt>
      <trkpt lat="45.33339" lon="5.76944">
        <ele>1187.3654785</ele>
        <time>2011-06-04T09:50:13Z</time>
      </trkpt>
      <trkpt lat="45.33341" lon="5.7695">
        <ele>1187.8461914</ele>
        <time>2011-06-04T09:50:17Z</time>
      </trkpt>
      <trkpt lat="45.33332" lon="5.76955">
        <ele>1181.5976563</ele>
        <time>2011-06-04T09:50:21Z</time>
      </trkpt>
      <trkpt lat="45.33318" lon="5.76959">
        <ele>1174.3876953</ele>
        <time>2011-06-04T09:50:27Z</time>
      </trkpt>
      <trkpt lat="45.33315" lon="5.76963">
        <ele>1170.0617676</ele>
        <time>2011-06-04T09:50:30Z</time>
      </trkpt>
      <trkpt lat="45.3331" lon="5.76967">
        <ele>1165.736084</ele>
        <time>2011-06-04T09:50:36Z</time>
      </trkpt>
      <trkpt lat="45.33308" lon="5.76968">
        <ele>1164.7746582</ele>
        <time>2011-06-04T09:50:40Z</time>
      </trkpt>
      <trkpt lat="45.3331" lon="5.76975">
        <ele>1155.6420898</ele>
        <time>2011-06-04T09:50:45Z</time>
      </trkpt>
      <trkpt lat="45.33309" lon="5.7698">
        <ele>1150.8354492</ele>
        <time>2011-06-04T09:50:48Z</time>
      </trkpt>
      <trkpt lat="45.3331" lon="5.76993">
        <ele>1143.6254883</ele>
        <time>2011-06-04T09:50:52Z</time>
      </trkpt>
      <trkpt lat="45.33316" lon="5.77015">
        <ele>1144.1062012</ele>
        <time>2011-06-04T09:50:58Z</time>
      </trkpt>
      <trkpt lat="45.33313" lon="5.77034">
        <ele>1141.222168</ele>
        <time>2011-06-04T09:51:04Z</time>
      </trkpt>
      <trkpt lat="45.33306" lon="5.7705">
        <ele>1141.7028809</ele>
        <time>2011-06-04T09:51:08Z</time>
      </trkpt>
      <trkpt lat="45.33305" lon="5.77075">
        <ele>1163.3325195</ele>
        <time>2011-06-04T09:51:13Z</time>
      </trkpt>
      <trkpt lat="45.33307" lon="5.77088">
        <ele>1176.7910156</ele>
        <time>2011-06-04T09:51:18Z</time>
      </trkpt>
      <trkpt lat="45.33307" lon="5.77089">
        <ele>1176.7910156</ele>
        <time>2011-06-04T09:51:19Z</time>
      </trkpt>
      <trkpt lat="45.33309" lon="5.77091">
        <ele>1177.7521973</ele>
        <time>2011-06-04T09:51:21Z</time>
      </trkpt>
      <trkpt lat="45.33311" lon="5.77095">
        <ele>1182.0783691</ele>
        <time>2011-06-04T09:51:23Z</time>
      </trkpt>
      <trkpt lat="45.33321" lon="5.77091">
        <ele>1187.8461914</ele>
        <time>2011-06-04T09:51:29Z</time>
      </trkpt>
      <trkpt lat="45.33326" lon="5.77079">
        <ele>1182.559082</ele>
        <time>2011-06-04T09:51:36Z</time>
      </trkpt>
      <trkpt lat="45.33327" lon="5.77073">
        <ele>1181.1171875</ele>
        <time>2011-06-04T09:51:38Z</time>
      </trkpt>
      <trkpt lat="45.33323" lon="5.77069">
        <ele>1177.2717285</ele>
        <time>2011-06-04T09:51:42Z</time>
      </trkpt>
      <trkpt lat="45.33322" lon="5.77078">
        <ele>1173.4265137</ele>
        <time>2011-06-04T09:51:46Z</time>
      </trkpt>
      <trkpt lat="45.33322" lon="5.77093">
        <ele>1170.0617676</ele>
        <time>2011-06-04T09:51:51Z</time>
      </trkpt>
      <trkpt lat="45.33324" lon="5.77104">
        <ele>1171.5036621</ele>
        <time>2011-06-04T09:51:55Z</time>
      </trkpt>
      <trkpt lat="45.33324" lon="5.77109">
        <ele>1171.0231934</ele>
        <time>2011-06-04T09:51:57Z</time>
      </trkpt>
      <trkpt lat="45.3333" lon="5.77113">
        <ele>1175.348877</ele>
        <time>2011-06-04T09:52:01Z</time>
      </trkpt>
      <trkpt lat="45.3334" lon="5.77104">
        <ele>1178.713623</ele>
        <time>2011-06-04T09:52:06Z</time>
      </trkpt>
      <trkpt lat="45.33354" lon="5.77098">
        <ele>1173.9069824</ele>
        <time>2011-06-04T09:52:13Z</time>
      </trkpt>
      <trkpt lat="45.33354" lon="5.77091">
        <ele>1164.2939453</ele>
        <time>2011-06-04T09:52:18Z</time>
      </trkpt>
      <trkpt lat="45.33358" lon="5.77086">
        <ele>1163.3325195</ele>
        <time>2011-06-04T09:52:21Z</time>
      </trkpt>
      <trkpt lat="45.33356" lon="5.77078">
        <ele>1155.6420898</ele>
        <time>2011-06-04T09:52:25Z</time>
      </trkpt>
      <trkpt lat="45.33364" lon="5.77073">
        <ele>1154.6806641</ele>
        <time>2011-06-04T09:52:30Z</time>
      </trkpt>
      <trkpt lat="45.33366" lon="5.77074">
        <ele>1152.7580566</ele>
        <time>2011-06-04T09:52:32Z</time>
      </trkpt>
      <trkpt lat="45.33372" lon="5.77084">
        <ele>1152.2773438</ele>
        <time>2011-06-04T09:52:37Z</time>
      </trkpt>
      <trkpt lat="45.33373" lon="5.77086">
        <ele>1152.2773438</ele>
        <time>2011-06-04T09:52:38Z</time>
      </trkpt>
      <trkpt lat="45.3337" lon="5.77094">
        <ele>1143.6254883</ele>
        <time>2011-06-04T09:52:43Z</time>
      </trkpt>
      <trkpt lat="45.33367" lon="5.7711">
        <ele>1143.1447754</ele>
        <time>2011-06-04T09:52:48Z</time>
      </trkpt>
      <trkpt lat="45.33368" lon="5.77125">
        <ele>1141.222168</ele>
        <time>2011-06-04T09:52:52Z</time>
      </trkpt>
      <trkpt lat="45.33361" lon="5.77133">
        <ele>1132.0898438</ele>
        <time>2011-06-04T09:52:57Z</time>
      </trkpt>
      <trkpt lat="45.3336" lon="5.77145">
        <ele>1126.3217773</ele>
        <time>2011-06-04T09:53:02Z</time>
      </trkpt>
      <trkpt lat="45.33361" lon="5.77152">
        <ele>1125.8410645</ele>
        <time>2011-06-04T09:53:07Z</time>
      </trkpt>
      <trkpt lat="45.33363" lon="5.77166">
        <ele>1121.9958496</ele>
        <time>2011-06-04T09:53:13Z</time>
      </trkpt>
      <trkpt lat="45.33364" lon="5.77166">
        <ele>1117.1894531</ele>
        <time>2011-06-04T09:53:19Z</time>
      </trkpt>
      <trkpt lat="45.33368" lon="5.77171">
        <ele>1121.5151367</ele>
        <time>2011-06-04T09:53:24Z</time>
      </trkpt>
      <trkpt lat="45.33375" lon="5.77173">
        <ele>1127.2832031</ele>
        <time>2011-06-04T09:53:28Z</time>
      </trkpt>
      <trkpt lat="45.33386" lon="5.77183">
        <ele>1128.7250977</ele>
        <time>2011-06-04T09:53:33Z</time>
      </trkpt>
      <trkpt lat="45.33387" lon="5.77187">
        <ele>1128.2443848</ele>
        <time>2011-06-04T09:53:34Z</time>
      </trkpt>
      <trkpt lat="45.33389" lon="5.77193">
        <ele>1128.2443848</ele>
        <time>2011-06-04T09:53:36Z</time>
      </trkpt>
      <trkpt lat="45.33396" lon="5.77199">
        <ele>1128.2443848</ele>
        <time>2011-06-04T09:53:40Z</time>
      </trkpt>
      <trkpt lat="45.334" lon="5.772">
        <ele>1125.8410645</ele>
        <time>2011-06-04T09:53:43Z</time>
      </trkpt>
      <trkpt lat="45.33402" lon="5.77201">
        <ele>1123.4379883</ele>
        <time>2011-06-04T09:53:45Z</time>
      </trkpt>
      <trkpt lat="45.33413" lon="5.772">
        <ele>1121.5151367</ele>
        <time>2011-06-04T09:53:51Z</time>
      </trkpt>
      <trkpt lat="45.3342" lon="5.772">
        <ele>1121.5151367</ele>
        <time>2011-06-04T09:53:54Z</time>
      </trkpt>
      <trkpt lat="45.33434" lon="5.77203">
        <ele>1121.5151367</ele>
        <time>2011-06-04T09:53:59Z</time>
      </trkpt>
      <trkpt lat="45.33442" lon="5.77205">
        <ele>1121.5151367</ele>
        <time>2011-06-04T09:54:01Z</time>
      </trkpt>
      <trkpt lat="45.33456" lon="5.77215">
        <ele>1119.5927734</ele>
        <time>2011-06-04T09:54:07Z</time>
      </trkpt>
      <trkpt lat="45.3346" lon="5.77232">
        <ele>1118.1506348</ele>
        <time>2011-06-04T09:54:12Z</time>
      </trkpt>
      <trkpt lat="45.3346" lon="5.7725">
        <ele>1119.1120605</ele>
        <time>2011-06-04T09:54:18Z</time>
      </trkpt>
      <trkpt lat="45.33464" lon="5.77256">
        <ele>1116.2280273</ele>
        <time>2011-06-04T09:54:23Z</time>
      </trkpt>
      <trkpt lat="45.33472" lon="5.7726">
        <ele>1114.7858887</ele>
        <time>2011-06-04T09:54:28Z</time>
      </trkpt>
      <trkpt lat="45.33473" lon="5.77263">
        <ele>1115.2666016</ele>
        <time>2011-06-04T09:54:29Z</time>
      </trkpt>
      <trkpt lat="45.33482" lon="5.77275">
        <ele>1116.2280273</ele>
        <time>2011-06-04T09:54:35Z</time>
      </trkpt>
      <trkpt lat="45.3349" lon="5.7729">
        <ele>1114.3051758</ele>
        <time>2011-06-04T09:54:40Z</time>
      </trkpt>
      <trkpt lat="45.33495" lon="5.77299">
        <ele>1112.3825684</ele>
        <time>2011-06-04T09:54:44Z</time>
      </trkpt>
      <trkpt lat="45.33508" lon="5.77305">
        <ele>1114.7858887</ele>
        <time>2011-06-04T09:54:49Z</time>
      </trkpt>
      <trkpt lat="45.33507" lon="5.77312">
        <ele>1108.5373535</ele>
        <time>2011-06-04T09:54:53Z</time>
      </trkpt>
      <trkpt lat="45.33506" lon="5.77326">
        <ele>1112.3825684</ele>
        <time>2011-06-04T09:55:00Z</time>
      </trkpt>
      <trkpt lat="45.33505" lon="5.7733">
        <ele>1110.4599609</ele>
        <time>2011-06-04T09:55:05Z</time>
      </trkpt>
      <trkpt lat="45.33511" lon="5.77326">
        <ele>1108.5373535</ele>
        <time>2011-06-04T09:55:08Z</time>
      </trkpt>
      <trkpt lat="45.33513" lon="5.77326">
        <ele>1108.0568848</ele>
        <time>2011-06-04T09:55:10Z</time>
      </trkpt>
      <trkpt lat="45.33512" lon="5.77338">
        <ele>1103.2502441</ele>
        <time>2011-06-04T09:55:15Z</time>
      </trkpt>
      <trkpt lat="45.33511" lon="5.77346">
        <ele>1103.730957</ele>
        <time>2011-06-04T09:55:17Z</time>
      </trkpt>
      <trkpt lat="45.33523" lon="5.77362">
        <ele>1110.4599609</ele>
        <time>2011-06-04T09:55:23Z</time>
      </trkpt>
      <trkpt lat="45.33529" lon="5.77371">
        <ele>1111.9020996</ele>
        <time>2011-06-04T09:55:27Z</time>
      </trkpt>
      <trkpt lat="45.33535" lon="5.77377">
        <ele>1112.8632813</ele>
        <time>2011-06-04T09:55:30Z</time>
      </trkpt>
      <trkpt lat="45.33539" lon="5.7738">
        <ele>1109.4987793</ele>
        <time>2011-06-04T09:55:34Z</time>
      </trkpt>
      <trkpt lat="45.33542" lon="5.77377">
        <ele>1104.2116699</ele>
        <time>2011-06-04T09:55:38Z</time>
      </trkpt>
      <trkpt lat="45.33554" lon="5.77385">
        <ele>1099.4047852</ele>
        <time>2011-06-04T09:55:43Z</time>
      </trkpt>
      <trkpt lat="45.33561" lon="5.7739">
        <ele>1097.9628906</ele>
        <time>2011-06-04T09:55:46Z</time>
      </trkpt>
      <trkpt lat="45.33566" lon="5.77402">
        <ele>1092.6757813</ele>
        <time>2011-06-04T09:55:50Z</time>
      </trkpt>
      <trkpt lat="45.33573" lon="5.77417">
        <ele>1091.2336426</ele>
        <time>2011-06-04T09:55:56Z</time>
      </trkpt>
      <trkpt lat="45.33578" lon="5.77426">
        <ele>1090.7529297</ele>
        <time>2011-06-04T09:56:00Z</time>
      </trkpt>
      <trkpt lat="45.33588" lon="5.77438">
        <ele>1090.7529297</ele>
        <time>2011-06-04T09:56:05Z</time>
      </trkpt>
      <trkpt lat="45.33591" lon="5.77443">
        <ele>1090.2724609</ele>
        <time>2011-06-04T09:56:08Z</time>
      </trkpt>
      <trkpt lat="45.33595" lon="5.7745">
        <ele>1089.791748</ele>
        <time>2011-06-04T09:56:11Z</time>
      </trkpt>
      <trkpt lat="45.33611" lon="5.77454">
        <ele>1093.15625</ele>
        <time>2011-06-04T09:56:16Z</time>
      </trkpt>
      <trkpt lat="45.33617" lon="5.7746">
        <ele>1092.6757813</ele>
        <time>2011-06-04T09:56:20Z</time>
      </trkpt>
      <trkpt lat="45.33623" lon="5.77469">
        <ele>1092.6757813</ele>
        <time>2011-06-04T09:56:26Z</time>
      </trkpt>
      <trkpt lat="45.33624" lon="5.77472">
        <ele>1091.7143555</ele>
        <time>2011-06-04T09:56:28Z</time>
      </trkpt>
      <trkpt lat="45.33633" lon="5.77483">
        <ele>1087.8691406</ele>
        <time>2011-06-04T09:56:33Z</time>
      </trkpt>
      <trkpt lat="45.33646" lon="5.77491">
        <ele>1089.3110352</ele>
        <time>2011-06-04T09:56:38Z</time>
      </trkpt>
      <trkpt lat="45.3365" lon="5.77502">
        <ele>1085.9465332</ele>
        <time>2011-06-04T09:56:44Z</time>
      </trkpt>
      <trkpt lat="45.33654" lon="5.7751">
        <ele>1082.1010742</ele>
        <time>2011-06-04T09:56:48Z</time>
      </trkpt>
      <trkpt lat="45.3366" lon="5.77515">
        <ele>1080.6591797</ele>
        <time>2011-06-04T09:56:52Z</time>
      </trkpt>
      <trkpt lat="45.3367" lon="5.77515">
        <ele>1078.2558594</ele>
        <time>2011-06-04T09:56:56Z</time>
      </trkpt>
      <trkpt lat="45.33675" lon="5.77516">
        <ele>1076.333252</ele>
        <time>2011-06-04T09:57:00Z</time>
      </trkpt>
      <trkpt lat="45.33684" lon="5.77521">
        <ele>1074.8913574</ele>
        <time>2011-06-04T09:57:05Z</time>
      </trkpt>
      <trkpt lat="45.33688" lon="5.77522">
        <ele>1075.3718262</ele>
        <time>2011-06-04T09:57:06Z</time>
      </trkpt>
      <trkpt lat="45.33698" lon="5.77531">
        <ele>1071.5266113</ele>
        <time>2011-06-04T09:57:11Z</time>
      </trkpt>
      <trkpt lat="45.33708" lon="5.77545">
        <ele>1070.5654297</ele>
        <time>2011-06-04T09:57:16Z</time>
      </trkpt>
      <trkpt lat="45.3371" lon="5.77547">
        <ele>1066.7199707</ele>
        <time>2011-06-04T09:57:19Z</time>
      </trkpt>
      <trkpt lat="45.33709" lon="5.77547">
        <ele>1065.7587891</ele>
        <time>2011-06-04T09:57:20Z</time>
      </trkpt>
      <trkpt lat="45.33706" lon="5.7753">
        <ele>1059.5102539</ele>
        <time>2011-06-04T09:57:26Z</time>
      </trkpt>
      <trkpt lat="45.33706" lon="5.77527">
        <ele>1058.0683594</ele>
        <time>2011-06-04T09:57:27Z</time>
      </trkpt>
      <trkpt lat="45.33705" lon="5.77512">
        <ele>1050.8581543</ele>
        <time>2011-06-04T09:57:32Z</time>
      </trkpt>
      <trkpt lat="45.33707" lon="5.77505">
        <ele>1048.454834</ele>
        <time>2011-06-04T09:57:34Z</time>
      </trkpt>
      <trkpt lat="45.33704" lon="5.7749">
        <ele>1042.6872559</ele>
        <time>2011-06-04T09:57:39Z</time>
      </trkpt>
      <trkpt lat="45.33704" lon="5.77487">
        <ele>1040.2839355</ele>
        <time>2011-06-04T09:57:41Z</time>
      </trkpt>
      <trkpt lat="45.33704" lon="5.77484">
        <ele>1039.8032227</ele>
        <time>2011-06-04T09:57:43Z</time>
      </trkpt>
      <trkpt lat="45.33696" lon="5.77465">
        <ele>1037.8806152</ele>
        <time>2011-06-04T09:57:48Z</time>
      </trkpt>
      <trkpt lat="45.3369" lon="5.77445">
        <ele>1034.996582</ele>
        <time>2011-06-04T09:57:53Z</time>
      </trkpt>
      <trkpt lat="45.33692" lon="5.77429">
        <ele>1035.9577637</ele>
        <time>2011-06-04T09:57:57Z</time>
      </trkpt>
      <trkpt lat="45.33692" lon="5.77418">
        <ele>1034.5158691</ele>
        <time>2011-06-04T09:58:00Z</time>
      </trkpt>
      <trkpt lat="45.33697" lon="5.77404">
        <ele>1033.5544434</ele>
        <time>2011-06-04T09:58:06Z</time>
      </trkpt>
      <trkpt lat="45.33706" lon="5.77415">
        <ele>1033.0737305</ele>
        <time>2011-06-04T09:58:11Z</time>
      </trkpt>
      <trkpt lat="45.33715" lon="5.77422">
        <ele>1034.5158691</ele>
        <time>2011-06-04T09:58:15Z</time>
      </trkpt>
      <trkpt lat="45.33725" lon="5.77431">
        <ele>1035.4770508</ele>
        <time>2011-06-04T09:58:20Z</time>
      </trkpt>
      <trkpt lat="45.33739" lon="5.77436">
        <ele>1040.7644043</ele>
        <time>2011-06-04T09:58:24Z</time>
      </trkpt>
      <trkpt lat="45.33748" lon="5.77442">
        <ele>1040.7644043</ele>
        <time>2011-06-04T09:58:29Z</time>
      </trkpt>
      <trkpt lat="45.33755" lon="5.77448">
        <ele>1038.842041</ele>
        <time>2011-06-04T09:58:34Z</time>
      </trkpt>
      <trkpt lat="45.33757" lon="5.7745">
        <ele>1037.8806152</ele>
        <time>2011-06-04T09:58:35Z</time>
      </trkpt>
      <trkpt lat="45.33764" lon="5.77461">
        <ele>1031.1513672</ele>
        <time>2011-06-04T09:58:41Z</time>
      </trkpt>
      <trkpt lat="45.33772" lon="5.77468">
        <ele>1031.1513672</ele>
        <time>2011-06-04T09:58:46Z</time>
      </trkpt>
      <trkpt lat="45.33777" lon="5.77472">
        <ele>1029.2285156</ele>
        <time>2011-06-04T09:58:50Z</time>
      </trkpt>
      <trkpt lat="45.3377" lon="5.77457">
        <ele>1022.9802246</ele>
        <time>2011-06-04T09:58:54Z</time>
      </trkpt>
      <trkpt lat="45.33766" lon="5.77445">
        <ele>1022.9802246</ele>
        <time>2011-06-04T09:58:57Z</time>
      </trkpt>
      <trkpt lat="45.33755" lon="5.77422">
        <ele>1020.0961914</ele>
        <time>2011-06-04T09:59:04Z</time>
      </trkpt>
      <trkpt lat="45.33753" lon="5.77408">
        <ele>1022.4995117</ele>
        <time>2011-06-04T09:59:08Z</time>
      </trkpt>
      <trkpt lat="45.33748" lon="5.77395">
        <ele>1021.0576172</ele>
        <time>2011-06-04T09:59:14Z</time>
      </trkpt>
      <trkpt lat="45.3375" lon="5.77388">
        <ele>1026.3447266</ele>
        <time>2011-06-04T09:59:17Z</time>
      </trkpt>
      <trkpt lat="45.3375" lon="5.77381">
        <ele>1029.2285156</ele>
        <time>2011-06-04T09:59:19Z</time>
      </trkpt>
      <trkpt lat="45.3374" lon="5.77365">
        <ele>1028.7480469</ele>
        <time>2011-06-04T09:59:23Z</time>
      </trkpt>
      <trkpt lat="45.3374" lon="5.77359">
        <ele>1022.0187988</ele>
        <time>2011-06-04T09:59:26Z</time>
      </trkpt>
      <trkpt lat="45.3374" lon="5.77348">
        <ele>1015.7702637</ele>
        <time>2011-06-04T09:59:30Z</time>
      </trkpt>
      <trkpt lat="45.33739" lon="5.77342">
        <ele>1015.2895508</ele>
        <time>2011-06-04T09:59:32Z</time>
      </trkpt>
      <trkpt lat="45.3374" lon="5.77336">
        <ele>1012.8862305</ele>
        <time>2011-06-04T09:59:35Z</time>
      </trkpt>
      <trkpt lat="45.33748" lon="5.77326">
        <ele>1005.1958008</ele>
        <time>2011-06-04T09:59:41Z</time>
      </trkpt>
      <trkpt lat="45.33756" lon="5.77321">
        <ele>999.4277344</ele>
        <time>2011-06-04T09:59:46Z</time>
      </trkpt>
      <trkpt lat="45.33765" lon="5.7733">
        <ele>992.6987305</ele>
        <time>2011-06-04T09:59:51Z</time>
      </trkpt>
      <trkpt lat="45.33768" lon="5.77335">
        <ele>991.7373047</ele>
        <time>2011-06-04T09:59:53Z</time>
      </trkpt>
      <trkpt lat="45.33777" lon="5.77348">
        <ele>990.7758789</ele>
        <time>2011-06-04T09:59:58Z</time>
      </trkpt>
      <trkpt lat="45.33787" lon="5.77361">
        <ele>995.1018066</ele>
        <time>2011-06-04T10:00:03Z</time>
      </trkpt>
      <trkpt lat="45.33789" lon="5.7737">
        <ele>994.140625</ele>
        <time>2011-06-04T10:00:06Z</time>
      </trkpt>
      <trkpt lat="45.33801" lon="5.77384">
        <ele>990.2954102</ele>
        <time>2011-06-04T10:00:12Z</time>
      </trkpt>
      <trkpt lat="45.3381" lon="5.77394">
        <ele>990.2954102</ele>
        <time>2011-06-04T10:00:17Z</time>
      </trkpt>
      <trkpt lat="45.33822" lon="5.77404">
        <ele>989.8146973</ele>
        <time>2011-06-04T10:00:22Z</time>
      </trkpt>
      <trkpt lat="45.33833" lon="5.77409">
        <ele>987.8918457</ele>
        <time>2011-06-04T10:00:27Z</time>
      </trkpt>
      <trkpt lat="45.33838" lon="5.77413">
        <ele>985.4885254</ele>
        <time>2011-06-04T10:00:31Z</time>
      </trkpt>
      <trkpt lat="45.33854" lon="5.77418">
        <ele>990.7758789</ele>
        <time>2011-06-04T10:00:36Z</time>
      </trkpt>
      <trkpt lat="45.33875" lon="5.77427">
        <ele>997.9858398</ele>
        <time>2011-06-04T10:00:41Z</time>
      </trkpt>
      <trkpt lat="45.33876" lon="5.77433">
        <ele>993.6599121</ele>
        <time>2011-06-04T10:00:44Z</time>
      </trkpt>
      <trkpt lat="45.33876" lon="5.77435">
        <ele>993.1791992</ele>
        <time>2011-06-04T10:00:45Z</time>
      </trkpt>
      <trkpt lat="45.33886" lon="5.77449">
        <ele>989.3339844</ele>
        <time>2011-06-04T10:00:51Z</time>
      </trkpt>
      <trkpt lat="45.33891" lon="5.77461">
        <ele>981.6433105</ele>
        <time>2011-06-04T10:00:56Z</time>
      </trkpt>
      <trkpt lat="45.33896" lon="5.77469">
        <ele>977.7980957</ele>
        <time>2011-06-04T10:01:01Z</time>
      </trkpt>
      <trkpt lat="45.33902" lon="5.77476">
        <ele>973.4724121</ele>
        <time>2011-06-04T10:01:05Z</time>
      </trkpt>
      <trkpt lat="45.33906" lon="5.77477">
        <ele>972.5109863</ele>
        <time>2011-06-04T10:01:08Z</time>
      </trkpt>
      <trkpt lat="45.33909" lon="5.77476">
        <ele>972.5109863</ele>
        <time>2011-06-04T10:01:10Z</time>
      </trkpt>
      <trkpt lat="45.33912" lon="5.77478">
        <ele>968.6655273</ele>
        <time>2011-06-04T10:01:12Z</time>
      </trkpt>
      <trkpt lat="45.33924" lon="5.77475">
        <ele>966.262207</ele>
        <time>2011-06-04T10:01:17Z</time>
      </trkpt>
      <trkpt lat="45.33941" lon="5.77469">
        <ele>968.1848145</ele>
        <time>2011-06-04T10:01:23Z</time>
      </trkpt>
      <trkpt lat="45.33953" lon="5.77463">
        <ele>972.5109863</ele>
        <time>2011-06-04T10:01:27Z</time>
      </trkpt>
      <trkpt lat="45.3396" lon="5.7746">
        <ele>972.5109863</ele>
        <time>2011-06-04T10:01:31Z</time>
      </trkpt>
      <trkpt lat="45.33979" lon="5.77462">
        <ele>971.5493164</ele>
        <time>2011-06-04T10:01:37Z</time>
      </trkpt>
      <trkpt lat="45.33986" lon="5.7747">
        <ele>968.6655273</ele>
        <time>2011-06-04T10:01:41Z</time>
      </trkpt>
      <trkpt lat="45.33988" lon="5.77471">
        <ele>966.7429199</ele>
        <time>2011-06-04T10:01:42Z</time>
      </trkpt>
      <trkpt lat="45.34005" lon="5.77478">
        <ele>965.3010254</ele>
        <time>2011-06-04T10:01:48Z</time>
      </trkpt>
      <trkpt lat="45.34022" lon="5.77482">
        <ele>966.7429199</ele>
        <time>2011-06-04T10:01:53Z</time>
      </trkpt>
      <trkpt lat="45.34035" lon="5.77487">
        <ele>967.7041016</ele>
        <time>2011-06-04T10:01:57Z</time>
      </trkpt>
      <trkpt lat="45.34039" lon="5.77497">
        <ele>960.9750977</ele>
        <time>2011-06-04T10:02:02Z</time>
      </trkpt>
      <trkpt lat="45.34045" lon="5.77505">
        <ele>952.8037109</ele>
        <time>2011-06-04T10:02:07Z</time>
      </trkpt>
      <trkpt lat="45.34057" lon="5.77511">
        <ele>952.8037109</ele>
        <time>2011-06-04T10:02:12Z</time>
      </trkpt>
      <trkpt lat="45.34065" lon="5.77517">
        <ele>950.4006348</ele>
        <time>2011-06-04T10:02:16Z</time>
      </trkpt>
      <trkpt lat="45.34075" lon="5.77522">
        <ele>950.8811035</ele>
        <time>2011-06-04T10:02:21Z</time>
      </trkpt>
      <trkpt lat="45.34088" lon="5.77531">
        <ele>943.6713867</ele>
        <time>2011-06-04T10:02:26Z</time>
      </trkpt>
      <trkpt lat="45.34103" lon="5.77542">
        <ele>941.2680664</ele>
        <time>2011-06-04T10:02:32Z</time>
      </trkpt>
      <trkpt lat="45.34115" lon="5.77547">
        <ele>941.2680664</ele>
        <time>2011-06-04T10:02:36Z</time>
      </trkpt>
      <trkpt lat="45.34128" lon="5.77555">
        <ele>938.8647461</ele>
        <time>2011-06-04T10:02:41Z</time>
      </trkpt>
      <trkpt lat="45.34137" lon="5.77565">
        <ele>933.0966797</ele>
        <time>2011-06-04T10:02:46Z</time>
      </trkpt>
      <trkpt lat="45.3415" lon="5.77574">
        <ele>927.8095703</ele>
        <time>2011-06-04T10:02:52Z</time>
      </trkpt>
      <trkpt lat="45.34163" lon="5.77582">
        <ele>925.40625</ele>
        <time>2011-06-04T10:02:58Z</time>
      </trkpt>
      <trkpt lat="45.3417" lon="5.77589">
        <ele>924.9257813</ele>
        <time>2011-06-04T10:03:03Z</time>
      </trkpt>
      <trkpt lat="45.34177" lon="5.77593">
        <ele>924.9257813</ele>
        <time>2011-06-04T10:03:08Z</time>
      </trkpt>
      <trkpt lat="45.3418" lon="5.77596">
        <ele>925.40625</ele>
        <time>2011-06-04T10:03:11Z</time>
      </trkpt>
      <trkpt lat="45.34185" lon="5.77602">
        <ele>924.4450684</ele>
        <time>2011-06-04T10:03:16Z</time>
      </trkpt>
      <trkpt lat="45.34199" lon="5.77613">
        <ele>925.40625</ele>
        <time>2011-06-04T10:03:22Z</time>
      </trkpt>
      <trkpt lat="45.3421" lon="5.77619">
        <ele>924.9257813</ele>
        <time>2011-06-04T10:03:26Z</time>
      </trkpt>
      <trkpt lat="45.34221" lon="5.7763">
        <ele>923.4836426</ele>
        <time>2011-06-04T10:03:31Z</time>
      </trkpt>
      <trkpt lat="45.34229" lon="5.7764">
        <ele>921.0803223</ele>
        <time>2011-06-04T10:03:35Z</time>
      </trkpt>
      <trkpt lat="45.34241" lon="5.77649">
        <ele>920.1188965</ele>
        <time>2011-06-04T10:03:40Z</time>
      </trkpt>
      <trkpt lat="45.34253" lon="5.77657">
        <ele>919.1577148</ele>
        <time>2011-06-04T10:03:45Z</time>
      </trkpt>
      <trkpt lat="45.34259" lon="5.7766">
        <ele>919.6384277</ele>
        <time>2011-06-04T10:03:47Z</time>
      </trkpt>
      <trkpt lat="45.3427" lon="5.7767">
        <ele>915.3125</ele>
        <time>2011-06-04T10:03:53Z</time>
      </trkpt>
      <trkpt lat="45.34285" lon="5.77675">
        <ele>913.3898926</ele>
        <time>2011-06-04T10:04:00Z</time>
      </trkpt>
      <trkpt lat="45.34295" lon="5.77676">
        <ele>911.947998</ele>
        <time>2011-06-04T10:04:04Z</time>
      </trkpt>
      <trkpt lat="45.34308" lon="5.77675">
        <ele>911.947998</ele>
        <time>2011-06-04T10:04:09Z</time>
      </trkpt>
      <trkpt lat="45.34322" lon="5.77677">
        <ele>912.9091797</ele>
        <time>2011-06-04T10:04:14Z</time>
      </trkpt>
      <trkpt lat="45.34334" lon="5.77678">
        <ele>910.9865723</ele>
        <time>2011-06-04T10:04:19Z</time>
      </trkpt>
      <trkpt lat="45.34345" lon="5.77678">
        <ele>910.0251465</ele>
        <time>2011-06-04T10:04:23Z</time>
      </trkpt>
      <trkpt lat="45.34359" lon="5.77677">
        <ele>909.5446777</ele>
        <time>2011-06-04T10:04:28Z</time>
      </trkpt>
      <trkpt lat="45.34382" lon="5.77677">
        <ele>907.1411133</ele>
        <time>2011-06-04T10:04:36Z</time>
      </trkpt>
      <trkpt lat="45.34394" lon="5.77676">
        <ele>904.2573242</ele>
        <time>2011-06-04T10:04:41Z</time>
      </trkpt>
      <trkpt lat="45.34406" lon="5.77676">
        <ele>899.4506836</ele>
        <time>2011-06-04T10:04:47Z</time>
      </trkpt>
      <trkpt lat="45.34408" lon="5.77677">
        <ele>899.4506836</ele>
        <time>2011-06-04T10:04:48Z</time>
      </trkpt>
      <trkpt lat="45.34424" lon="5.77684">
        <ele>897.5280762</ele>
        <time>2011-06-04T10:04:54Z</time>
      </trkpt>
      <trkpt lat="45.34432" lon="5.77693">
        <ele>897.5280762</ele>
        <time>2011-06-04T10:04:58Z</time>
      </trkpt>
      <trkpt lat="45.34438" lon="5.77714">
        <ele>895.6054688</ele>
        <time>2011-06-04T10:05:04Z</time>
      </trkpt>
      <trkpt lat="45.34435" lon="5.7773">
        <ele>896.0861816</ele>
        <time>2011-06-04T10:05:09Z</time>
      </trkpt>
      <trkpt lat="45.34431" lon="5.77736">
        <ele>895.6054688</ele>
        <time>2011-06-04T10:05:11Z</time>
      </trkpt>
      <trkpt lat="45.34419" lon="5.77748">
        <ele>897.0473633</ele>
        <time>2011-06-04T10:05:17Z</time>
      </trkpt>
      <trkpt lat="45.34409" lon="5.77758">
        <ele>898.0087891</ele>
        <time>2011-06-04T10:05:22Z</time>
      </trkpt>
      <trkpt lat="45.34393" lon="5.77768">
        <ele>900.4121094</ele>
        <time>2011-06-04T10:05:28Z</time>
      </trkpt>
      <trkpt lat="45.34376" lon="5.77776">
        <ele>899.9313965</ele>
        <time>2011-06-04T10:05:35Z</time>
      </trkpt>
      <trkpt lat="45.34364" lon="5.77783">
        <ele>901.8540039</ele>
        <time>2011-06-04T10:05:40Z</time>
      </trkpt>
      <trkpt lat="45.34352" lon="5.77796">
        <ele>901.8540039</ele>
        <time>2011-06-04T10:05:46Z</time>
      </trkpt>
      <trkpt lat="45.34349" lon="5.77812">
        <ele>900.4121094</ele>
        <time>2011-06-04T10:05:51Z</time>
      </trkpt>
      <trkpt lat="45.34347" lon="5.77829">
        <ele>899.4506836</ele>
        <time>2011-06-04T10:05:55Z</time>
      </trkpt>
      <trkpt lat="45.34349" lon="5.77853">
        <ele>896.5668945</ele>
        <time>2011-06-04T10:06:00Z</time>
      </trkpt>
      <trkpt lat="45.34357" lon="5.77878">
        <ele>893.6828613</ele>
        <time>2011-06-04T10:06:06Z</time>
      </trkpt>
      <trkpt lat="45.34365" lon="5.779">
        <ele>891.2792969</ele>
        <time>2011-06-04T10:06:12Z</time>
      </trkpt>
      <trkpt lat="45.34372" lon="5.7792">
        <ele>890.3181152</ele>
        <time>2011-06-04T10:06:16Z</time>
      </trkpt>
      <trkpt lat="45.34375" lon="5.77953">
        <ele>888.3955078</ele>
        <time>2011-06-04T10:06:22Z</time>
      </trkpt>
      <trkpt lat="45.34375" lon="5.77977">
        <ele>886.4729004</ele>
        <time>2011-06-04T10:06:27Z</time>
      </trkpt>
      <trkpt lat="45.34386" lon="5.77997">
        <ele>893.2021484</ele>
        <time>2011-06-04T10:06:32Z</time>
      </trkpt>
      <trkpt lat="45.34391" lon="5.78026">
        <ele>887.434082</ele>
        <time>2011-06-04T10:06:38Z</time>
      </trkpt>
      <trkpt lat="45.34397" lon="5.78052">
        <ele>883.5888672</ele>
        <time>2011-06-04T10:06:43Z</time>
      </trkpt>
      <trkpt lat="45.34405" lon="5.78072">
        <ele>879.7436523</ele>
        <time>2011-06-04T10:06:47Z</time>
      </trkpt>
      <trkpt lat="45.34417" lon="5.78085">
        <ele>878.7824707</ele>
        <time>2011-06-04T10:06:50Z</time>
      </trkpt>
      <trkpt lat="45.34429" lon="5.78097">
        <ele>880.2243652</ele>
        <time>2011-06-04T10:06:54Z</time>
      </trkpt>
      <trkpt lat="45.34438" lon="5.78107">
        <ele>879.2629395</ele>
        <time>2011-06-04T10:06:58Z</time>
      </trkpt>
      <trkpt lat="45.34449" lon="5.78122">
        <ele>879.2629395</ele>
        <time>2011-06-04T10:07:04Z</time>
      </trkpt>
      <trkpt lat="45.34457" lon="5.78141">
        <ele>879.2629395</ele>
        <time>2011-06-04T10:07:10Z</time>
      </trkpt>
      <trkpt lat="45.34464" lon="5.78154">
        <ele>878.7824707</ele>
        <time>2011-06-04T10:07:14Z</time>
      </trkpt>
      <trkpt lat="45.34468" lon="5.78165">
        <ele>876.8598633</ele>
        <time>2011-06-04T10:07:18Z</time>
      </trkpt>
      <trkpt lat="45.34464" lon="5.78174">
        <ele>873.4951172</ele>
        <time>2011-06-04T10:07:25Z</time>
      </trkpt>
      <trkpt lat="45.34466" lon="5.78174">
        <ele>875.8981934</ele>
        <time>2011-06-04T10:07:31Z</time>
      </trkpt>
      <trkpt lat="45.34483" lon="5.78188">
        <ele>878.7824707</ele>
        <time>2011-06-04T10:07:37Z</time>
      </trkpt>
      <trkpt lat="45.34486" lon="5.78202">
        <ele>877.8210449</ele>
        <time>2011-06-04T10:07:41Z</time>
      </trkpt>
      <trkpt lat="45.34486" lon="5.78214">
        <ele>879.2629395</ele>
        <time>2011-06-04T10:07:44Z</time>
      </trkpt>
      <trkpt lat="45.34486" lon="5.7823">
        <ele>879.2629395</ele>
        <time>2011-06-04T10:07:48Z</time>
      </trkpt>
      <trkpt lat="45.34481" lon="5.78248">
        <ele>876.8598633</ele>
        <time>2011-06-04T10:07:52Z</time>
      </trkpt>
      <trkpt lat="45.34476" lon="5.78268">
        <ele>877.3405762</ele>
        <time>2011-06-04T10:07:57Z</time>
      </trkpt>
      <trkpt lat="45.34472" lon="5.78282">
        <ele>876.3791504</ele>
        <time>2011-06-04T10:08:01Z</time>
      </trkpt>
      <trkpt lat="45.34463" lon="5.78302">
        <ele>872.0529785</ele>
        <time>2011-06-04T10:08:06Z</time>
      </trkpt>
      <trkpt lat="45.34466" lon="5.78327">
        <ele>871.0917969</ele>
        <time>2011-06-04T10:08:12Z</time>
      </trkpt>
      <trkpt lat="45.34476" lon="5.7834">
        <ele>873.9755859</ele>
        <time>2011-06-04T10:08:16Z</time>
      </trkpt>
      <trkpt lat="45.34488" lon="5.78356">
        <ele>879.2629395</ele>
        <time>2011-06-04T10:08:21Z</time>
      </trkpt>
      <trkpt lat="45.34488" lon="5.7836">
        <ele>878.7824707</ele>
        <time>2011-06-04T10:08:22Z</time>
      </trkpt>
      <trkpt lat="45.34482" lon="5.7838">
        <ele>875.8981934</ele>
        <time>2011-06-04T10:08:27Z</time>
      </trkpt>
      <trkpt lat="45.34481" lon="5.78394">
        <ele>873.9755859</ele>
        <time>2011-06-04T10:08:31Z</time>
      </trkpt>
      <trkpt lat="45.34477" lon="5.78413">
        <ele>871.5722656</ele>
        <time>2011-06-04T10:08:35Z</time>
      </trkpt>
      <trkpt lat="45.34482" lon="5.78433">
        <ele>868.6884766</ele>
        <time>2011-06-04T10:08:40Z</time>
      </trkpt>
      <trkpt lat="45.34483" lon="5.78437">
        <ele>867.7270508</ele>
        <time>2011-06-04T10:08:41Z</time>
      </trkpt>
      <trkpt lat="45.34491" lon="5.7847">
        <ele>867.7270508</ele>
        <time>2011-06-04T10:08:49Z</time>
      </trkpt>
      <trkpt lat="45.34504" lon="5.78493">
        <ele>869.6499023</ele>
        <time>2011-06-04T10:08:55Z</time>
      </trkpt>
      <trkpt lat="45.34502" lon="5.78512">
        <ele>866.7658691</ele>
        <time>2011-06-04T10:08:59Z</time>
      </trkpt>
      <trkpt lat="45.34501" lon="5.78535">
        <ele>867.246582</ele>
        <time>2011-06-04T10:09:04Z</time>
      </trkpt>
      <trkpt lat="45.34503" lon="5.78542">
        <ele>869.1691895</ele>
        <time>2011-06-04T10:09:06Z</time>
      </trkpt>
      <trkpt lat="45.34514" lon="5.78562">
        <ele>870.1303711</ele>
        <time>2011-06-04T10:09:12Z</time>
      </trkpt>
      <trkpt lat="45.3451" lon="5.78585">
        <ele>864.8432617</ele>
        <time>2011-06-04T10:09:17Z</time>
      </trkpt>
      <trkpt lat="45.34508" lon="5.78611">
        <ele>857.1525879</ele>
        <time>2011-06-04T10:09:23Z</time>
      </trkpt>
      <trkpt lat="45.34508" lon="5.78628">
        <ele>855.7106934</ele>
        <time>2011-06-04T10:09:27Z</time>
      </trkpt>
      <trkpt lat="45.34516" lon="5.78656">
        <ele>854.7492676</ele>
        <time>2011-06-04T10:09:34Z</time>
      </trkpt>
      <trkpt lat="45.34523" lon="5.78672">
        <ele>856.1911621</ele>
        <time>2011-06-04T10:09:38Z</time>
      </trkpt>
      <trkpt lat="45.34529" lon="5.78698">
        <ele>858.5944824</ele>
        <time>2011-06-04T10:09:44Z</time>
      </trkpt>
      <trkpt lat="45.34532" lon="5.78719">
        <ele>857.6333008</ele>
        <time>2011-06-04T10:09:49Z</time>
      </trkpt>
      <trkpt lat="45.34532" lon="5.78739">
        <ele>856.671875</ele>
        <time>2011-06-04T10:09:54Z</time>
      </trkpt>
      <trkpt lat="45.34531" lon="5.78756">
        <ele>854.2687988</ele>
        <time>2011-06-04T10:09:58Z</time>
      </trkpt>
      <trkpt lat="45.34536" lon="5.7877">
        <ele>855.7106934</ele>
        <time>2011-06-04T10:10:02Z</time>
      </trkpt>
      <trkpt lat="45.34539" lon="5.78781">
        <ele>856.1911621</ele>
        <time>2011-06-04T10:10:06Z</time>
      </trkpt>
      <trkpt lat="45.34538" lon="5.78789">
        <ele>856.671875</ele>
        <time>2011-06-04T10:10:08Z</time>
      </trkpt>
      <trkpt lat="45.3453" lon="5.78812">
        <ele>855.7106934</ele>
        <time>2011-06-04T10:10:13Z</time>
      </trkpt>
      <trkpt lat="45.34527" lon="5.78839">
        <ele>853.307373</ele>
        <time>2011-06-04T10:10:19Z</time>
      </trkpt>
      <trkpt lat="45.34528" lon="5.78858">
        <ele>850.423584</ele>
        <time>2011-06-04T10:10:24Z</time>
      </trkpt>
      <trkpt lat="45.34526" lon="5.7887">
        <ele>847.5395508</ele>
        <time>2011-06-04T10:10:27Z</time>
      </trkpt>
      <trkpt lat="45.34533" lon="5.78894">
        <ele>843.2133789</ele>
        <time>2011-06-04T10:10:33Z</time>
      </trkpt>
      <trkpt lat="45.34541" lon="5.78911">
        <ele>838.8876953</ele>
        <time>2011-06-04T10:10:38Z</time>
      </trkpt>
      <trkpt lat="45.34546" lon="5.78926">
        <ele>834.5617676</ele>
        <time>2011-06-04T10:10:43Z</time>
      </trkpt>
      <trkpt lat="45.34551" lon="5.78944">
        <ele>830.2358398</ele>
        <time>2011-06-04T10:10:48Z</time>
      </trkpt>
      <trkpt lat="45.34556" lon="5.78959">
        <ele>826.8710938</ele>
        <time>2011-06-04T10:10:52Z</time>
      </trkpt>
      <trkpt lat="45.34559" lon="5.78975">
        <ele>823.0258789</ele>
        <time>2011-06-04T10:10:56Z</time>
      </trkpt>
      <trkpt lat="45.34564" lon="5.78988">
        <ele>819.1806641</ele>
        <time>2011-06-04T10:11:00Z</time>
      </trkpt>
      <trkpt lat="45.34577" lon="5.79006">
        <ele>819.1806641</ele>
        <time>2011-06-04T10:11:06Z</time>
      </trkpt>
      <trkpt lat="45.34604" lon="5.79023">
        <ele>836.0036621</ele>
        <time>2011-06-04T10:11:12Z</time>
      </trkpt>
      <trkpt lat="45.34607" lon="5.7903">
        <ele>836.484375</ele>
        <time>2011-06-04T10:11:14Z</time>
      </trkpt>
      <trkpt lat="45.34611" lon="5.79055">
        <ele>833.1196289</ele>
        <time>2011-06-04T10:11:20Z</time>
      </trkpt>
      <trkpt lat="45.34606" lon="5.79071">
        <ele>827.8322754</ele>
        <time>2011-06-04T10:11:24Z</time>
      </trkpt>
      <trkpt lat="45.34585" lon="5.79092">
        <ele>814.8547363</ele>
        <time>2011-06-04T10:11:30Z</time>
      </trkpt>
      <trkpt lat="45.34581" lon="5.79096">
        <ele>814.3740234</ele>
        <time>2011-06-04T10:11:31Z</time>
      </trkpt>
      <trkpt lat="45.34571" lon="5.79113">
        <ele>813.4128418</ele>
        <time>2011-06-04T10:11:36Z</time>
      </trkpt>
      <trkpt lat="45.34569" lon="5.79118">
        <ele>814.3740234</ele>
        <time>2011-06-04T10:11:38Z</time>
      </trkpt>
      <trkpt lat="45.34564" lon="5.79125">
        <ele>813.8933105</ele>
        <time>2011-06-04T10:11:42Z</time>
      </trkpt>
      <trkpt lat="45.34562" lon="5.79135">
        <ele>815.8161621</ele>
        <time>2011-06-04T10:11:45Z</time>
      </trkpt>
      <trkpt lat="45.3457" lon="5.79151">
        <ele>829.2744141</ele>
        <time>2011-06-04T10:11:51Z</time>
      </trkpt>
      <trkpt lat="45.34573" lon="5.79159">
        <ele>833.6003418</ele>
        <time>2011-06-04T10:11:53Z</time>
      </trkpt>
      <trkpt lat="45.34575" lon="5.79188">
        <ele>840.8100586</ele>
        <time>2011-06-04T10:11:59Z</time>
      </trkpt>
      <trkpt lat="45.34575" lon="5.79209">
        <ele>837.4455566</ele>
        <time>2011-06-04T10:12:04Z</time>
      </trkpt>
      <trkpt lat="45.34576" lon="5.79231">
        <ele>839.3681641</ele>
        <time>2011-06-04T10:12:09Z</time>
      </trkpt>
      <trkpt lat="45.34572" lon="5.79263">
        <ele>835.0424805</ele>
        <time>2011-06-04T10:12:16Z</time>
      </trkpt>
      <trkpt lat="45.34568" lon="5.7928">
        <ele>830.2358398</ele>
        <time>2011-06-04T10:12:20Z</time>
      </trkpt>
      <trkpt lat="45.34564" lon="5.79304">
        <ele>823.9870605</ele>
        <time>2011-06-04T10:12:26Z</time>
      </trkpt>
      <trkpt lat="45.34559" lon="5.79323">
        <ele>819.661377</ele>
        <time>2011-06-04T10:12:31Z</time>
      </trkpt>
      <trkpt lat="45.34556" lon="5.79337">
        <ele>814.3740234</ele>
        <time>2011-06-04T10:12:35Z</time>
      </trkpt>
      <trkpt lat="45.34549" lon="5.79359">
        <ele>812.451416</ele>
        <time>2011-06-04T10:12:40Z</time>
      </trkpt>
      <trkpt lat="45.34548" lon="5.79383">
        <ele>815.3354492</ele>
        <time>2011-06-04T10:12:45Z</time>
      </trkpt>
      <trkpt lat="45.3455" lon="5.79402">
        <ele>810.0478516</ele>
        <time>2011-06-04T10:12:50Z</time>
      </trkpt>
      <trkpt lat="45.34552" lon="5.79425">
        <ele>805.2414551</ele>
        <time>2011-06-04T10:12:55Z</time>
      </trkpt>
      <trkpt lat="45.34553" lon="5.79445">
        <ele>798.512207</ele>
        <time>2011-06-04T10:13:00Z</time>
      </trkpt>
      <trkpt lat="45.34551" lon="5.79449">
        <ele>796.1091309</ele>
        <time>2011-06-04T10:13:01Z</time>
      </trkpt>
      <trkpt lat="45.34545" lon="5.79464">
        <ele>790.8215332</ele>
        <time>2011-06-04T10:13:05Z</time>
      </trkpt>
      <trkpt lat="45.34531" lon="5.79481">
        <ele>781.2087402</ele>
        <time>2011-06-04T10:13:10Z</time>
      </trkpt>
      <trkpt lat="45.34528" lon="5.79484">
        <ele>774.479248</ele>
        <time>2011-06-04T10:13:14Z</time>
      </trkpt>
      <trkpt lat="45.34527" lon="5.79484">
        <ele>772.5566406</ele>
        <time>2011-06-04T10:13:15Z</time>
      </trkpt>
      <trkpt lat="45.34522" lon="5.79486">
        <ele>766.7888184</ele>
        <time>2011-06-04T10:13:18Z</time>
      </trkpt>
      <trkpt lat="45.34523" lon="5.79483">
        <ele>763.4240723</ele>
        <time>2011-06-04T10:13:23Z</time>
      </trkpt>
      <trkpt lat="45.34524" lon="5.79481">
        <ele>761.9821777</ele>
        <time>2011-06-04T10:13:26Z</time>
      </trkpt>
      <trkpt lat="45.34525" lon="5.79488">
        <ele>768.2307129</ele>
        <time>2011-06-04T10:13:30Z</time>
      </trkpt>
      <trkpt lat="45.34512" lon="5.7953">
        <ele>788.8991699</ele>
        <time>2011-06-04T10:13:36Z</time>
      </trkpt>
      <trkpt lat="45.34504" lon="5.79553">
        <ele>797.5510254</ele>
        <time>2011-06-04T10:13:40Z</time>
      </trkpt>
      <trkpt lat="45.34497" lon="5.79575">
        <ele>801.8769531</ele>
        <time>2011-06-04T10:13:46Z</time>
      </trkpt>
      <trkpt lat="45.34494" lon="5.79579">
        <ele>802.8381348</ele>
        <time>2011-06-04T10:13:48Z</time>
      </trkpt>
      <trkpt lat="45.34486" lon="5.7959">
        <ele>801.3962402</ele>
        <time>2011-06-04T10:13:55Z</time>
      </trkpt>
      <trkpt lat="45.34484" lon="5.79599">
        <ele>799.4736328</ele>
        <time>2011-06-04T10:13:58Z</time>
      </trkpt>
      <trkpt lat="45.34481" lon="5.79619">
        <ele>794.666748</ele>
        <time>2011-06-04T10:14:04Z</time>
      </trkpt>
      <trkpt lat="45.3448" lon="5.79623">
        <ele>794.666748</ele>
        <time>2011-06-04T10:14:05Z</time>
      </trkpt>
      <trkpt lat="45.34479" lon="5.79643">
        <ele>788.8991699</ele>
        <time>2011-06-04T10:14:11Z</time>
      </trkpt>
      <trkpt lat="45.34479" lon="5.7965">
        <ele>786.9763184</ele>
        <time>2011-06-04T10:14:13Z</time>
      </trkpt>
      <trkpt lat="45.3448" lon="5.79666">
        <ele>785.5344238</ele>
        <time>2011-06-04T10:14:18Z</time>
      </trkpt>
      <trkpt lat="45.3448" lon="5.79673">
        <ele>786.4958496</ele>
        <time>2011-06-04T10:14:20Z</time>
      </trkpt>
      <trkpt lat="45.3448" lon="5.79687">
        <ele>791.782959</ele>
        <time>2011-06-04T10:14:25Z</time>
      </trkpt>
      <trkpt lat="45.34485" lon="5.79698">
        <ele>806.2026367</ele>
        <time>2011-06-04T10:14:29Z</time>
      </trkpt>
      <trkpt lat="45.34482" lon="5.79713">
        <ele>814.8547363</ele>
        <time>2011-06-04T10:14:34Z</time>
      </trkpt>
      <trkpt lat="45.34473" lon="5.79727">
        <ele>817.2580566</ele>
        <time>2011-06-04T10:14:39Z</time>
      </trkpt>
      <trkpt lat="45.34465" lon="5.79744">
        <ele>818.2192383</ele>
        <time>2011-06-04T10:14:44Z</time>
      </trkpt>
      <trkpt lat="45.34456" lon="5.79756">
        <ele>820.1418457</ele>
        <time>2011-06-04T10:14:49Z</time>
      </trkpt>
      <trkpt lat="45.34449" lon="5.7977">
        <ele>828.7939453</ele>
        <time>2011-06-04T10:14:55Z</time>
      </trkpt>
      <trkpt lat="45.34446" lon="5.79778">
        <ele>842.7329102</ele>
        <time>2011-06-04T10:15:00Z</time>
      </trkpt>
      <trkpt lat="45.34437" lon="5.79794">
        <ele>852.8266602</ele>
        <time>2011-06-04T10:15:06Z</time>
      </trkpt>
      <trkpt lat="45.34434" lon="5.79799">
        <ele>855.2299805</ele>
        <time>2011-06-04T10:15:08Z</time>
      </trkpt>
      <trkpt lat="45.34431" lon="5.79826">
        <ele>850.423584</ele>
        <time>2011-06-04T10:15:15Z</time>
      </trkpt>
      <trkpt lat="45.3443" lon="5.79829">
        <ele>850.423584</ele>
        <time>2011-06-04T10:15:16Z</time>
      </trkpt>
      <trkpt lat="45.34428" lon="5.79838">
        <ele>852.8266602</ele>
        <time>2011-06-04T10:15:21Z</time>
      </trkpt>
      <trkpt lat="45.34429" lon="5.79849">
        <ele>849.9428711</ele>
        <time>2011-06-04T10:15:26Z</time>
      </trkpt>
      <trkpt lat="45.34431" lon="5.79862">
        <ele>844.1750488</ele>
        <time>2011-06-04T10:15:30Z</time>
      </trkpt>
      <trkpt lat="45.34428" lon="5.79879">
        <ele>834.5617676</ele>
        <time>2011-06-04T10:15:35Z</time>
      </trkpt>
      <trkpt lat="45.34424" lon="5.79899">
        <ele>826.8710938</ele>
        <time>2011-06-04T10:15:40Z</time>
      </trkpt>
      <trkpt lat="45.34422" lon="5.7992">
        <ele>817.7385254</ele>
        <time>2011-06-04T10:15:45Z</time>
      </trkpt>
      <trkpt lat="45.34419" lon="5.79945">
        <ele>808.605957</ele>
        <time>2011-06-04T10:15:51Z</time>
      </trkpt>
      <trkpt lat="45.34411" lon="5.79963">
        <ele>805.2414551</ele>
        <time>2011-06-04T10:15:56Z</time>
      </trkpt>
      <trkpt lat="45.34404" lon="5.79966">
        <ele>809.0866699</ele>
        <time>2011-06-04T10:16:00Z</time>
      </trkpt>
      <trkpt lat="45.34405" lon="5.79969">
        <ele>816.7773438</ele>
        <time>2011-06-04T10:16:07Z</time>
      </trkpt>
      <trkpt lat="45.34406" lon="5.7998">
        <ele>816.7773438</ele>
        <time>2011-06-04T10:17:00Z</time>
      </trkpt>
      <trkpt lat="45.34406" lon="5.79998">
        <ele>811.4899902</ele>
        <time>2011-06-04T10:17:05Z</time>
      </trkpt>
      <trkpt lat="45.34404" lon="5.8001">
        <ele>808.605957</ele>
        <time>2011-06-04T10:17:09Z</time>
      </trkpt>
      <trkpt lat="45.34401" lon="5.80023">
        <ele>806.6833496</ele>
        <time>2011-06-04T10:17:13Z</time>
      </trkpt>
      <trkpt lat="45.34408" lon="5.80042">
        <ele>796.1091309</ele>
        <time>2011-06-04T10:17:18Z</time>
      </trkpt>
      <trkpt lat="45.34415" lon="5.80052">
        <ele>786.0151367</ele>
        <time>2011-06-04T10:17:24Z</time>
      </trkpt>
      <trkpt lat="45.34416" lon="5.80054">
        <ele>785.0539551</ele>
        <time>2011-06-04T10:17:25Z</time>
      </trkpt>
      <trkpt lat="45.34419" lon="5.80062">
        <ele>789.3796387</ele>
        <time>2011-06-04T10:17:32Z</time>
      </trkpt>
      <trkpt lat="45.34419" lon="5.8007">
        <ele>795.6281738</ele>
        <time>2011-06-04T10:17:41Z</time>
      </trkpt>
      <trkpt lat="45.34416" lon="5.80083">
        <ele>816.2966309</ele>
        <time>2011-06-04T10:17:49Z</time>
      </trkpt>
      <trkpt lat="45.34416" lon="5.80092">
        <ele>824.9484863</ele>
        <time>2011-06-04T10:17:54Z</time>
      </trkpt>
      <trkpt lat="45.34417" lon="5.801">
        <ele>829.2744141</ele>
        <time>2011-06-04T10:17:58Z</time>
      </trkpt>
      <trkpt lat="45.34417" lon="5.80119">
        <ele>845.6169434</ele>
        <time>2011-06-04T10:18:05Z</time>
      </trkpt>
      <trkpt lat="45.34424" lon="5.80123">
        <ele>837.4455566</ele>
        <time>2011-06-04T10:18:11Z</time>
      </trkpt>
      <trkpt lat="45.34427" lon="5.80124">
        <ele>829.755127</ele>
        <time>2011-06-04T10:18:18Z</time>
      </trkpt>
      <trkpt lat="45.3443" lon="5.80134">
        <ele>829.755127</ele>
        <time>2011-06-04T10:18:23Z</time>
      </trkpt>
      <trkpt lat="45.34432" lon="5.80139">
        <ele>824.4677734</ele>
        <time>2011-06-04T10:18:29Z</time>
      </trkpt>
      <trkpt lat="45.3443" lon="5.80147">
        <ele>824.4677734</ele>
        <time>2011-06-04T10:18:35Z</time>
      </trkpt>
      <trkpt lat="45.34435" lon="5.80142">
        <ele>811.4899902</ele>
        <time>2011-06-04T10:18:53Z</time>
      </trkpt>
      <trkpt lat="45.34436" lon="5.80144">
        <ele>810.0478516</ele>
        <time>2011-06-04T10:18:54Z</time>
      </trkpt>
      <trkpt lat="45.34441" lon="5.80158">
        <ele>809.5673828</ele>
        <time>2011-06-04T10:19:01Z</time>
      </trkpt>
      <trkpt lat="45.34439" lon="5.80169">
        <ele>808.1254883</ele>
        <time>2011-06-04T10:19:07Z</time>
      </trkpt>
      <trkpt lat="45.3444" lon="5.80182">
        <ele>808.605957</ele>
        <time>2011-06-04T10:19:11Z</time>
      </trkpt>
      <trkpt lat="45.34443" lon="5.80187">
        <ele>811.4899902</ele>
        <time>2011-06-04T10:19:15Z</time>
      </trkpt>
      <trkpt lat="45.34445" lon="5.80184">
        <ele>812.9321289</ele>
        <time>2011-06-04T10:19:19Z</time>
      </trkpt>
      <trkpt lat="45.34446" lon="5.80177">
        <ele>817.7385254</ele>
        <time>2011-06-04T10:19:25Z</time>
      </trkpt>
      <trkpt lat="45.34447" lon="5.80175">
        <ele>815.8161621</ele>
        <time>2011-06-04T10:19:29Z</time>
      </trkpt>
      <trkpt lat="45.34448" lon="5.80178">
        <ele>814.8547363</ele>
        <time>2011-06-04T10:19:32Z</time>
      </trkpt>
      <trkpt lat="45.34451" lon="5.8018">
        <ele>813.8933105</ele>
        <time>2011-06-04T10:19:35Z</time>
      </trkpt>
      <trkpt lat="45.34453" lon="5.80181">
        <ele>815.3354492</ele>
        <time>2011-06-04T10:19:37Z</time>
      </trkpt>
      <trkpt lat="45.34457" lon="5.80179">
        <ele>817.2580566</ele>
        <time>2011-06-04T10:19:42Z</time>
      </trkpt>
      <trkpt lat="45.34463" lon="5.80178">
        <ele>820.6225586</ele>
        <time>2011-06-04T10:19:50Z</time>
      </trkpt>
      <trkpt lat="45.34469" lon="5.80177">
        <ele>822.545166</ele>
        <time>2011-06-04T10:19:55Z</time>
      </trkpt>
      <trkpt lat="45.34475" lon="5.80188">
        <ele>826.8710938</ele>
        <time>2011-06-04T10:20:01Z</time>
      </trkpt>
      <trkpt lat="45.3448" lon="5.80192">
        <ele>839.848877</ele>
        <time>2011-06-04T10:20:08Z</time>
      </trkpt>
      <trkpt lat="45.34485" lon="5.802">
        <ele>842.2521973</ele>
        <time>2011-06-04T10:20:13Z</time>
      </trkpt>
      <trkpt lat="45.34489" lon="5.8021">
        <ele>839.848877</ele>
        <time>2011-06-04T10:20:17Z</time>
      </trkpt>
      <trkpt lat="45.34493" lon="5.80213">
        <ele>841.2907715</ele>
        <time>2011-06-04T10:20:21Z</time>
      </trkpt>
      <trkpt lat="45.34497" lon="5.80217">
        <ele>840.8100586</ele>
        <time>2011-06-04T10:20:25Z</time>
      </trkpt>
      <trkpt lat="45.34499" lon="5.80227">
        <ele>845.1362305</ele>
        <time>2011-06-04T10:20:32Z</time>
      </trkpt>
      <trkpt lat="45.34504" lon="5.80229">
        <ele>844.1750488</ele>
        <time>2011-06-04T10:20:37Z</time>
      </trkpt>
      <trkpt lat="45.34506" lon="5.80229">
        <ele>842.2521973</ele>
        <time>2011-06-04T10:20:39Z</time>
      </trkpt>
      <trkpt lat="45.34511" lon="5.80235">
        <ele>840.3295898</ele>
        <time>2011-06-04T10:20:46Z</time>
      </trkpt>
      <trkpt lat="45.34513" lon="5.80235">
        <ele>838.8876953</ele>
        <time>2011-06-04T10:20:47Z</time>
      </trkpt>
      <trkpt lat="45.34516" lon="5.80237">
        <ele>833.6003418</ele>
        <time>2011-06-04T10:20:51Z</time>
      </trkpt>
      <trkpt lat="45.34516" lon="5.80243">
        <ele>834.0810547</ele>
        <time>2011-06-04T10:20:55Z</time>
      </trkpt>
      <trkpt lat="45.34516" lon="5.80252">
        <ele>838.8876953</ele>
        <time>2011-06-04T10:21:00Z</time>
      </trkpt>
      <trkpt lat="45.34519" lon="5.80262">
        <ele>841.7714844</ele>
        <time>2011-06-04T10:21:05Z</time>
      </trkpt>
      <trkpt lat="45.34524" lon="5.80271">
        <ele>837.9262695</ele>
        <time>2011-06-04T10:21:10Z</time>
      </trkpt>
      <trkpt lat="45.34526" lon="5.80272">
        <ele>836.484375</ele>
        <time>2011-06-04T10:21:12Z</time>
      </trkpt>
      <trkpt lat="45.3453" lon="5.80276">
        <ele>839.848877</ele>
        <time>2011-06-04T10:21:17Z</time>
      </trkpt>
      <trkpt lat="45.34532" lon="5.80276">
        <ele>840.3295898</ele>
        <time>2011-06-04T10:21:19Z</time>
      </trkpt>
      <trkpt lat="45.34535" lon="5.80277">
        <ele>844.6555176</ele>
        <time>2011-06-04T10:21:21Z</time>
      </trkpt>
      <trkpt lat="45.3454" lon="5.80279">
        <ele>844.6555176</ele>
        <time>2011-06-04T10:21:27Z</time>
      </trkpt>
      <trkpt lat="45.3454" lon="5.80279">
        <ele>848.0202637</ele>
        <time>2011-06-04T10:21:29Z</time>
      </trkpt>
      <trkpt lat="45.34546" lon="5.80275">
        <ele>849.9428711</ele>
        <time>2011-06-04T10:21:34Z</time>
      </trkpt>
      <trkpt lat="45.34555" lon="5.80272">
        <ele>852.3459473</ele>
        <time>2011-06-04T10:21:42Z</time>
      </trkpt>
      <trkpt lat="45.34558" lon="5.8027">
        <ele>854.2687988</ele>
        <time>2011-06-04T10:21:46Z</time>
      </trkpt>
      <trkpt lat="45.34562" lon="5.80268">
        <ele>854.7492676</ele>
        <time>2011-06-04T10:21:51Z</time>
      </trkpt>
      <trkpt lat="45.34563" lon="5.80273">
        <ele>860.517334</ele>
        <time>2011-06-04T10:21:54Z</time>
      </trkpt>
      <trkpt lat="45.34569" lon="5.80282">
        <ele>868.2077637</ele>
        <time>2011-06-04T10:22:00Z</time>
      </trkpt>
      <trkpt lat="45.34572" lon="5.80288">
        <ele>873.9755859</ele>
        <time>2011-06-04T10:22:03Z</time>
      </trkpt>
      <trkpt lat="45.34577" lon="5.80289">
        <ele>876.8598633</ele>
        <time>2011-06-04T10:22:06Z</time>
      </trkpt>
      <trkpt lat="45.34585" lon="5.80292">
        <ele>876.3791504</ele>
        <time>2011-06-04T10:22:12Z</time>
      </trkpt>
      <trkpt lat="45.34587" lon="5.80295">
        <ele>872.5336914</ele>
        <time>2011-06-04T10:22:16Z</time>
      </trkpt>
      <trkpt lat="45.3459" lon="5.80307">
        <ele>872.5336914</ele>
        <time>2011-06-04T10:22:22Z</time>
      </trkpt>
      <trkpt lat="45.3459" lon="5.8031">
        <ele>872.5336914</ele>
        <time>2011-06-04T10:22:23Z</time>
      </trkpt>
      <trkpt lat="45.34597" lon="5.80319">
        <ele>870.611084</ele>
        <time>2011-06-04T10:22:29Z</time>
      </trkpt>
      <trkpt lat="45.34598" lon="5.80325">
        <ele>871.0917969</ele>
        <time>2011-06-04T10:22:31Z</time>
      </trkpt>
      <trkpt lat="45.346" lon="5.80337">
        <ele>871.0917969</ele>
        <time>2011-06-04T10:22:36Z</time>
      </trkpt>
      <trkpt lat="45.34605" lon="5.80341">
        <ele>867.7270508</ele>
        <time>2011-06-04T10:22:42Z</time>
      </trkpt>
      <trkpt lat="45.34606" lon="5.80348">
        <ele>866.7658691</ele>
        <time>2011-06-04T10:22:47Z</time>
      </trkpt>
      <trkpt lat="45.34605" lon="5.80357">
        <ele>864.8432617</ele>
        <time>2011-06-04T10:22:52Z</time>
      </trkpt>
      <trkpt lat="45.34604" lon="5.8036">
        <ele>861.9594727</ele>
        <time>2011-06-04T10:22:55Z</time>
      </trkpt>
      <trkpt lat="45.34602" lon="5.80364">
        <ele>860.517334</ele>
        <time>2011-06-04T10:22:58Z</time>
      </trkpt>
      <trkpt lat="45.346" lon="5.80371">
        <ele>862.4399414</ele>
        <time>2011-06-04T10:23:05Z</time>
      </trkpt>
      <trkpt lat="45.34599" lon="5.80372">
        <ele>865.8046875</ele>
        <time>2011-06-04T10:23:12Z</time>
      </trkpt>
      <trkpt lat="45.34596" lon="5.80372">
        <ele>863.4013672</ele>
        <time>2011-06-04T10:23:14Z</time>
      </trkpt>
      <trkpt lat="45.34588" lon="5.80373">
        <ele>860.9980469</ele>
        <time>2011-06-04T10:23:20Z</time>
      </trkpt>
      <trkpt lat="45.34579" lon="5.80375">
        <ele>861.9594727</ele>
        <time>2011-06-04T10:23:26Z</time>
      </trkpt>
      <trkpt lat="45.3457" lon="5.80375">
        <ele>860.517334</ele>
        <time>2011-06-04T10:23:33Z</time>
      </trkpt>
      <trkpt lat="45.34567" lon="5.80373">
        <ele>859.5559082</ele>
        <time>2011-06-04T10:23:35Z</time>
      </trkpt>
      <trkpt lat="45.34559" lon="5.80373">
        <ele>859.5559082</ele>
        <time>2011-06-04T10:23:42Z</time>
      </trkpt>
      <trkpt lat="45.34554" lon="5.80377">
        <ele>864.8432617</ele>
        <time>2011-06-04T10:23:46Z</time>
      </trkpt>
      <trkpt lat="45.34556" lon="5.80383">
        <ele>867.7270508</ele>
        <time>2011-06-04T10:23:50Z</time>
      </trkpt>
      <trkpt lat="45.34551" lon="5.80378">
        <ele>865.8046875</ele>
        <time>2011-06-04T10:23:57Z</time>
      </trkpt>
      <trkpt lat="45.34554" lon="5.80373">
        <ele>873.4951172</ele>
        <time>2011-06-04T10:24:06Z</time>
      </trkpt>
      <trkpt lat="45.34556" lon="5.80372">
        <ele>874.9370117</ele>
        <time>2011-06-04T10:24:07Z</time>
      </trkpt>
      <trkpt lat="45.34556" lon="5.80375">
        <ele>881.6662598</ele>
        <time>2011-06-04T10:24:15Z</time>
      </trkpt>
      <trkpt lat="45.34554" lon="5.80376">
        <ele>881.185791</ele>
        <time>2011-06-04T10:24:16Z</time>
      </trkpt>
      <trkpt lat="45.34546" lon="5.80375">
        <ele>874.9370117</ele>
        <time>2011-06-04T10:24:21Z</time>
      </trkpt>
      <trkpt lat="45.34542" lon="5.80376">
        <ele>871.0917969</ele>
        <time>2011-06-04T10:24:24Z</time>
      </trkpt>
      <trkpt lat="45.34537" lon="5.80377">
        <ele>865.3239746</ele>
        <time>2011-06-04T10:24:28Z</time>
      </trkpt>
      <trkpt lat="45.3453" lon="5.8038">
        <ele>861.4787598</ele>
        <time>2011-06-04T10:24:33Z</time>
      </trkpt>
      <trkpt lat="45.34524" lon="5.80384">
        <ele>869.1691895</ele>
        <time>2011-06-04T10:24:40Z</time>
      </trkpt>
      <trkpt lat="45.3452" lon="5.80387">
        <ele>879.7436523</ele>
        <time>2011-06-04T10:24:46Z</time>
      </trkpt>
      <trkpt lat="45.34518" lon="5.80388">
        <ele>884.550293</ele>
        <time>2011-06-04T10:24:50Z</time>
      </trkpt>
      <trkpt lat="45.34516" lon="5.80388">
        <ele>885.0310059</ele>
        <time>2011-06-04T10:24:51Z</time>
      </trkpt>
      <trkpt lat="45.3451" lon="5.80384">
        <ele>884.550293</ele>
        <time>2011-06-04T10:24:56Z</time>
      </trkpt>
      <trkpt lat="45.34504" lon="5.80387">
        <ele>880.7050781</ele>
        <time>2011-06-04T10:25:03Z</time>
      </trkpt>
      <trkpt lat="45.34503" lon="5.80388">
        <ele>880.7050781</ele>
        <time>2011-06-04T10:25:04Z</time>
      </trkpt>
      <trkpt lat="45.34498" lon="5.80391">
        <ele>881.6662598</ele>
        <time>2011-06-04T10:25:10Z</time>
      </trkpt>
      <trkpt lat="45.34493" lon="5.80392">
        <ele>885.0310059</ele>
        <time>2011-06-04T10:25:14Z</time>
      </trkpt>
      <trkpt lat="45.34486" lon="5.80392">
        <ele>889.3566895</ele>
        <time>2011-06-04T10:25:20Z</time>
      </trkpt>
      <trkpt lat="45.34483" lon="5.80392">
        <ele>892.7216797</ele>
        <time>2011-06-04T10:25:24Z</time>
      </trkpt>
      <trkpt lat="45.34481" lon="5.80392">
        <ele>897.5280762</ele>
        <time>2011-06-04T10:25:28Z</time>
      </trkpt>
      <trkpt lat="45.34473" lon="5.80395">
        <ele>898.9699707</ele>
        <time>2011-06-04T10:25:37Z</time>
      </trkpt>
      <trkpt lat="45.34466" lon="5.80396">
        <ele>897.5280762</ele>
        <time>2011-06-04T10:25:43Z</time>
      </trkpt>
      <trkpt lat="45.3446" lon="5.80398">
        <ele>899.4506836</ele>
        <time>2011-06-04T10:25:47Z</time>
      </trkpt>
      <trkpt lat="45.34457" lon="5.80396">
        <ele>900.4121094</ele>
        <time>2011-06-04T10:25:50Z</time>
      </trkpt>
      <trkpt lat="45.34451" lon="5.80395">
        <ele>897.0473633</ele>
        <time>2011-06-04T10:25:54Z</time>
      </trkpt>
      <trkpt lat="45.34443" lon="5.80396">
        <ele>894.1635742</ele>
        <time>2011-06-04T10:26:02Z</time>
      </trkpt>
      <trkpt lat="45.34437" lon="5.80398">
        <ele>893.2021484</ele>
        <time>2011-06-04T10:26:08Z</time>
      </trkpt>
      <trkpt lat="45.34436" lon="5.80398">
        <ele>890.3181152</ele>
        <time>2011-06-04T10:26:09Z</time>
      </trkpt>
      <trkpt lat="45.34431" lon="5.80399">
        <ele>885.9921875</ele>
        <time>2011-06-04T10:26:14Z</time>
      </trkpt>
      <trkpt lat="45.34427" lon="5.80399">
        <ele>889.3566895</ele>
        <time>2011-06-04T10:26:19Z</time>
      </trkpt>
      <trkpt lat="45.34426" lon="5.80399">
        <ele>889.3566895</ele>
        <time>2011-06-04T10:26:20Z</time>
      </trkpt>
      <trkpt lat="45.3442" lon="5.80398">
        <ele>891.7600098</ele>
        <time>2011-06-04T10:26:24Z</time>
      </trkpt>
      <trkpt lat="45.34412" lon="5.804">
        <ele>890.3181152</ele>
        <time>2011-06-04T10:26:31Z</time>
      </trkpt>
      <trkpt lat="45.34403" lon="5.80406">
        <ele>893.6828613</ele>
        <time>2011-06-04T10:26:38Z</time>
      </trkpt>
      <trkpt lat="45.34401" lon="5.80405">
        <ele>893.6828613</ele>
        <time>2011-06-04T10:26:39Z</time>
      </trkpt>
      <trkpt lat="45.34394" lon="5.80416">
        <ele>893.2021484</ele>
        <time>2011-06-04T10:26:44Z</time>
      </trkpt>
      <trkpt lat="45.34386" lon="5.80421">
        <ele>895.1247559</ele>
        <time>2011-06-04T10:26:48Z</time>
      </trkpt>
      <trkpt lat="45.3437" lon="5.80423">
        <ele>893.2021484</ele>
        <time>2011-06-04T10:26:54Z</time>
      </trkpt>
      <trkpt lat="45.34361" lon="5.80434">
        <ele>895.1247559</ele>
        <time>2011-06-04T10:26:59Z</time>
      </trkpt>
      <trkpt lat="45.34357" lon="5.80437">
        <ele>895.6054688</ele>
        <time>2011-06-04T10:27:01Z</time>
      </trkpt>
      <trkpt lat="45.34339" lon="5.80446">
        <ele>898.9699707</ele>
        <time>2011-06-04T10:27:08Z</time>
      </trkpt>
      <trkpt lat="45.34337" lon="5.80447">
        <ele>898.0087891</ele>
        <time>2011-06-04T10:27:09Z</time>
      </trkpt>
      <trkpt lat="45.34322" lon="5.80459">
        <ele>900.4121094</ele>
        <time>2011-06-04T10:27:15Z</time>
      </trkpt>
      <trkpt lat="45.34314" lon="5.80463">
        <ele>904.2573242</ele>
        <time>2011-06-04T10:27:18Z</time>
      </trkpt>
      <trkpt lat="45.34304" lon="5.8047">
        <ele>903.7766113</ele>
        <time>2011-06-04T10:27:23Z</time>
      </trkpt>
      <trkpt lat="45.34294" lon="5.80472">
        <ele>904.2573242</ele>
        <time>2011-06-04T10:27:28Z</time>
      </trkpt>
      <trkpt lat="45.34279" lon="5.80483">
        <ele>902.8151855</ele>
        <time>2011-06-04T10:27:36Z</time>
      </trkpt>
      <trkpt lat="45.34271" lon="5.80488">
        <ele>900.8925781</ele>
        <time>2011-06-04T10:27:41Z</time>
      </trkpt>
      <trkpt lat="45.3426" lon="5.80494">
        <ele>906.6604004</ele>
        <time>2011-06-04T10:27:45Z</time>
      </trkpt>
      <trkpt lat="45.34253" lon="5.80497">
        <ele>905.6992188</ele>
        <time>2011-06-04T10:27:49Z</time>
      </trkpt>
      <trkpt lat="45.34248" lon="5.805">
        <ele>907.6218262</ele>
        <time>2011-06-04T10:27:52Z</time>
      </trkpt>
      <trkpt lat="45.34237" lon="5.80507">
        <ele>906.1796875</ele>
        <time>2011-06-04T10:27:58Z</time>
      </trkpt>
      <trkpt lat="45.3423" lon="5.80511">
        <ele>897.0473633</ele>
        <time>2011-06-04T10:28:04Z</time>
      </trkpt>
      <trkpt lat="45.34223" lon="5.80514">
        <ele>897.5280762</ele>
        <time>2011-06-04T10:28:09Z</time>
      </trkpt>
      <trkpt lat="45.34217" lon="5.80512">
        <ele>898.0087891</ele>
        <time>2011-06-04T10:28:13Z</time>
      </trkpt>
      <trkpt lat="45.34215" lon="5.80513">
        <ele>898.9699707</ele>
        <time>2011-06-04T10:28:14Z</time>
      </trkpt>
      <trkpt lat="45.34211" lon="5.80512">
        <ele>897.5280762</ele>
        <time>2011-06-04T10:28:17Z</time>
      </trkpt>
      <trkpt lat="45.34207" lon="5.80518">
        <ele>897.0473633</ele>
        <time>2011-06-04T10:28:21Z</time>
      </trkpt>
      <trkpt lat="45.34205" lon="5.80522">
        <ele>898.9699707</ele>
        <time>2011-06-04T10:28:23Z</time>
      </trkpt>
      <trkpt lat="45.342" lon="5.8053">
        <ele>898.9699707</ele>
        <time>2011-06-04T10:28:29Z</time>
      </trkpt>
      <trkpt lat="45.34197" lon="5.80533">
        <ele>897.0473633</ele>
        <time>2011-06-04T10:28:32Z</time>
      </trkpt>
      <trkpt lat="45.34195" lon="5.80535">
        <ele>895.1247559</ele>
        <time>2011-06-04T10:28:34Z</time>
      </trkpt>
      <trkpt lat="45.3419" lon="5.80544">
        <ele>892.2409668</ele>
        <time>2011-06-04T10:28:40Z</time>
      </trkpt>
      <trkpt lat="45.34188" lon="5.80555">
        <ele>895.6054688</ele>
        <time>2011-06-04T10:28:45Z</time>
      </trkpt>
      <trkpt lat="45.34187" lon="5.80558">
        <ele>895.1247559</ele>
        <time>2011-06-04T10:28:47Z</time>
      </trkpt>
      <trkpt lat="45.34192" lon="5.80572">
        <ele>894.644043</ele>
        <time>2011-06-04T10:28:54Z</time>
      </trkpt>
      <trkpt lat="45.34196" lon="5.80583">
        <ele>897.5280762</ele>
        <time>2011-06-04T10:29:01Z</time>
      </trkpt>
      <trkpt lat="45.342" lon="5.80594">
        <ele>897.0473633</ele>
        <time>2011-06-04T10:29:07Z</time>
      </trkpt>
      <trkpt lat="45.34202" lon="5.80601">
        <ele>898.0087891</ele>
        <time>2011-06-04T10:29:12Z</time>
      </trkpt>
      <trkpt lat="45.34203" lon="5.80604">
        <ele>898.9699707</ele>
        <time>2011-06-04T10:29:14Z</time>
      </trkpt>
      <trkpt lat="45.34205" lon="5.80606">
        <ele>899.9313965</ele>
        <time>2011-06-04T10:29:16Z</time>
      </trkpt>
      <trkpt lat="45.34207" lon="5.80617">
        <ele>904.2573242</ele>
        <time>2011-06-04T10:29:23Z</time>
      </trkpt>
      <trkpt lat="45.34208" lon="5.80618">
        <ele>904.2573242</ele>
        <time>2011-06-04T10:29:24Z</time>
      </trkpt>
      <trkpt lat="45.34214" lon="5.80628">
        <ele>907.6218262</ele>
        <time>2011-06-04T10:29:32Z</time>
      </trkpt>
      <trkpt lat="45.3422" lon="5.80634">
        <ele>907.6218262</ele>
        <time>2011-06-04T10:29:39Z</time>
      </trkpt>
      <trkpt lat="45.34226" lon="5.80637">
        <ele>908.1027832</ele>
        <time>2011-06-04T10:29:45Z</time>
      </trkpt>
      <trkpt lat="45.3423" lon="5.80641">
        <ele>907.1411133</ele>
        <time>2011-06-04T10:29:49Z</time>
      </trkpt>
      <trkpt lat="45.34237" lon="5.80648">
        <ele>908.1027832</ele>
        <time>2011-06-04T10:29:56Z</time>
      </trkpt>
      <trkpt lat="45.34242" lon="5.80654">
        <ele>909.0639648</ele>
        <time>2011-06-04T10:30:02Z</time>
      </trkpt>
      <trkpt lat="45.34249" lon="5.80661">
        <ele>911.4672852</ele>
        <time>2011-06-04T10:30:10Z</time>
      </trkpt>
      <trkpt lat="45.34256" lon="5.80666">
        <ele>913.3898926</ele>
        <time>2011-06-04T10:30:17Z</time>
      </trkpt>
      <trkpt lat="45.34261" lon="5.80671">
        <ele>917.7155762</ele>
        <time>2011-06-04T10:30:23Z</time>
      </trkpt>
      <trkpt lat="45.34265" lon="5.80673">
        <ele>917.7155762</ele>
        <time>2011-06-04T10:30:26Z</time>
      </trkpt>
      <trkpt lat="45.34274" lon="5.80675">
        <ele>917.7155762</ele>
        <time>2011-06-04T10:30:34Z</time>
      </trkpt>
      <trkpt lat="45.34279" lon="5.80681">
        <ele>918.1962891</ele>
        <time>2011-06-04T10:30:39Z</time>
      </trkpt>
      <trkpt lat="45.34285" lon="5.80687">
        <ele>920.5996094</ele>
        <time>2011-06-04T10:30:45Z</time>
      </trkpt>
      <trkpt lat="45.34287" lon="5.80695">
        <ele>924.4450684</ele>
        <time>2011-06-04T10:30:51Z</time>
      </trkpt>
      <trkpt lat="45.3429" lon="5.80696">
        <ele>923.0029297</ele>
        <time>2011-06-04T10:30:59Z</time>
      </trkpt>
      <trkpt lat="45.34295" lon="5.80699">
        <ele>925.40625</ele>
        <time>2011-06-04T10:31:05Z</time>
      </trkpt>
      <trkpt lat="45.34298" lon="5.80703">
        <ele>927.3291016</ele>
        <time>2011-06-04T10:31:09Z</time>
      </trkpt>
      <trkpt lat="45.34303" lon="5.80707">
        <ele>929.2514648</ele>
        <time>2011-06-04T10:31:15Z</time>
      </trkpt>
      <trkpt lat="45.34308" lon="5.8071">
        <ele>930.6936035</ele>
        <time>2011-06-04T10:31:19Z</time>
      </trkpt>
      <trkpt lat="45.34314" lon="5.80713">
        <ele>937.4226074</ele>
        <time>2011-06-04T10:31:25Z</time>
      </trkpt>
      <trkpt lat="45.34318" lon="5.80712">
        <ele>938.3840332</ele>
        <time>2011-06-04T10:31:29Z</time>
      </trkpt>
      <trkpt lat="45.34323" lon="5.80715">
        <ele>944.1520996</ele>
        <time>2011-06-04T10:31:34Z</time>
      </trkpt>
      <trkpt lat="45.34331" lon="5.80717">
        <ele>947.0358887</ele>
        <time>2011-06-04T10:31:39Z</time>
      </trkpt>
      <trkpt lat="45.34335" lon="5.80718">
        <ele>951.3618164</ele>
        <time>2011-06-04T10:31:43Z</time>
      </trkpt>
      <trkpt lat="45.3434" lon="5.80718">
        <ele>949.439209</ele>
        <time>2011-06-04T10:31:46Z</time>
      </trkpt>
      <trkpt lat="45.34345" lon="5.80724">
        <ele>947.5166016</ele>
        <time>2011-06-04T10:31:51Z</time>
      </trkpt>
      <trkpt lat="45.34348" lon="5.80724">
        <ele>944.6325684</ele>
        <time>2011-06-04T10:31:53Z</time>
      </trkpt>
      <trkpt lat="45.34352" lon="5.80725">
        <ele>943.6713867</ele>
        <time>2011-06-04T10:32:01Z</time>
      </trkpt>
      <trkpt lat="45.34355" lon="5.80731">
        <ele>946.074707</ele>
        <time>2011-06-04T10:32:06Z</time>
      </trkpt>
      <trkpt lat="45.3436" lon="5.80732">
        <ele>948.9584961</ele>
        <time>2011-06-04T10:32:10Z</time>
      </trkpt>
      <trkpt lat="45.34365" lon="5.80736">
        <ele>951.3618164</ele>
        <time>2011-06-04T10:32:15Z</time>
      </trkpt>
      <trkpt lat="45.3437" lon="5.80738">
        <ele>947.9973145</ele>
        <time>2011-06-04T10:32:21Z</time>
      </trkpt>
      <trkpt lat="45.34373" lon="5.80739">
        <ele>946.074707</ele>
        <time>2011-06-04T10:32:24Z</time>
      </trkpt>
      <trkpt lat="45.3438" lon="5.8074">
        <ele>943.1906738</ele>
        <time>2011-06-04T10:32:29Z</time>
      </trkpt>
      <trkpt lat="45.3439" lon="5.80742">
        <ele>940.7873535</ele>
        <time>2011-06-04T10:32:37Z</time>
      </trkpt>
      <trkpt lat="45.34394" lon="5.80743">
        <ele>940.7873535</ele>
        <time>2011-06-04T10:32:42Z</time>
      </trkpt>
      <trkpt lat="45.34396" lon="5.80744">
        <ele>942.7102051</ele>
        <time>2011-06-04T10:32:46Z</time>
      </trkpt>
      <trkpt lat="45.34399" lon="5.80741">
        <ele>945.5939941</ele>
        <time>2011-06-04T10:32:52Z</time>
      </trkpt>
      <trkpt lat="45.34401" lon="5.80743">
        <ele>951.8425293</ele>
        <time>2011-06-04T10:32:57Z</time>
      </trkpt>
      <trkpt lat="45.34404" lon="5.80743">
        <ele>967.2236328</ele>
        <time>2011-06-04T10:33:07Z</time>
      </trkpt>
      <trkpt lat="45.34398" lon="5.8074">
        <ele>980.201416</ele>
        <time>2011-06-04T10:33:17Z</time>
      </trkpt>
      <trkpt lat="45.34395" lon="5.80737">
        <ele>979.7207031</ele>
        <time>2011-06-04T10:33:23Z</time>
      </trkpt>
      <trkpt lat="45.3439" lon="5.80731">
        <ele>982.1240234</ele>
        <time>2011-06-04T10:33:30Z</time>
      </trkpt>
      <trkpt lat="45.34387" lon="5.80724">
        <ele>983.565918</ele>
        <time>2011-06-04T10:33:36Z</time>
      </trkpt>
      <trkpt lat="45.34383" lon="5.80714">
        <ele>978.7595215</ele>
        <time>2011-06-04T10:33:43Z</time>
      </trkpt>
      <trkpt lat="45.34381" lon="5.80705">
        <ele>976.8369141</ele>
        <time>2011-06-04T10:33:48Z</time>
      </trkpt>
      <trkpt lat="45.34377" lon="5.80696">
        <ele>976.8369141</ele>
        <time>2011-06-04T10:33:55Z</time>
      </trkpt>
      <trkpt lat="45.34372" lon="5.80689">
        <ele>979.7207031</ele>
        <time>2011-06-04T10:34:02Z</time>
      </trkpt>
      <trkpt lat="45.34365" lon="5.8068">
        <ele>980.6821289</ele>
        <time>2011-06-04T10:34:10Z</time>
      </trkpt>
      <trkpt lat="45.34359" lon="5.8067">
        <ele>981.6433105</ele>
        <time>2011-06-04T10:34:18Z</time>
      </trkpt>
      <trkpt lat="45.34356" lon="5.80661">
        <ele>979.2399902</ele>
        <time>2011-06-04T10:34:24Z</time>
      </trkpt>
      <trkpt lat="45.34355" lon="5.80657">
        <ele>977.317627</ele>
        <time>2011-06-04T10:34:26Z</time>
      </trkpt>
      <trkpt lat="45.34351" lon="5.8065">
        <ele>978.7595215</ele>
        <time>2011-06-04T10:34:32Z</time>
      </trkpt>
      <trkpt lat="45.34345" lon="5.8064">
        <ele>977.317627</ele>
        <time>2011-06-04T10:34:38Z</time>
      </trkpt>
      <trkpt lat="45.34344" lon="5.80635">
        <ele>979.2399902</ele>
        <time>2011-06-04T10:34:43Z</time>
      </trkpt>
      <trkpt lat="45.34346" lon="5.80635">
        <ele>979.7207031</ele>
        <time>2011-06-04T10:34:45Z</time>
      </trkpt>
      <trkpt lat="45.34348" lon="5.80628">
        <ele>973.4724121</ele>
        <time>2011-06-04T10:34:52Z</time>
      </trkpt>
      <trkpt lat="45.34347" lon="5.80622">
        <ele>975.3947754</ele>
        <time>2011-06-04T10:34:56Z</time>
      </trkpt>
      <trkpt lat="45.34347" lon="5.80621">
        <ele>973.9528809</ele>
        <time>2011-06-04T10:34:57Z</time>
      </trkpt>
      <trkpt lat="45.34351" lon="5.80613">
        <ele>971.5493164</ele>
        <time>2011-06-04T10:35:04Z</time>
      </trkpt>
      <trkpt lat="45.34353" lon="5.80609">
        <ele>968.6655273</ele>
        <time>2011-06-04T10:35:08Z</time>
      </trkpt>
      <trkpt lat="45.34355" lon="5.80609">
        <ele>971.0688477</ele>
        <time>2011-06-04T10:35:10Z</time>
      </trkpt>
      <trkpt lat="45.34362" lon="5.80614">
        <ele>974.4335938</ele>
        <time>2011-06-04T10:35:17Z</time>
      </trkpt>
      <trkpt lat="45.34365" lon="5.80615">
        <ele>976.3562012</ele>
        <time>2011-06-04T10:35:20Z</time>
      </trkpt>
      <trkpt lat="45.34369" lon="5.80617">
        <ele>981.1628418</ele>
        <time>2011-06-04T10:35:23Z</time>
      </trkpt>
      <trkpt lat="45.34373" lon="5.80621">
        <ele>979.7207031</ele>
        <time>2011-06-04T10:35:27Z</time>
      </trkpt>
      <trkpt lat="45.34377" lon="5.80629">
        <ele>986.4499512</ele>
        <time>2011-06-04T10:35:33Z</time>
      </trkpt>
      <trkpt lat="45.3438" lon="5.80628">
        <ele>984.5273438</ele>
        <time>2011-06-04T10:35:38Z</time>
      </trkpt>
      <trkpt lat="45.34384" lon="5.80627">
        <ele>981.6433105</ele>
        <time>2011-06-04T10:35:43Z</time>
      </trkpt>
      <trkpt lat="45.3439" lon="5.8063">
        <ele>986.4499512</ele>
        <time>2011-06-04T10:35:48Z</time>
      </trkpt>
      <trkpt lat="45.3439" lon="5.80631">
        <ele>986.9304199</ele>
        <time>2011-06-04T10:35:49Z</time>
      </trkpt>
      <trkpt lat="45.34397" lon="5.8064">
        <ele>995.5825195</ele>
        <time>2011-06-04T10:35:56Z</time>
      </trkpt>
      <trkpt lat="45.34403" lon="5.8064">
        <ele>989.8146973</ele>
        <time>2011-06-04T10:36:04Z</time>
      </trkpt>
      <trkpt lat="45.3441" lon="5.8064">
        <ele>988.8535156</ele>
        <time>2011-06-04T10:36:10Z</time>
      </trkpt>
      <trkpt lat="45.34417" lon="5.80637">
        <ele>983.565918</ele>
        <time>2011-06-04T10:36:15Z</time>
      </trkpt>
      <trkpt lat="45.34424" lon="5.80637">
        <ele>983.565918</ele>
        <time>2011-06-04T10:36:20Z</time>
      </trkpt>
      <trkpt lat="45.34432" lon="5.80635">
        <ele>980.6821289</ele>
        <time>2011-06-04T10:36:27Z</time>
      </trkpt>
      <trkpt lat="45.34441" lon="5.80633">
        <ele>980.6821289</ele>
        <time>2011-06-04T10:36:33Z</time>
      </trkpt>
      <trkpt lat="45.34449" lon="5.80637">
        <ele>980.201416</ele>
        <time>2011-06-04T10:36:39Z</time>
      </trkpt>
      <trkpt lat="45.34452" lon="5.80638">
        <ele>980.6821289</ele>
        <time>2011-06-04T10:36:43Z</time>
      </trkpt>
      <trkpt lat="45.34458" lon="5.80638">
        <ele>985.4885254</ele>
        <time>2011-06-04T10:36:49Z</time>
      </trkpt>
      <trkpt lat="45.34464" lon="5.80639">
        <ele>992.2180176</ele>
        <time>2011-06-04T10:36:55Z</time>
      </trkpt>
      <trkpt lat="45.3447" lon="5.80643">
        <ele>996.5439453</ele>
        <time>2011-06-04T10:37:03Z</time>
      </trkpt>
      <trkpt lat="45.3447" lon="5.80645">
        <ele>1010.0021973</ele>
        <time>2011-06-04T10:37:19Z</time>
      </trkpt>
      <trkpt lat="45.34472" lon="5.80648">
        <ele>1012.8862305</ele>
        <time>2011-06-04T10:37:21Z</time>
      </trkpt>
      <trkpt lat="45.34478" lon="5.80652">
        <ele>1015.2895508</ele>
        <time>2011-06-04T10:37:27Z</time>
      </trkpt>
      <trkpt lat="45.34489" lon="5.80657">
        <ele>1014.328125</ele>
        <time>2011-06-04T10:37:34Z</time>
      </trkpt>
      <trkpt lat="45.3449" lon="5.80659">
        <ele>1014.328125</ele>
        <time>2011-06-04T10:37:35Z</time>
      </trkpt>
      <trkpt lat="45.34498" lon="5.80661">
        <ele>1013.3669434</ele>
        <time>2011-06-04T10:37:42Z</time>
      </trkpt>
      <trkpt lat="45.345" lon="5.80662">
        <ele>1010.963623</ele>
        <time>2011-06-04T10:37:44Z</time>
      </trkpt>
      <trkpt lat="45.34506" lon="5.80668">
        <ele>1011.9250488</ele>
        <time>2011-06-04T10:37:50Z</time>
      </trkpt>
      <trkpt lat="45.34512" lon="5.80669">
        <ele>1009.5217285</ele>
        <time>2011-06-04T10:37:55Z</time>
      </trkpt>
      <trkpt lat="45.34516" lon="5.8067">
        <ele>1008.5603027</ele>
        <time>2011-06-04T10:37:59Z</time>
      </trkpt>
      <trkpt lat="45.3452" lon="5.80673">
        <ele>1010.963623</ele>
        <time>2011-06-04T10:38:03Z</time>
      </trkpt>
      <trkpt lat="45.34524" lon="5.80677">
        <ele>1012.8862305</ele>
        <time>2011-06-04T10:38:07Z</time>
      </trkpt>
      <trkpt lat="45.34532" lon="5.80686">
        <ele>1011.4443359</ele>
        <time>2011-06-04T10:38:13Z</time>
      </trkpt>
      <trkpt lat="45.34534" lon="5.80687">
        <ele>1010.0021973</ele>
        <time>2011-06-04T10:38:15Z</time>
      </trkpt>
      <trkpt lat="45.34537" lon="5.80691">
        <ele>1009.0410156</ele>
        <time>2011-06-04T10:38:18Z</time>
      </trkpt>
      <trkpt lat="45.34544" lon="5.807">
        <ele>1002.3115234</ele>
        <time>2011-06-04T10:38:25Z</time>
      </trkpt>
      <trkpt lat="45.34546" lon="5.80704">
        <ele>1001.8310547</ele>
        <time>2011-06-04T10:38:27Z</time>
      </trkpt>
      <trkpt lat="45.34546" lon="5.80711">
        <ele>1000.8696289</ele>
        <time>2011-06-04T10:38:34Z</time>
      </trkpt>
      <trkpt lat="45.3455" lon="5.80719">
        <ele>1000.8696289</ele>
        <time>2011-06-04T10:38:40Z</time>
      </trkpt>
      <trkpt lat="45.34551" lon="5.8072">
        <ele>1001.8310547</ele>
        <time>2011-06-04T10:38:41Z</time>
      </trkpt>
      <trkpt lat="45.34552" lon="5.80725">
        <ele>1008.079834</ele>
        <time>2011-06-04T10:38:47Z</time>
      </trkpt>
      <trkpt lat="45.34553" lon="5.80733">
        <ele>1011.4443359</ele>
        <time>2011-06-04T10:38:55Z</time>
      </trkpt>
      <trkpt lat="45.34555" lon="5.80735">
        <ele>1010.963623</ele>
        <time>2011-06-04T10:38:59Z</time>
      </trkpt>
      <trkpt lat="45.34561" lon="5.80739">
        <ele>1007.5991211</ele>
        <time>2011-06-04T10:39:04Z</time>
      </trkpt>
      <trkpt lat="45.34563" lon="5.80746">
        <ele>1006.6376953</ele>
        <time>2011-06-04T10:39:08Z</time>
      </trkpt>
      <trkpt lat="45.34566" lon="5.80747">
        <ele>1004.2346191</ele>
        <time>2011-06-04T10:39:11Z</time>
      </trkpt>
      <trkpt lat="45.34573" lon="5.80752">
        <ele>999.9084473</ele>
        <time>2011-06-04T10:39:16Z</time>
      </trkpt>
      <trkpt lat="45.34576" lon="5.80758">
        <ele>995.1018066</ele>
        <time>2011-06-04T10:39:19Z</time>
      </trkpt>
      <trkpt lat="45.34581" lon="5.80764">
        <ele>996.0632324</ele>
        <time>2011-06-04T10:39:25Z</time>
      </trkpt>
      <trkpt lat="45.34582" lon="5.80769">
        <ele>999.4277344</ele>
        <time>2011-06-04T10:39:27Z</time>
      </trkpt>
      <trkpt lat="45.34585" lon="5.80777">
        <ele>1001.3503418</ele>
        <time>2011-06-04T10:39:31Z</time>
      </trkpt>
      <trkpt lat="45.3459" lon="5.80786">
        <ele>1006.6376953</ele>
        <time>2011-06-04T10:39:37Z</time>
      </trkpt>
      <trkpt lat="45.34594" lon="5.80795">
        <ele>1011.9250488</ele>
        <time>2011-06-04T10:39:43Z</time>
      </trkpt>
      <trkpt lat="45.34597" lon="5.808">
        <ele>1016.2507324</ele>
        <time>2011-06-04T10:39:46Z</time>
      </trkpt>
      <trkpt lat="45.34599" lon="5.80808">
        <ele>1024.4221191</ele>
        <time>2011-06-04T10:39:52Z</time>
      </trkpt>
      <trkpt lat="45.34604" lon="5.80816">
        <ele>1024.902832</ele>
        <time>2011-06-04T10:39:58Z</time>
      </trkpt>
      <trkpt lat="45.34606" lon="5.80823">
        <ele>1022.4995117</ele>
        <time>2011-06-04T10:40:02Z</time>
      </trkpt>
      <trkpt lat="45.34611" lon="5.80832">
        <ele>1021.0576172</ele>
        <time>2011-06-04T10:40:06Z</time>
      </trkpt>
      <trkpt lat="45.34612" lon="5.80838">
        <ele>1018.6540527</ele>
        <time>2011-06-04T10:40:10Z</time>
      </trkpt>
      <trkpt lat="45.34616" lon="5.80847">
        <ele>1019.6154785</ele>
        <time>2011-06-04T10:40:15Z</time>
      </trkpt>
      <trkpt lat="45.34619" lon="5.80853">
        <ele>1019.6154785</ele>
        <time>2011-06-04T10:40:18Z</time>
      </trkpt>
      <trkpt lat="45.34625" lon="5.80865">
        <ele>1021.5380859</ele>
        <time>2011-06-04T10:40:26Z</time>
      </trkpt>
      <trkpt lat="45.34626" lon="5.80868">
        <ele>1022.4995117</ele>
        <time>2011-06-04T10:40:33Z</time>
      </trkpt>
      <trkpt lat="45.34628" lon="5.80869">
        <ele>1023.9414063</ele>
        <time>2011-06-04T10:40:37Z</time>
      </trkpt>
      <trkpt lat="45.34633" lon="5.80872">
        <ele>1022.4995117</ele>
        <time>2011-06-04T10:40:44Z</time>
      </trkpt>
      <trkpt lat="45.34639" lon="5.80877">
        <ele>1022.9802246</ele>
        <time>2011-06-04T10:40:51Z</time>
      </trkpt>
      <trkpt lat="45.34644" lon="5.80879">
        <ele>1023.4609375</ele>
        <time>2011-06-04T10:40:56Z</time>
      </trkpt>
      <trkpt lat="45.34648" lon="5.80884">
        <ele>1029.7092285</ele>
        <time>2011-06-04T10:41:01Z</time>
      </trkpt>
      <trkpt lat="45.34653" lon="5.80891">
        <ele>1029.7092285</ele>
        <time>2011-06-04T10:41:05Z</time>
      </trkpt>
      <trkpt lat="45.34657" lon="5.80893">
        <ele>1026.8254395</ele>
        <time>2011-06-04T10:41:08Z</time>
      </trkpt>
      <trkpt lat="45.34663" lon="5.80897">
        <ele>1024.902832</ele>
        <time>2011-06-04T10:41:13Z</time>
      </trkpt>
      <trkpt lat="45.34666" lon="5.80898">
        <ele>1021.5380859</ele>
        <time>2011-06-04T10:41:15Z</time>
      </trkpt>
      <trkpt lat="45.34671" lon="5.80903">
        <ele>1022.4995117</ele>
        <time>2011-06-04T10:41:21Z</time>
      </trkpt>
      <trkpt lat="45.34671" lon="5.80907">
        <ele>1032.1125488</ele>
        <time>2011-06-04T10:41:32Z</time>
      </trkpt>
      <trkpt lat="45.34672" lon="5.80911">
        <ele>1034.5158691</ele>
        <time>2011-06-04T10:41:39Z</time>
      </trkpt>
      <trkpt lat="45.34673" lon="5.80911">
        <ele>1034.0351563</ele>
        <time>2011-06-04T10:41:40Z</time>
      </trkpt>
      <trkpt lat="45.34681" lon="5.80914">
        <ele>1032.1125488</ele>
        <time>2011-06-04T10:41:45Z</time>
      </trkpt>
      <trkpt lat="45.34685" lon="5.80919">
        <ele>1034.0351563</ele>
        <time>2011-06-04T10:41:49Z</time>
      </trkpt>
      <trkpt lat="45.3469" lon="5.8092">
        <ele>1032.5932617</ele>
        <time>2011-06-04T10:41:53Z</time>
      </trkpt>
      <trkpt lat="45.34697" lon="5.80926">
        <ele>1034.996582</ele>
        <time>2011-06-04T10:41:58Z</time>
      </trkpt>
      <trkpt lat="45.34705" lon="5.80932">
        <ele>1030.6706543</ele>
        <time>2011-06-04T10:42:04Z</time>
      </trkpt>
      <trkpt lat="45.34705" lon="5.80933">
        <ele>1029.7092285</ele>
        <time>2011-06-04T10:42:05Z</time>
      </trkpt>
      <trkpt lat="45.34706" lon="5.80937">
        <ele>1029.2285156</ele>
        <time>2011-06-04T10:42:09Z</time>
      </trkpt>
      <trkpt lat="45.3471" lon="5.80936">
        <ele>1026.3447266</ele>
        <time>2011-06-04T10:42:12Z</time>
      </trkpt>
      <trkpt lat="45.34715" lon="5.80937">
        <ele>1022.4995117</ele>
        <time>2011-06-04T10:42:16Z</time>
      </trkpt>
      <trkpt lat="45.34723" lon="5.80942">
        <ele>1022.0187988</ele>
        <time>2011-06-04T10:42:22Z</time>
      </trkpt>
      <trkpt lat="45.34728" lon="5.80947">
        <ele>1020.5769043</ele>
        <time>2011-06-04T10:42:28Z</time>
      </trkpt>
      <trkpt lat="45.34733" lon="5.80952">
        <ele>1022.9802246</ele>
        <time>2011-06-04T10:42:33Z</time>
      </trkpt>
      <trkpt lat="45.34738" lon="5.80957">
        <ele>1024.4221191</ele>
        <time>2011-06-04T10:42:39Z</time>
      </trkpt>
      <trkpt lat="45.34745" lon="5.80959">
        <ele>1023.9414063</ele>
        <time>2011-06-04T10:42:46Z</time>
      </trkpt>
      <trkpt lat="45.34752" lon="5.80961">
        <ele>1026.3447266</ele>
        <time>2011-06-04T10:42:52Z</time>
      </trkpt>
      <trkpt lat="45.34758" lon="5.80965">
        <ele>1030.1899414</ele>
        <time>2011-06-04T10:42:57Z</time>
      </trkpt>
      <trkpt lat="45.34765" lon="5.80968">
        <ele>1036.9191895</ele>
        <time>2011-06-04T10:43:01Z</time>
      </trkpt>
      <trkpt lat="45.34767" lon="5.80969">
        <ele>1041.7258301</ele>
        <time>2011-06-04T10:43:03Z</time>
      </trkpt>
      <trkpt lat="45.34774" lon="5.80973">
        <ele>1038.3613281</ele>
        <time>2011-06-04T10:43:07Z</time>
      </trkpt>
      <trkpt lat="45.34782" lon="5.8098">
        <ele>1037.8806152</ele>
        <time>2011-06-04T10:43:12Z</time>
      </trkpt>
      <trkpt lat="45.34783" lon="5.80982">
        <ele>1040.2839355</ele>
        <time>2011-06-04T10:43:13Z</time>
      </trkpt>
      <trkpt lat="45.34793" lon="5.80985">
        <ele>1039.8032227</ele>
        <time>2011-06-04T10:43:19Z</time>
      </trkpt>
      <trkpt lat="45.34795" lon="5.80986">
        <ele>1039.8032227</ele>
        <time>2011-06-04T10:43:20Z</time>
      </trkpt>
      <trkpt lat="45.34803" lon="5.80987">
        <ele>1040.7644043</ele>
        <time>2011-06-04T10:43:26Z</time>
      </trkpt>
      <trkpt lat="45.34807" lon="5.80988">
        <ele>1039.8032227</ele>
        <time>2011-06-04T10:43:29Z</time>
      </trkpt>
      <trkpt lat="45.34812" lon="5.80992">
        <ele>1041.7258301</ele>
        <time>2011-06-04T10:43:34Z</time>
      </trkpt>
      <trkpt lat="45.34817" lon="5.80992">
        <ele>1041.2451172</ele>
        <time>2011-06-04T10:43:40Z</time>
      </trkpt>
      <trkpt lat="45.34821" lon="5.80992">
        <ele>1042.206543</ele>
        <time>2011-06-04T10:43:45Z</time>
      </trkpt>
      <trkpt lat="45.34828" lon="5.80995">
        <ele>1035.9577637</ele>
        <time>2011-06-04T10:43:49Z</time>
      </trkpt>
      <trkpt lat="45.34831" lon="5.80998">
        <ele>1039.3225098</ele>
        <time>2011-06-04T10:43:52Z</time>
      </trkpt>
      <trkpt lat="45.34839" lon="5.81001">
        <ele>1039.3225098</ele>
        <time>2011-06-04T10:43:57Z</time>
      </trkpt>
      <trkpt lat="45.34843" lon="5.81001">
        <ele>1037.8806152</ele>
        <time>2011-06-04T10:44:01Z</time>
      </trkpt>
      <trkpt lat="45.34848" lon="5.81002">
        <ele>1037.3999023</ele>
        <time>2011-06-04T10:44:05Z</time>
      </trkpt>
      <trkpt lat="45.34857" lon="5.80997">
        <ele>1047.4936523</ele>
        <time>2011-06-04T10:44:13Z</time>
      </trkpt>
      <trkpt lat="45.34861" lon="5.80997">
        <ele>1047.4936523</ele>
        <time>2011-06-04T10:44:16Z</time>
      </trkpt>
      <trkpt lat="45.34866" lon="5.80995">
        <ele>1045.090332</ele>
        <time>2011-06-04T10:44:19Z</time>
      </trkpt>
      <trkpt lat="45.34868" lon="5.80996">
        <ele>1046.5324707</ele>
        <time>2011-06-04T10:44:21Z</time>
      </trkpt>
      <trkpt lat="45.3487" lon="5.80997">
        <ele>1047.9743652</ele>
        <time>2011-06-04T10:44:23Z</time>
      </trkpt>
      <trkpt lat="45.34874" lon="5.80996">
        <ele>1047.9743652</ele>
        <time>2011-06-04T10:44:26Z</time>
      </trkpt>
      <trkpt lat="45.34882" lon="5.80995">
        <ele>1044.1291504</ele>
        <time>2011-06-04T10:44:32Z</time>
      </trkpt>
      <trkpt lat="45.34884" lon="5.80993">
        <ele>1045.090332</ele>
        <time>2011-06-04T10:44:34Z</time>
      </trkpt>
      <trkpt lat="45.34893" lon="5.80992">
        <ele>1043.1677246</ele>
        <time>2011-06-04T10:44:42Z</time>
      </trkpt>
      <trkpt lat="45.349" lon="5.80994">
        <ele>1046.0517578</ele>
        <time>2011-06-04T10:44:48Z</time>
      </trkpt>
      <trkpt lat="45.34904" lon="5.80994">
        <ele>1047.9743652</ele>
        <time>2011-06-04T10:44:51Z</time>
      </trkpt>
      <trkpt lat="45.3491" lon="5.80995">
        <ele>1056.6262207</ele>
        <time>2011-06-04T10:44:55Z</time>
      </trkpt>
      <trkpt lat="45.34916" lon="5.80993">
        <ele>1052.300293</ele>
        <time>2011-06-04T10:45:00Z</time>
      </trkpt>
      <trkpt lat="45.34919" lon="5.80993">
        <ele>1048.454834</ele>
        <time>2011-06-04T10:45:06Z</time>
      </trkpt>
      <trkpt lat="45.34924" lon="5.80998">
        <ele>1058.0683594</ele>
        <time>2011-06-04T10:45:12Z</time>
      </trkpt>
      <trkpt lat="45.34929" lon="5.81006">
        <ele>1066.7199707</ele>
        <time>2011-06-04T10:45:20Z</time>
      </trkpt>
      <trkpt lat="45.34937" lon="5.81005">
        <ele>1060.4714355</ele>
        <time>2011-06-04T10:45:26Z</time>
      </trkpt>
      <trkpt lat="45.34942" lon="5.81008">
        <ele>1063.8359375</ele>
        <time>2011-06-04T10:45:31Z</time>
      </trkpt>
      <trkpt lat="45.34947" lon="5.81011">
        <ele>1068.6428223</ele>
        <time>2011-06-04T10:45:36Z</time>
      </trkpt>
      <trkpt lat="45.34951" lon="5.81014">
        <ele>1067.2006836</ele>
        <time>2011-06-04T10:45:40Z</time>
      </trkpt>
      <trkpt lat="45.34956" lon="5.81013">
        <ele>1074.8913574</ele>
        <time>2011-06-04T10:45:45Z</time>
      </trkpt>
      <trkpt lat="45.34959" lon="5.81015">
        <ele>1081.1398926</ele>
        <time>2011-06-04T10:45:51Z</time>
      </trkpt>
      <trkpt lat="45.34963" lon="5.81011">
        <ele>1081.1398926</ele>
        <time>2011-06-04T10:45:56Z</time>
      </trkpt>
      <trkpt lat="45.3497" lon="5.81012">
        <ele>1084.9853516</ele>
        <time>2011-06-04T10:46:06Z</time>
      </trkpt>
      <trkpt lat="45.34975" lon="5.81015">
        <ele>1085.9465332</ele>
        <time>2011-06-04T10:46:13Z</time>
      </trkpt>
      <trkpt lat="45.34976" lon="5.81016">
        <ele>1086.4272461</ele>
        <time>2011-06-04T10:46:16Z</time>
      </trkpt>
      <trkpt lat="45.34982" lon="5.81013">
        <ele>1093.15625</ele>
        <time>2011-06-04T10:46:22Z</time>
      </trkpt>
      <trkpt lat="45.34984" lon="5.81014">
        <ele>1094.1176758</ele>
        <time>2011-06-04T10:46:24Z</time>
      </trkpt>
      <trkpt lat="45.34987" lon="5.81017">
        <ele>1095.0788574</ele>
        <time>2011-06-04T10:46:32Z</time>
      </trkpt>
      <trkpt lat="45.35006" lon="5.81019">
        <ele>1111.4213867</ele>
        <time>2011-06-04T10:47:09Z</time>
      </trkpt>
      <trkpt lat="45.35013" lon="5.81018">
        <ele>1110.9406738</ele>
        <time>2011-06-04T10:47:16Z</time>
      </trkpt>
      <trkpt lat="45.35016" lon="5.81022">
        <ele>1113.8244629</ele>
        <time>2011-06-04T10:47:24Z</time>
      </trkpt>
      <trkpt lat="45.35023" lon="5.81024">
        <ele>1114.7858887</ele>
        <time>2011-06-04T10:47:32Z</time>
      </trkpt>
      <trkpt lat="45.3503" lon="5.81025">
        <ele>1120.5539551</ele>
        <time>2011-06-04T10:47:48Z</time>
      </trkpt>
      <trkpt lat="45.35035" lon="5.81023">
        <ele>1120.0732422</ele>
        <time>2011-06-04T10:47:57Z</time>
      </trkpt>
      <trkpt lat="45.35041" lon="5.81026">
        <ele>1121.5151367</ele>
        <time>2011-06-04T10:48:04Z</time>
      </trkpt>
      <trkpt lat="45.35047" lon="5.81028">
        <ele>1123.4379883</ele>
        <time>2011-06-04T10:48:10Z</time>
      </trkpt>
      <trkpt lat="45.35052" lon="5.81029">
        <ele>1124.8798828</ele>
        <time>2011-06-04T10:48:14Z</time>
      </trkpt>
      <trkpt lat="45.35057" lon="5.81031">
        <ele>1121.5151367</ele>
        <time>2011-06-04T10:48:23Z</time>
      </trkpt>
      <trkpt lat="45.35067" lon="5.81035">
        <ele>1119.1120605</ele>
        <time>2011-06-04T10:48:41Z</time>
      </trkpt>
      <trkpt lat="45.35086" lon="5.81037">
        <ele>1138.3383789</ele>
        <time>2011-06-04T10:49:20Z</time>
      </trkpt>
      <trkpt lat="45.35094" lon="5.81036">
        <ele>1136.4157715</ele>
        <time>2011-06-04T10:49:30Z</time>
      </trkpt>
      <trkpt lat="45.35101" lon="5.8104">
        <ele>1154.6806641</ele>
        <time>2011-06-04T10:49:58Z</time>
      </trkpt>
      <trkpt lat="45.3511" lon="5.81036">
        <ele>1152.7580566</ele>
        <time>2011-06-04T10:50:07Z</time>
      </trkpt>
      <trkpt lat="45.35116" lon="5.81033">
        <ele>1153.7194824</ele>
        <time>2011-06-04T10:50:15Z</time>
      </trkpt>
      <trkpt lat="45.35123" lon="5.81032">
        <ele>1151.3161621</ele>
        <time>2011-06-04T10:50:23Z</time>
      </trkpt>
      <trkpt lat="45.35131" lon="5.8103">
        <ele>1153.7194824</ele>
        <time>2011-06-04T10:50:30Z</time>
      </trkpt>
      <trkpt lat="45.35138" lon="5.81033">
        <ele>1166.2165527</ele>
        <time>2011-06-04T10:50:50Z</time>
      </trkpt>
      <trkpt lat="45.35142" lon="5.81035">
        <ele>1167.6584473</ele>
        <time>2011-06-04T10:50:58Z</time>
      </trkpt>
      <trkpt lat="45.35155" lon="5.8104">
        <ele>1193.1333008</ele>
        <time>2011-06-04T10:51:14Z</time>
      </trkpt>
      <trkpt lat="45.35162" lon="5.81043">
        <ele>1180.6364746</ele>
        <time>2011-06-04T10:51:18Z</time>
      </trkpt>
      <trkpt lat="45.35174" lon="5.81039">
        <ele>1176.7910156</ele>
        <time>2011-06-04T10:51:31Z</time>
      </trkpt>
      <trkpt lat="45.35177" lon="5.81037">
        <ele>1163.8129883</ele>
        <time>2011-06-04T10:51:38Z</time>
      </trkpt>
      <trkpt lat="45.35183" lon="5.81039">
        <ele>1159.0065918</ele>
        <time>2011-06-04T10:51:44Z</time>
      </trkpt>
      <trkpt lat="45.35185" lon="5.81037">
        <ele>1156.6032715</ele>
        <time>2011-06-04T10:51:48Z</time>
      </trkpt>
      <trkpt lat="45.35189" lon="5.8104">
        <ele>1158.5258789</ele>
        <time>2011-06-04T10:51:53Z</time>
      </trkpt>
      <trkpt lat="45.35192" lon="5.81045">
        <ele>1160.9291992</ele>
        <time>2011-06-04T10:52:00Z</time>
      </trkpt>
      <trkpt lat="45.35199" lon="5.81042">
        <ele>1159.0065918</ele>
        <time>2011-06-04T10:52:07Z</time>
      </trkpt>
      <trkpt lat="45.35203" lon="5.81041">
        <ele>1161.890625</ele>
        <time>2011-06-04T10:52:13Z</time>
      </trkpt>
      <trkpt lat="45.35212" lon="5.81034">
        <ele>1167.6584473</ele>
        <time>2011-06-04T10:52:27Z</time>
      </trkpt>
      <trkpt lat="45.35214" lon="5.81033">
        <ele>1169.5812988</ele>
        <time>2011-06-04T10:52:31Z</time>
      </trkpt>
      <trkpt lat="45.35218" lon="5.81035">
        <ele>1173.9069824</ele>
        <time>2011-06-04T10:52:39Z</time>
      </trkpt>
      <trkpt lat="45.35222" lon="5.81032">
        <ele>1172.9458008</ele>
        <time>2011-06-04T10:52:44Z</time>
      </trkpt>
      <trkpt lat="45.35224" lon="5.81031">
        <ele>1171.984375</ele>
        <time>2011-06-04T10:52:48Z</time>
      </trkpt>
      <trkpt lat="45.35231" lon="5.81028">
        <ele>1172.4650879</ele>
        <time>2011-06-04T10:53:00Z</time>
      </trkpt>
      <trkpt lat="45.35233" lon="5.81025">
        <ele>1173.9069824</ele>
        <time>2011-06-04T10:53:09Z</time>
      </trkpt>
      <trkpt lat="45.35234" lon="5.81028">
        <ele>1177.7521973</ele>
        <time>2011-06-04T10:53:14Z</time>
      </trkpt>
      <trkpt lat="45.35237" lon="5.81028">
        <ele>1190.2495117</ele>
        <time>2011-06-04T10:53:28Z</time>
      </trkpt>
      <trkpt lat="45.35236" lon="5.81025">
        <ele>1187.3654785</ele>
        <time>2011-06-04T10:53:38Z</time>
      </trkpt>
      <trkpt lat="45.35236" lon="5.81021">
        <ele>1173.9069824</ele>
        <time>2011-06-04T10:55:05Z</time>
      </trkpt>
      <trkpt lat="45.35235" lon="5.81022">
        <ele>1173.9069824</ele>
        <time>2011-06-04T10:55:15Z</time>
      </trkpt>
      <trkpt lat="45.35236" lon="5.81024">
        <ele>1172.9458008</ele>
        <time>2011-06-04T10:55:38Z</time>
      </trkpt>
      <trkpt lat="45.35237" lon="5.81027">
        <ele>1171.5036621</ele>
        <time>2011-06-04T10:55:42Z</time>
      </trkpt>
      <trkpt lat="45.3524" lon="5.81032">
        <ele>1171.0231934</ele>
        <time>2011-06-04T10:55:48Z</time>
      </trkpt>
      <trkpt lat="45.35244" lon="5.81037">
        <ele>1169.5812988</ele>
        <time>2011-06-04T10:55:55Z</time>
      </trkpt>
      <trkpt lat="45.35246" lon="5.8104">
        <ele>1169.5812988</ele>
        <time>2011-06-04T10:55:59Z</time>
      </trkpt>
      <trkpt lat="45.35251" lon="5.81045">
        <ele>1168.1391602</ele>
        <time>2011-06-04T10:56:05Z</time>
      </trkpt>
      <trkpt lat="45.35253" lon="5.81048">
        <ele>1168.1391602</ele>
        <time>2011-06-04T10:56:07Z</time>
      </trkpt>
      <trkpt lat="45.35257" lon="5.81056">
        <ele>1169.1005859</ele>
        <time>2011-06-04T10:56:13Z</time>
      </trkpt>
      <trkpt lat="45.35259" lon="5.81059">
        <ele>1172.4650879</ele>
        <time>2011-06-04T10:56:16Z</time>
      </trkpt>
      <trkpt lat="45.35264" lon="5.81062">
        <ele>1174.3876953</ele>
        <time>2011-06-04T10:56:21Z</time>
      </trkpt>
      <trkpt lat="45.35268" lon="5.81069">
        <ele>1172.9458008</ele>
        <time>2011-06-04T10:56:25Z</time>
      </trkpt>
      <trkpt lat="45.35269" lon="5.81073">
        <ele>1171.984375</ele>
        <time>2011-06-04T10:56:27Z</time>
      </trkpt>
      <trkpt lat="45.35276" lon="5.81078">
        <ele>1170.0617676</ele>
        <time>2011-06-04T10:56:31Z</time>
      </trkpt>
      <trkpt lat="45.35287" lon="5.81085">
        <ele>1169.5812988</ele>
        <time>2011-06-04T10:56:38Z</time>
      </trkpt>
      <trkpt lat="45.35289" lon="5.81086">
        <ele>1169.1005859</ele>
        <time>2011-06-04T10:56:39Z</time>
      </trkpt>
      <trkpt lat="45.353" lon="5.81098">
        <ele>1168.1391602</ele>
        <time>2011-06-04T10:56:45Z</time>
      </trkpt>
      <trkpt lat="45.35309" lon="5.8111">
        <ele>1166.2165527</ele>
        <time>2011-06-04T10:56:50Z</time>
      </trkpt>
      <trkpt lat="45.3532" lon="5.81124">
        <ele>1164.2939453</ele>
        <time>2011-06-04T10:56:56Z</time>
      </trkpt>
      <trkpt lat="45.35325" lon="5.81132">
        <ele>1164.2939453</ele>
        <time>2011-06-04T10:56:59Z</time>
      </trkpt>
      <trkpt lat="45.3533" lon="5.81149">
        <ele>1161.4099121</ele>
        <time>2011-06-04T10:57:04Z</time>
      </trkpt>
      <trkpt lat="45.35337" lon="5.81165">
        <ele>1159.4873047</ele>
        <time>2011-06-04T10:57:09Z</time>
      </trkpt>
      <trkpt lat="45.35343" lon="5.81185">
        <ele>1159.0065918</ele>
        <time>2011-06-04T10:57:15Z</time>
      </trkpt>
      <trkpt lat="45.35347" lon="5.81202">
        <ele>1158.5258789</ele>
        <time>2011-06-04T10:57:20Z</time>
      </trkpt>
      <trkpt lat="45.3535" lon="5.81216">
        <ele>1159.4873047</ele>
        <time>2011-06-04T10:57:24Z</time>
      </trkpt>
      <trkpt lat="45.35354" lon="5.81233">
        <ele>1170.0617676</ele>
        <time>2011-06-04T10:57:28Z</time>
      </trkpt>
      <trkpt lat="45.35354" lon="5.81241">
        <ele>1173.4265137</ele>
        <time>2011-06-04T10:57:30Z</time>
      </trkpt>
      <trkpt lat="45.35345" lon="5.81248">
        <ele>1175.348877</ele>
        <time>2011-06-04T10:57:34Z</time>
      </trkpt>
      <trkpt lat="45.35337" lon="5.8124">
        <ele>1175.348877</ele>
        <time>2011-06-04T10:57:38Z</time>
      </trkpt>
      <trkpt lat="45.35336" lon="5.81238">
        <ele>1175.8295898</ele>
        <time>2011-06-04T10:57:39Z</time>
      </trkpt>
      <trkpt lat="45.35322" lon="5.81224">
        <ele>1175.8295898</ele>
        <time>2011-06-04T10:57:45Z</time>
      </trkpt>
      <trkpt lat="45.35309" lon="5.81213">
        <ele>1174.8684082</ele>
        <time>2011-06-04T10:57:50Z</time>
      </trkpt>
      <trkpt lat="45.35297" lon="5.81203">
        <ele>1174.8684082</ele>
        <time>2011-06-04T10:57:55Z</time>
      </trkpt>
      <trkpt lat="45.35284" lon="5.81192">
        <ele>1172.9458008</ele>
        <time>2011-06-04T10:58:00Z</time>
      </trkpt>
      <trkpt lat="45.35274" lon="5.81181">
        <ele>1171.984375</ele>
        <time>2011-06-04T10:58:04Z</time>
      </trkpt>
      <trkpt lat="45.35257" lon="5.81166">
        <ele>1169.5812988</ele>
        <time>2011-06-04T10:58:11Z</time>
      </trkpt>
      <trkpt lat="45.35245" lon="5.81158">
        <ele>1163.8129883</ele>
        <time>2011-06-04T10:58:16Z</time>
      </trkpt>
      <trkpt lat="45.35228" lon="5.81153">
        <ele>1155.6420898</ele>
        <time>2011-06-04T10:58:22Z</time>
      </trkpt>
      <trkpt lat="45.35215" lon="5.81147">
        <ele>1151.3161621</ele>
        <time>2011-06-04T10:58:27Z</time>
      </trkpt>
      <trkpt lat="45.35209" lon="5.81145">
        <ele>1149.8742676</ele>
        <time>2011-06-04T10:58:29Z</time>
      </trkpt>
      <trkpt lat="45.35191" lon="5.81144">
        <ele>1146.0288086</ele>
        <time>2011-06-04T10:58:35Z</time>
      </trkpt>
      <trkpt lat="45.3518" lon="5.81145">
        <ele>1143.1447754</ele>
        <time>2011-06-04T10:58:39Z</time>
      </trkpt>
      <trkpt lat="45.3517" lon="5.81146">
        <ele>1141.7028809</ele>
        <time>2011-06-04T10:58:42Z</time>
      </trkpt>
      <trkpt lat="45.35146" lon="5.81139">
        <ele>1138.3383789</ele>
        <time>2011-06-04T10:58:50Z</time>
      </trkpt>
      <trkpt lat="45.35134" lon="5.81139">
        <ele>1137.857666</ele>
        <time>2011-06-04T10:58:54Z</time>
      </trkpt>
      <trkpt lat="45.35131" lon="5.81149">
        <ele>1136.8962402</ele>
        <time>2011-06-04T10:58:58Z</time>
      </trkpt>
      <trkpt lat="45.35134" lon="5.81159">
        <ele>1134.0124512</ele>
        <time>2011-06-04T10:59:04Z</time>
      </trkpt>
      <trkpt lat="45.35141" lon="5.81159">
        <ele>1133.0510254</ele>
        <time>2011-06-04T10:59:10Z</time>
      </trkpt>
      <trkpt lat="45.35149" lon="5.81161">
        <ele>1129.2055664</ele>
        <time>2011-06-04T10:59:16Z</time>
      </trkpt>
      <trkpt lat="45.35154" lon="5.81165">
        <ele>1129.2055664</ele>
        <time>2011-06-04T10:59:22Z</time>
      </trkpt>
      <trkpt lat="45.3516" lon="5.81172">
        <ele>1127.2832031</ele>
        <time>2011-06-04T10:59:28Z</time>
      </trkpt>
      <trkpt lat="45.35164" lon="5.81177">
        <ele>1125.3603516</ele>
        <time>2011-06-04T10:59:32Z</time>
      </trkpt>
      <trkpt lat="45.35167" lon="5.81181">
        <ele>1120.0732422</ele>
        <time>2011-06-04T10:59:36Z</time>
      </trkpt>
      <trkpt lat="45.35174" lon="5.81192">
        <ele>1115.2666016</ele>
        <time>2011-06-04T10:59:41Z</time>
      </trkpt>
      <trkpt lat="45.3518" lon="5.81203">
        <ele>1112.8632813</ele>
        <time>2011-06-04T10:59:45Z</time>
      </trkpt>
      <trkpt lat="45.35185" lon="5.81212">
        <ele>1110.4599609</ele>
        <time>2011-06-04T10:59:48Z</time>
      </trkpt>
      <trkpt lat="45.35193" lon="5.81226">
        <ele>1109.0180664</ele>
        <time>2011-06-04T10:59:53Z</time>
      </trkpt>
      <trkpt lat="45.352" lon="5.81236">
        <ele>1107.095459</ele>
        <time>2011-06-04T10:59:57Z</time>
      </trkpt>
      <trkpt lat="45.35207" lon="5.81256">
        <ele>1105.6535645</ele>
        <time>2011-06-04T11:00:03Z</time>
      </trkpt>
      <trkpt lat="45.35211" lon="5.81274">
        <ele>1105.1728516</ele>
        <time>2011-06-04T11:00:08Z</time>
      </trkpt>
      <trkpt lat="45.35215" lon="5.8129">
        <ele>1105.1728516</ele>
        <time>2011-06-04T11:00:12Z</time>
      </trkpt>
      <trkpt lat="45.3522" lon="5.81299">
        <ele>1104.6921387</ele>
        <time>2011-06-04T11:00:15Z</time>
      </trkpt>
      <trkpt lat="45.35227" lon="5.81307">
        <ele>1105.1728516</ele>
        <time>2011-06-04T11:00:19Z</time>
      </trkpt>
      <trkpt lat="45.35236" lon="5.8131">
        <ele>1102.2888184</ele>
        <time>2011-06-04T11:00:23Z</time>
      </trkpt>
      <trkpt lat="45.35251" lon="5.8131">
        <ele>1102.7695313</ele>
        <time>2011-06-04T11:00:28Z</time>
      </trkpt>
      <trkpt lat="45.35261" lon="5.81318">
        <ele>1109.0180664</ele>
        <time>2011-06-04T11:00:32Z</time>
      </trkpt>
      <trkpt lat="45.35266" lon="5.81337">
        <ele>1108.0568848</ele>
        <time>2011-06-04T11:00:37Z</time>
      </trkpt>
      <trkpt lat="45.35269" lon="5.81352">
        <ele>1106.6147461</ele>
        <time>2011-06-04T11:00:41Z</time>
      </trkpt>
      <trkpt lat="45.35275" lon="5.8137">
        <ele>1107.095459</ele>
        <time>2011-06-04T11:00:46Z</time>
      </trkpt>
      <trkpt lat="45.35281" lon="5.81386">
        <ele>1108.0568848</ele>
        <time>2011-06-04T11:00:51Z</time>
      </trkpt>
      <trkpt lat="45.35288" lon="5.81395">
        <ele>1106.1340332</ele>
        <time>2011-06-04T11:00:55Z</time>
      </trkpt>
      <trkpt lat="45.35294" lon="5.81402">
        <ele>1104.6921387</ele>
        <time>2011-06-04T11:00:58Z</time>
      </trkpt>
      <trkpt lat="45.35309" lon="5.81409">
        <ele>1102.2888184</ele>
        <time>2011-06-04T11:01:04Z</time>
      </trkpt>
      <trkpt lat="45.3532" lon="5.81414">
        <ele>1103.2502441</ele>
        <time>2011-06-04T11:01:08Z</time>
      </trkpt>
      <trkpt lat="45.35332" lon="5.8143">
        <ele>1100.3664551</ele>
        <time>2011-06-04T11:01:14Z</time>
      </trkpt>
      <trkpt lat="45.35343" lon="5.8144">
        <ele>1096.0402832</ele>
        <time>2011-06-04T11:01:19Z</time>
      </trkpt>
      <trkpt lat="45.35347" lon="5.81444">
        <ele>1095.0788574</ele>
        <time>2011-06-04T11:01:21Z</time>
      </trkpt>
      <trkpt lat="45.35352" lon="5.81467">
        <ele>1094.5981445</ele>
        <time>2011-06-04T11:01:27Z</time>
      </trkpt>
      <trkpt lat="45.35358" lon="5.81487">
        <ele>1093.15625</ele>
        <time>2011-06-04T11:01:33Z</time>
      </trkpt>
      <trkpt lat="45.35364" lon="5.81503">
        <ele>1089.3110352</ele>
        <time>2011-06-04T11:01:38Z</time>
      </trkpt>
      <trkpt lat="45.35371" lon="5.81522">
        <ele>1094.1176758</ele>
        <time>2011-06-04T11:01:43Z</time>
      </trkpt>
      <trkpt lat="45.35377" lon="5.81541">
        <ele>1109.979248</ele>
        <time>2011-06-04T11:01:48Z</time>
      </trkpt>
      <trkpt lat="45.35382" lon="5.81561">
        <ele>1125.3603516</ele>
        <time>2011-06-04T11:01:53Z</time>
      </trkpt>
      <trkpt lat="45.35382" lon="5.81565">
        <ele>1128.7250977</ele>
        <time>2011-06-04T11:01:54Z</time>
      </trkpt>
      <trkpt lat="45.35385" lon="5.81584">
        <ele>1128.7250977</ele>
        <time>2011-06-04T11:01:59Z</time>
      </trkpt>
      <trkpt lat="45.35385" lon="5.81592">
        <ele>1130.6477051</ele>
        <time>2011-06-04T11:02:01Z</time>
      </trkpt>
      <trkpt lat="45.35385" lon="5.81606">
        <ele>1128.2443848</ele>
        <time>2011-06-04T11:02:06Z</time>
      </trkpt>
      <trkpt lat="45.35388" lon="5.81624">
        <ele>1117.6699219</ele>
        <time>2011-06-04T11:02:12Z</time>
      </trkpt>
      <trkpt lat="45.35392" lon="5.81638">
        <ele>1115.7473145</ele>
        <time>2011-06-04T11:02:17Z</time>
      </trkpt>
      <trkpt lat="45.35393" lon="5.81641">
        <ele>1114.3051758</ele>
        <time>2011-06-04T11:02:18Z</time>
      </trkpt>
      <trkpt lat="45.35405" lon="5.81655">
        <ele>1108.0568848</ele>
        <time>2011-06-04T11:02:25Z</time>
      </trkpt>
      <trkpt lat="45.35414" lon="5.81666">
        <ele>1105.6535645</ele>
        <time>2011-06-04T11:02:30Z</time>
      </trkpt>
      <trkpt lat="45.35421" lon="5.81679">
        <ele>1106.1340332</ele>
        <time>2011-06-04T11:02:35Z</time>
      </trkpt>
      <trkpt lat="45.35429" lon="5.8169">
        <ele>1102.2888184</ele>
        <time>2011-06-04T11:02:40Z</time>
      </trkpt>
      <trkpt lat="45.35432" lon="5.81693">
        <ele>1101.3276367</ele>
        <time>2011-06-04T11:02:42Z</time>
      </trkpt>
      <trkpt lat="45.35441" lon="5.8171">
        <ele>1098.9240723</ele>
        <time>2011-06-04T11:02:49Z</time>
      </trkpt>
      <trkpt lat="45.35446" lon="5.81724">
        <ele>1097.9628906</ele>
        <time>2011-06-04T11:02:54Z</time>
      </trkpt>
      <trkpt lat="45.35452" lon="5.81735">
        <ele>1098.4433594</ele>
        <time>2011-06-04T11:02:58Z</time>
      </trkpt>
      <trkpt lat="45.35462" lon="5.81753">
        <ele>1097.4821777</ele>
        <time>2011-06-04T11:03:05Z</time>
      </trkpt>
      <trkpt lat="45.35472" lon="5.81773">
        <ele>1097.0014648</ele>
        <time>2011-06-04T11:03:11Z</time>
      </trkpt>
      <trkpt lat="45.35479" lon="5.81786">
        <ele>1094.1176758</ele>
        <time>2011-06-04T11:03:16Z</time>
      </trkpt>
      <trkpt lat="45.35483" lon="5.8179">
        <ele>1097.0014648</ele>
        <time>2011-06-04T11:03:20Z</time>
      </trkpt>
      <trkpt lat="45.35484" lon="5.81791">
        <ele>1100.3664551</ele>
        <time>2011-06-04T11:03:26Z</time>
      </trkpt>
      <trkpt lat="45.35485" lon="5.81794">
        <ele>1099.885498</ele>
        <time>2011-06-04T11:03:43Z</time>
      </trkpt>
      <trkpt lat="45.35492" lon="5.81801">
        <ele>1097.4821777</ele>
        <time>2011-06-04T11:03:50Z</time>
      </trkpt>
      <trkpt lat="45.35494" lon="5.81802">
        <ele>1095.0788574</ele>
        <time>2011-06-04T11:03:52Z</time>
      </trkpt>
      <trkpt lat="45.35496" lon="5.81803">
        <ele>1093.15625</ele>
        <time>2011-06-04T11:03:54Z</time>
      </trkpt>
      <trkpt lat="45.35503" lon="5.81809">
        <ele>1089.3110352</ele>
        <time>2011-06-04T11:04:00Z</time>
      </trkpt>
      <trkpt lat="45.35511" lon="5.81817">
        <ele>1085.9465332</ele>
        <time>2011-06-04T11:04:05Z</time>
      </trkpt>
      <trkpt lat="45.35512" lon="5.81819">
        <ele>1085.4658203</ele>
        <time>2011-06-04T11:04:06Z</time>
      </trkpt>
      <trkpt lat="45.3552" lon="5.81826">
        <ele>1082.5817871</ele>
        <time>2011-06-04T11:04:10Z</time>
      </trkpt>
      <trkpt lat="45.3553" lon="5.81839">
        <ele>1080.6591797</ele>
        <time>2011-06-04T11:04:16Z</time>
      </trkpt>
      <trkpt lat="45.35546" lon="5.81842">
        <ele>1085.4658203</ele>
        <time>2011-06-04T11:04:22Z</time>
      </trkpt>
      <trkpt lat="45.35557" lon="5.81842">
        <ele>1087.3884277</ele>
        <time>2011-06-04T11:04:27Z</time>
      </trkpt>
      <trkpt lat="45.3556" lon="5.81844">
        <ele>1085.4658203</ele>
        <time>2011-06-04T11:04:28Z</time>
      </trkpt>
      <trkpt lat="45.3557" lon="5.81849">
        <ele>1079.217041</ele>
        <time>2011-06-04T11:04:32Z</time>
      </trkpt>
      <trkpt lat="45.35579" lon="5.81862">
        <ele>1079.217041</ele>
        <time>2011-06-04T11:04:37Z</time>
      </trkpt>
      <trkpt lat="45.35587" lon="5.81881">
        <ele>1078.2558594</ele>
        <time>2011-06-04T11:04:43Z</time>
      </trkpt>
      <trkpt lat="45.35589" lon="5.81887">
        <ele>1077.2946777</ele>
        <time>2011-06-04T11:04:45Z</time>
      </trkpt>
      <trkpt lat="45.35598" lon="5.81907">
        <ele>1073.4494629</ele>
        <time>2011-06-04T11:04:52Z</time>
      </trkpt>
      <trkpt lat="45.35605" lon="5.8192">
        <ele>1070.0847168</ele>
        <time>2011-06-04T11:04:56Z</time>
      </trkpt>
      <trkpt lat="45.35613" lon="5.81933">
        <ele>1067.6811523</ele>
        <time>2011-06-04T11:05:01Z</time>
      </trkpt>
      <trkpt lat="45.35617" lon="5.81937">
        <ele>1066.2392578</ele>
        <time>2011-06-04T11:05:03Z</time>
      </trkpt>
      <trkpt lat="45.35623" lon="5.81953">
        <ele>1068.6428223</ele>
        <time>2011-06-04T11:05:08Z</time>
      </trkpt>
      <trkpt lat="45.35626" lon="5.8197">
        <ele>1067.6811523</ele>
        <time>2011-06-04T11:05:13Z</time>
      </trkpt>
      <trkpt lat="45.3563" lon="5.81986">
        <ele>1069.1235352</ele>
        <time>2011-06-04T11:05:18Z</time>
      </trkpt>
      <trkpt lat="45.35632" lon="5.81992">
        <ele>1069.1235352</ele>
        <time>2011-06-04T11:05:20Z</time>
      </trkpt>
      <trkpt lat="45.35642" lon="5.82006">
        <ele>1069.604248</ele>
        <time>2011-06-04T11:05:26Z</time>
      </trkpt>
      <trkpt lat="45.35654" lon="5.82023">
        <ele>1079.6977539</ele>
        <time>2011-06-04T11:05:32Z</time>
      </trkpt>
      <trkpt lat="45.35658" lon="5.8203">
        <ele>1086.9077148</ele>
        <time>2011-06-04T11:05:34Z</time>
      </trkpt>
      <trkpt lat="45.35656" lon="5.8205">
        <ele>1094.5981445</ele>
        <time>2011-06-04T11:05:39Z</time>
      </trkpt>
      <trkpt lat="45.35649" lon="5.82076">
        <ele>1100.3664551</ele>
        <time>2011-06-04T11:05:46Z</time>
      </trkpt>
      <trkpt lat="45.35647" lon="5.82094">
        <ele>1101.3276367</ele>
        <time>2011-06-04T11:05:51Z</time>
      </trkpt>
      <trkpt lat="45.35646" lon="5.82117">
        <ele>1104.6921387</ele>
        <time>2011-06-04T11:05:57Z</time>
      </trkpt>
      <trkpt lat="45.35645" lon="5.82138">
        <ele>1101.3276367</ele>
        <time>2011-06-04T11:06:03Z</time>
      </trkpt>
      <trkpt lat="45.35645" lon="5.82157">
        <ele>1096.0402832</ele>
        <time>2011-06-04T11:06:08Z</time>
      </trkpt>
      <trkpt lat="45.35646" lon="5.82176">
        <ele>1092.1950684</ele>
        <time>2011-06-04T11:06:13Z</time>
      </trkpt>
      <trkpt lat="45.35649" lon="5.82192">
        <ele>1082.1010742</ele>
        <time>2011-06-04T11:06:18Z</time>
      </trkpt>
      <trkpt lat="45.35657" lon="5.82214">
        <ele>1074.8913574</ele>
        <time>2011-06-04T11:06:24Z</time>
      </trkpt>
      <trkpt lat="45.35664" lon="5.82224">
        <ele>1063.8359375</ele>
        <time>2011-06-04T11:06:30Z</time>
      </trkpt>
      <trkpt lat="45.3567" lon="5.82227">
        <ele>1055.6650391</ele>
        <time>2011-06-04T11:06:34Z</time>
      </trkpt>
      <trkpt lat="45.35682" lon="5.82236">
        <ele>1048.454834</ele>
        <time>2011-06-04T11:06:39Z</time>
      </trkpt>
      <trkpt lat="45.35685" lon="5.82241">
        <ele>1045.090332</ele>
        <time>2011-06-04T11:06:41Z</time>
      </trkpt>
      <trkpt lat="45.35692" lon="5.82252">
        <ele>1045.5710449</ele>
        <time>2011-06-04T11:06:45Z</time>
      </trkpt>
      <trkpt lat="45.35698" lon="5.82267">
        <ele>1053.7424316</ele>
        <time>2011-06-04T11:06:49Z</time>
      </trkpt>
      <trkpt lat="45.35707" lon="5.82297">
        <ele>1072.96875</ele>
        <time>2011-06-04T11:06:56Z</time>
      </trkpt>
      <trkpt lat="45.35706" lon="5.82316">
        <ele>1077.7751465</ele>
        <time>2011-06-04T11:07:01Z</time>
      </trkpt>
      <trkpt lat="45.35707" lon="5.82332">
        <ele>1077.7751465</ele>
        <time>2011-06-04T11:07:05Z</time>
      </trkpt>
      <trkpt lat="45.35712" lon="5.82348">
        <ele>1067.2006836</ele>
        <time>2011-06-04T11:07:10Z</time>
      </trkpt>
      <trkpt lat="45.35717" lon="5.82363">
        <ele>1060.4714355</ele>
        <time>2011-06-04T11:07:15Z</time>
      </trkpt>
      <trkpt lat="45.35719" lon="5.82368">
        <ele>1058.5488281</ele>
        <time>2011-06-04T11:07:17Z</time>
      </trkpt>
      <trkpt lat="45.35727" lon="5.82378">
        <ele>1054.7036133</ele>
        <time>2011-06-04T11:07:22Z</time>
      </trkpt>
      <trkpt lat="45.35734" lon="5.82397">
        <ele>1054.2231445</ele>
        <time>2011-06-04T11:07:27Z</time>
      </trkpt>
      <trkpt lat="45.35739" lon="5.82415">
        <ele>1051.3388672</ele>
        <time>2011-06-04T11:07:32Z</time>
      </trkpt>
      <trkpt lat="45.35744" lon="5.82427">
        <ele>1048.454834</ele>
        <time>2011-06-04T11:07:36Z</time>
      </trkpt>
      <trkpt lat="45.35752" lon="5.82448">
        <ele>1045.090332</ele>
        <time>2011-06-04T11:07:42Z</time>
      </trkpt>
      <trkpt lat="45.35764" lon="5.82463">
        <ele>1042.206543</ele>
        <time>2011-06-04T11:07:47Z</time>
      </trkpt>
      <trkpt lat="45.35773" lon="5.82479">
        <ele>1037.8806152</ele>
        <time>2011-06-04T11:07:52Z</time>
      </trkpt>
      <trkpt lat="45.35776" lon="5.82496">
        <ele>1037.3999023</ele>
        <time>2011-06-04T11:07:56Z</time>
      </trkpt>
      <trkpt lat="45.35773" lon="5.82517">
        <ele>1037.3999023</ele>
        <time>2011-06-04T11:08:01Z</time>
      </trkpt>
      <trkpt lat="45.35776" lon="5.82535">
        <ele>1033.0737305</ele>
        <time>2011-06-04T11:08:06Z</time>
      </trkpt>
      <trkpt lat="45.35784" lon="5.8255">
        <ele>1027.7866211</ele>
        <time>2011-06-04T11:08:11Z</time>
      </trkpt>
      <trkpt lat="45.35793" lon="5.82566">
        <ele>1027.3061523</ele>
        <time>2011-06-04T11:08:16Z</time>
      </trkpt>
      <trkpt lat="45.35796" lon="5.82574">
        <ele>1025.8640137</ele>
        <time>2011-06-04T11:08:21Z</time>
      </trkpt>
      <trkpt lat="45.35806" lon="5.82577">
        <ele>1021.5380859</ele>
        <time>2011-06-04T11:08:29Z</time>
      </trkpt>
      <trkpt lat="45.35807" lon="5.82586">
        <ele>1025.3833008</ele>
        <time>2011-06-04T11:08:33Z</time>
      </trkpt>
      <trkpt lat="45.35808" lon="5.82599">
        <ele>1031.1513672</ele>
        <time>2011-06-04T11:08:39Z</time>
      </trkpt>
      <trkpt lat="45.35809" lon="5.82606">
        <ele>1033.0737305</ele>
        <time>2011-06-04T11:08:43Z</time>
      </trkpt>
      <trkpt lat="45.3581" lon="5.82615">
        <ele>1037.3999023</ele>
        <time>2011-06-04T11:08:47Z</time>
      </trkpt>
      <trkpt lat="45.3581" lon="5.82621">
        <ele>1039.8032227</ele>
        <time>2011-06-04T11:08:49Z</time>
      </trkpt>
      <trkpt lat="45.35812" lon="5.82633">
        <ele>1041.2451172</ele>
        <time>2011-06-04T11:08:55Z</time>
      </trkpt>
      <trkpt lat="45.35813" lon="5.82649">
        <ele>1047.0129395</ele>
        <time>2011-06-04T11:09:01Z</time>
      </trkpt>
      <trkpt lat="45.35813" lon="5.82652">
        <ele>1047.9743652</ele>
        <time>2011-06-04T11:09:02Z</time>
      </trkpt>
      <trkpt lat="45.3582" lon="5.82671">
        <ele>1049.4162598</ele>
        <time>2011-06-04T11:09:08Z</time>
      </trkpt>
      <trkpt lat="45.35822" lon="5.82675">
        <ele>1048.454834</ele>
        <time>2011-06-04T11:09:10Z</time>
      </trkpt>
      <trkpt lat="45.3583" lon="5.82686">
        <ele>1049.8969727</ele>
        <time>2011-06-04T11:09:16Z</time>
      </trkpt>
      <trkpt lat="45.35833" lon="5.82694">
        <ele>1055.1843262</ele>
        <time>2011-06-04T11:09:20Z</time>
      </trkpt>
      <trkpt lat="45.35839" lon="5.82702">
        <ele>1050.3776855</ele>
        <time>2011-06-04T11:09:27Z</time>
      </trkpt>
      <trkpt lat="45.35842" lon="5.82706">
        <ele>1049.4162598</ele>
        <time>2011-06-04T11:09:32Z</time>
      </trkpt>
      <trkpt lat="45.35847" lon="5.82712">
        <ele>1045.5710449</ele>
        <time>2011-06-04T11:09:38Z</time>
      </trkpt>
      <trkpt lat="45.35846" lon="5.82718">
        <ele>1044.1291504</ele>
        <time>2011-06-04T11:09:43Z</time>
      </trkpt>
      <trkpt lat="45.35846" lon="5.82724">
        <ele>1047.4936523</ele>
        <time>2011-06-04T11:09:50Z</time>
      </trkpt>
      <trkpt lat="45.35853" lon="5.82735">
        <ele>1043.6484375</ele>
        <time>2011-06-04T11:10:10Z</time>
      </trkpt>
      <trkpt lat="45.35855" lon="5.82747">
        <ele>1046.0517578</ele>
        <time>2011-06-04T11:10:16Z</time>
      </trkpt>
      <trkpt lat="45.35855" lon="5.82751">
        <ele>1046.0517578</ele>
        <time>2011-06-04T11:10:18Z</time>
      </trkpt>
      <trkpt lat="45.35859" lon="5.82761">
        <ele>1048.9355469</ele>
        <time>2011-06-04T11:10:24Z</time>
      </trkpt>
      <trkpt lat="45.35862" lon="5.8277">
        <ele>1052.7810059</ele>
        <time>2011-06-04T11:10:29Z</time>
      </trkpt>
      <trkpt lat="45.35862" lon="5.82781">
        <ele>1056.6262207</ele>
        <time>2011-06-04T11:10:35Z</time>
      </trkpt>
      <trkpt lat="45.35861" lon="5.82794">
        <ele>1059.9907227</ele>
        <time>2011-06-04T11:10:40Z</time>
      </trkpt>
      <trkpt lat="45.35864" lon="5.82802">
        <ele>1057.1069336</ele>
        <time>2011-06-04T11:10:45Z</time>
      </trkpt>
      <trkpt lat="45.35867" lon="5.82809">
        <ele>1057.1069336</ele>
        <time>2011-06-04T11:10:49Z</time>
      </trkpt>
      <trkpt lat="45.35869" lon="5.82817">
        <ele>1056.6262207</ele>
        <time>2011-06-04T11:10:54Z</time>
      </trkpt>
      <trkpt lat="45.35872" lon="5.82828">
        <ele>1052.7810059</ele>
        <time>2011-06-04T11:11:02Z</time>
      </trkpt>
      <trkpt lat="45.35874" lon="5.82834">
        <ele>1053.2617188</ele>
        <time>2011-06-04T11:11:07Z</time>
      </trkpt>
      <trkpt lat="45.35876" lon="5.8284">
        <ele>1056.6262207</ele>
        <time>2011-06-04T11:11:10Z</time>
      </trkpt>
      <trkpt lat="45.35875" lon="5.82847">
        <ele>1059.029541</ele>
        <time>2011-06-04T11:11:15Z</time>
      </trkpt>
      <trkpt lat="45.35877" lon="5.8286">
        <ele>1066.2392578</ele>
        <time>2011-06-04T11:11:21Z</time>
      </trkpt>
      <trkpt lat="45.35876" lon="5.82865">
        <ele>1071.5266113</ele>
        <time>2011-06-04T11:11:24Z</time>
      </trkpt>
      <trkpt lat="45.35874" lon="5.82869">
        <ele>1079.217041</ele>
        <time>2011-06-04T11:11:27Z</time>
      </trkpt>
      <trkpt lat="45.35873" lon="5.82873">
        <ele>1082.5817871</ele>
        <time>2011-06-04T11:11:29Z</time>
      </trkpt>
      <trkpt lat="45.35877" lon="5.82882">
        <ele>1080.1784668</ele>
        <time>2011-06-04T11:11:34Z</time>
      </trkpt>
      <trkpt lat="45.35882" lon="5.82891">
        <ele>1073.9299316</ele>
        <time>2011-06-04T11:11:40Z</time>
      </trkpt>
      <trkpt lat="45.35878" lon="5.82901">
        <ele>1079.6977539</ele>
        <time>2011-06-04T11:11:46Z</time>
      </trkpt>
      <trkpt lat="45.35874" lon="5.82905">
        <ele>1081.6203613</ele>
        <time>2011-06-04T11:11:50Z</time>
      </trkpt>
      <trkpt lat="45.35873" lon="5.82907">
        <ele>1077.2946777</ele>
        <time>2011-06-04T11:11:53Z</time>
      </trkpt>
      <trkpt lat="45.35869" lon="5.82915">
        <ele>1075.8525391</ele>
        <time>2011-06-04T11:12:00Z</time>
      </trkpt>
      <trkpt lat="45.35866" lon="5.8292">
        <ele>1076.333252</ele>
        <time>2011-06-04T11:12:04Z</time>
      </trkpt>
      <trkpt lat="45.35863" lon="5.82925">
        <ele>1081.1398926</ele>
        <time>2011-06-04T11:12:08Z</time>
      </trkpt>
      <trkpt lat="45.35862" lon="5.8293">
        <ele>1077.7751465</ele>
        <time>2011-06-04T11:12:11Z</time>
      </trkpt>
      <trkpt lat="45.3586" lon="5.82937">
        <ele>1072.96875</ele>
        <time>2011-06-04T11:12:15Z</time>
      </trkpt>
      <trkpt lat="45.35856" lon="5.82945">
        <ele>1071.5266113</ele>
        <time>2011-06-04T11:12:20Z</time>
      </trkpt>
      <trkpt lat="45.35856" lon="5.82952">
        <ele>1069.604248</ele>
        <time>2011-06-04T11:12:24Z</time>
      </trkpt>
      <trkpt lat="45.35855" lon="5.82962">
        <ele>1069.604248</ele>
        <time>2011-06-04T11:12:29Z</time>
      </trkpt>
      <trkpt lat="45.35852" lon="5.82977">
        <ele>1062.394043</ele>
        <time>2011-06-04T11:12:40Z</time>
      </trkpt>
      <trkpt lat="45.35853" lon="5.82979">
        <ele>1063.8359375</ele>
        <time>2011-06-04T11:12:42Z</time>
      </trkpt>
      <trkpt lat="45.3586" lon="5.82989">
        <ele>1075.3718262</ele>
        <time>2011-06-04T11:12:48Z</time>
      </trkpt>
      <trkpt lat="45.35864" lon="5.82999">
        <ele>1083.5429688</ele>
        <time>2011-06-04T11:12:54Z</time>
      </trkpt>
      <trkpt lat="45.35863" lon="5.83007">
        <ele>1084.0239258</ele>
        <time>2011-06-04T11:13:00Z</time>
      </trkpt>
      <trkpt lat="45.3586" lon="5.83003">
        <ele>1079.6977539</ele>
        <time>2011-06-04T11:13:09Z</time>
      </trkpt>
      <trkpt lat="45.35859" lon="5.83002">
        <ele>1078.2558594</ele>
        <time>2011-06-04T11:13:10Z</time>
      </trkpt>
      <trkpt lat="45.35859" lon="5.83004">
        <ele>1078.7365723</ele>
        <time>2011-06-04T11:13:24Z</time>
      </trkpt>
      <trkpt lat="45.35863" lon="5.82995">
        <ele>1059.5102539</ele>
        <time>2011-06-04T11:13:33Z</time>
      </trkpt>
      <trkpt lat="45.35861" lon="5.83002">
        <ele>1067.2006836</ele>
        <time>2011-06-04T11:13:37Z</time>
      </trkpt>
      <trkpt lat="45.3586" lon="5.83008">
        <ele>1071.5266113</ele>
        <time>2011-06-04T11:13:41Z</time>
      </trkpt>
      <trkpt lat="45.35862" lon="5.83032">
        <ele>1104.6921387</ele>
        <time>2011-06-04T11:13:54Z</time>
      </trkpt>
      <trkpt lat="45.35862" lon="5.83032">
        <ele>1103.730957</ele>
        <time>2011-06-04T11:13:55Z</time>
      </trkpt>
      <trkpt lat="45.3586" lon="5.83038">
        <ele>1106.1340332</ele>
        <time>2011-06-04T11:14:01Z</time>
      </trkpt>
      <trkpt lat="45.35857" lon="5.83045">
        <ele>1117.6699219</ele>
        <time>2011-06-04T11:14:06Z</time>
      </trkpt>
      <trkpt lat="45.35854" lon="5.8305">
        <ele>1119.5927734</ele>
        <time>2011-06-04T11:14:12Z</time>
      </trkpt>
      <trkpt lat="45.35854" lon="5.83047">
        <ele>1103.730957</ele>
        <time>2011-06-04T11:14:19Z</time>
      </trkpt>
      <trkpt lat="45.35852" lon="5.83046">
        <ele>1096.0402832</ele>
        <time>2011-06-04T11:14:27Z</time>
      </trkpt>
      <trkpt lat="45.35845" lon="5.83051">
        <ele>1104.2116699</ele>
        <time>2011-06-04T11:16:12Z</time>
      </trkpt>
      <trkpt lat="45.35852" lon="5.83038">
        <ele>1093.15625</ele>
        <time>2011-06-04T11:16:25Z</time>
      </trkpt>
      <trkpt lat="45.35855" lon="5.83048">
        <ele>1096.0402832</ele>
        <time>2011-06-04T11:16:31Z</time>
      </trkpt>
      <trkpt lat="45.35853" lon="5.83054">
        <ele>1095.0788574</ele>
        <time>2011-06-04T11:16:35Z</time>
      </trkpt>
      <trkpt lat="45.35851" lon="5.83064">
        <ele>1099.885498</ele>
        <time>2011-06-04T11:16:44Z</time>
      </trkpt>
      <trkpt lat="45.35847" lon="5.83069">
        <ele>1107.5761719</ele>
        <time>2011-06-04T11:16:51Z</time>
      </trkpt>
      <trkpt lat="45.35844" lon="5.83076">
        <ele>1105.6535645</ele>
        <time>2011-06-04T11:16:57Z</time>
      </trkpt>
      <trkpt lat="45.35843" lon="5.83084">
        <ele>1096.0402832</ele>
        <time>2011-06-04T11:17:05Z</time>
      </trkpt>
      <trkpt lat="45.35841" lon="5.83091">
        <ele>1090.7529297</ele>
        <time>2011-06-04T11:17:10Z</time>
      </trkpt>
      <trkpt lat="45.35841" lon="5.83094">
        <ele>1087.3884277</ele>
        <time>2011-06-04T11:17:16Z</time>
      </trkpt>
      <trkpt lat="45.35839" lon="5.83099">
        <ele>1092.1950684</ele>
        <time>2011-06-04T11:17:20Z</time>
      </trkpt>
      <trkpt lat="45.35838" lon="5.83105">
        <ele>1095.0788574</ele>
        <time>2011-06-04T11:17:25Z</time>
      </trkpt>
      <trkpt lat="45.35838" lon="5.83112">
        <ele>1093.6369629</ele>
        <time>2011-06-04T11:17:30Z</time>
      </trkpt>
      <trkpt lat="45.35837" lon="5.83118">
        <ele>1097.4821777</ele>
        <time>2011-06-04T11:17:35Z</time>
      </trkpt>
      <trkpt lat="45.35839" lon="5.83126">
        <ele>1100.8469238</ele>
        <time>2011-06-04T11:17:43Z</time>
      </trkpt>
      <trkpt lat="45.35841" lon="5.83129">
        <ele>1094.1176758</ele>
        <time>2011-06-04T11:17:48Z</time>
      </trkpt>
      <trkpt lat="45.35841" lon="5.83142">
        <ele>1097.9628906</ele>
        <time>2011-06-04T11:17:55Z</time>
      </trkpt>
      <trkpt lat="45.35841" lon="5.83149">
        <ele>1101.8083496</ele>
        <time>2011-06-04T11:18:00Z</time>
      </trkpt>
      <trkpt lat="45.3584" lon="5.83152">
        <ele>1100.3664551</ele>
        <time>2011-06-04T11:18:04Z</time>
      </trkpt>
      <trkpt lat="45.3584" lon="5.8316">
        <ele>1100.3664551</ele>
        <time>2011-06-04T11:18:10Z</time>
      </trkpt>
      <trkpt lat="45.35838" lon="5.83165">
        <ele>1097.4821777</ele>
        <time>2011-06-04T11:18:14Z</time>
      </trkpt>
      <trkpt lat="45.35836" lon="5.83174">
        <ele>1100.3664551</ele>
        <time>2011-06-04T11:18:19Z</time>
      </trkpt>
      <trkpt lat="45.35834" lon="5.83177">
        <ele>1103.2502441</ele>
        <time>2011-06-04T11:18:21Z</time>
      </trkpt>
      <trkpt lat="45.35828" lon="5.83184">
        <ele>1108.0568848</ele>
        <time>2011-06-04T11:18:27Z</time>
      </trkpt>
      <trkpt lat="45.35823" lon="5.8319">
        <ele>1111.4213867</ele>
        <time>2011-06-04T11:18:33Z</time>
      </trkpt>
      <trkpt lat="45.3582" lon="5.83192">
        <ele>1113.8244629</ele>
        <time>2011-06-04T11:18:37Z</time>
      </trkpt>
      <trkpt lat="45.35817" lon="5.83193">
        <ele>1113.3439941</ele>
        <time>2011-06-04T11:18:41Z</time>
      </trkpt>
      <trkpt lat="45.35814" lon="5.83196">
        <ele>1115.2666016</ele>
        <time>2011-06-04T11:18:45Z</time>
      </trkpt>
      <trkpt lat="45.35811" lon="5.832">
        <ele>1114.3051758</ele>
        <time>2011-06-04T11:18:50Z</time>
      </trkpt>
      <trkpt lat="45.35808" lon="5.83198">
        <ele>1114.3051758</ele>
        <time>2011-06-04T11:18:54Z</time>
      </trkpt>
      <trkpt lat="45.35808" lon="5.83192">
        <ele>1118.1506348</ele>
        <time>2011-06-04T11:18:58Z</time>
      </trkpt>
      <trkpt lat="45.35807" lon="5.83186">
        <ele>1118.6313477</ele>
        <time>2011-06-04T11:19:05Z</time>
      </trkpt>
      <trkpt lat="45.35805" lon="5.8318">
        <ele>1121.034668</ele>
        <time>2011-06-04T11:19:10Z</time>
      </trkpt>
      <trkpt lat="45.35803" lon="5.83175">
        <ele>1119.5927734</ele>
        <time>2011-06-04T11:19:14Z</time>
      </trkpt>
      <trkpt lat="45.35803" lon="5.83173">
        <ele>1118.6313477</ele>
        <time>2011-06-04T11:19:15Z</time>
      </trkpt>
      <trkpt lat="45.35801" lon="5.83166">
        <ele>1114.3051758</ele>
        <time>2011-06-04T11:19:21Z</time>
      </trkpt>
      <trkpt lat="45.35799" lon="5.83156">
        <ele>1114.3051758</ele>
        <time>2011-06-04T11:19:26Z</time>
      </trkpt>
      <trkpt lat="45.35796" lon="5.83148">
        <ele>1118.1506348</ele>
        <time>2011-06-04T11:19:31Z</time>
      </trkpt>
      <trkpt lat="45.35791" lon="5.83142">
        <ele>1121.9958496</ele>
        <time>2011-06-04T11:19:39Z</time>
      </trkpt>
      <trkpt lat="45.35787" lon="5.8314">
        <ele>1122.9572754</ele>
        <time>2011-06-04T11:19:43Z</time>
      </trkpt>
      <trkpt lat="45.35783" lon="5.83138">
        <ele>1123.4379883</ele>
        <time>2011-06-04T11:19:49Z</time>
      </trkpt>
      <trkpt lat="45.35779" lon="5.83134">
        <ele>1125.8410645</ele>
        <time>2011-06-04T11:19:55Z</time>
      </trkpt>
      <trkpt lat="45.35777" lon="5.83131">
        <ele>1127.7636719</ele>
        <time>2011-06-04T11:19:59Z</time>
      </trkpt>
      <trkpt lat="45.35775" lon="5.83132">
        <ele>1129.6862793</ele>
        <time>2011-06-04T11:20:03Z</time>
      </trkpt>
      <trkpt lat="45.35772" lon="5.83138">
        <ele>1131.6088867</ele>
        <time>2011-06-04T11:20:10Z</time>
      </trkpt>
      <trkpt lat="45.35774" lon="5.8314">
        <ele>1131.6088867</ele>
        <time>2011-06-04T11:20:15Z</time>
      </trkpt>
      <trkpt lat="45.35778" lon="5.83137">
        <ele>1131.128418</ele>
        <time>2011-06-04T11:20:21Z</time>
      </trkpt>
      <trkpt lat="45.35776" lon="5.83137">
        <ele>1131.6088867</ele>
        <time>2011-06-04T11:20:30Z</time>
      </trkpt>
      <trkpt lat="45.35767" lon="5.83139">
        <ele>1136.8962402</ele>
        <time>2011-06-04T11:20:38Z</time>
      </trkpt>
      <trkpt lat="45.35766" lon="5.83139">
        <ele>1136.8962402</ele>
        <time>2011-06-04T11:20:39Z</time>
      </trkpt>
      <trkpt lat="45.35757" lon="5.8314">
        <ele>1132.5705566</ele>
        <time>2011-06-04T11:20:47Z</time>
      </trkpt>
      <trkpt lat="45.35752" lon="5.8314">
        <ele>1131.128418</ele>
        <time>2011-06-04T11:20:53Z</time>
      </trkpt>
      <trkpt lat="45.3575" lon="5.8314">
        <ele>1129.6862793</ele>
        <time>2011-06-04T11:20:55Z</time>
      </trkpt>
      <trkpt lat="45.35743" lon="5.8314">
        <ele>1127.7636719</ele>
        <time>2011-06-04T11:21:00Z</time>
      </trkpt>
      <trkpt lat="45.3574" lon="5.83139">
        <ele>1130.6477051</ele>
        <time>2011-06-04T11:21:04Z</time>
      </trkpt>
      <trkpt lat="45.35734" lon="5.83139">
        <ele>1133.5317383</ele>
        <time>2011-06-04T11:21:12Z</time>
      </trkpt>
      <trkpt lat="45.35729" lon="5.8314">
        <ele>1134.4931641</ele>
        <time>2011-06-04T11:21:18Z</time>
      </trkpt>
      <trkpt lat="45.35725" lon="5.8314">
        <ele>1133.5317383</ele>
        <time>2011-06-04T11:21:23Z</time>
      </trkpt>
      <trkpt lat="45.35719" lon="5.83139">
        <ele>1135.9350586</ele>
        <time>2011-06-04T11:21:30Z</time>
      </trkpt>
      <trkpt lat="45.35711" lon="5.83138">
        <ele>1138.3383789</ele>
        <time>2011-06-04T11:21:38Z</time>
      </trkpt>
      <trkpt lat="45.3571" lon="5.83136">
        <ele>1139.7802734</ele>
        <time>2011-06-04T11:21:42Z</time>
      </trkpt>
      <trkpt lat="45.35708" lon="5.83129">
        <ele>1144.5866699</ele>
        <time>2011-06-04T11:21:53Z</time>
      </trkpt>
      <trkpt lat="45.35708" lon="5.83132">
        <ele>1144.1062012</ele>
        <time>2011-06-04T11:22:01Z</time>
      </trkpt>
      <trkpt lat="45.35705" lon="5.83133">
        <ele>1144.1062012</ele>
        <time>2011-06-04T11:22:06Z</time>
      </trkpt>
      <trkpt lat="45.35704" lon="5.83131">
        <ele>1142.1835938</ele>
        <time>2011-06-04T11:22:11Z</time>
      </trkpt>
      <trkpt lat="45.35697" lon="5.83133">
        <ele>1146.9899902</ele>
        <time>2011-06-04T11:22:19Z</time>
      </trkpt>
      <trkpt lat="45.3569" lon="5.83134">
        <ele>1153.7194824</ele>
        <time>2011-06-04T11:22:25Z</time>
      </trkpt>
      <trkpt lat="45.35686" lon="5.83134">
        <ele>1154.6806641</ele>
        <time>2011-06-04T11:22:29Z</time>
      </trkpt>
      <trkpt lat="45.35681" lon="5.83135">
        <ele>1154.6806641</ele>
        <time>2011-06-04T11:22:34Z</time>
      </trkpt>
      <trkpt lat="45.35678" lon="5.83137">
        <ele>1156.6032715</ele>
        <time>2011-06-04T11:22:36Z</time>
      </trkpt>
      <trkpt lat="45.35669" lon="5.83135">
        <ele>1153.7194824</ele>
        <time>2011-06-04T11:22:44Z</time>
      </trkpt>
      <trkpt lat="45.35666" lon="5.83133">
        <ele>1154.2001953</ele>
        <time>2011-06-04T11:22:47Z</time>
      </trkpt>
      <trkpt lat="45.35663" lon="5.83132">
        <ele>1152.2773438</ele>
        <time>2011-06-04T11:22:49Z</time>
      </trkpt>
      <trkpt lat="45.35657" lon="5.83125">
        <ele>1151.3161621</ele>
        <time>2011-06-04T11:22:55Z</time>
      </trkpt>
      <trkpt lat="45.35652" lon="5.83121">
        <ele>1144.5866699</ele>
        <time>2011-06-04T11:22:59Z</time>
      </trkpt>
      <trkpt lat="45.35651" lon="5.83118">
        <ele>1143.6254883</ele>
        <time>2011-06-04T11:23:02Z</time>
      </trkpt>
      <trkpt lat="45.35651" lon="5.83111">
        <ele>1142.6643066</ele>
        <time>2011-06-04T11:23:07Z</time>
      </trkpt>
      <trkpt lat="45.35646" lon="5.831">
        <ele>1145.0673828</ele>
        <time>2011-06-04T11:23:13Z</time>
      </trkpt>
      <trkpt lat="45.35642" lon="5.83092">
        <ele>1145.5480957</ele>
        <time>2011-06-04T11:23:17Z</time>
      </trkpt>
      <trkpt lat="45.35641" lon="5.83091">
        <ele>1145.5480957</ele>
        <time>2011-06-04T11:23:18Z</time>
      </trkpt>
      <trkpt lat="45.35639" lon="5.83081">
        <ele>1146.5095215</ele>
        <time>2011-06-04T11:23:23Z</time>
      </trkpt>
      <trkpt lat="45.35637" lon="5.83073">
        <ele>1147.4707031</ele>
        <time>2011-06-04T11:23:28Z</time>
      </trkpt>
      <trkpt lat="45.35635" lon="5.83067">
        <ele>1147.951416</ele>
        <time>2011-06-04T11:23:32Z</time>
      </trkpt>
      <trkpt lat="45.35631" lon="5.83057">
        <ele>1148.4321289</ele>
        <time>2011-06-04T11:23:39Z</time>
      </trkpt>
      <trkpt lat="45.35628" lon="5.83053">
        <ele>1149.8742676</ele>
        <time>2011-06-04T11:23:43Z</time>
      </trkpt>
      <trkpt lat="45.3562" lon="5.8305">
        <ele>1151.796875</ele>
        <time>2011-06-04T11:23:49Z</time>
      </trkpt>
      <trkpt lat="45.35617" lon="5.8305">
        <ele>1153.2387695</ele>
        <time>2011-06-04T11:23:52Z</time>
      </trkpt>
      <trkpt lat="45.35608" lon="5.83051">
        <ele>1159.0065918</ele>
        <time>2011-06-04T11:23:59Z</time>
      </trkpt>
      <trkpt lat="45.35601" lon="5.83056">
        <ele>1163.3325195</ele>
        <time>2011-06-04T11:24:06Z</time>
      </trkpt>
      <trkpt lat="45.35599" lon="5.83057">
        <ele>1163.8129883</ele>
        <time>2011-06-04T11:24:08Z</time>
      </trkpt>
      <trkpt lat="45.35594" lon="5.83059">
        <ele>1164.7746582</ele>
        <time>2011-06-04T11:24:13Z</time>
      </trkpt>
      <trkpt lat="45.35593" lon="5.83062">
        <ele>1163.8129883</ele>
        <time>2011-06-04T11:24:18Z</time>
      </trkpt>
      <trkpt lat="45.3559" lon="5.83066">
        <ele>1160.9291992</ele>
        <time>2011-06-04T11:24:23Z</time>
      </trkpt>
      <trkpt lat="45.35587" lon="5.8307">
        <ele>1157.0839844</ele>
        <time>2011-06-04T11:24:28Z</time>
      </trkpt>
      <trkpt lat="45.35578" lon="5.83077">
        <ele>1152.2773438</ele>
        <time>2011-06-04T11:24:36Z</time>
      </trkpt>
      <trkpt lat="45.35574" lon="5.83077">
        <ele>1154.6806641</ele>
        <time>2011-06-04T11:24:38Z</time>
      </trkpt>
      <trkpt lat="45.35564" lon="5.83075">
        <ele>1156.1225586</ele>
        <time>2011-06-04T11:24:44Z</time>
      </trkpt>
      <trkpt lat="45.35559" lon="5.8307">
        <ele>1156.6032715</ele>
        <time>2011-06-04T11:24:48Z</time>
      </trkpt>
      <trkpt lat="45.35556" lon="5.83064">
        <ele>1157.0839844</ele>
        <time>2011-06-04T11:24:52Z</time>
      </trkpt>
      <trkpt lat="45.35553" lon="5.83054">
        <ele>1157.0839844</ele>
        <time>2011-06-04T11:24:58Z</time>
      </trkpt>
      <trkpt lat="45.35551" lon="5.8305">
        <ele>1155.161377</ele>
        <time>2011-06-04T11:25:01Z</time>
      </trkpt>
      <trkpt lat="45.35549" lon="5.83044">
        <ele>1154.6806641</ele>
        <time>2011-06-04T11:25:05Z</time>
      </trkpt>
      <trkpt lat="45.35548" lon="5.83038">
        <ele>1154.6806641</ele>
        <time>2011-06-04T11:25:08Z</time>
      </trkpt>
      <trkpt lat="45.35544" lon="5.83031">
        <ele>1156.1225586</ele>
        <time>2011-06-04T11:25:12Z</time>
      </trkpt>
      <trkpt lat="45.35541" lon="5.83026">
        <ele>1155.161377</ele>
        <time>2011-06-04T11:25:16Z</time>
      </trkpt>
      <trkpt lat="45.35539" lon="5.83023">
        <ele>1155.6420898</ele>
        <time>2011-06-04T11:25:19Z</time>
      </trkpt>
      <trkpt lat="45.35531" lon="5.83018">
        <ele>1154.6806641</ele>
        <time>2011-06-04T11:25:25Z</time>
      </trkpt>
      <trkpt lat="45.35526" lon="5.83014">
        <ele>1156.6032715</ele>
        <time>2011-06-04T11:25:29Z</time>
      </trkpt>
      <trkpt lat="45.35519" lon="5.83009">
        <ele>1157.0839844</ele>
        <time>2011-06-04T11:25:34Z</time>
      </trkpt>
      <trkpt lat="45.35512" lon="5.83006">
        <ele>1157.0839844</ele>
        <time>2011-06-04T11:25:39Z</time>
      </trkpt>
      <trkpt lat="45.35506" lon="5.83002">
        <ele>1157.5646973</ele>
        <time>2011-06-04T11:25:44Z</time>
      </trkpt>
      <trkpt lat="45.355" lon="5.82996">
        <ele>1158.5258789</ele>
        <time>2011-06-04T11:25:49Z</time>
      </trkpt>
      <trkpt lat="45.35497" lon="5.82984">
        <ele>1162.3710938</ele>
        <time>2011-06-04T11:25:56Z</time>
      </trkpt>
      <trkpt lat="45.35495" lon="5.82979">
        <ele>1162.3710938</ele>
        <time>2011-06-04T11:26:00Z</time>
      </trkpt>
      <trkpt lat="45.35488" lon="5.82974">
        <ele>1160.4484863</ele>
        <time>2011-06-04T11:26:05Z</time>
      </trkpt>
      <trkpt lat="45.35484" lon="5.82971">
        <ele>1159.9677734</ele>
        <time>2011-06-04T11:26:07Z</time>
      </trkpt>
      <trkpt lat="45.35472" lon="5.82974">
        <ele>1159.4873047</ele>
        <time>2011-06-04T11:26:12Z</time>
      </trkpt>
      <trkpt lat="45.35459" lon="5.82972">
        <ele>1157.0839844</ele>
        <time>2011-06-04T11:26:17Z</time>
      </trkpt>
      <trkpt lat="45.35456" lon="5.82971">
        <ele>1157.5646973</ele>
        <time>2011-06-04T11:26:18Z</time>
      </trkpt>
      <trkpt lat="45.35443" lon="5.82971">
        <ele>1159.9677734</ele>
        <time>2011-06-04T11:26:22Z</time>
      </trkpt>
      <trkpt lat="45.35427" lon="5.82966">
        <ele>1152.7580566</ele>
        <time>2011-06-04T11:26:28Z</time>
      </trkpt>
      <trkpt lat="45.35417" lon="5.82966">
        <ele>1147.4707031</ele>
        <time>2011-06-04T11:26:32Z</time>
      </trkpt>
      <trkpt lat="45.35399" lon="5.82956">
        <ele>1139.2995605</ele>
        <time>2011-06-04T11:26:40Z</time>
      </trkpt>
      <trkpt lat="45.35395" lon="5.82953">
        <ele>1137.857666</ele>
        <time>2011-06-04T11:26:42Z</time>
      </trkpt>
      <trkpt lat="45.35386" lon="5.8295">
        <ele>1135.9350586</ele>
        <time>2011-06-04T11:26:46Z</time>
      </trkpt>
      <trkpt lat="45.35369" lon="5.82941">
        <ele>1137.3769531</ele>
        <time>2011-06-04T11:26:52Z</time>
      </trkpt>
      <trkpt lat="45.35356" lon="5.82936">
        <ele>1137.3769531</ele>
        <time>2011-06-04T11:26:58Z</time>
      </trkpt>
      <trkpt lat="45.35343" lon="5.82928">
        <ele>1138.8190918</ele>
        <time>2011-06-04T11:27:04Z</time>
      </trkpt>
      <trkpt lat="45.35333" lon="5.82923">
        <ele>1140.2609863</ele>
        <time>2011-06-04T11:27:08Z</time>
      </trkpt>
      <trkpt lat="45.3533" lon="5.82922">
        <ele>1139.7802734</ele>
        <time>2011-06-04T11:27:09Z</time>
      </trkpt>
      <trkpt lat="45.35318" lon="5.82914">
        <ele>1139.2995605</ele>
        <time>2011-06-04T11:27:14Z</time>
      </trkpt>
      <trkpt lat="45.35308" lon="5.82907">
        <ele>1139.7802734</ele>
        <time>2011-06-04T11:27:18Z</time>
      </trkpt>
      <trkpt lat="45.35291" lon="5.82895">
        <ele>1140.7414551</ele>
        <time>2011-06-04T11:27:25Z</time>
      </trkpt>
      <trkpt lat="45.35287" lon="5.82895">
        <ele>1139.2995605</ele>
        <time>2011-06-04T11:27:27Z</time>
      </trkpt>
      <trkpt lat="45.35276" lon="5.82885">
        <ele>1138.3383789</ele>
        <time>2011-06-04T11:27:33Z</time>
      </trkpt>
      <trkpt lat="45.35267" lon="5.82884">
        <ele>1135.9350586</ele>
        <time>2011-06-04T11:27:37Z</time>
      </trkpt>
      <trkpt lat="45.35265" lon="5.82884">
        <ele>1134.973877</ele>
        <time>2011-06-04T11:27:38Z</time>
      </trkpt>
      <trkpt lat="45.35262" lon="5.82883">
        <ele>1134.973877</ele>
        <time>2011-06-04T11:27:40Z</time>
      </trkpt>
      <trkpt lat="45.3526" lon="5.82882">
        <ele>1133.5317383</ele>
        <time>2011-06-04T11:27:46Z</time>
      </trkpt>
      <trkpt lat="45.35259" lon="5.82882">
        <ele>1133.0510254</ele>
        <time>2011-06-04T11:27:47Z</time>
      </trkpt>
      <trkpt lat="45.35247" lon="5.82886">
        <ele>1130.1669922</ele>
        <time>2011-06-04T11:27:54Z</time>
      </trkpt>
      <trkpt lat="45.35241" lon="5.82888">
        <ele>1128.2443848</ele>
        <time>2011-06-04T11:27:57Z</time>
      </trkpt>
      <trkpt lat="45.35236" lon="5.82874">
        <ele>1128.7250977</ele>
        <time>2011-06-04T11:28:03Z</time>
      </trkpt>
      <trkpt lat="45.35226" lon="5.82858">
        <ele>1125.3603516</ele>
        <time>2011-06-04T11:28:09Z</time>
      </trkpt>
      <trkpt lat="45.35213" lon="5.82834">
        <ele>1124.8798828</ele>
        <time>2011-06-04T11:28:16Z</time>
      </trkpt>
      <trkpt lat="45.35203" lon="5.82821">
        <ele>1124.3991699</ele>
        <time>2011-06-04T11:28:21Z</time>
      </trkpt>
      <trkpt lat="45.3519" lon="5.82809">
        <ele>1123.4379883</ele>
        <time>2011-06-04T11:28:26Z</time>
      </trkpt>
      <trkpt lat="45.35177" lon="5.82797">
        <ele>1121.9958496</ele>
        <time>2011-06-04T11:28:31Z</time>
      </trkpt>
      <trkpt lat="45.3517" lon="5.82792">
        <ele>1121.034668</ele>
        <time>2011-06-04T11:28:35Z</time>
      </trkpt>
      <trkpt lat="45.35166" lon="5.82777">
        <ele>1120.0732422</ele>
        <time>2011-06-04T11:28:40Z</time>
      </trkpt>
      <trkpt lat="45.35163" lon="5.82775">
        <ele>1119.5927734</ele>
        <time>2011-06-04T11:28:41Z</time>
      </trkpt>
      <trkpt lat="45.35149" lon="5.82762">
        <ele>1117.6699219</ele>
        <time>2011-06-04T11:28:47Z</time>
      </trkpt>
      <trkpt lat="45.35137" lon="5.82753">
        <ele>1115.2666016</ele>
        <time>2011-06-04T11:28:52Z</time>
      </trkpt>
      <trkpt lat="45.35126" lon="5.82742">
        <ele>1112.8632813</ele>
        <time>2011-06-04T11:28:57Z</time>
      </trkpt>
      <trkpt lat="45.35115" lon="5.82728">
        <ele>1113.3439941</ele>
        <time>2011-06-04T11:29:03Z</time>
      </trkpt>
      <trkpt lat="45.35109" lon="5.82723">
        <ele>1114.3051758</ele>
        <time>2011-06-04T11:29:07Z</time>
      </trkpt>
      <trkpt lat="45.35106" lon="5.8272">
        <ele>1116.2280273</ele>
        <time>2011-06-04T11:29:12Z</time>
      </trkpt>
      <trkpt lat="45.35102" lon="5.82715">
        <ele>1119.1120605</ele>
        <time>2011-06-04T11:29:21Z</time>
      </trkpt>
      <trkpt lat="45.351" lon="5.82714">
        <ele>1121.9958496</ele>
        <time>2011-06-04T11:29:23Z</time>
      </trkpt>
      <trkpt lat="45.35096" lon="5.82713">
        <ele>1123.4379883</ele>
        <time>2011-06-04T11:29:26Z</time>
      </trkpt>
      <trkpt lat="45.35088" lon="5.82711">
        <ele>1121.034668</ele>
        <time>2011-06-04T11:29:32Z</time>
      </trkpt>
      <trkpt lat="45.35077" lon="5.8271">
        <ele>1120.0732422</ele>
        <time>2011-06-04T11:29:38Z</time>
      </trkpt>
      <trkpt lat="45.35073" lon="5.82703">
        <ele>1122.4765625</ele>
        <time>2011-06-04T11:29:42Z</time>
      </trkpt>
      <trkpt lat="45.35068" lon="5.82696">
        <ele>1120.0732422</ele>
        <time>2011-06-04T11:29:47Z</time>
      </trkpt>
      <trkpt lat="45.35061" lon="5.82692">
        <ele>1110.4599609</ele>
        <time>2011-06-04T11:29:53Z</time>
      </trkpt>
      <trkpt lat="45.3506" lon="5.82691">
        <ele>1111.4213867</ele>
        <time>2011-06-04T11:29:54Z</time>
      </trkpt>
      <trkpt lat="45.35053" lon="5.8268">
        <ele>1115.2666016</ele>
        <time>2011-06-04T11:30:01Z</time>
      </trkpt>
      <trkpt lat="45.35053" lon="5.82678">
        <ele>1115.7473145</ele>
        <time>2011-06-04T11:30:02Z</time>
      </trkpt>
      <trkpt lat="45.35049" lon="5.82665">
        <ele>1117.6699219</ele>
        <time>2011-06-04T11:30:08Z</time>
      </trkpt>
      <trkpt lat="45.35046" lon="5.82655">
        <ele>1115.2666016</ele>
        <time>2011-06-04T11:30:14Z</time>
      </trkpt>
      <trkpt lat="45.35043" lon="5.82651">
        <ele>1114.7858887</ele>
        <time>2011-06-04T11:30:18Z</time>
      </trkpt>
      <trkpt lat="45.35042" lon="5.8265">
        <ele>1114.7858887</ele>
        <time>2011-06-04T11:30:19Z</time>
      </trkpt>
      <trkpt lat="45.3504" lon="5.82647">
        <ele>1115.2666016</ele>
        <time>2011-06-04T11:30:21Z</time>
      </trkpt>
      <trkpt lat="45.35034" lon="5.82634">
        <ele>1122.4765625</ele>
        <time>2011-06-04T11:30:27Z</time>
      </trkpt>
      <trkpt lat="45.35031" lon="5.82631">
        <ele>1122.9572754</ele>
        <time>2011-06-04T11:30:29Z</time>
      </trkpt>
      <trkpt lat="45.35027" lon="5.82627">
        <ele>1123.918457</ele>
        <time>2011-06-04T11:30:32Z</time>
      </trkpt>
      <trkpt lat="45.35021" lon="5.82619">
        <ele>1125.8410645</ele>
        <time>2011-06-04T11:30:39Z</time>
      </trkpt>
      <trkpt lat="45.35013" lon="5.82613">
        <ele>1126.8024902</ele>
        <time>2011-06-04T11:30:45Z</time>
      </trkpt>
      <trkpt lat="45.35002" lon="5.82606">
        <ele>1126.3217773</ele>
        <time>2011-06-04T11:30:50Z</time>
      </trkpt>
      <trkpt lat="45.34989" lon="5.82601">
        <ele>1126.8024902</ele>
        <time>2011-06-04T11:30:55Z</time>
      </trkpt>
      <trkpt lat="45.34977" lon="5.82589">
        <ele>1124.8798828</ele>
        <time>2011-06-04T11:31:01Z</time>
      </trkpt>
      <trkpt lat="45.34969" lon="5.82578">
        <ele>1123.4379883</ele>
        <time>2011-06-04T11:31:05Z</time>
      </trkpt>
      <trkpt lat="45.34961" lon="5.82564">
        <ele>1123.4379883</ele>
        <time>2011-06-04T11:31:09Z</time>
      </trkpt>
      <trkpt lat="45.34957" lon="5.82547">
        <ele>1125.3603516</ele>
        <time>2011-06-04T11:31:13Z</time>
      </trkpt>
      <trkpt lat="45.3495" lon="5.82522">
        <ele>1122.9572754</ele>
        <time>2011-06-04T11:31:20Z</time>
      </trkpt>
      <trkpt lat="45.34945" lon="5.82503">
        <ele>1122.9572754</ele>
        <time>2011-06-04T11:31:25Z</time>
      </trkpt>
      <trkpt lat="45.34937" lon="5.82486">
        <ele>1121.5151367</ele>
        <time>2011-06-04T11:31:30Z</time>
      </trkpt>
      <trkpt lat="45.34925" lon="5.82468">
        <ele>1117.6699219</ele>
        <time>2011-06-04T11:31:36Z</time>
      </trkpt>
      <trkpt lat="45.34917" lon="5.8246">
        <ele>1115.7473145</ele>
        <time>2011-06-04T11:31:40Z</time>
      </trkpt>
      <trkpt lat="45.34906" lon="5.82448">
        <ele>1112.8632813</ele>
        <time>2011-06-04T11:31:45Z</time>
      </trkpt>
      <trkpt lat="45.34894" lon="5.82437">
        <ele>1109.979248</ele>
        <time>2011-06-04T11:31:50Z</time>
      </trkpt>
      <trkpt lat="45.34883" lon="5.8243">
        <ele>1108.5373535</ele>
        <time>2011-06-04T11:31:54Z</time>
      </trkpt>
      <trkpt lat="45.34871" lon="5.82417">
        <ele>1104.6921387</ele>
        <time>2011-06-04T11:31:59Z</time>
      </trkpt>
      <trkpt lat="45.34858" lon="5.82407">
        <ele>1102.7695313</ele>
        <time>2011-06-04T11:32:04Z</time>
      </trkpt>
      <trkpt lat="45.34842" lon="5.82397">
        <ele>1103.730957</ele>
        <time>2011-06-04T11:32:10Z</time>
      </trkpt>
      <trkpt lat="45.34835" lon="5.8239">
        <ele>1102.7695313</ele>
        <time>2011-06-04T11:32:13Z</time>
      </trkpt>
      <trkpt lat="45.34822" lon="5.82381">
        <ele>1102.7695313</ele>
        <time>2011-06-04T11:32:18Z</time>
      </trkpt>
      <trkpt lat="45.34812" lon="5.82373">
        <ele>1104.2116699</ele>
        <time>2011-06-04T11:32:22Z</time>
      </trkpt>
      <trkpt lat="45.34798" lon="5.8236">
        <ele>1104.6921387</ele>
        <time>2011-06-04T11:32:28Z</time>
      </trkpt>
      <trkpt lat="45.34785" lon="5.82354">
        <ele>1104.2116699</ele>
        <time>2011-06-04T11:32:33Z</time>
      </trkpt>
      <trkpt lat="45.34771" lon="5.82357">
        <ele>1103.730957</ele>
        <time>2011-06-04T11:32:38Z</time>
      </trkpt>
      <trkpt lat="45.34755" lon="5.8236">
        <ele>1104.2116699</ele>
        <time>2011-06-04T11:32:43Z</time>
      </trkpt>
      <trkpt lat="45.34743" lon="5.82361">
        <ele>1103.2502441</ele>
        <time>2011-06-04T11:32:48Z</time>
      </trkpt>
      <trkpt lat="45.3473" lon="5.82365">
        <ele>1100.3664551</ele>
        <time>2011-06-04T11:32:53Z</time>
      </trkpt>
      <trkpt lat="45.34717" lon="5.82372">
        <ele>1097.4821777</ele>
        <time>2011-06-04T11:32:58Z</time>
      </trkpt>
      <trkpt lat="45.34705" lon="5.82379">
        <ele>1094.1176758</ele>
        <time>2011-06-04T11:33:03Z</time>
      </trkpt>
      <trkpt lat="45.34695" lon="5.82384">
        <ele>1090.2724609</ele>
        <time>2011-06-04T11:33:07Z</time>
      </trkpt>
      <trkpt lat="45.34676" lon="5.82386">
        <ele>1084.5046387</ele>
        <time>2011-06-04T11:33:13Z</time>
      </trkpt>
      <trkpt lat="45.34657" lon="5.8238">
        <ele>1080.6591797</ele>
        <time>2011-06-04T11:33:19Z</time>
      </trkpt>
      <trkpt lat="45.34642" lon="5.82371">
        <ele>1081.1398926</ele>
        <time>2011-06-04T11:33:25Z</time>
      </trkpt>
      <trkpt lat="45.34626" lon="5.82364">
        <ele>1082.1010742</ele>
        <time>2011-06-04T11:33:30Z</time>
      </trkpt>
      <trkpt lat="45.34623" lon="5.82363">
        <ele>1082.1010742</ele>
        <time>2011-06-04T11:33:32Z</time>
      </trkpt>
      <trkpt lat="45.34612" lon="5.82363">
        <ele>1082.1010742</ele>
        <time>2011-06-04T11:33:37Z</time>
      </trkpt>
      <trkpt lat="45.34596" lon="5.82363">
        <ele>1080.6591797</ele>
        <time>2011-06-04T11:33:43Z</time>
      </trkpt>
      <trkpt lat="45.34583" lon="5.82354">
        <ele>1076.333252</ele>
        <time>2011-06-04T11:33:48Z</time>
      </trkpt>
      <trkpt lat="45.34574" lon="5.82344">
        <ele>1078.2558594</ele>
        <time>2011-06-04T11:33:52Z</time>
      </trkpt>
      <trkpt lat="45.3456" lon="5.82336">
        <ele>1075.3718262</ele>
        <time>2011-06-04T11:33:57Z</time>
      </trkpt>
      <trkpt lat="45.34545" lon="5.82338">
        <ele>1074.4106445</ele>
        <time>2011-06-04T11:34:02Z</time>
      </trkpt>
      <trkpt lat="45.34533" lon="5.82339">
        <ele>1074.8913574</ele>
        <time>2011-06-04T11:34:07Z</time>
      </trkpt>
      <trkpt lat="45.3452" lon="5.82338">
        <ele>1074.8913574</ele>
        <time>2011-06-04T11:34:12Z</time>
      </trkpt>
      <trkpt lat="45.34507" lon="5.82334">
        <ele>1076.333252</ele>
        <time>2011-06-04T11:34:17Z</time>
      </trkpt>
      <trkpt lat="45.34503" lon="5.82331">
        <ele>1078.2558594</ele>
        <time>2011-06-04T11:34:21Z</time>
      </trkpt>
      <trkpt lat="45.34498" lon="5.82328">
        <ele>1079.6977539</ele>
        <time>2011-06-04T11:34:27Z</time>
      </trkpt>
      <trkpt lat="45.34493" lon="5.82326">
        <ele>1080.6591797</ele>
        <time>2011-06-04T11:34:34Z</time>
      </trkpt>
      <trkpt lat="45.34493" lon="5.82324">
        <ele>1080.1784668</ele>
        <time>2011-06-04T11:34:44Z</time>
      </trkpt>
      <trkpt lat="45.34494" lon="5.82322">
        <ele>1080.6591797</ele>
        <time>2011-06-04T11:34:55Z</time>
      </trkpt>
      <trkpt lat="45.34494" lon="5.82313">
        <ele>1081.6203613</ele>
        <time>2011-06-04T11:35:06Z</time>
      </trkpt>
      <trkpt lat="45.34494" lon="5.82311">
        <ele>1080.6591797</ele>
        <time>2011-06-04T11:35:07Z</time>
      </trkpt>
      <trkpt lat="45.34491" lon="5.82302">
        <ele>1077.7751465</ele>
        <time>2011-06-04T11:35:12Z</time>
      </trkpt>
      <trkpt lat="45.34491" lon="5.82299">
        <ele>1076.8139648</ele>
        <time>2011-06-04T11:35:13Z</time>
      </trkpt>
      <trkpt lat="45.34489" lon="5.82281">
        <ele>1072.0073242</ele>
        <time>2011-06-04T11:35:19Z</time>
      </trkpt>
      <trkpt lat="45.34494" lon="5.82256">
        <ele>1064.3166504</ele>
        <time>2011-06-04T11:35:26Z</time>
      </trkpt>
      <trkpt lat="45.34496" lon="5.82244">
        <ele>1060.9521484</ele>
        <time>2011-06-04T11:35:30Z</time>
      </trkpt>
      <trkpt lat="45.34495" lon="5.82226">
        <ele>1057.1069336</ele>
        <time>2011-06-04T11:35:35Z</time>
      </trkpt>
      <trkpt lat="45.34487" lon="5.82212">
        <ele>1055.1843262</ele>
        <time>2011-06-04T11:35:39Z</time>
      </trkpt>
      <trkpt lat="45.34476" lon="5.82193">
        <ele>1055.1843262</ele>
        <time>2011-06-04T11:35:45Z</time>
      </trkpt>
      <trkpt lat="45.34471" lon="5.82179">
        <ele>1053.7424316</ele>
        <time>2011-06-04T11:35:49Z</time>
      </trkpt>
      <trkpt lat="45.34462" lon="5.82165">
        <ele>1051.8195801</ele>
        <time>2011-06-04T11:35:53Z</time>
      </trkpt>
      <trkpt lat="45.34447" lon="5.82155">
        <ele>1048.454834</ele>
        <time>2011-06-04T11:35:59Z</time>
      </trkpt>
      <trkpt lat="45.34438" lon="5.82143">
        <ele>1043.1677246</ele>
        <time>2011-06-04T11:36:04Z</time>
      </trkpt>
      <trkpt lat="45.3443" lon="5.8213">
        <ele>1038.842041</ele>
        <time>2011-06-04T11:36:09Z</time>
      </trkpt>
      <trkpt lat="45.34425" lon="5.82125">
        <ele>1036.4387207</ele>
        <time>2011-06-04T11:36:12Z</time>
      </trkpt>
      <trkpt lat="45.34415" lon="5.82111">
        <ele>1031.1513672</ele>
        <time>2011-06-04T11:36:17Z</time>
      </trkpt>
      <trkpt lat="45.34406" lon="5.82095">
        <ele>1025.8640137</ele>
        <time>2011-06-04T11:36:22Z</time>
      </trkpt>
      <trkpt lat="45.34393" lon="5.82082">
        <ele>1025.8640137</ele>
        <time>2011-06-04T11:36:27Z</time>
      </trkpt>
      <trkpt lat="45.34378" lon="5.82071">
        <ele>1024.902832</ele>
        <time>2011-06-04T11:36:32Z</time>
      </trkpt>
      <trkpt lat="45.34361" lon="5.82055">
        <ele>1022.9802246</ele>
        <time>2011-06-04T11:36:37Z</time>
      </trkpt>
      <trkpt lat="45.3435" lon="5.82044">
        <ele>1019.1347656</ele>
        <time>2011-06-04T11:36:41Z</time>
      </trkpt>
      <trkpt lat="45.34335" lon="5.82037">
        <ele>1016.7314453</ele>
        <time>2011-06-04T11:36:44Z</time>
      </trkpt>
      <trkpt lat="45.34331" lon="5.82035">
        <ele>1015.7702637</ele>
        <time>2011-06-04T11:36:45Z</time>
      </trkpt>
      <trkpt lat="45.34319" lon="5.82026">
        <ele>1013.3669434</ele>
        <time>2011-06-04T11:36:48Z</time>
      </trkpt>
      <trkpt lat="45.34313" lon="5.82021">
        <ele>1011.4443359</ele>
        <time>2011-06-04T11:36:50Z</time>
      </trkpt>
      <trkpt lat="45.34295" lon="5.82004">
        <ele>1007.5991211</ele>
        <time>2011-06-04T11:36:56Z</time>
      </trkpt>
      <trkpt lat="45.34296" lon="5.81999">
        <ele>1006.6376953</ele>
        <time>2011-06-04T11:36:58Z</time>
      </trkpt>
      <trkpt lat="45.34295" lon="5.81995">
        <ele>1002.7922363</ele>
        <time>2011-06-04T11:37:03Z</time>
      </trkpt>
      <trkpt lat="45.34297" lon="5.81988">
        <ele>1000.3891602</ele>
        <time>2011-06-04T11:37:07Z</time>
      </trkpt>
      <trkpt lat="45.34287" lon="5.81991">
        <ele>997.0244141</ele>
        <time>2011-06-04T11:37:13Z</time>
      </trkpt>
      <trkpt lat="45.34278" lon="5.81998">
        <ele>993.1791992</ele>
        <time>2011-06-04T11:37:18Z</time>
      </trkpt>
      <trkpt lat="45.34265" lon="5.82011">
        <ele>992.2180176</ele>
        <time>2011-06-04T11:37:23Z</time>
      </trkpt>
      <trkpt lat="45.34259" lon="5.82013">
        <ele>991.2565918</ele>
        <time>2011-06-04T11:37:26Z</time>
      </trkpt>
      <trkpt lat="45.34265" lon="5.82001">
        <ele>988.8535156</ele>
        <time>2011-06-04T11:37:31Z</time>
      </trkpt>
      <trkpt lat="45.34268" lon="5.81991">
        <ele>985.4885254</ele>
        <time>2011-06-04T11:37:34Z</time>
      </trkpt>
      <trkpt lat="45.34278" lon="5.81973">
        <ele>979.7207031</ele>
        <time>2011-06-04T11:37:40Z</time>
      </trkpt>
      <trkpt lat="45.34286" lon="5.81957">
        <ele>978.7595215</ele>
        <time>2011-06-04T11:37:44Z</time>
      </trkpt>
      <trkpt lat="45.34298" lon="5.81943">
        <ele>979.2399902</ele>
        <time>2011-06-04T11:37:49Z</time>
      </trkpt>
      <trkpt lat="45.3431" lon="5.81933">
        <ele>979.2399902</ele>
        <time>2011-06-04T11:37:53Z</time>
      </trkpt>
      <trkpt lat="45.34322" lon="5.81929">
        <ele>981.1628418</ele>
        <time>2011-06-04T11:37:57Z</time>
      </trkpt>
      <trkpt lat="45.34343" lon="5.8193">
        <ele>982.6047363</ele>
        <time>2011-06-04T11:38:04Z</time>
      </trkpt>
      <trkpt lat="45.34356" lon="5.81928">
        <ele>983.0852051</ele>
        <time>2011-06-04T11:38:09Z</time>
      </trkpt>
      <trkpt lat="45.34371" lon="5.81923">
        <ele>981.1628418</ele>
        <time>2011-06-04T11:38:15Z</time>
      </trkpt>
      <trkpt lat="45.34379" lon="5.81918">
        <ele>978.7595215</ele>
        <time>2011-06-04T11:38:18Z</time>
      </trkpt>
      <trkpt lat="45.34385" lon="5.81916">
        <ele>974.9143066</ele>
        <time>2011-06-04T11:38:21Z</time>
      </trkpt>
      <trkpt lat="45.34397" lon="5.81916">
        <ele>967.2236328</ele>
        <time>2011-06-04T11:38:26Z</time>
      </trkpt>
      <trkpt lat="45.34403" lon="5.819">
        <ele>958.5717773</ele>
        <time>2011-06-04T11:38:32Z</time>
      </trkpt>
      <trkpt lat="45.34402" lon="5.81897">
        <ele>958.0913086</ele>
        <time>2011-06-04T11:38:33Z</time>
      </trkpt>
      <trkpt lat="45.344" lon="5.8189">
        <ele>956.168457</ele>
        <time>2011-06-04T11:38:35Z</time>
      </trkpt>
      <trkpt lat="45.34404" lon="5.81872">
        <ele>948.4777832</ele>
        <time>2011-06-04T11:38:40Z</time>
      </trkpt>
      <trkpt lat="45.34409" lon="5.81858">
        <ele>941.2680664</ele>
        <time>2011-06-04T11:38:44Z</time>
      </trkpt>
      <trkpt lat="45.34408" lon="5.81831">
        <ele>941.7487793</ele>
        <time>2011-06-04T11:38:50Z</time>
      </trkpt>
      <trkpt lat="45.34404" lon="5.81814">
        <ele>939.8259277</ele>
        <time>2011-06-04T11:38:54Z</time>
      </trkpt>
      <trkpt lat="45.34405" lon="5.81797">
        <ele>935.0195313</ele>
        <time>2011-06-04T11:38:59Z</time>
      </trkpt>
      <trkpt lat="45.34401" lon="5.81784">
        <ele>935.0195313</ele>
        <time>2011-06-04T11:39:02Z</time>
      </trkpt>
      <trkpt lat="45.34397" lon="5.81778">
        <ele>935.9807129</ele>
        <time>2011-06-04T11:39:04Z</time>
      </trkpt>
      <trkpt lat="45.3439" lon="5.81755">
        <ele>928.2902832</ele>
        <time>2011-06-04T11:39:10Z</time>
      </trkpt>
      <trkpt lat="45.3439" lon="5.8174">
        <ele>921.560791</ele>
        <time>2011-06-04T11:39:15Z</time>
      </trkpt>
      <trkpt lat="45.34387" lon="5.81718">
        <ele>923.4836426</ele>
        <time>2011-06-04T11:39:20Z</time>
      </trkpt>
      <trkpt lat="45.34384" lon="5.81702">
        <ele>921.560791</ele>
        <time>2011-06-04T11:39:25Z</time>
      </trkpt>
      <trkpt lat="45.34384" lon="5.81699">
        <ele>920.5996094</ele>
        <time>2011-06-04T11:39:26Z</time>
      </trkpt>
      <trkpt lat="45.3438" lon="5.8169">
        <ele>918.677002</ele>
        <time>2011-06-04T11:39:30Z</time>
      </trkpt>
      <trkpt lat="45.34378" lon="5.81676">
        <ele>915.3125</ele>
        <time>2011-06-04T11:39:34Z</time>
      </trkpt>
      <trkpt lat="45.34376" lon="5.81651">
        <ele>907.6218262</ele>
        <time>2011-06-04T11:39:40Z</time>
      </trkpt>
      <trkpt lat="45.34376" lon="5.81633">
        <ele>902.8151855</ele>
        <time>2011-06-04T11:39:44Z</time>
      </trkpt>
      <trkpt lat="45.34373" lon="5.81626">
        <ele>901.373291</ele>
        <time>2011-06-04T11:39:50Z</time>
      </trkpt>
      <trkpt lat="45.34372" lon="5.81626">
        <ele>901.373291</ele>
        <time>2011-06-04T11:39:51Z</time>
      </trkpt>
      <trkpt lat="45.3437" lon="5.81629">
        <ele>901.8540039</ele>
        <time>2011-06-04T11:39:54Z</time>
      </trkpt>
      <trkpt lat="45.34367" lon="5.81633">
        <ele>902.8151855</ele>
        <time>2011-06-04T11:40:00Z</time>
      </trkpt>
      <trkpt lat="45.34366" lon="5.81632">
        <ele>903.2958984</ele>
        <time>2011-06-04T11:40:06Z</time>
      </trkpt>
      <trkpt lat="45.34367" lon="5.81633">
        <ele>905.6992188</ele>
        <time>2011-06-04T11:40:25Z</time>
      </trkpt>
      <trkpt lat="45.34366" lon="5.81635">
        <ele>906.1796875</ele>
        <time>2011-06-04T11:41:14Z</time>
      </trkpt>
      <trkpt lat="45.34367" lon="5.81633">
        <ele>903.7766113</ele>
        <time>2011-06-04T11:41:43Z</time>
      </trkpt>
      <trkpt lat="45.34366" lon="5.81634">
        <ele>902.3344727</ele>
        <time>2011-06-04T11:41:50Z</time>
      </trkpt>
      <trkpt lat="45.34368" lon="5.8163">
        <ele>901.373291</ele>
        <time>2011-06-04T11:41:54Z</time>
      </trkpt>
      <trkpt lat="45.34361" lon="5.81619">
        <ele>900.8925781</ele>
        <time>2011-06-04T11:41:59Z</time>
      </trkpt>
      <trkpt lat="45.34357" lon="5.81615">
        <ele>901.8540039</ele>
        <time>2011-06-04T11:42:01Z</time>
      </trkpt>
      <trkpt lat="45.34343" lon="5.81608">
        <ele>904.2573242</ele>
        <time>2011-06-04T11:42:07Z</time>
      </trkpt>
      <trkpt lat="45.34334" lon="5.81604">
        <ele>907.1411133</ele>
        <time>2011-06-04T11:42:12Z</time>
      </trkpt>
      <trkpt lat="45.34323" lon="5.81603">
        <ele>909.0639648</ele>
        <time>2011-06-04T11:42:17Z</time>
      </trkpt>
      <trkpt lat="45.3431" lon="5.81602">
        <ele>911.947998</ele>
        <time>2011-06-04T11:42:22Z</time>
      </trkpt>
      <trkpt lat="45.34303" lon="5.81602">
        <ele>913.3898926</ele>
        <time>2011-06-04T11:42:25Z</time>
      </trkpt>
      <trkpt lat="45.343" lon="5.81601">
        <ele>913.3898926</ele>
        <time>2011-06-04T11:42:26Z</time>
      </trkpt>
      <trkpt lat="45.34288" lon="5.81601">
        <ele>913.3898926</ele>
        <time>2011-06-04T11:42:31Z</time>
      </trkpt>
      <trkpt lat="45.34277" lon="5.81604">
        <ele>910.9865723</ele>
        <time>2011-06-04T11:42:35Z</time>
      </trkpt>
      <trkpt lat="45.34263" lon="5.81609">
        <ele>906.6604004</ele>
        <time>2011-06-04T11:42:41Z</time>
      </trkpt>
      <trkpt lat="45.34249" lon="5.81612">
        <ele>904.2573242</ele>
        <time>2011-06-04T11:42:46Z</time>
      </trkpt>
    </trkseg>
  </trk>
</gpx>